<?xml version="1.0" encoding="UTF-8" standalone="no" ?>
<gpx xmlns="http://www.topografix.com/GPX/1/1" xmlns:xsi="http://www.w3.org/2001/XMLSchema-instance" xsi:schemaLocation="http://www.topografix.com/GPX/1/1 http://www.topografix.com/GPX/1/1/gpx.xsd" version="1.1" creator="VisuGPX - https://www.visugpx.com">
  <metadata>
    <name>Tapou par la cabane de Lourdes</name>
    <desc><![CDATA[[url]https://picasaweb.google.com/christian65000/Tapou#[/url]
[img]https://lh3.googleusercontent.com/-2tQfZy6jfps/Ub1W-IfhIyI/AAAAAAAAMP8/c19TvZfCiu4/s576/2013.06.15%2520Tapou%2520006.jpg[/img]]]></desc>
  </metadata>
  <trk>
    <name><![CDATA[Tapou par la cabane de Lourdes]]></name>
    <trkseg>
      <trkpt lat="42.74576" lon="-0.03305">
        <ele>1449</ele>
        <time>2013-06-14T14:58:43Z</time>
      </trkpt>
      <trkpt lat="42.7458" lon="-0.03306">
        <ele>1454</ele>
        <time>2013-06-14T14:58:45Z</time>
      </trkpt>
      <trkpt lat="42.74582" lon="-0.03307">
        <ele>1458</ele>
        <time>2013-06-14T14:58:47Z</time>
      </trkpt>
      <trkpt lat="42.74586" lon="-0.03307">
        <ele>1463</ele>
        <time>2013-06-14T14:58:49Z</time>
      </trkpt>
      <trkpt lat="42.74585" lon="-0.03307">
        <ele>1467</ele>
        <time>2013-06-14T14:58:51Z</time>
      </trkpt>
      <trkpt lat="42.74584" lon="-0.03307">
        <ele>1471</ele>
        <time>2013-06-14T14:58:54Z</time>
      </trkpt>
      <trkpt lat="42.74585" lon="-0.03307">
        <ele>1474</ele>
        <time>2013-06-14T14:58:56Z</time>
      </trkpt>
      <trkpt lat="42.74587" lon="-0.03308">
        <ele>1478</ele>
        <time>2013-06-14T14:58:59Z</time>
      </trkpt>
      <trkpt lat="42.74589" lon="-0.0331">
        <ele>1482</ele>
        <time>2013-06-14T14:59:02Z</time>
      </trkpt>
      <trkpt lat="42.74589" lon="-0.03311">
        <ele>1484</ele>
        <time>2013-06-14T14:59:04Z</time>
      </trkpt>
      <trkpt lat="42.74589" lon="-0.0331">
        <ele>1485</ele>
        <time>2013-06-14T14:59:07Z</time>
      </trkpt>
      <trkpt lat="42.74589" lon="-0.03322">
        <ele>1488</ele>
        <time>2013-06-14T14:59:13Z</time>
      </trkpt>
      <trkpt lat="42.74589" lon="-0.03325">
        <ele>1488</ele>
        <time>2013-06-14T14:59:14Z</time>
      </trkpt>
      <trkpt lat="42.74591" lon="-0.03337">
        <ele>1493</ele>
        <time>2013-06-14T14:59:21Z</time>
      </trkpt>
      <trkpt lat="42.7459" lon="-0.03346">
        <ele>1493</ele>
        <time>2013-06-14T14:59:26Z</time>
      </trkpt>
      <trkpt lat="42.74595" lon="-0.03365">
        <ele>1493</ele>
        <time>2013-06-14T14:59:37Z</time>
      </trkpt>
      <trkpt lat="42.74598" lon="-0.03376">
        <ele>1494</ele>
        <time>2013-06-14T14:59:45Z</time>
      </trkpt>
      <trkpt lat="42.74599" lon="-0.03379">
        <ele>1493</ele>
        <time>2013-06-14T14:59:47Z</time>
      </trkpt>
      <trkpt lat="42.74604" lon="-0.03385">
        <ele>1494</ele>
        <time>2013-06-14T14:59:54Z</time>
      </trkpt>
      <trkpt lat="42.74605" lon="-0.03388">
        <ele>1494</ele>
        <time>2013-06-14T14:59:56Z</time>
      </trkpt>
      <trkpt lat="42.74608" lon="-0.03391">
        <ele>1494</ele>
        <time>2013-06-14T14:59:59Z</time>
      </trkpt>
      <trkpt lat="42.74615" lon="-0.03403">
        <ele>1494</ele>
        <time>2013-06-14T15:00:08Z</time>
      </trkpt>
      <trkpt lat="42.74625" lon="-0.03428">
        <ele>1496</ele>
        <time>2013-06-14T15:00:25Z</time>
      </trkpt>
      <trkpt lat="42.74629" lon="-0.0344">
        <ele>1496</ele>
        <time>2013-06-14T15:00:33Z</time>
      </trkpt>
      <trkpt lat="42.74634" lon="-0.03452">
        <ele>1497</ele>
        <time>2013-06-14T15:00:41Z</time>
      </trkpt>
      <trkpt lat="42.74639" lon="-0.03462">
        <ele>1498</ele>
        <time>2013-06-14T15:00:49Z</time>
      </trkpt>
      <trkpt lat="42.7464" lon="-0.0347">
        <ele>1498</ele>
        <time>2013-06-14T15:00:55Z</time>
      </trkpt>
      <trkpt lat="42.74641" lon="-0.03475">
        <ele>1499</ele>
        <time>2013-06-14T15:00:58Z</time>
      </trkpt>
      <trkpt lat="42.74645" lon="-0.03491">
        <ele>1500</ele>
        <time>2013-06-14T15:01:07Z</time>
      </trkpt>
      <trkpt lat="42.74647" lon="-0.03503">
        <ele>1500</ele>
        <time>2013-06-14T15:01:14Z</time>
      </trkpt>
      <trkpt lat="42.74647" lon="-0.03517">
        <ele>1501</ele>
        <time>2013-06-14T15:01:23Z</time>
      </trkpt>
      <trkpt lat="42.74648" lon="-0.03529">
        <ele>1501</ele>
        <time>2013-06-14T15:01:31Z</time>
      </trkpt>
      <trkpt lat="42.74649" lon="-0.03542">
        <ele>1501</ele>
        <time>2013-06-14T15:01:40Z</time>
      </trkpt>
      <trkpt lat="42.74652" lon="-0.03546">
        <ele>1501</ele>
        <time>2013-06-14T15:01:47Z</time>
      </trkpt>
      <trkpt lat="42.74655" lon="-0.03564">
        <ele>1501</ele>
        <time>2013-06-14T15:01:58Z</time>
      </trkpt>
      <trkpt lat="42.74658" lon="-0.03585">
        <ele>1503</ele>
        <time>2013-06-14T15:02:15Z</time>
      </trkpt>
      <trkpt lat="42.74656" lon="-0.03595">
        <ele>1503</ele>
        <time>2013-06-14T15:02:26Z</time>
      </trkpt>
      <trkpt lat="42.74662" lon="-0.03651">
        <ele>1500</ele>
        <time>2013-06-14T15:06:31Z</time>
      </trkpt>
      <trkpt lat="42.74663" lon="-0.03655">
        <ele>1501</ele>
        <time>2013-06-14T15:06:39Z</time>
      </trkpt>
      <trkpt lat="42.7466" lon="-0.03657">
        <ele>1502</ele>
        <time>2013-06-14T15:06:47Z</time>
      </trkpt>
      <trkpt lat="42.74659" lon="-0.03659">
        <ele>1504</ele>
        <time>2013-06-14T15:06:56Z</time>
      </trkpt>
      <trkpt lat="42.74661" lon="-0.03656">
        <ele>1505</ele>
        <time>2013-06-14T15:07:03Z</time>
      </trkpt>
      <trkpt lat="42.74663" lon="-0.03655">
        <ele>1506</ele>
        <time>2013-06-14T15:07:10Z</time>
      </trkpt>
      <trkpt lat="42.74664" lon="-0.03661">
        <ele>1507</ele>
        <time>2013-06-14T15:07:18Z</time>
      </trkpt>
      <trkpt lat="42.74665" lon="-0.03667">
        <ele>1507</ele>
        <time>2013-06-14T15:07:25Z</time>
      </trkpt>
      <trkpt lat="42.74665" lon="-0.0367">
        <ele>1507</ele>
        <time>2013-06-14T15:07:32Z</time>
      </trkpt>
      <trkpt lat="42.74668" lon="-0.0368">
        <ele>1510</ele>
        <time>2013-06-14T15:07:57Z</time>
      </trkpt>
      <trkpt lat="42.74671" lon="-0.03679">
        <ele>1511</ele>
        <time>2013-06-14T15:08:05Z</time>
      </trkpt>
      <trkpt lat="42.74675" lon="-0.03677">
        <ele>1511</ele>
        <time>2013-06-14T15:08:14Z</time>
      </trkpt>
      <trkpt lat="42.74671" lon="-0.03673">
        <ele>1515</ele>
        <time>2013-06-14T15:11:48Z</time>
      </trkpt>
      <trkpt lat="42.74679" lon="-0.0369">
        <ele>1514</ele>
        <time>2013-06-14T15:12:03Z</time>
      </trkpt>
      <trkpt lat="42.7468" lon="-0.03692">
        <ele>1515</ele>
        <time>2013-06-14T15:12:10Z</time>
      </trkpt>
      <trkpt lat="42.74679" lon="-0.03694">
        <ele>1515</ele>
        <time>2013-06-14T15:12:17Z</time>
      </trkpt>
      <trkpt lat="42.74679" lon="-0.03703">
        <ele>1515</ele>
        <time>2013-06-14T15:12:27Z</time>
      </trkpt>
      <trkpt lat="42.74683" lon="-0.03706">
        <ele>1516</ele>
        <time>2013-06-14T15:12:38Z</time>
      </trkpt>
      <trkpt lat="42.74687" lon="-0.03714">
        <ele>1517</ele>
        <time>2013-06-14T15:12:47Z</time>
      </trkpt>
      <trkpt lat="42.74688" lon="-0.03716">
        <ele>1517</ele>
        <time>2013-06-14T15:12:49Z</time>
      </trkpt>
      <trkpt lat="42.7469" lon="-0.03723">
        <ele>1517</ele>
        <time>2013-06-14T15:12:56Z</time>
      </trkpt>
      <trkpt lat="42.74694" lon="-0.03736">
        <ele>1519</ele>
        <time>2013-06-14T15:13:06Z</time>
      </trkpt>
      <trkpt lat="42.74696" lon="-0.0374">
        <ele>1519</ele>
        <time>2013-06-14T15:13:11Z</time>
      </trkpt>
      <trkpt lat="42.74699" lon="-0.03746">
        <ele>1519</ele>
        <time>2013-06-14T15:13:17Z</time>
      </trkpt>
      <trkpt lat="42.74704" lon="-0.03754">
        <ele>1520</ele>
        <time>2013-06-14T15:13:26Z</time>
      </trkpt>
      <trkpt lat="42.74709" lon="-0.0376">
        <ele>1522</ele>
        <time>2013-06-14T15:13:33Z</time>
      </trkpt>
      <trkpt lat="42.74714" lon="-0.03768">
        <ele>1522</ele>
        <time>2013-06-14T15:13:41Z</time>
      </trkpt>
      <trkpt lat="42.74715" lon="-0.03769">
        <ele>1523</ele>
        <time>2013-06-14T15:13:50Z</time>
      </trkpt>
      <trkpt lat="42.74716" lon="-0.03775">
        <ele>1523</ele>
        <time>2013-06-14T15:14:08Z</time>
      </trkpt>
      <trkpt lat="42.74714" lon="-0.03774">
        <ele>1522</ele>
        <time>2013-06-14T15:14:14Z</time>
      </trkpt>
      <trkpt lat="42.74716" lon="-0.03772">
        <ele>1522</ele>
        <time>2013-06-14T15:14:16Z</time>
      </trkpt>
      <trkpt lat="42.7472" lon="-0.03772">
        <ele>1523</ele>
        <time>2013-06-14T15:14:20Z</time>
      </trkpt>
      <trkpt lat="42.74727" lon="-0.03773">
        <ele>1524</ele>
        <time>2013-06-14T15:14:29Z</time>
      </trkpt>
      <trkpt lat="42.74734" lon="-0.03776">
        <ele>1525</ele>
        <time>2013-06-14T15:14:36Z</time>
      </trkpt>
      <trkpt lat="42.74741" lon="-0.0378">
        <ele>1527</ele>
        <time>2013-06-14T15:14:43Z</time>
      </trkpt>
      <trkpt lat="42.74747" lon="-0.03784">
        <ele>1528</ele>
        <time>2013-06-14T15:14:51Z</time>
      </trkpt>
      <trkpt lat="42.74753" lon="-0.0379">
        <ele>1528</ele>
        <time>2013-06-14T15:14:59Z</time>
      </trkpt>
      <trkpt lat="42.74759" lon="-0.03795">
        <ele>1529</ele>
        <time>2013-06-14T15:15:10Z</time>
      </trkpt>
      <trkpt lat="42.7477" lon="-0.03796">
        <ele>1530</ele>
        <time>2013-06-14T15:15:20Z</time>
      </trkpt>
      <trkpt lat="42.74793" lon="-0.03824">
        <ele>1532</ele>
        <time>2013-06-14T15:15:43Z</time>
      </trkpt>
      <trkpt lat="42.74793" lon="-0.0383">
        <ele>1532</ele>
        <time>2013-06-14T15:15:46Z</time>
      </trkpt>
      <trkpt lat="42.74789" lon="-0.03845">
        <ele>1533</ele>
        <time>2013-06-14T15:15:53Z</time>
      </trkpt>
      <trkpt lat="42.74791" lon="-0.03858">
        <ele>1533</ele>
        <time>2013-06-14T15:16:00Z</time>
      </trkpt>
      <trkpt lat="42.74796" lon="-0.0387">
        <ele>1534</ele>
        <time>2013-06-14T15:16:08Z</time>
      </trkpt>
      <trkpt lat="42.74799" lon="-0.03881">
        <ele>1535</ele>
        <time>2013-06-14T15:16:17Z</time>
      </trkpt>
      <trkpt lat="42.74802" lon="-0.03892">
        <ele>1535</ele>
        <time>2013-06-14T15:16:25Z</time>
      </trkpt>
      <trkpt lat="42.74805" lon="-0.03906">
        <ele>1536</ele>
        <time>2013-06-14T15:16:34Z</time>
      </trkpt>
      <trkpt lat="42.74806" lon="-0.0391">
        <ele>1537</ele>
        <time>2013-06-14T15:16:37Z</time>
      </trkpt>
      <trkpt lat="42.74803" lon="-0.03919">
        <ele>1538</ele>
        <time>2013-06-14T15:16:44Z</time>
      </trkpt>
      <trkpt lat="42.74799" lon="-0.03933">
        <ele>1539</ele>
        <time>2013-06-14T15:16:54Z</time>
      </trkpt>
      <trkpt lat="42.74798" lon="-0.03941">
        <ele>1540</ele>
        <time>2013-06-14T15:16:59Z</time>
      </trkpt>
      <trkpt lat="42.74802" lon="-0.03955">
        <ele>1541</ele>
        <time>2013-06-14T15:17:09Z</time>
      </trkpt>
      <trkpt lat="42.74804" lon="-0.03969">
        <ele>1542</ele>
        <time>2013-06-14T15:17:16Z</time>
      </trkpt>
      <trkpt lat="42.74804" lon="-0.03974">
        <ele>1542</ele>
        <time>2013-06-14T15:17:22Z</time>
      </trkpt>
      <trkpt lat="42.74805" lon="-0.03978">
        <ele>1542</ele>
        <time>2013-06-14T15:17:26Z</time>
      </trkpt>
      <trkpt lat="42.74802" lon="-0.03997">
        <ele>1543</ele>
        <time>2013-06-14T15:17:38Z</time>
      </trkpt>
      <trkpt lat="42.74801" lon="-0.04012">
        <ele>1544</ele>
        <time>2013-06-14T15:17:47Z</time>
      </trkpt>
      <trkpt lat="42.74805" lon="-0.04023">
        <ele>1545</ele>
        <time>2013-06-14T15:17:55Z</time>
      </trkpt>
      <trkpt lat="42.74806" lon="-0.04033">
        <ele>1545</ele>
        <time>2013-06-14T15:18:02Z</time>
      </trkpt>
      <trkpt lat="42.74809" lon="-0.0404">
        <ele>1545</ele>
        <time>2013-06-14T15:18:06Z</time>
      </trkpt>
      <trkpt lat="42.7481" lon="-0.04048">
        <ele>1547</ele>
        <time>2013-06-14T15:18:11Z</time>
      </trkpt>
      <trkpt lat="42.74813" lon="-0.04065">
        <ele>1548</ele>
        <time>2013-06-14T15:18:20Z</time>
      </trkpt>
      <trkpt lat="42.74813" lon="-0.04073">
        <ele>1548</ele>
        <time>2013-06-14T15:18:25Z</time>
      </trkpt>
      <trkpt lat="42.74814" lon="-0.04081">
        <ele>1549</ele>
        <time>2013-06-14T15:18:31Z</time>
      </trkpt>
      <trkpt lat="42.74817" lon="-0.04096">
        <ele>1549</ele>
        <time>2013-06-14T15:18:41Z</time>
      </trkpt>
      <trkpt lat="42.74818" lon="-0.04105">
        <ele>1550</ele>
        <time>2013-06-14T15:18:48Z</time>
      </trkpt>
      <trkpt lat="42.74817" lon="-0.04114">
        <ele>1551</ele>
        <time>2013-06-14T15:18:56Z</time>
      </trkpt>
      <trkpt lat="42.74819" lon="-0.04125">
        <ele>1552</ele>
        <time>2013-06-14T15:19:05Z</time>
      </trkpt>
      <trkpt lat="42.7482" lon="-0.04132">
        <ele>1552</ele>
        <time>2013-06-14T15:19:12Z</time>
      </trkpt>
      <trkpt lat="42.74819" lon="-0.04137">
        <ele>1552</ele>
        <time>2013-06-14T15:19:21Z</time>
      </trkpt>
      <trkpt lat="42.74818" lon="-0.04142">
        <ele>1553</ele>
        <time>2013-06-14T15:19:30Z</time>
      </trkpt>
      <trkpt lat="42.74817" lon="-0.04146">
        <ele>1554</ele>
        <time>2013-06-14T15:19:38Z</time>
      </trkpt>
      <trkpt lat="42.74816" lon="-0.04148">
        <ele>1554</ele>
        <time>2013-06-14T15:19:45Z</time>
      </trkpt>
      <trkpt lat="42.74813" lon="-0.04153">
        <ele>1555</ele>
        <time>2013-06-14T15:19:56Z</time>
      </trkpt>
      <trkpt lat="42.74811" lon="-0.04156">
        <ele>1556</ele>
        <time>2013-06-14T15:20:04Z</time>
      </trkpt>
      <trkpt lat="42.74811" lon="-0.0416">
        <ele>1556</ele>
        <time>2013-06-14T15:20:11Z</time>
      </trkpt>
      <trkpt lat="42.74812" lon="-0.04165">
        <ele>1556</ele>
        <time>2013-06-14T15:20:19Z</time>
      </trkpt>
      <trkpt lat="42.74812" lon="-0.04169">
        <ele>1557</ele>
        <time>2013-06-14T15:20:27Z</time>
      </trkpt>
      <trkpt lat="42.74811" lon="-0.04176">
        <ele>1558</ele>
        <time>2013-06-14T15:20:37Z</time>
      </trkpt>
      <trkpt lat="42.7481" lon="-0.04181">
        <ele>1558</ele>
        <time>2013-06-14T15:20:45Z</time>
      </trkpt>
      <trkpt lat="42.74811" lon="-0.04185">
        <ele>1558</ele>
        <time>2013-06-14T15:20:53Z</time>
      </trkpt>
      <trkpt lat="42.74811" lon="-0.04189">
        <ele>1559</ele>
        <time>2013-06-14T15:21:00Z</time>
      </trkpt>
      <trkpt lat="42.74813" lon="-0.04193">
        <ele>1560</ele>
        <time>2013-06-14T15:21:08Z</time>
      </trkpt>
      <trkpt lat="42.74815" lon="-0.04198">
        <ele>1560</ele>
        <time>2013-06-14T15:21:15Z</time>
      </trkpt>
      <trkpt lat="42.74818" lon="-0.04201">
        <ele>1560</ele>
        <time>2013-06-14T15:21:23Z</time>
      </trkpt>
      <trkpt lat="42.74819" lon="-0.04206">
        <ele>1560</ele>
        <time>2013-06-14T15:21:30Z</time>
      </trkpt>
      <trkpt lat="42.74821" lon="-0.04213">
        <ele>1561</ele>
        <time>2013-06-14T15:21:39Z</time>
      </trkpt>
      <trkpt lat="42.7482" lon="-0.04221">
        <ele>1560</ele>
        <time>2013-06-14T15:21:49Z</time>
      </trkpt>
      <trkpt lat="42.74822" lon="-0.04226">
        <ele>1561</ele>
        <time>2013-06-14T15:21:58Z</time>
      </trkpt>
      <trkpt lat="42.74823" lon="-0.04226">
        <ele>1561</ele>
        <time>2013-06-14T15:22:05Z</time>
      </trkpt>
      <trkpt lat="42.74823" lon="-0.04232">
        <ele>1560</ele>
        <time>2013-06-14T15:22:15Z</time>
      </trkpt>
      <trkpt lat="42.74822" lon="-0.04236">
        <ele>1560</ele>
        <time>2013-06-14T15:22:21Z</time>
      </trkpt>
      <trkpt lat="42.74821" lon="-0.04242">
        <ele>1560</ele>
        <time>2013-06-14T15:22:27Z</time>
      </trkpt>
      <trkpt lat="42.74816" lon="-0.04249">
        <ele>1560</ele>
        <time>2013-06-14T15:22:34Z</time>
      </trkpt>
      <trkpt lat="42.74816" lon="-0.04252">
        <ele>1560</ele>
        <time>2013-06-14T15:22:40Z</time>
      </trkpt>
      <trkpt lat="42.74812" lon="-0.0425">
        <ele>1560</ele>
        <time>2013-06-14T15:22:51Z</time>
      </trkpt>
      <trkpt lat="42.7481" lon="-0.04253">
        <ele>1561</ele>
        <time>2013-06-14T15:22:57Z</time>
      </trkpt>
      <trkpt lat="42.74811" lon="-0.04263">
        <ele>1561</ele>
        <time>2013-06-14T15:23:03Z</time>
      </trkpt>
      <trkpt lat="42.74809" lon="-0.04273">
        <ele>1562</ele>
        <time>2013-06-14T15:23:11Z</time>
      </trkpt>
      <trkpt lat="42.74804" lon="-0.0428">
        <ele>1563</ele>
        <time>2013-06-14T15:23:18Z</time>
      </trkpt>
      <trkpt lat="42.74798" lon="-0.04287">
        <ele>1564</ele>
        <time>2013-06-14T15:23:27Z</time>
      </trkpt>
      <trkpt lat="42.74793" lon="-0.04295">
        <ele>1564</ele>
        <time>2013-06-14T15:23:36Z</time>
      </trkpt>
      <trkpt lat="42.7479" lon="-0.04299">
        <ele>1565</ele>
        <time>2013-06-14T15:23:43Z</time>
      </trkpt>
      <trkpt lat="42.74786" lon="-0.04305">
        <ele>1565</ele>
        <time>2013-06-14T15:23:50Z</time>
      </trkpt>
      <trkpt lat="42.74782" lon="-0.04313">
        <ele>1567</ele>
        <time>2013-06-14T15:23:57Z</time>
      </trkpt>
      <trkpt lat="42.74776" lon="-0.04323">
        <ele>1567</ele>
        <time>2013-06-14T15:24:06Z</time>
      </trkpt>
      <trkpt lat="42.74775" lon="-0.04335">
        <ele>1568</ele>
        <time>2013-06-14T15:24:15Z</time>
      </trkpt>
      <trkpt lat="42.74777" lon="-0.04339">
        <ele>1569</ele>
        <time>2013-06-14T15:24:17Z</time>
      </trkpt>
      <trkpt lat="42.74779" lon="-0.04348">
        <ele>1569</ele>
        <time>2013-06-14T15:24:24Z</time>
      </trkpt>
      <trkpt lat="42.74782" lon="-0.0436">
        <ele>1570</ele>
        <time>2013-06-14T15:24:34Z</time>
      </trkpt>
      <trkpt lat="42.74784" lon="-0.04367">
        <ele>1571</ele>
        <time>2013-06-14T15:24:41Z</time>
      </trkpt>
      <trkpt lat="42.74787" lon="-0.04378">
        <ele>1572</ele>
        <time>2013-06-14T15:24:50Z</time>
      </trkpt>
      <trkpt lat="42.7479" lon="-0.04388">
        <ele>1573</ele>
        <time>2013-06-14T15:24:59Z</time>
      </trkpt>
      <trkpt lat="42.74793" lon="-0.04399">
        <ele>1574</ele>
        <time>2013-06-14T15:25:08Z</time>
      </trkpt>
      <trkpt lat="42.74794" lon="-0.04409">
        <ele>1575</ele>
        <time>2013-06-14T15:25:17Z</time>
      </trkpt>
      <trkpt lat="42.7479" lon="-0.04415">
        <ele>1576</ele>
        <time>2013-06-14T15:25:25Z</time>
      </trkpt>
      <trkpt lat="42.74792" lon="-0.04427">
        <ele>1578</ele>
        <time>2013-06-14T15:25:33Z</time>
      </trkpt>
      <trkpt lat="42.74788" lon="-0.04434">
        <ele>1578</ele>
        <time>2013-06-14T15:25:41Z</time>
      </trkpt>
      <trkpt lat="42.74784" lon="-0.04441">
        <ele>1579</ele>
        <time>2013-06-14T15:25:49Z</time>
      </trkpt>
      <trkpt lat="42.7479" lon="-0.04459">
        <ele>1581</ele>
        <time>2013-06-14T15:25:58Z</time>
      </trkpt>
      <trkpt lat="42.74793" lon="-0.04465">
        <ele>1581</ele>
        <time>2013-06-14T15:26:02Z</time>
      </trkpt>
      <trkpt lat="42.74795" lon="-0.04475">
        <ele>1581</ele>
        <time>2013-06-14T15:26:11Z</time>
      </trkpt>
      <trkpt lat="42.74796" lon="-0.04484">
        <ele>1583</ele>
        <time>2013-06-14T15:26:19Z</time>
      </trkpt>
      <trkpt lat="42.74798" lon="-0.04497">
        <ele>1583</ele>
        <time>2013-06-14T15:26:29Z</time>
      </trkpt>
      <trkpt lat="42.74799" lon="-0.04508">
        <ele>1584</ele>
        <time>2013-06-14T15:26:38Z</time>
      </trkpt>
      <trkpt lat="42.748" lon="-0.04518">
        <ele>1586</ele>
        <time>2013-06-14T15:26:47Z</time>
      </trkpt>
      <trkpt lat="42.74801" lon="-0.04527">
        <ele>1586</ele>
        <time>2013-06-14T15:26:55Z</time>
      </trkpt>
      <trkpt lat="42.74801" lon="-0.04539">
        <ele>1588</ele>
        <time>2013-06-14T15:27:06Z</time>
      </trkpt>
      <trkpt lat="42.74801" lon="-0.04546">
        <ele>1588</ele>
        <time>2013-06-14T15:27:13Z</time>
      </trkpt>
      <trkpt lat="42.74802" lon="-0.04556">
        <ele>1590</ele>
        <time>2013-06-14T15:27:22Z</time>
      </trkpt>
      <trkpt lat="42.74802" lon="-0.04566">
        <ele>1591</ele>
        <time>2013-06-14T15:27:30Z</time>
      </trkpt>
      <trkpt lat="42.74803" lon="-0.04577">
        <ele>1592</ele>
        <time>2013-06-14T15:27:39Z</time>
      </trkpt>
      <trkpt lat="42.74803" lon="-0.0458">
        <ele>1593</ele>
        <time>2013-06-14T15:27:43Z</time>
      </trkpt>
      <trkpt lat="42.74803" lon="-0.04589">
        <ele>1594</ele>
        <time>2013-06-14T15:27:50Z</time>
      </trkpt>
      <trkpt lat="42.748" lon="-0.04599">
        <ele>1594</ele>
        <time>2013-06-14T15:27:59Z</time>
      </trkpt>
      <trkpt lat="42.74792" lon="-0.04605">
        <ele>1595</ele>
        <time>2013-06-14T15:28:10Z</time>
      </trkpt>
      <trkpt lat="42.74786" lon="-0.04612">
        <ele>1597</ele>
        <time>2013-06-14T15:28:19Z</time>
      </trkpt>
      <trkpt lat="42.74782" lon="-0.04618">
        <ele>1597</ele>
        <time>2013-06-14T15:28:26Z</time>
      </trkpt>
      <trkpt lat="42.74766" lon="-0.04616">
        <ele>1598</ele>
        <time>2013-06-14T15:28:34Z</time>
      </trkpt>
      <trkpt lat="42.74802" lon="-0.04657">
        <ele>1599</ele>
        <time>2013-06-14T15:28:43Z</time>
      </trkpt>
      <trkpt lat="42.74802" lon="-0.04664">
        <ele>1600</ele>
        <time>2013-06-14T15:28:52Z</time>
      </trkpt>
      <trkpt lat="42.74801" lon="-0.04662">
        <ele>1600</ele>
        <time>2013-06-14T15:28:59Z</time>
      </trkpt>
      <trkpt lat="42.74801" lon="-0.04662">
        <ele>1601</ele>
        <time>2013-06-14T15:29:07Z</time>
      </trkpt>
      <trkpt lat="42.74796" lon="-0.04667">
        <ele>1601</ele>
        <time>2013-06-14T15:29:14Z</time>
      </trkpt>
      <trkpt lat="42.74794" lon="-0.04666">
        <ele>1601</ele>
        <time>2013-06-14T15:29:19Z</time>
      </trkpt>
      <trkpt lat="42.74791" lon="-0.04668">
        <ele>1602</ele>
        <time>2013-06-14T15:29:26Z</time>
      </trkpt>
      <trkpt lat="42.74792" lon="-0.04668">
        <ele>1602</ele>
        <time>2013-06-14T15:29:35Z</time>
      </trkpt>
      <trkpt lat="42.74792" lon="-0.04674">
        <ele>1602</ele>
        <time>2013-06-14T15:29:42Z</time>
      </trkpt>
      <trkpt lat="42.74784" lon="-0.04685">
        <ele>1603</ele>
        <time>2013-06-14T15:29:53Z</time>
      </trkpt>
      <trkpt lat="42.74783" lon="-0.04696">
        <ele>1604</ele>
        <time>2013-06-14T15:30:01Z</time>
      </trkpt>
      <trkpt lat="42.74781" lon="-0.04706">
        <ele>1605</ele>
        <time>2013-06-14T15:30:08Z</time>
      </trkpt>
      <trkpt lat="42.7478" lon="-0.04712">
        <ele>1606</ele>
        <time>2013-06-14T15:30:16Z</time>
      </trkpt>
      <trkpt lat="42.74778" lon="-0.04723">
        <ele>1606</ele>
        <time>2013-06-14T15:30:25Z</time>
      </trkpt>
      <trkpt lat="42.74777" lon="-0.04726">
        <ele>1607</ele>
        <time>2013-06-14T15:30:32Z</time>
      </trkpt>
      <trkpt lat="42.74775" lon="-0.04724">
        <ele>1606</ele>
        <time>2013-06-14T15:30:40Z</time>
      </trkpt>
      <trkpt lat="42.74775" lon="-0.04732">
        <ele>1607</ele>
        <time>2013-06-14T15:30:52Z</time>
      </trkpt>
      <trkpt lat="42.74774" lon="-0.04745">
        <ele>1608</ele>
        <time>2013-06-14T15:31:01Z</time>
      </trkpt>
      <trkpt lat="42.74772" lon="-0.04753">
        <ele>1608</ele>
        <time>2013-06-14T15:31:09Z</time>
      </trkpt>
      <trkpt lat="42.74772" lon="-0.04755">
        <ele>1608</ele>
        <time>2013-06-14T15:31:22Z</time>
      </trkpt>
      <trkpt lat="42.74771" lon="-0.04761">
        <ele>1609</ele>
        <time>2013-06-14T15:31:30Z</time>
      </trkpt>
      <trkpt lat="42.7477" lon="-0.04759">
        <ele>1609</ele>
        <time>2013-06-14T15:31:39Z</time>
      </trkpt>
      <trkpt lat="42.74769" lon="-0.04756">
        <ele>1609</ele>
        <time>2013-06-14T15:31:54Z</time>
      </trkpt>
      <trkpt lat="42.74771" lon="-0.04763">
        <ele>1608</ele>
        <time>2013-06-14T15:32:01Z</time>
      </trkpt>
      <trkpt lat="42.74771" lon="-0.04767">
        <ele>1609</ele>
        <time>2013-06-14T15:32:04Z</time>
      </trkpt>
      <trkpt lat="42.74769" lon="-0.04778">
        <ele>1610</ele>
        <time>2013-06-14T15:32:12Z</time>
      </trkpt>
      <trkpt lat="42.74768" lon="-0.0478">
        <ele>1610</ele>
        <time>2013-06-14T15:32:14Z</time>
      </trkpt>
      <trkpt lat="42.74765" lon="-0.04792">
        <ele>1612</ele>
        <time>2013-06-14T15:32:22Z</time>
      </trkpt>
      <trkpt lat="42.74762" lon="-0.04799">
        <ele>1612</ele>
        <time>2013-06-14T15:32:27Z</time>
      </trkpt>
      <trkpt lat="42.74755" lon="-0.04809">
        <ele>1613</ele>
        <time>2013-06-14T15:32:37Z</time>
      </trkpt>
      <trkpt lat="42.74747" lon="-0.04814">
        <ele>1613</ele>
        <time>2013-06-14T15:32:45Z</time>
      </trkpt>
      <trkpt lat="42.74736" lon="-0.04823">
        <ele>1614</ele>
        <time>2013-06-14T15:32:54Z</time>
      </trkpt>
      <trkpt lat="42.74724" lon="-0.04828">
        <ele>1614</ele>
        <time>2013-06-14T15:33:03Z</time>
      </trkpt>
      <trkpt lat="42.74711" lon="-0.04836">
        <ele>1616</ele>
        <time>2013-06-14T15:33:13Z</time>
      </trkpt>
      <trkpt lat="42.747" lon="-0.04843">
        <ele>1616</ele>
        <time>2013-06-14T15:33:22Z</time>
      </trkpt>
      <trkpt lat="42.74697" lon="-0.04847">
        <ele>1616</ele>
        <time>2013-06-14T15:33:25Z</time>
      </trkpt>
      <trkpt lat="42.7469" lon="-0.04859">
        <ele>1617</ele>
        <time>2013-06-14T15:33:35Z</time>
      </trkpt>
      <trkpt lat="42.74684" lon="-0.04873">
        <ele>1618</ele>
        <time>2013-06-14T15:33:42Z</time>
      </trkpt>
      <trkpt lat="42.74678" lon="-0.04889">
        <ele>1619</ele>
        <time>2013-06-14T15:33:51Z</time>
      </trkpt>
      <trkpt lat="42.74677" lon="-0.04889">
        <ele>1619</ele>
        <time>2013-06-14T15:33:52Z</time>
      </trkpt>
      <trkpt lat="42.74675" lon="-0.04892">
        <ele>1619</ele>
        <time>2013-06-14T15:33:55Z</time>
      </trkpt>
      <trkpt lat="42.74673" lon="-0.04908">
        <ele>1620</ele>
        <time>2013-06-14T15:34:03Z</time>
      </trkpt>
      <trkpt lat="42.74673" lon="-0.04926">
        <ele>1621</ele>
        <time>2013-06-14T15:34:11Z</time>
      </trkpt>
      <trkpt lat="42.74671" lon="-0.04934">
        <ele>1621</ele>
        <time>2013-06-14T15:34:17Z</time>
      </trkpt>
      <trkpt lat="42.74667" lon="-0.04948">
        <ele>1621</ele>
        <time>2013-06-14T15:34:27Z</time>
      </trkpt>
      <trkpt lat="42.74666" lon="-0.04949">
        <ele>1621</ele>
        <time>2013-06-14T15:34:28Z</time>
      </trkpt>
      <trkpt lat="42.7466" lon="-0.04964">
        <ele>1622</ele>
        <time>2013-06-14T15:34:38Z</time>
      </trkpt>
      <trkpt lat="42.74658" lon="-0.04976">
        <ele>1624</ele>
        <time>2013-06-14T15:34:46Z</time>
      </trkpt>
      <trkpt lat="42.74656" lon="-0.04989">
        <ele>1624</ele>
        <time>2013-06-14T15:34:54Z</time>
      </trkpt>
      <trkpt lat="42.74651" lon="-0.05004">
        <ele>1625</ele>
        <time>2013-06-14T15:35:03Z</time>
      </trkpt>
      <trkpt lat="42.7465" lon="-0.05018">
        <ele>1626</ele>
        <time>2013-06-14T15:35:12Z</time>
      </trkpt>
      <trkpt lat="42.7465" lon="-0.05022">
        <ele>1626</ele>
        <time>2013-06-14T15:35:14Z</time>
      </trkpt>
      <trkpt lat="42.7465" lon="-0.05023">
        <ele>1626</ele>
        <time>2013-06-14T15:35:15Z</time>
      </trkpt>
      <trkpt lat="42.7465" lon="-0.05037">
        <ele>1627</ele>
        <time>2013-06-14T15:35:23Z</time>
      </trkpt>
      <trkpt lat="42.7465" lon="-0.0505">
        <ele>1627</ele>
        <time>2013-06-14T15:35:31Z</time>
      </trkpt>
      <trkpt lat="42.74648" lon="-0.05065">
        <ele>1628</ele>
        <time>2013-06-14T15:35:40Z</time>
      </trkpt>
      <trkpt lat="42.74646" lon="-0.05076">
        <ele>1629</ele>
        <time>2013-06-14T15:35:48Z</time>
      </trkpt>
      <trkpt lat="42.74643" lon="-0.0509">
        <ele>1630</ele>
        <time>2013-06-14T15:35:57Z</time>
      </trkpt>
      <trkpt lat="42.74639" lon="-0.05101">
        <ele>1630</ele>
        <time>2013-06-14T15:36:04Z</time>
      </trkpt>
      <trkpt lat="42.74635" lon="-0.05115">
        <ele>1631</ele>
        <time>2013-06-14T15:36:12Z</time>
      </trkpt>
      <trkpt lat="42.74631" lon="-0.05127">
        <ele>1631</ele>
        <time>2013-06-14T15:36:22Z</time>
      </trkpt>
      <trkpt lat="42.74627" lon="-0.05141">
        <ele>1632</ele>
        <time>2013-06-14T15:36:31Z</time>
      </trkpt>
      <trkpt lat="42.74624" lon="-0.05155">
        <ele>1633</ele>
        <time>2013-06-14T15:36:41Z</time>
      </trkpt>
      <trkpt lat="42.74621" lon="-0.05165">
        <ele>1634</ele>
        <time>2013-06-14T15:36:49Z</time>
      </trkpt>
      <trkpt lat="42.74619" lon="-0.05179">
        <ele>1634</ele>
        <time>2013-06-14T15:36:58Z</time>
      </trkpt>
      <trkpt lat="42.74615" lon="-0.05194">
        <ele>1635</ele>
        <time>2013-06-14T15:37:08Z</time>
      </trkpt>
      <trkpt lat="42.74614" lon="-0.05206">
        <ele>1637</ele>
        <time>2013-06-14T15:37:17Z</time>
      </trkpt>
      <trkpt lat="42.74614" lon="-0.05223">
        <ele>1637</ele>
        <time>2013-06-14T15:37:27Z</time>
      </trkpt>
      <trkpt lat="42.74615" lon="-0.05228">
        <ele>1638</ele>
        <time>2013-06-14T15:37:30Z</time>
      </trkpt>
      <trkpt lat="42.74618" lon="-0.05243">
        <ele>1638</ele>
        <time>2013-06-14T15:37:40Z</time>
      </trkpt>
      <trkpt lat="42.74618" lon="-0.05246">
        <ele>1638</ele>
        <time>2013-06-14T15:37:42Z</time>
      </trkpt>
      <trkpt lat="42.74622" lon="-0.05256">
        <ele>1638</ele>
        <time>2013-06-14T15:37:50Z</time>
      </trkpt>
      <trkpt lat="42.74629" lon="-0.05269">
        <ele>1640</ele>
        <time>2013-06-14T15:37:59Z</time>
      </trkpt>
      <trkpt lat="42.74634" lon="-0.0528">
        <ele>1640</ele>
        <time>2013-06-14T15:38:08Z</time>
      </trkpt>
      <trkpt lat="42.74641" lon="-0.05292">
        <ele>1638</ele>
        <time>2013-06-14T15:38:18Z</time>
      </trkpt>
      <trkpt lat="42.74647" lon="-0.05303">
        <ele>1638</ele>
        <time>2013-06-14T15:38:26Z</time>
      </trkpt>
      <trkpt lat="42.7465" lon="-0.05324">
        <ele>1639</ele>
        <time>2013-06-14T15:38:38Z</time>
      </trkpt>
      <trkpt lat="42.74651" lon="-0.05341">
        <ele>1639</ele>
        <time>2013-06-14T15:38:48Z</time>
      </trkpt>
      <trkpt lat="42.74652" lon="-0.05346">
        <ele>1639</ele>
        <time>2013-06-14T15:38:52Z</time>
      </trkpt>
      <trkpt lat="42.74656" lon="-0.05355">
        <ele>1639</ele>
        <time>2013-06-14T15:38:58Z</time>
      </trkpt>
      <trkpt lat="42.74662" lon="-0.05367">
        <ele>1639</ele>
        <time>2013-06-14T15:39:08Z</time>
      </trkpt>
      <trkpt lat="42.74666" lon="-0.05379">
        <ele>1640</ele>
        <time>2013-06-14T15:39:16Z</time>
      </trkpt>
      <trkpt lat="42.74668" lon="-0.05392">
        <ele>1641</ele>
        <time>2013-06-14T15:39:25Z</time>
      </trkpt>
      <trkpt lat="42.74669" lon="-0.05393">
        <ele>1640</ele>
        <time>2013-06-14T15:39:26Z</time>
      </trkpt>
      <trkpt lat="42.74669" lon="-0.05396">
        <ele>1640</ele>
        <time>2013-06-14T15:39:28Z</time>
      </trkpt>
      <trkpt lat="42.7467" lon="-0.05408">
        <ele>1640</ele>
        <time>2013-06-14T15:39:36Z</time>
      </trkpt>
      <trkpt lat="42.74672" lon="-0.0542">
        <ele>1641</ele>
        <time>2013-06-14T15:39:44Z</time>
      </trkpt>
      <trkpt lat="42.74674" lon="-0.05429">
        <ele>1641</ele>
        <time>2013-06-14T15:39:51Z</time>
      </trkpt>
      <trkpt lat="42.74676" lon="-0.05431">
        <ele>1641</ele>
        <time>2013-06-14T15:39:53Z</time>
      </trkpt>
      <trkpt lat="42.74682" lon="-0.05441">
        <ele>1641</ele>
        <time>2013-06-14T15:40:02Z</time>
      </trkpt>
      <trkpt lat="42.74683" lon="-0.05446">
        <ele>1642</ele>
        <time>2013-06-14T15:40:06Z</time>
      </trkpt>
      <trkpt lat="42.7469" lon="-0.05461">
        <ele>1643</ele>
        <time>2013-06-14T15:40:17Z</time>
      </trkpt>
      <trkpt lat="42.74694" lon="-0.05468">
        <ele>1643</ele>
        <time>2013-06-14T15:40:23Z</time>
      </trkpt>
      <trkpt lat="42.74696" lon="-0.05471">
        <ele>1643</ele>
        <time>2013-06-14T15:40:25Z</time>
      </trkpt>
      <trkpt lat="42.74704" lon="-0.05476">
        <ele>1643</ele>
        <time>2013-06-14T15:40:33Z</time>
      </trkpt>
      <trkpt lat="42.74708" lon="-0.05478">
        <ele>1643</ele>
        <time>2013-06-14T15:40:40Z</time>
      </trkpt>
      <trkpt lat="42.74713" lon="-0.0548">
        <ele>1644</ele>
        <time>2013-06-14T15:40:46Z</time>
      </trkpt>
      <trkpt lat="42.7472" lon="-0.05483">
        <ele>1645</ele>
        <time>2013-06-14T15:40:54Z</time>
      </trkpt>
      <trkpt lat="42.74726" lon="-0.05484">
        <ele>1645</ele>
        <time>2013-06-14T15:41:00Z</time>
      </trkpt>
      <trkpt lat="42.74729" lon="-0.05484">
        <ele>1646</ele>
        <time>2013-06-14T15:41:07Z</time>
      </trkpt>
      <trkpt lat="42.74734" lon="-0.05483">
        <ele>1645</ele>
        <time>2013-06-14T15:41:12Z</time>
      </trkpt>
      <trkpt lat="42.74739" lon="-0.05485">
        <ele>1645</ele>
        <time>2013-06-14T15:41:17Z</time>
      </trkpt>
      <trkpt lat="42.74747" lon="-0.05487">
        <ele>1646</ele>
        <time>2013-06-14T15:41:24Z</time>
      </trkpt>
      <trkpt lat="42.74749" lon="-0.05488">
        <ele>1646</ele>
        <time>2013-06-14T15:41:26Z</time>
      </trkpt>
      <trkpt lat="42.74756" lon="-0.05494">
        <ele>1646</ele>
        <time>2013-06-14T15:41:33Z</time>
      </trkpt>
      <trkpt lat="42.74761" lon="-0.055">
        <ele>1646</ele>
        <time>2013-06-14T15:41:39Z</time>
      </trkpt>
      <trkpt lat="42.74765" lon="-0.05507">
        <ele>1647</ele>
        <time>2013-06-14T15:41:45Z</time>
      </trkpt>
      <trkpt lat="42.74767" lon="-0.0551">
        <ele>1646</ele>
        <time>2013-06-14T15:41:47Z</time>
      </trkpt>
      <trkpt lat="42.74773" lon="-0.05521">
        <ele>1647</ele>
        <time>2013-06-14T15:41:55Z</time>
      </trkpt>
      <trkpt lat="42.74774" lon="-0.05527">
        <ele>1647</ele>
        <time>2013-06-14T15:41:59Z</time>
      </trkpt>
      <trkpt lat="42.74779" lon="-0.05542">
        <ele>1648</ele>
        <time>2013-06-14T15:42:09Z</time>
      </trkpt>
      <trkpt lat="42.74781" lon="-0.05548">
        <ele>1648</ele>
        <time>2013-06-14T15:42:14Z</time>
      </trkpt>
      <trkpt lat="42.74781" lon="-0.05553">
        <ele>1649</ele>
        <time>2013-06-14T15:42:17Z</time>
      </trkpt>
      <trkpt lat="42.74782" lon="-0.05556">
        <ele>1649</ele>
        <time>2013-06-14T15:42:19Z</time>
      </trkpt>
      <trkpt lat="42.74783" lon="-0.05561">
        <ele>1649</ele>
        <time>2013-06-14T15:42:23Z</time>
      </trkpt>
      <trkpt lat="42.74787" lon="-0.05575">
        <ele>1649</ele>
        <time>2013-06-14T15:42:32Z</time>
      </trkpt>
      <trkpt lat="42.74789" lon="-0.05582">
        <ele>1650</ele>
        <time>2013-06-14T15:42:36Z</time>
      </trkpt>
      <trkpt lat="42.7479" lon="-0.05591">
        <ele>1649</ele>
        <time>2013-06-14T15:42:41Z</time>
      </trkpt>
      <trkpt lat="42.74786" lon="-0.05605">
        <ele>1651</ele>
        <time>2013-06-14T15:42:50Z</time>
      </trkpt>
      <trkpt lat="42.74785" lon="-0.05615">
        <ele>1651</ele>
        <time>2013-06-14T15:42:59Z</time>
      </trkpt>
      <trkpt lat="42.74787" lon="-0.05618">
        <ele>1652</ele>
        <time>2013-06-14T15:43:08Z</time>
      </trkpt>
      <trkpt lat="42.74789" lon="-0.05623">
        <ele>1654</ele>
        <time>2013-06-14T15:43:16Z</time>
      </trkpt>
      <trkpt lat="42.74787" lon="-0.0563">
        <ele>1653</ele>
        <time>2013-06-14T15:43:24Z</time>
      </trkpt>
      <trkpt lat="42.74783" lon="-0.05636">
        <ele>1653</ele>
        <time>2013-06-14T15:43:31Z</time>
      </trkpt>
      <trkpt lat="42.74783" lon="-0.05637">
        <ele>1653</ele>
        <time>2013-06-14T15:43:32Z</time>
      </trkpt>
      <trkpt lat="42.74784" lon="-0.05642">
        <ele>1652</ele>
        <time>2013-06-14T15:43:35Z</time>
      </trkpt>
      <trkpt lat="42.74789" lon="-0.05656">
        <ele>1653</ele>
        <time>2013-06-14T15:43:45Z</time>
      </trkpt>
      <trkpt lat="42.74787" lon="-0.05672">
        <ele>1654</ele>
        <time>2013-06-14T15:43:55Z</time>
      </trkpt>
      <trkpt lat="42.74787" lon="-0.05672">
        <ele>1654</ele>
        <time>2013-06-14T15:44:02Z</time>
      </trkpt>
      <trkpt lat="42.74788" lon="-0.0568">
        <ele>1654</ele>
        <time>2013-06-14T15:44:07Z</time>
      </trkpt>
      <trkpt lat="42.74787" lon="-0.05694">
        <ele>1655</ele>
        <time>2013-06-14T15:44:15Z</time>
      </trkpt>
      <trkpt lat="42.74786" lon="-0.05699">
        <ele>1654</ele>
        <time>2013-06-14T15:44:19Z</time>
      </trkpt>
      <trkpt lat="42.74785" lon="-0.05707">
        <ele>1655</ele>
        <time>2013-06-14T15:44:27Z</time>
      </trkpt>
      <trkpt lat="42.74784" lon="-0.05709">
        <ele>1656</ele>
        <time>2013-06-14T15:44:29Z</time>
      </trkpt>
      <trkpt lat="42.74785" lon="-0.05721">
        <ele>1656</ele>
        <time>2013-06-14T15:44:38Z</time>
      </trkpt>
      <trkpt lat="42.74786" lon="-0.05728">
        <ele>1656</ele>
        <time>2013-06-14T15:44:44Z</time>
      </trkpt>
      <trkpt lat="42.74787" lon="-0.05735">
        <ele>1657</ele>
        <time>2013-06-14T15:44:50Z</time>
      </trkpt>
      <trkpt lat="42.7479" lon="-0.05746">
        <ele>1657</ele>
        <time>2013-06-14T15:44:58Z</time>
      </trkpt>
      <trkpt lat="42.74792" lon="-0.05757">
        <ele>1658</ele>
        <time>2013-06-14T15:45:06Z</time>
      </trkpt>
      <trkpt lat="42.74793" lon="-0.05772">
        <ele>1658</ele>
        <time>2013-06-14T15:45:15Z</time>
      </trkpt>
      <trkpt lat="42.74791" lon="-0.0578">
        <ele>1659</ele>
        <time>2013-06-14T15:45:22Z</time>
      </trkpt>
      <trkpt lat="42.7479" lon="-0.05792">
        <ele>1659</ele>
        <time>2013-06-14T15:45:30Z</time>
      </trkpt>
      <trkpt lat="42.74789" lon="-0.05805">
        <ele>1661</ele>
        <time>2013-06-14T15:45:40Z</time>
      </trkpt>
      <trkpt lat="42.74788" lon="-0.05813">
        <ele>1661</ele>
        <time>2013-06-14T15:45:47Z</time>
      </trkpt>
      <trkpt lat="42.74788" lon="-0.05816">
        <ele>1661</ele>
        <time>2013-06-14T15:45:50Z</time>
      </trkpt>
      <trkpt lat="42.74791" lon="-0.05829">
        <ele>1661</ele>
        <time>2013-06-14T15:45:59Z</time>
      </trkpt>
      <trkpt lat="42.74791" lon="-0.0584">
        <ele>1662</ele>
        <time>2013-06-14T15:46:07Z</time>
      </trkpt>
      <trkpt lat="42.74792" lon="-0.05851">
        <ele>1663</ele>
        <time>2013-06-14T15:46:15Z</time>
      </trkpt>
      <trkpt lat="42.74794" lon="-0.05863">
        <ele>1663</ele>
        <time>2013-06-14T15:46:23Z</time>
      </trkpt>
      <trkpt lat="42.74794" lon="-0.05865">
        <ele>1663</ele>
        <time>2013-06-14T15:46:24Z</time>
      </trkpt>
      <trkpt lat="42.74795" lon="-0.05869">
        <ele>1664</ele>
        <time>2013-06-14T15:46:27Z</time>
      </trkpt>
      <trkpt lat="42.74795" lon="-0.05881">
        <ele>1664</ele>
        <time>2013-06-14T15:46:36Z</time>
      </trkpt>
      <trkpt lat="42.74797" lon="-0.05894">
        <ele>1665</ele>
        <time>2013-06-14T15:46:45Z</time>
      </trkpt>
      <trkpt lat="42.74796" lon="-0.05904">
        <ele>1666</ele>
        <time>2013-06-14T15:46:52Z</time>
      </trkpt>
      <trkpt lat="42.74796" lon="-0.0591">
        <ele>1666</ele>
        <time>2013-06-14T15:46:56Z</time>
      </trkpt>
      <trkpt lat="42.74795" lon="-0.05918">
        <ele>1667</ele>
        <time>2013-06-14T15:47:02Z</time>
      </trkpt>
      <trkpt lat="42.74792" lon="-0.0593">
        <ele>1667</ele>
        <time>2013-06-14T15:47:10Z</time>
      </trkpt>
      <trkpt lat="42.74792" lon="-0.05932">
        <ele>1667</ele>
        <time>2013-06-14T15:47:11Z</time>
      </trkpt>
      <trkpt lat="42.74789" lon="-0.05943">
        <ele>1668</ele>
        <time>2013-06-14T15:47:19Z</time>
      </trkpt>
      <trkpt lat="42.74788" lon="-0.05947">
        <ele>1668</ele>
        <time>2013-06-14T15:47:22Z</time>
      </trkpt>
      <trkpt lat="42.74786" lon="-0.05959">
        <ele>1668</ele>
        <time>2013-06-14T15:47:30Z</time>
      </trkpt>
      <trkpt lat="42.74785" lon="-0.05968">
        <ele>1668</ele>
        <time>2013-06-14T15:47:38Z</time>
      </trkpt>
      <trkpt lat="42.74784" lon="-0.05976">
        <ele>1668</ele>
        <time>2013-06-14T15:47:44Z</time>
      </trkpt>
      <trkpt lat="42.74782" lon="-0.05989">
        <ele>1669</ele>
        <time>2013-06-14T15:47:53Z</time>
      </trkpt>
      <trkpt lat="42.74779" lon="-0.05995">
        <ele>1669</ele>
        <time>2013-06-14T15:48:01Z</time>
      </trkpt>
      <trkpt lat="42.74779" lon="-0.06003">
        <ele>1669</ele>
        <time>2013-06-14T15:48:13Z</time>
      </trkpt>
      <trkpt lat="42.74779" lon="-0.06009">
        <ele>1671</ele>
        <time>2013-06-14T15:48:17Z</time>
      </trkpt>
      <trkpt lat="42.74774" lon="-0.06019">
        <ele>1671</ele>
        <time>2013-06-14T15:48:24Z</time>
      </trkpt>
      <trkpt lat="42.74771" lon="-0.06021">
        <ele>1671</ele>
        <time>2013-06-14T15:48:27Z</time>
      </trkpt>
      <trkpt lat="42.74764" lon="-0.0603">
        <ele>1672</ele>
        <time>2013-06-14T15:48:36Z</time>
      </trkpt>
      <trkpt lat="42.74758" lon="-0.06037">
        <ele>1672</ele>
        <time>2013-06-14T15:48:44Z</time>
      </trkpt>
      <trkpt lat="42.74754" lon="-0.06044">
        <ele>1672</ele>
        <time>2013-06-14T15:48:51Z</time>
      </trkpt>
      <trkpt lat="42.7475" lon="-0.06052">
        <ele>1672</ele>
        <time>2013-06-14T15:48:58Z</time>
      </trkpt>
      <trkpt lat="42.74746" lon="-0.0606">
        <ele>1673</ele>
        <time>2013-06-14T15:49:05Z</time>
      </trkpt>
      <trkpt lat="42.74741" lon="-0.06071">
        <ele>1673</ele>
        <time>2013-06-14T15:49:14Z</time>
      </trkpt>
      <trkpt lat="42.74735" lon="-0.06079">
        <ele>1674</ele>
        <time>2013-06-14T15:49:22Z</time>
      </trkpt>
      <trkpt lat="42.7473" lon="-0.06086">
        <ele>1674</ele>
        <time>2013-06-14T15:49:29Z</time>
      </trkpt>
      <trkpt lat="42.74725" lon="-0.06093">
        <ele>1675</ele>
        <time>2013-06-14T15:49:36Z</time>
      </trkpt>
      <trkpt lat="42.74723" lon="-0.06105">
        <ele>1675</ele>
        <time>2013-06-14T15:49:45Z</time>
      </trkpt>
      <trkpt lat="42.74722" lon="-0.06111">
        <ele>1675</ele>
        <time>2013-06-14T15:49:50Z</time>
      </trkpt>
      <trkpt lat="42.7472" lon="-0.06117">
        <ele>1676</ele>
        <time>2013-06-14T15:49:55Z</time>
      </trkpt>
      <trkpt lat="42.74719" lon="-0.06134">
        <ele>1676</ele>
        <time>2013-06-14T15:50:05Z</time>
      </trkpt>
      <trkpt lat="42.74719" lon="-0.06149">
        <ele>1676</ele>
        <time>2013-06-14T15:50:14Z</time>
      </trkpt>
      <trkpt lat="42.7472" lon="-0.06168">
        <ele>1677</ele>
        <time>2013-06-14T15:50:26Z</time>
      </trkpt>
      <trkpt lat="42.74721" lon="-0.06178">
        <ele>1677</ele>
        <time>2013-06-14T15:50:33Z</time>
      </trkpt>
      <trkpt lat="42.74725" lon="-0.06187">
        <ele>1677</ele>
        <time>2013-06-14T15:50:40Z</time>
      </trkpt>
      <trkpt lat="42.74726" lon="-0.06191">
        <ele>1678</ele>
        <time>2013-06-14T15:50:43Z</time>
      </trkpt>
      <trkpt lat="42.74733" lon="-0.06202">
        <ele>1677</ele>
        <time>2013-06-14T15:50:52Z</time>
      </trkpt>
      <trkpt lat="42.74735" lon="-0.06205">
        <ele>1678</ele>
        <time>2013-06-14T15:50:54Z</time>
      </trkpt>
      <trkpt lat="42.74738" lon="-0.06222">
        <ele>1678</ele>
        <time>2013-06-14T15:51:05Z</time>
      </trkpt>
      <trkpt lat="42.74737" lon="-0.06233">
        <ele>1678</ele>
        <time>2013-06-14T15:51:12Z</time>
      </trkpt>
      <trkpt lat="42.74737" lon="-0.06248">
        <ele>1679</ele>
        <time>2013-06-14T15:51:22Z</time>
      </trkpt>
      <trkpt lat="42.74738" lon="-0.0626">
        <ele>1678</ele>
        <time>2013-06-14T15:51:30Z</time>
      </trkpt>
      <trkpt lat="42.74738" lon="-0.06273">
        <ele>1678</ele>
        <time>2013-06-14T15:51:38Z</time>
      </trkpt>
      <trkpt lat="42.74737" lon="-0.06285">
        <ele>1679</ele>
        <time>2013-06-14T15:51:48Z</time>
      </trkpt>
      <trkpt lat="42.74734" lon="-0.06297">
        <ele>1680</ele>
        <time>2013-06-14T15:51:57Z</time>
      </trkpt>
      <trkpt lat="42.74734" lon="-0.06308">
        <ele>1679</ele>
        <time>2013-06-14T15:52:05Z</time>
      </trkpt>
      <trkpt lat="42.74733" lon="-0.06309">
        <ele>1680</ele>
        <time>2013-06-14T15:52:06Z</time>
      </trkpt>
      <trkpt lat="42.7473" lon="-0.06325">
        <ele>1680</ele>
        <time>2013-06-14T15:52:15Z</time>
      </trkpt>
      <trkpt lat="42.74728" lon="-0.0634">
        <ele>1680</ele>
        <time>2013-06-14T15:52:23Z</time>
      </trkpt>
      <trkpt lat="42.74726" lon="-0.06354">
        <ele>1680</ele>
        <time>2013-06-14T15:52:31Z</time>
      </trkpt>
      <trkpt lat="42.74725" lon="-0.06356">
        <ele>1680</ele>
        <time>2013-06-14T15:52:32Z</time>
      </trkpt>
      <trkpt lat="42.74724" lon="-0.06371">
        <ele>1680</ele>
        <time>2013-06-14T15:52:41Z</time>
      </trkpt>
      <trkpt lat="42.74725" lon="-0.06385">
        <ele>1680</ele>
        <time>2013-06-14T15:52:50Z</time>
      </trkpt>
      <trkpt lat="42.74725" lon="-0.06398">
        <ele>1679</ele>
        <time>2013-06-14T15:52:58Z</time>
      </trkpt>
      <trkpt lat="42.74723" lon="-0.0641">
        <ele>1680</ele>
        <time>2013-06-14T15:53:05Z</time>
      </trkpt>
      <trkpt lat="42.74723" lon="-0.06423">
        <ele>1680</ele>
        <time>2013-06-14T15:53:14Z</time>
      </trkpt>
      <trkpt lat="42.74722" lon="-0.06437">
        <ele>1680</ele>
        <time>2013-06-14T15:53:22Z</time>
      </trkpt>
      <trkpt lat="42.74721" lon="-0.06444">
        <ele>1680</ele>
        <time>2013-06-14T15:53:27Z</time>
      </trkpt>
      <trkpt lat="42.74719" lon="-0.06457">
        <ele>1680</ele>
        <time>2013-06-14T15:53:35Z</time>
      </trkpt>
      <trkpt lat="42.74719" lon="-0.06472">
        <ele>1680</ele>
        <time>2013-06-14T15:53:43Z</time>
      </trkpt>
      <trkpt lat="42.74722" lon="-0.06483">
        <ele>1680</ele>
        <time>2013-06-14T15:53:50Z</time>
      </trkpt>
      <trkpt lat="42.74722" lon="-0.06487">
        <ele>1680</ele>
        <time>2013-06-14T15:53:53Z</time>
      </trkpt>
      <trkpt lat="42.74724" lon="-0.06496">
        <ele>1680</ele>
        <time>2013-06-14T15:53:59Z</time>
      </trkpt>
      <trkpt lat="42.74726" lon="-0.06504">
        <ele>1681</ele>
        <time>2013-06-14T15:54:04Z</time>
      </trkpt>
      <trkpt lat="42.74728" lon="-0.06517">
        <ele>1680</ele>
        <time>2013-06-14T15:54:12Z</time>
      </trkpt>
      <trkpt lat="42.74735" lon="-0.06528">
        <ele>1680</ele>
        <time>2013-06-14T15:54:21Z</time>
      </trkpt>
      <trkpt lat="42.74737" lon="-0.06532">
        <ele>1680</ele>
        <time>2013-06-14T15:54:24Z</time>
      </trkpt>
      <trkpt lat="42.74736" lon="-0.0655">
        <ele>1680</ele>
        <time>2013-06-14T15:54:34Z</time>
      </trkpt>
      <trkpt lat="42.74738" lon="-0.0656">
        <ele>1680</ele>
        <time>2013-06-14T15:54:40Z</time>
      </trkpt>
      <trkpt lat="42.74739" lon="-0.06575">
        <ele>1681</ele>
        <time>2013-06-14T15:54:50Z</time>
      </trkpt>
      <trkpt lat="42.74738" lon="-0.0658">
        <ele>1681</ele>
        <time>2013-06-14T15:54:53Z</time>
      </trkpt>
      <trkpt lat="42.74736" lon="-0.06586">
        <ele>1681</ele>
        <time>2013-06-14T15:54:56Z</time>
      </trkpt>
      <trkpt lat="42.74737" lon="-0.06602">
        <ele>1681</ele>
        <time>2013-06-14T15:55:06Z</time>
      </trkpt>
      <trkpt lat="42.74737" lon="-0.06614">
        <ele>1680</ele>
        <time>2013-06-14T15:55:13Z</time>
      </trkpt>
      <trkpt lat="42.74738" lon="-0.06617">
        <ele>1680</ele>
        <time>2013-06-14T15:55:15Z</time>
      </trkpt>
      <trkpt lat="42.74738" lon="-0.06621">
        <ele>1680</ele>
        <time>2013-06-14T15:55:18Z</time>
      </trkpt>
      <trkpt lat="42.74739" lon="-0.06627">
        <ele>1679</ele>
        <time>2013-06-14T15:55:22Z</time>
      </trkpt>
      <trkpt lat="42.7474" lon="-0.06633">
        <ele>1679</ele>
        <time>2013-06-14T15:55:26Z</time>
      </trkpt>
      <trkpt lat="42.74742" lon="-0.06636">
        <ele>1679</ele>
        <time>2013-06-14T15:55:29Z</time>
      </trkpt>
      <trkpt lat="42.74747" lon="-0.06646">
        <ele>1679</ele>
        <time>2013-06-14T15:55:35Z</time>
      </trkpt>
      <trkpt lat="42.74755" lon="-0.06657">
        <ele>1678</ele>
        <time>2013-06-14T15:55:43Z</time>
      </trkpt>
      <trkpt lat="42.74754" lon="-0.06665">
        <ele>1678</ele>
        <time>2013-06-14T15:55:47Z</time>
      </trkpt>
      <trkpt lat="42.74758" lon="-0.06677">
        <ele>1678</ele>
        <time>2013-06-14T15:55:54Z</time>
      </trkpt>
      <trkpt lat="42.74765" lon="-0.06685">
        <ele>1677</ele>
        <time>2013-06-14T15:56:02Z</time>
      </trkpt>
      <trkpt lat="42.74765" lon="-0.06701">
        <ele>1677</ele>
        <time>2013-06-14T15:56:11Z</time>
      </trkpt>
      <trkpt lat="42.74764" lon="-0.06709">
        <ele>1676</ele>
        <time>2013-06-14T15:56:15Z</time>
      </trkpt>
      <trkpt lat="42.74761" lon="-0.06728">
        <ele>1676</ele>
        <time>2013-06-14T15:56:25Z</time>
      </trkpt>
      <trkpt lat="42.74758" lon="-0.06745">
        <ele>1676</ele>
        <time>2013-06-14T15:56:33Z</time>
      </trkpt>
      <trkpt lat="42.74757" lon="-0.06763">
        <ele>1676</ele>
        <time>2013-06-14T15:56:43Z</time>
      </trkpt>
      <trkpt lat="42.74756" lon="-0.06779">
        <ele>1675</ele>
        <time>2013-06-14T15:56:53Z</time>
      </trkpt>
      <trkpt lat="42.74756" lon="-0.06792">
        <ele>1675</ele>
        <time>2013-06-14T15:57:00Z</time>
      </trkpt>
      <trkpt lat="42.74756" lon="-0.06806">
        <ele>1674</ele>
        <time>2013-06-14T15:57:08Z</time>
      </trkpt>
      <trkpt lat="42.74757" lon="-0.06812">
        <ele>1674</ele>
        <time>2013-06-14T15:57:12Z</time>
      </trkpt>
      <trkpt lat="42.74758" lon="-0.06819">
        <ele>1674</ele>
        <time>2013-06-14T15:57:16Z</time>
      </trkpt>
      <trkpt lat="42.74759" lon="-0.06831">
        <ele>1674</ele>
        <time>2013-06-14T15:57:24Z</time>
      </trkpt>
      <trkpt lat="42.74759" lon="-0.06839">
        <ele>1673</ele>
        <time>2013-06-14T15:57:30Z</time>
      </trkpt>
      <trkpt lat="42.74764" lon="-0.06845">
        <ele>1673</ele>
        <time>2013-06-14T15:57:37Z</time>
      </trkpt>
      <trkpt lat="42.74766" lon="-0.06849">
        <ele>1674</ele>
        <time>2013-06-14T15:57:44Z</time>
      </trkpt>
      <trkpt lat="42.74768" lon="-0.06852">
        <ele>1673</ele>
        <time>2013-06-14T15:57:47Z</time>
      </trkpt>
      <trkpt lat="42.74772" lon="-0.06859">
        <ele>1673</ele>
        <time>2013-06-14T15:57:52Z</time>
      </trkpt>
      <trkpt lat="42.74774" lon="-0.06866">
        <ele>1672</ele>
        <time>2013-06-14T15:58:00Z</time>
      </trkpt>
      <trkpt lat="42.74774" lon="-0.0687">
        <ele>1673</ele>
        <time>2013-06-14T15:58:08Z</time>
      </trkpt>
      <trkpt lat="42.74774" lon="-0.06871">
        <ele>1672</ele>
        <time>2013-06-14T15:58:09Z</time>
      </trkpt>
      <trkpt lat="42.74775" lon="-0.06882">
        <ele>1671</ele>
        <time>2013-06-14T15:58:16Z</time>
      </trkpt>
      <trkpt lat="42.74777" lon="-0.06889">
        <ele>1671</ele>
        <time>2013-06-14T15:58:21Z</time>
      </trkpt>
      <trkpt lat="42.7478" lon="-0.06893">
        <ele>1671</ele>
        <time>2013-06-14T15:58:24Z</time>
      </trkpt>
      <trkpt lat="42.74781" lon="-0.06895">
        <ele>1671</ele>
        <time>2013-06-14T15:58:25Z</time>
      </trkpt>
      <trkpt lat="42.74783" lon="-0.06908">
        <ele>1671</ele>
        <time>2013-06-14T15:58:35Z</time>
      </trkpt>
      <trkpt lat="42.74791" lon="-0.06915">
        <ele>1671</ele>
        <time>2013-06-14T15:58:43Z</time>
      </trkpt>
      <trkpt lat="42.74798" lon="-0.06916">
        <ele>1670</ele>
        <time>2013-06-14T15:58:47Z</time>
      </trkpt>
      <trkpt lat="42.74809" lon="-0.0692">
        <ele>1671</ele>
        <time>2013-06-14T15:58:55Z</time>
      </trkpt>
      <trkpt lat="42.74819" lon="-0.06927">
        <ele>1671</ele>
        <time>2013-06-14T15:59:04Z</time>
      </trkpt>
      <trkpt lat="42.74822" lon="-0.0693">
        <ele>1671</ele>
        <time>2013-06-14T15:59:07Z</time>
      </trkpt>
      <trkpt lat="42.74829" lon="-0.06937">
        <ele>1671</ele>
        <time>2013-06-14T15:59:13Z</time>
      </trkpt>
      <trkpt lat="42.74835" lon="-0.06947">
        <ele>1670</ele>
        <time>2013-06-14T15:59:21Z</time>
      </trkpt>
      <trkpt lat="42.74841" lon="-0.06957">
        <ele>1670</ele>
        <time>2013-06-14T15:59:28Z</time>
      </trkpt>
      <trkpt lat="42.74847" lon="-0.06964">
        <ele>1670</ele>
        <time>2013-06-14T15:59:34Z</time>
      </trkpt>
      <trkpt lat="42.7486" lon="-0.06978">
        <ele>1670</ele>
        <time>2013-06-14T15:59:44Z</time>
      </trkpt>
      <trkpt lat="42.74871" lon="-0.06995">
        <ele>1670</ele>
        <time>2013-06-14T15:59:55Z</time>
      </trkpt>
      <trkpt lat="42.74878" lon="-0.07005">
        <ele>1670</ele>
        <time>2013-06-14T16:00:03Z</time>
      </trkpt>
      <trkpt lat="42.74888" lon="-0.07016">
        <ele>1670</ele>
        <time>2013-06-14T16:00:11Z</time>
      </trkpt>
      <trkpt lat="42.74896" lon="-0.07027">
        <ele>1671</ele>
        <time>2013-06-14T16:00:18Z</time>
      </trkpt>
      <trkpt lat="42.74896" lon="-0.07045">
        <ele>1671</ele>
        <time>2013-06-14T16:00:27Z</time>
      </trkpt>
      <trkpt lat="42.74896" lon="-0.07053">
        <ele>1671</ele>
        <time>2013-06-14T16:00:33Z</time>
      </trkpt>
      <trkpt lat="42.74896" lon="-0.07055">
        <ele>1671</ele>
        <time>2013-06-14T16:00:34Z</time>
      </trkpt>
      <trkpt lat="42.74899" lon="-0.07069">
        <ele>1672</ele>
        <time>2013-06-14T16:00:43Z</time>
      </trkpt>
      <trkpt lat="42.74901" lon="-0.07076">
        <ele>1671</ele>
        <time>2013-06-14T16:00:48Z</time>
      </trkpt>
      <trkpt lat="42.74902" lon="-0.07081">
        <ele>1672</ele>
        <time>2013-06-14T16:00:51Z</time>
      </trkpt>
      <trkpt lat="42.74904" lon="-0.07088">
        <ele>1672</ele>
        <time>2013-06-14T16:00:55Z</time>
      </trkpt>
      <trkpt lat="42.74913" lon="-0.07103">
        <ele>1671</ele>
        <time>2013-06-14T16:01:05Z</time>
      </trkpt>
      <trkpt lat="42.74913" lon="-0.07105">
        <ele>1671</ele>
        <time>2013-06-14T16:01:06Z</time>
      </trkpt>
      <trkpt lat="42.74917" lon="-0.07116">
        <ele>1671</ele>
        <time>2013-06-14T16:01:13Z</time>
      </trkpt>
      <trkpt lat="42.74923" lon="-0.07124">
        <ele>1672</ele>
        <time>2013-06-14T16:01:20Z</time>
      </trkpt>
      <trkpt lat="42.7493" lon="-0.07137">
        <ele>1673</ele>
        <time>2013-06-14T16:01:29Z</time>
      </trkpt>
      <trkpt lat="42.74934" lon="-0.0715">
        <ele>1672</ele>
        <time>2013-06-14T16:01:38Z</time>
      </trkpt>
      <trkpt lat="42.74936" lon="-0.0716">
        <ele>1672</ele>
        <time>2013-06-14T16:01:46Z</time>
      </trkpt>
      <trkpt lat="42.74937" lon="-0.0717">
        <ele>1672</ele>
        <time>2013-06-14T16:01:56Z</time>
      </trkpt>
      <trkpt lat="42.74939" lon="-0.0718">
        <ele>1672</ele>
        <time>2013-06-14T16:02:06Z</time>
      </trkpt>
      <trkpt lat="42.7494" lon="-0.07188">
        <ele>1672</ele>
        <time>2013-06-14T16:02:13Z</time>
      </trkpt>
      <trkpt lat="42.74943" lon="-0.07202">
        <ele>1672</ele>
        <time>2013-06-14T16:02:23Z</time>
      </trkpt>
      <trkpt lat="42.74943" lon="-0.07205">
        <ele>1672</ele>
        <time>2013-06-14T16:02:25Z</time>
      </trkpt>
      <trkpt lat="42.74949" lon="-0.07215">
        <ele>1672</ele>
        <time>2013-06-14T16:02:33Z</time>
      </trkpt>
      <trkpt lat="42.74953" lon="-0.07229">
        <ele>1673</ele>
        <time>2013-06-14T16:02:43Z</time>
      </trkpt>
      <trkpt lat="42.74957" lon="-0.07246">
        <ele>1673</ele>
        <time>2013-06-14T16:02:55Z</time>
      </trkpt>
      <trkpt lat="42.74959" lon="-0.0726">
        <ele>1673</ele>
        <time>2013-06-14T16:03:03Z</time>
      </trkpt>
      <trkpt lat="42.74968" lon="-0.07284">
        <ele>1672</ele>
        <time>2013-06-14T16:03:12Z</time>
      </trkpt>
      <trkpt lat="42.74972" lon="-0.0729">
        <ele>1673</ele>
        <time>2013-06-14T16:03:16Z</time>
      </trkpt>
      <trkpt lat="42.74973" lon="-0.07295">
        <ele>1673</ele>
        <time>2013-06-14T16:03:24Z</time>
      </trkpt>
      <trkpt lat="42.74974" lon="-0.07295">
        <ele>1673</ele>
        <time>2013-06-14T16:03:34Z</time>
      </trkpt>
      <trkpt lat="42.74978" lon="-0.07297">
        <ele>1673</ele>
        <time>2013-06-14T16:03:47Z</time>
      </trkpt>
      <trkpt lat="42.74989" lon="-0.07295">
        <ele>1673</ele>
        <time>2013-06-14T16:03:56Z</time>
      </trkpt>
      <trkpt lat="42.74997" lon="-0.07293">
        <ele>1674</ele>
        <time>2013-06-14T16:04:02Z</time>
      </trkpt>
      <trkpt lat="42.75005" lon="-0.07294">
        <ele>1673</ele>
        <time>2013-06-14T16:04:08Z</time>
      </trkpt>
      <trkpt lat="42.75014" lon="-0.073">
        <ele>1674</ele>
        <time>2013-06-14T16:04:15Z</time>
      </trkpt>
      <trkpt lat="42.75021" lon="-0.07305">
        <ele>1675</ele>
        <time>2013-06-14T16:04:23Z</time>
      </trkpt>
      <trkpt lat="42.75028" lon="-0.07312">
        <ele>1676</ele>
        <time>2013-06-14T16:04:32Z</time>
      </trkpt>
      <trkpt lat="42.75038" lon="-0.07319">
        <ele>1676</ele>
        <time>2013-06-14T16:04:39Z</time>
      </trkpt>
      <trkpt lat="42.75046" lon="-0.07325">
        <ele>1678</ele>
        <time>2013-06-14T16:04:47Z</time>
      </trkpt>
      <trkpt lat="42.75051" lon="-0.07331">
        <ele>1678</ele>
        <time>2013-06-14T16:04:56Z</time>
      </trkpt>
      <trkpt lat="42.75056" lon="-0.07336">
        <ele>1679</ele>
        <time>2013-06-14T16:05:02Z</time>
      </trkpt>
      <trkpt lat="42.7506" lon="-0.07338">
        <ele>1679</ele>
        <time>2013-06-14T16:05:10Z</time>
      </trkpt>
      <trkpt lat="42.75064" lon="-0.0734">
        <ele>1679</ele>
        <time>2013-06-14T16:05:15Z</time>
      </trkpt>
      <trkpt lat="42.75077" lon="-0.07343">
        <ele>1680</ele>
        <time>2013-06-14T16:05:26Z</time>
      </trkpt>
      <trkpt lat="42.75087" lon="-0.07343">
        <ele>1681</ele>
        <time>2013-06-14T16:05:33Z</time>
      </trkpt>
      <trkpt lat="42.75095" lon="-0.07343">
        <ele>1681</ele>
        <time>2013-06-14T16:05:41Z</time>
      </trkpt>
      <trkpt lat="42.75105" lon="-0.07345">
        <ele>1682</ele>
        <time>2013-06-14T16:05:50Z</time>
      </trkpt>
      <trkpt lat="42.75108" lon="-0.07349">
        <ele>1682</ele>
        <time>2013-06-14T16:05:55Z</time>
      </trkpt>
      <trkpt lat="42.75111" lon="-0.07355">
        <ele>1683</ele>
        <time>2013-06-14T16:06:01Z</time>
      </trkpt>
      <trkpt lat="42.75115" lon="-0.07365">
        <ele>1683</ele>
        <time>2013-06-14T16:06:09Z</time>
      </trkpt>
      <trkpt lat="42.75117" lon="-0.07377">
        <ele>1684</ele>
        <time>2013-06-14T16:06:16Z</time>
      </trkpt>
      <trkpt lat="42.75119" lon="-0.07388">
        <ele>1684</ele>
        <time>2013-06-14T16:06:23Z</time>
      </trkpt>
      <trkpt lat="42.7512" lon="-0.07395">
        <ele>1685</ele>
        <time>2013-06-14T16:06:31Z</time>
      </trkpt>
      <trkpt lat="42.75124" lon="-0.07403">
        <ele>1685</ele>
        <time>2013-06-14T16:06:38Z</time>
      </trkpt>
      <trkpt lat="42.75127" lon="-0.07411">
        <ele>1685</ele>
        <time>2013-06-14T16:06:44Z</time>
      </trkpt>
      <trkpt lat="42.75131" lon="-0.07422">
        <ele>1686</ele>
        <time>2013-06-14T16:06:53Z</time>
      </trkpt>
      <trkpt lat="42.75137" lon="-0.07431">
        <ele>1687</ele>
        <time>2013-06-14T16:07:02Z</time>
      </trkpt>
      <trkpt lat="42.75142" lon="-0.0744">
        <ele>1688</ele>
        <time>2013-06-14T16:07:09Z</time>
      </trkpt>
      <trkpt lat="42.75146" lon="-0.07452">
        <ele>1689</ele>
        <time>2013-06-14T16:07:18Z</time>
      </trkpt>
      <trkpt lat="42.7515" lon="-0.07463">
        <ele>1689</ele>
        <time>2013-06-14T16:07:26Z</time>
      </trkpt>
      <trkpt lat="42.75153" lon="-0.07471">
        <ele>1690</ele>
        <time>2013-06-14T16:07:32Z</time>
      </trkpt>
      <trkpt lat="42.75156" lon="-0.07478">
        <ele>1691</ele>
        <time>2013-06-14T16:07:39Z</time>
      </trkpt>
      <trkpt lat="42.7516" lon="-0.07483">
        <ele>1691</ele>
        <time>2013-06-14T16:07:43Z</time>
      </trkpt>
      <trkpt lat="42.75169" lon="-0.0749">
        <ele>1692</ele>
        <time>2013-06-14T16:07:51Z</time>
      </trkpt>
      <trkpt lat="42.75175" lon="-0.07498">
        <ele>1692</ele>
        <time>2013-06-14T16:07:58Z</time>
      </trkpt>
      <trkpt lat="42.75179" lon="-0.07502">
        <ele>1693</ele>
        <time>2013-06-14T16:08:04Z</time>
      </trkpt>
      <trkpt lat="42.75187" lon="-0.07506">
        <ele>1694</ele>
        <time>2013-06-14T16:08:10Z</time>
      </trkpt>
      <trkpt lat="42.75193" lon="-0.07508">
        <ele>1693</ele>
        <time>2013-06-14T16:08:15Z</time>
      </trkpt>
      <trkpt lat="42.75199" lon="-0.07512">
        <ele>1694</ele>
        <time>2013-06-14T16:08:23Z</time>
      </trkpt>
      <trkpt lat="42.75206" lon="-0.07515">
        <ele>1694</ele>
        <time>2013-06-14T16:08:30Z</time>
      </trkpt>
      <trkpt lat="42.75215" lon="-0.0752">
        <ele>1694</ele>
        <time>2013-06-14T16:08:38Z</time>
      </trkpt>
      <trkpt lat="42.75218" lon="-0.07526">
        <ele>1695</ele>
        <time>2013-06-14T16:08:45Z</time>
      </trkpt>
      <trkpt lat="42.75223" lon="-0.07531">
        <ele>1696</ele>
        <time>2013-06-14T16:08:52Z</time>
      </trkpt>
      <trkpt lat="42.75226" lon="-0.07534">
        <ele>1696</ele>
        <time>2013-06-14T16:08:56Z</time>
      </trkpt>
      <trkpt lat="42.75237" lon="-0.07539">
        <ele>1696</ele>
        <time>2013-06-14T16:09:05Z</time>
      </trkpt>
      <trkpt lat="42.75245" lon="-0.07544">
        <ele>1696</ele>
        <time>2013-06-14T16:09:12Z</time>
      </trkpt>
      <trkpt lat="42.75255" lon="-0.0755">
        <ele>1696</ele>
        <time>2013-06-14T16:09:20Z</time>
      </trkpt>
      <trkpt lat="42.7526" lon="-0.07556">
        <ele>1697</ele>
        <time>2013-06-14T16:09:28Z</time>
      </trkpt>
      <trkpt lat="42.75266" lon="-0.07562">
        <ele>1697</ele>
        <time>2013-06-14T16:09:36Z</time>
      </trkpt>
      <trkpt lat="42.75273" lon="-0.0757">
        <ele>1697</ele>
        <time>2013-06-14T16:09:43Z</time>
      </trkpt>
      <trkpt lat="42.75281" lon="-0.07581">
        <ele>1698</ele>
        <time>2013-06-14T16:09:52Z</time>
      </trkpt>
      <trkpt lat="42.75284" lon="-0.07589">
        <ele>1698</ele>
        <time>2013-06-14T16:09:58Z</time>
      </trkpt>
      <trkpt lat="42.75287" lon="-0.07595">
        <ele>1699</ele>
        <time>2013-06-14T16:10:06Z</time>
      </trkpt>
      <trkpt lat="42.7529" lon="-0.07603">
        <ele>1700</ele>
        <time>2013-06-14T16:10:17Z</time>
      </trkpt>
      <trkpt lat="42.75295" lon="-0.07612">
        <ele>1700</ele>
        <time>2013-06-14T16:10:25Z</time>
      </trkpt>
      <trkpt lat="42.75301" lon="-0.07623">
        <ele>1700</ele>
        <time>2013-06-14T16:10:32Z</time>
      </trkpt>
      <trkpt lat="42.75306" lon="-0.07632">
        <ele>1700</ele>
        <time>2013-06-14T16:10:39Z</time>
      </trkpt>
      <trkpt lat="42.75308" lon="-0.07635">
        <ele>1700</ele>
        <time>2013-06-14T16:10:42Z</time>
      </trkpt>
      <trkpt lat="42.75316" lon="-0.07634">
        <ele>1701</ele>
        <time>2013-06-14T16:10:48Z</time>
      </trkpt>
      <trkpt lat="42.75321" lon="-0.07634">
        <ele>1702</ele>
        <time>2013-06-14T16:10:53Z</time>
      </trkpt>
      <trkpt lat="42.75327" lon="-0.07635">
        <ele>1703</ele>
        <time>2013-06-14T16:11:02Z</time>
      </trkpt>
      <trkpt lat="42.75333" lon="-0.07636">
        <ele>1703</ele>
        <time>2013-06-14T16:11:11Z</time>
      </trkpt>
      <trkpt lat="42.7534" lon="-0.07639">
        <ele>1704</ele>
        <time>2013-06-14T16:11:18Z</time>
      </trkpt>
      <trkpt lat="42.75344" lon="-0.07641">
        <ele>1705</ele>
        <time>2013-06-14T16:11:24Z</time>
      </trkpt>
      <trkpt lat="42.75348" lon="-0.07643">
        <ele>1703</ele>
        <time>2013-06-14T16:11:33Z</time>
      </trkpt>
      <trkpt lat="42.75349" lon="-0.07647">
        <ele>1703</ele>
        <time>2013-06-14T16:11:37Z</time>
      </trkpt>
      <trkpt lat="42.75353" lon="-0.07651">
        <ele>1703</ele>
        <time>2013-06-14T16:11:44Z</time>
      </trkpt>
      <trkpt lat="42.75356" lon="-0.07652">
        <ele>1702</ele>
        <time>2013-06-14T16:11:51Z</time>
      </trkpt>
      <trkpt lat="42.75358" lon="-0.07656">
        <ele>1703</ele>
        <time>2013-06-14T16:11:56Z</time>
      </trkpt>
      <trkpt lat="42.75361" lon="-0.07662">
        <ele>1704</ele>
        <time>2013-06-14T16:12:03Z</time>
      </trkpt>
      <trkpt lat="42.75364" lon="-0.07666">
        <ele>1704</ele>
        <time>2013-06-14T16:12:10Z</time>
      </trkpt>
      <trkpt lat="42.75366" lon="-0.07665">
        <ele>1704</ele>
        <time>2013-06-14T16:12:19Z</time>
      </trkpt>
      <trkpt lat="42.75368" lon="-0.07665">
        <ele>1704</ele>
        <time>2013-06-14T16:12:26Z</time>
      </trkpt>
      <trkpt lat="42.75371" lon="-0.07672">
        <ele>1704</ele>
        <time>2013-06-14T16:12:33Z</time>
      </trkpt>
      <trkpt lat="42.75372" lon="-0.07681">
        <ele>1704</ele>
        <time>2013-06-14T16:12:40Z</time>
      </trkpt>
      <trkpt lat="42.75373" lon="-0.07688">
        <ele>1705</ele>
        <time>2013-06-14T16:12:46Z</time>
      </trkpt>
      <trkpt lat="42.75374" lon="-0.07699">
        <ele>1705</ele>
        <time>2013-06-14T16:12:54Z</time>
      </trkpt>
      <trkpt lat="42.75374" lon="-0.07707">
        <ele>1706</ele>
        <time>2013-06-14T16:12:59Z</time>
      </trkpt>
      <trkpt lat="42.75375" lon="-0.0772">
        <ele>1706</ele>
        <time>2013-06-14T16:13:06Z</time>
      </trkpt>
      <trkpt lat="42.75376" lon="-0.07731">
        <ele>1706</ele>
        <time>2013-06-14T16:13:14Z</time>
      </trkpt>
      <trkpt lat="42.75374" lon="-0.07749">
        <ele>1706</ele>
        <time>2013-06-14T16:13:22Z</time>
      </trkpt>
      <trkpt lat="42.75373" lon="-0.07756">
        <ele>1706</ele>
        <time>2013-06-14T16:13:27Z</time>
      </trkpt>
      <trkpt lat="42.7537" lon="-0.07769">
        <ele>1706</ele>
        <time>2013-06-14T16:13:36Z</time>
      </trkpt>
      <trkpt lat="42.75367" lon="-0.07774">
        <ele>1706</ele>
        <time>2013-06-14T16:13:41Z</time>
      </trkpt>
      <trkpt lat="42.75363" lon="-0.07785">
        <ele>1706</ele>
        <time>2013-06-14T16:13:49Z</time>
      </trkpt>
      <trkpt lat="42.75358" lon="-0.07796">
        <ele>1706</ele>
        <time>2013-06-14T16:13:57Z</time>
      </trkpt>
      <trkpt lat="42.75353" lon="-0.07803">
        <ele>1707</ele>
        <time>2013-06-14T16:14:05Z</time>
      </trkpt>
      <trkpt lat="42.75348" lon="-0.0781">
        <ele>1707</ele>
        <time>2013-06-14T16:14:12Z</time>
      </trkpt>
      <trkpt lat="42.75345" lon="-0.07814">
        <ele>1707</ele>
        <time>2013-06-14T16:14:16Z</time>
      </trkpt>
      <trkpt lat="42.7534" lon="-0.07821">
        <ele>1707</ele>
        <time>2013-06-14T16:14:23Z</time>
      </trkpt>
      <trkpt lat="42.75336" lon="-0.07833">
        <ele>1707</ele>
        <time>2013-06-14T16:14:31Z</time>
      </trkpt>
      <trkpt lat="42.7533" lon="-0.07849">
        <ele>1706</ele>
        <time>2013-06-14T16:14:40Z</time>
      </trkpt>
      <trkpt lat="42.75325" lon="-0.07863">
        <ele>1707</ele>
        <time>2013-06-14T16:14:49Z</time>
      </trkpt>
      <trkpt lat="42.75323" lon="-0.07882">
        <ele>1707</ele>
        <time>2013-06-14T16:15:00Z</time>
      </trkpt>
      <trkpt lat="42.75323" lon="-0.07888">
        <ele>1707</ele>
        <time>2013-06-14T16:15:05Z</time>
      </trkpt>
      <trkpt lat="42.75322" lon="-0.07903">
        <ele>1707</ele>
        <time>2013-06-14T16:15:15Z</time>
      </trkpt>
      <trkpt lat="42.75324" lon="-0.0791">
        <ele>1707</ele>
        <time>2013-06-14T16:15:22Z</time>
      </trkpt>
      <trkpt lat="42.75324" lon="-0.07916">
        <ele>1707</ele>
        <time>2013-06-14T16:15:37Z</time>
      </trkpt>
      <trkpt lat="42.75325" lon="-0.07921">
        <ele>1707</ele>
        <time>2013-06-14T16:15:41Z</time>
      </trkpt>
      <trkpt lat="42.75325" lon="-0.07926">
        <ele>1708</ele>
        <time>2013-06-14T16:15:45Z</time>
      </trkpt>
      <trkpt lat="42.75325" lon="-0.07937">
        <ele>1708</ele>
        <time>2013-06-14T16:15:53Z</time>
      </trkpt>
      <trkpt lat="42.7533" lon="-0.0795">
        <ele>1708</ele>
        <time>2013-06-14T16:16:02Z</time>
      </trkpt>
      <trkpt lat="42.75333" lon="-0.07967">
        <ele>1709</ele>
        <time>2013-06-14T16:16:12Z</time>
      </trkpt>
      <trkpt lat="42.75336" lon="-0.07979">
        <ele>1710</ele>
        <time>2013-06-14T16:16:20Z</time>
      </trkpt>
      <trkpt lat="42.75339" lon="-0.07987">
        <ele>1710</ele>
        <time>2013-06-14T16:16:25Z</time>
      </trkpt>
      <trkpt lat="42.75348" lon="-0.08001">
        <ele>1711</ele>
        <time>2013-06-14T16:16:34Z</time>
      </trkpt>
      <trkpt lat="42.75351" lon="-0.08007">
        <ele>1711</ele>
        <time>2013-06-14T16:16:38Z</time>
      </trkpt>
      <trkpt lat="42.75354" lon="-0.08016">
        <ele>1711</ele>
        <time>2013-06-14T16:16:45Z</time>
      </trkpt>
      <trkpt lat="42.75359" lon="-0.08027">
        <ele>1712</ele>
        <time>2013-06-14T16:16:53Z</time>
      </trkpt>
      <trkpt lat="42.7536" lon="-0.08035">
        <ele>1712</ele>
        <time>2013-06-14T16:17:01Z</time>
      </trkpt>
      <trkpt lat="42.75363" lon="-0.08043">
        <ele>1714</ele>
        <time>2013-06-14T16:17:08Z</time>
      </trkpt>
      <trkpt lat="42.75372" lon="-0.0805">
        <ele>1715</ele>
        <time>2013-06-14T16:17:16Z</time>
      </trkpt>
      <trkpt lat="42.75379" lon="-0.08054">
        <ele>1715</ele>
        <time>2013-06-14T16:17:22Z</time>
      </trkpt>
      <trkpt lat="42.75383" lon="-0.08057">
        <ele>1715</ele>
        <time>2013-06-14T16:17:25Z</time>
      </trkpt>
      <trkpt lat="42.75384" lon="-0.08057">
        <ele>1716</ele>
        <time>2013-06-14T16:17:26Z</time>
      </trkpt>
      <trkpt lat="42.7539" lon="-0.08062">
        <ele>1716</ele>
        <time>2013-06-14T16:17:31Z</time>
      </trkpt>
      <trkpt lat="42.754" lon="-0.08066">
        <ele>1717</ele>
        <time>2013-06-14T16:17:37Z</time>
      </trkpt>
      <trkpt lat="42.75406" lon="-0.0807">
        <ele>1717</ele>
        <time>2013-06-14T16:17:44Z</time>
      </trkpt>
      <trkpt lat="42.75407" lon="-0.0807">
        <ele>1717</ele>
        <time>2013-06-14T16:17:45Z</time>
      </trkpt>
      <trkpt lat="42.75409" lon="-0.08071">
        <ele>1718</ele>
        <time>2013-06-14T16:17:47Z</time>
      </trkpt>
      <trkpt lat="42.7541" lon="-0.08072">
        <ele>1718</ele>
        <time>2013-06-14T16:17:48Z</time>
      </trkpt>
      <trkpt lat="42.75412" lon="-0.08077">
        <ele>1718</ele>
        <time>2013-06-14T16:17:55Z</time>
      </trkpt>
      <trkpt lat="42.75416" lon="-0.08085">
        <ele>1719</ele>
        <time>2013-06-14T16:18:02Z</time>
      </trkpt>
      <trkpt lat="42.75421" lon="-0.08093">
        <ele>1719</ele>
        <time>2013-06-14T16:18:09Z</time>
      </trkpt>
      <trkpt lat="42.75425" lon="-0.081">
        <ele>1720</ele>
        <time>2013-06-14T16:18:16Z</time>
      </trkpt>
      <trkpt lat="42.75426" lon="-0.08106">
        <ele>1720</ele>
        <time>2013-06-14T16:18:20Z</time>
      </trkpt>
      <trkpt lat="42.75427" lon="-0.08115">
        <ele>1721</ele>
        <time>2013-06-14T16:18:27Z</time>
      </trkpt>
      <trkpt lat="42.7543" lon="-0.08121">
        <ele>1722</ele>
        <time>2013-06-14T16:18:34Z</time>
      </trkpt>
      <trkpt lat="42.75433" lon="-0.08131">
        <ele>1723</ele>
        <time>2013-06-14T16:18:43Z</time>
      </trkpt>
      <trkpt lat="42.75434" lon="-0.08141">
        <ele>1724</ele>
        <time>2013-06-14T16:18:50Z</time>
      </trkpt>
      <trkpt lat="42.75434" lon="-0.08153">
        <ele>1725</ele>
        <time>2013-06-14T16:18:58Z</time>
      </trkpt>
      <trkpt lat="42.75433" lon="-0.08166">
        <ele>1725</ele>
        <time>2013-06-14T16:19:07Z</time>
      </trkpt>
      <trkpt lat="42.75429" lon="-0.0817">
        <ele>1724</ele>
        <time>2013-06-14T16:19:14Z</time>
      </trkpt>
      <trkpt lat="42.75424" lon="-0.08165">
        <ele>1723</ele>
        <time>2013-06-14T16:19:21Z</time>
      </trkpt>
      <trkpt lat="42.75422" lon="-0.08162">
        <ele>1723</ele>
        <time>2013-06-14T16:19:28Z</time>
      </trkpt>
      <trkpt lat="42.75427" lon="-0.08162">
        <ele>1723</ele>
        <time>2013-06-14T16:19:36Z</time>
      </trkpt>
      <trkpt lat="42.75426" lon="-0.08162">
        <ele>1724</ele>
        <time>2013-06-14T16:19:44Z</time>
      </trkpt>
      <trkpt lat="42.75424" lon="-0.08167">
        <ele>1726</ele>
        <time>2013-06-14T16:19:52Z</time>
      </trkpt>
      <trkpt lat="42.75423" lon="-0.08168">
        <ele>1727</ele>
        <time>2013-06-14T16:19:58Z</time>
      </trkpt>
      <trkpt lat="42.75419" lon="-0.08162">
        <ele>1728</ele>
        <time>2013-06-14T16:20:05Z</time>
      </trkpt>
      <trkpt lat="42.75416" lon="-0.08157">
        <ele>1730</ele>
        <time>2013-06-14T16:20:11Z</time>
      </trkpt>
      <trkpt lat="42.75413" lon="-0.08156">
        <ele>1730</ele>
        <time>2013-06-14T16:20:18Z</time>
      </trkpt>
      <trkpt lat="42.75412" lon="-0.08163">
        <ele>1732</ele>
        <time>2013-06-14T16:20:26Z</time>
      </trkpt>
      <trkpt lat="42.7541" lon="-0.08168">
        <ele>1733</ele>
        <time>2013-06-14T16:20:33Z</time>
      </trkpt>
      <trkpt lat="42.75405" lon="-0.08173">
        <ele>1734</ele>
        <time>2013-06-14T16:20:43Z</time>
      </trkpt>
      <trkpt lat="42.754" lon="-0.08177">
        <ele>1735</ele>
        <time>2013-06-14T16:20:50Z</time>
      </trkpt>
      <trkpt lat="42.75396" lon="-0.08182">
        <ele>1736</ele>
        <time>2013-06-14T16:20:57Z</time>
      </trkpt>
      <trkpt lat="42.75391" lon="-0.0819">
        <ele>1736</ele>
        <time>2013-06-14T16:21:06Z</time>
      </trkpt>
      <trkpt lat="42.7539" lon="-0.08192">
        <ele>1736</ele>
        <time>2013-06-14T16:21:08Z</time>
      </trkpt>
      <trkpt lat="42.75386" lon="-0.08203">
        <ele>1736</ele>
        <time>2013-06-14T16:21:17Z</time>
      </trkpt>
      <trkpt lat="42.75383" lon="-0.08213">
        <ele>1736</ele>
        <time>2013-06-14T16:21:25Z</time>
      </trkpt>
      <trkpt lat="42.75381" lon="-0.08223">
        <ele>1736</ele>
        <time>2013-06-14T16:21:33Z</time>
      </trkpt>
      <trkpt lat="42.75378" lon="-0.08235">
        <ele>1735</ele>
        <time>2013-06-14T16:21:42Z</time>
      </trkpt>
      <trkpt lat="42.75376" lon="-0.08248">
        <ele>1735</ele>
        <time>2013-06-14T16:21:51Z</time>
      </trkpt>
      <trkpt lat="42.75375" lon="-0.08263">
        <ele>1735</ele>
        <time>2013-06-14T16:22:01Z</time>
      </trkpt>
      <trkpt lat="42.7537" lon="-0.08269">
        <ele>1736</ele>
        <time>2013-06-14T16:22:09Z</time>
      </trkpt>
      <trkpt lat="42.75368" lon="-0.08274">
        <ele>1737</ele>
        <time>2013-06-14T16:22:17Z</time>
      </trkpt>
      <trkpt lat="42.75365" lon="-0.08288">
        <ele>1738</ele>
        <time>2013-06-14T16:22:29Z</time>
      </trkpt>
      <trkpt lat="42.75363" lon="-0.08298">
        <ele>1739</ele>
        <time>2013-06-14T16:22:39Z</time>
      </trkpt>
      <trkpt lat="42.75359" lon="-0.083">
        <ele>1739</ele>
        <time>2013-06-14T16:22:46Z</time>
      </trkpt>
      <trkpt lat="42.75359" lon="-0.08311">
        <ele>1738</ele>
        <time>2013-06-14T16:22:54Z</time>
      </trkpt>
      <trkpt lat="42.75355" lon="-0.08322">
        <ele>1738</ele>
        <time>2013-06-14T16:23:03Z</time>
      </trkpt>
      <trkpt lat="42.75353" lon="-0.08335">
        <ele>1737</ele>
        <time>2013-06-14T16:23:11Z</time>
      </trkpt>
      <trkpt lat="42.75351" lon="-0.08343">
        <ele>1738</ele>
        <time>2013-06-14T16:23:18Z</time>
      </trkpt>
      <trkpt lat="42.75349" lon="-0.0835">
        <ele>1740</ele>
        <time>2013-06-14T16:23:26Z</time>
      </trkpt>
      <trkpt lat="42.75347" lon="-0.08356">
        <ele>1741</ele>
        <time>2013-06-14T16:23:35Z</time>
      </trkpt>
      <trkpt lat="42.75346" lon="-0.08362">
        <ele>1743</ele>
        <time>2013-06-14T16:23:44Z</time>
      </trkpt>
      <trkpt lat="42.75343" lon="-0.08371">
        <ele>1743</ele>
        <time>2013-06-14T16:23:52Z</time>
      </trkpt>
      <trkpt lat="42.75341" lon="-0.08378">
        <ele>1744</ele>
        <time>2013-06-14T16:23:59Z</time>
      </trkpt>
      <trkpt lat="42.7534" lon="-0.08389">
        <ele>1745</ele>
        <time>2013-06-14T16:24:10Z</time>
      </trkpt>
      <trkpt lat="42.7534" lon="-0.08397">
        <ele>1746</ele>
        <time>2013-06-14T16:24:18Z</time>
      </trkpt>
      <trkpt lat="42.75341" lon="-0.08402">
        <ele>1748</ele>
        <time>2013-06-14T16:24:27Z</time>
      </trkpt>
      <trkpt lat="42.7534" lon="-0.0841">
        <ele>1749</ele>
        <time>2013-06-14T16:24:38Z</time>
      </trkpt>
      <trkpt lat="42.75338" lon="-0.08417">
        <ele>1750</ele>
        <time>2013-06-14T16:24:48Z</time>
      </trkpt>
      <trkpt lat="42.75338" lon="-0.08422">
        <ele>1752</ele>
        <time>2013-06-14T16:24:56Z</time>
      </trkpt>
      <trkpt lat="42.75335" lon="-0.08424">
        <ele>1752</ele>
        <time>2013-06-14T16:25:03Z</time>
      </trkpt>
      <trkpt lat="42.75334" lon="-0.08426">
        <ele>1754</ele>
        <time>2013-06-14T16:25:10Z</time>
      </trkpt>
      <trkpt lat="42.7533" lon="-0.08429">
        <ele>1755</ele>
        <time>2013-06-14T16:25:20Z</time>
      </trkpt>
      <trkpt lat="42.75326" lon="-0.08436">
        <ele>1757</ele>
        <time>2013-06-14T16:25:31Z</time>
      </trkpt>
      <trkpt lat="42.75323" lon="-0.08446">
        <ele>1757</ele>
        <time>2013-06-14T16:25:41Z</time>
      </trkpt>
      <trkpt lat="42.75321" lon="-0.08449">
        <ele>1758</ele>
        <time>2013-06-14T16:25:50Z</time>
      </trkpt>
      <trkpt lat="42.75318" lon="-0.08458">
        <ele>1760</ele>
        <time>2013-06-14T16:26:01Z</time>
      </trkpt>
      <trkpt lat="42.75313" lon="-0.0846">
        <ele>1761</ele>
        <time>2013-06-14T16:26:08Z</time>
      </trkpt>
      <trkpt lat="42.75311" lon="-0.08467">
        <ele>1762</ele>
        <time>2013-06-14T16:26:16Z</time>
      </trkpt>
      <trkpt lat="42.75307" lon="-0.08476">
        <ele>1764</ele>
        <time>2013-06-14T16:26:24Z</time>
      </trkpt>
      <trkpt lat="42.75304" lon="-0.08478">
        <ele>1764</ele>
        <time>2013-06-14T16:26:29Z</time>
      </trkpt>
      <trkpt lat="42.75302" lon="-0.08479">
        <ele>1764</ele>
        <time>2013-06-14T16:26:31Z</time>
      </trkpt>
      <trkpt lat="42.75297" lon="-0.08482">
        <ele>1764</ele>
        <time>2013-06-14T16:26:39Z</time>
      </trkpt>
      <trkpt lat="42.75293" lon="-0.08486">
        <ele>1766</ele>
        <time>2013-06-14T16:26:46Z</time>
      </trkpt>
      <trkpt lat="42.75289" lon="-0.08491">
        <ele>1767</ele>
        <time>2013-06-14T16:26:54Z</time>
      </trkpt>
      <trkpt lat="42.75287" lon="-0.08497">
        <ele>1768</ele>
        <time>2013-06-14T16:27:02Z</time>
      </trkpt>
      <trkpt lat="42.75283" lon="-0.08503">
        <ele>1769</ele>
        <time>2013-06-14T16:27:11Z</time>
      </trkpt>
      <trkpt lat="42.75278" lon="-0.08508">
        <ele>1770</ele>
        <time>2013-06-14T16:27:19Z</time>
      </trkpt>
      <trkpt lat="42.75276" lon="-0.08507">
        <ele>1771</ele>
        <time>2013-06-14T16:27:25Z</time>
      </trkpt>
      <trkpt lat="42.75271" lon="-0.0851">
        <ele>1773</ele>
        <time>2013-06-14T16:27:33Z</time>
      </trkpt>
      <trkpt lat="42.75268" lon="-0.08516">
        <ele>1774</ele>
        <time>2013-06-14T16:27:42Z</time>
      </trkpt>
      <trkpt lat="42.75263" lon="-0.08518">
        <ele>1775</ele>
        <time>2013-06-14T16:27:50Z</time>
      </trkpt>
      <trkpt lat="42.7526" lon="-0.08523">
        <ele>1777</ele>
        <time>2013-06-14T16:27:58Z</time>
      </trkpt>
      <trkpt lat="42.75256" lon="-0.08528">
        <ele>1777</ele>
        <time>2013-06-14T16:28:05Z</time>
      </trkpt>
      <trkpt lat="42.75252" lon="-0.08535">
        <ele>1778</ele>
        <time>2013-06-14T16:28:13Z</time>
      </trkpt>
      <trkpt lat="42.7525" lon="-0.08542">
        <ele>1779</ele>
        <time>2013-06-14T16:28:21Z</time>
      </trkpt>
      <trkpt lat="42.75247" lon="-0.08547">
        <ele>1780</ele>
        <time>2013-06-14T16:28:29Z</time>
      </trkpt>
      <trkpt lat="42.75244" lon="-0.08553">
        <ele>1781</ele>
        <time>2013-06-14T16:28:39Z</time>
      </trkpt>
      <trkpt lat="42.75242" lon="-0.08557">
        <ele>1783</ele>
        <time>2013-06-14T16:28:47Z</time>
      </trkpt>
      <trkpt lat="42.7524" lon="-0.08563">
        <ele>1783</ele>
        <time>2013-06-14T16:28:55Z</time>
      </trkpt>
      <trkpt lat="42.75238" lon="-0.08566">
        <ele>1785</ele>
        <time>2013-06-14T16:29:03Z</time>
      </trkpt>
      <trkpt lat="42.75238" lon="-0.08573">
        <ele>1787</ele>
        <time>2013-06-14T16:29:14Z</time>
      </trkpt>
      <trkpt lat="42.75236" lon="-0.08581">
        <ele>1788</ele>
        <time>2013-06-14T16:29:23Z</time>
      </trkpt>
      <trkpt lat="42.75236" lon="-0.08589">
        <ele>1789</ele>
        <time>2013-06-14T16:29:33Z</time>
      </trkpt>
      <trkpt lat="42.75233" lon="-0.08598">
        <ele>1791</ele>
        <time>2013-06-14T16:29:43Z</time>
      </trkpt>
      <trkpt lat="42.75231" lon="-0.08602">
        <ele>1791</ele>
        <time>2013-06-14T16:29:48Z</time>
      </trkpt>
      <trkpt lat="42.75227" lon="-0.0861">
        <ele>1791</ele>
        <time>2013-06-14T16:29:57Z</time>
      </trkpt>
      <trkpt lat="42.75224" lon="-0.08617">
        <ele>1792</ele>
        <time>2013-06-14T16:30:06Z</time>
      </trkpt>
      <trkpt lat="42.75222" lon="-0.0863">
        <ele>1793</ele>
        <time>2013-06-14T16:30:17Z</time>
      </trkpt>
      <trkpt lat="42.75222" lon="-0.08641">
        <ele>1795</ele>
        <time>2013-06-14T16:30:27Z</time>
      </trkpt>
      <trkpt lat="42.75222" lon="-0.08649">
        <ele>1796</ele>
        <time>2013-06-14T16:30:35Z</time>
      </trkpt>
      <trkpt lat="42.75221" lon="-0.08657">
        <ele>1797</ele>
        <time>2013-06-14T16:30:43Z</time>
      </trkpt>
      <trkpt lat="42.7522" lon="-0.08666">
        <ele>1798</ele>
        <time>2013-06-14T16:30:52Z</time>
      </trkpt>
      <trkpt lat="42.75218" lon="-0.08674">
        <ele>1799</ele>
        <time>2013-06-14T16:31:02Z</time>
      </trkpt>
      <trkpt lat="42.75217" lon="-0.08682">
        <ele>1801</ele>
        <time>2013-06-14T16:31:11Z</time>
      </trkpt>
      <trkpt lat="42.75212" lon="-0.0868">
        <ele>1801</ele>
        <time>2013-06-14T16:31:18Z</time>
      </trkpt>
      <trkpt lat="42.75212" lon="-0.08687">
        <ele>1803</ele>
        <time>2013-06-14T16:31:27Z</time>
      </trkpt>
      <trkpt lat="42.75208" lon="-0.08692">
        <ele>1804</ele>
        <time>2013-06-14T16:31:35Z</time>
      </trkpt>
      <trkpt lat="42.75203" lon="-0.087">
        <ele>1804</ele>
        <time>2013-06-14T16:31:43Z</time>
      </trkpt>
      <trkpt lat="42.75197" lon="-0.08708">
        <ele>1804</ele>
        <time>2013-06-14T16:31:51Z</time>
      </trkpt>
      <trkpt lat="42.75192" lon="-0.08717">
        <ele>1804</ele>
        <time>2013-06-14T16:32:00Z</time>
      </trkpt>
      <trkpt lat="42.75186" lon="-0.08726">
        <ele>1805</ele>
        <time>2013-06-14T16:32:08Z</time>
      </trkpt>
      <trkpt lat="42.7518" lon="-0.08736">
        <ele>1805</ele>
        <time>2013-06-14T16:32:16Z</time>
      </trkpt>
      <trkpt lat="42.75177" lon="-0.08746">
        <ele>1805</ele>
        <time>2013-06-14T16:32:24Z</time>
      </trkpt>
      <trkpt lat="42.75175" lon="-0.08757">
        <ele>1806</ele>
        <time>2013-06-14T16:32:34Z</time>
      </trkpt>
      <trkpt lat="42.7517" lon="-0.08764">
        <ele>1806</ele>
        <time>2013-06-14T16:32:41Z</time>
      </trkpt>
      <trkpt lat="42.75161" lon="-0.08775">
        <ele>1805</ele>
        <time>2013-06-14T16:32:51Z</time>
      </trkpt>
      <trkpt lat="42.75156" lon="-0.08787">
        <ele>1805</ele>
        <time>2013-06-14T16:33:00Z</time>
      </trkpt>
      <trkpt lat="42.75156" lon="-0.08788">
        <ele>1806</ele>
        <time>2013-06-14T16:33:01Z</time>
      </trkpt>
      <trkpt lat="42.75153" lon="-0.08798">
        <ele>1807</ele>
        <time>2013-06-14T16:33:08Z</time>
      </trkpt>
      <trkpt lat="42.75146" lon="-0.08808">
        <ele>1807</ele>
        <time>2013-06-14T16:33:16Z</time>
      </trkpt>
      <trkpt lat="42.75138" lon="-0.08814">
        <ele>1806</ele>
        <time>2013-06-14T16:33:25Z</time>
      </trkpt>
      <trkpt lat="42.75135" lon="-0.08819">
        <ele>1806</ele>
        <time>2013-06-14T16:33:34Z</time>
      </trkpt>
      <trkpt lat="42.75132" lon="-0.08827">
        <ele>1808</ele>
        <time>2013-06-14T16:33:42Z</time>
      </trkpt>
      <trkpt lat="42.75129" lon="-0.08836">
        <ele>1809</ele>
        <time>2013-06-14T16:33:51Z</time>
      </trkpt>
      <trkpt lat="42.75127" lon="-0.08843">
        <ele>1810</ele>
        <time>2013-06-14T16:34:00Z</time>
      </trkpt>
      <trkpt lat="42.75129" lon="-0.08844">
        <ele>1810</ele>
        <time>2013-06-14T16:34:06Z</time>
      </trkpt>
      <trkpt lat="42.75132" lon="-0.08846">
        <ele>1810</ele>
        <time>2013-06-14T16:34:09Z</time>
      </trkpt>
      <trkpt lat="42.75137" lon="-0.08849">
        <ele>1812</ele>
        <time>2013-06-14T16:34:16Z</time>
      </trkpt>
      <trkpt lat="42.75144" lon="-0.08855">
        <ele>1813</ele>
        <time>2013-06-14T16:34:25Z</time>
      </trkpt>
      <trkpt lat="42.75149" lon="-0.08861">
        <ele>1814</ele>
        <time>2013-06-14T16:34:33Z</time>
      </trkpt>
      <trkpt lat="42.75149" lon="-0.08868">
        <ele>1815</ele>
        <time>2013-06-14T16:34:40Z</time>
      </trkpt>
      <trkpt lat="42.75148" lon="-0.08875">
        <ele>1816</ele>
        <time>2013-06-14T16:34:47Z</time>
      </trkpt>
      <trkpt lat="42.75144" lon="-0.08878">
        <ele>1817</ele>
        <time>2013-06-14T16:34:56Z</time>
      </trkpt>
      <trkpt lat="42.75139" lon="-0.08879">
        <ele>1819</ele>
        <time>2013-06-14T16:35:06Z</time>
      </trkpt>
      <trkpt lat="42.75138" lon="-0.08883">
        <ele>1819</ele>
        <time>2013-06-14T16:35:11Z</time>
      </trkpt>
      <trkpt lat="42.75135" lon="-0.08889">
        <ele>1821</ele>
        <time>2013-06-14T16:35:22Z</time>
      </trkpt>
      <trkpt lat="42.75133" lon="-0.08895">
        <ele>1823</ele>
        <time>2013-06-14T16:35:32Z</time>
      </trkpt>
      <trkpt lat="42.75132" lon="-0.089">
        <ele>1823</ele>
        <time>2013-06-14T16:35:39Z</time>
      </trkpt>
      <trkpt lat="42.75127" lon="-0.08901">
        <ele>1825</ele>
        <time>2013-06-14T16:35:49Z</time>
      </trkpt>
      <trkpt lat="42.75122" lon="-0.08903">
        <ele>1826</ele>
        <time>2013-06-14T16:35:56Z</time>
      </trkpt>
      <trkpt lat="42.75119" lon="-0.08907">
        <ele>1827</ele>
        <time>2013-06-14T16:36:04Z</time>
      </trkpt>
      <trkpt lat="42.75114" lon="-0.08909">
        <ele>1829</ele>
        <time>2013-06-14T16:36:14Z</time>
      </trkpt>
      <trkpt lat="42.75111" lon="-0.0891">
        <ele>1830</ele>
        <time>2013-06-14T16:36:20Z</time>
      </trkpt>
      <trkpt lat="42.75109" lon="-0.08918">
        <ele>1831</ele>
        <time>2013-06-14T16:36:29Z</time>
      </trkpt>
      <trkpt lat="42.75104" lon="-0.0892">
        <ele>1832</ele>
        <time>2013-06-14T16:36:38Z</time>
      </trkpt>
      <trkpt lat="42.75102" lon="-0.08924">
        <ele>1834</ele>
        <time>2013-06-14T16:36:46Z</time>
      </trkpt>
      <trkpt lat="42.75098" lon="-0.08928">
        <ele>1834</ele>
        <time>2013-06-14T16:36:54Z</time>
      </trkpt>
      <trkpt lat="42.75094" lon="-0.08931">
        <ele>1836</ele>
        <time>2013-06-14T16:37:03Z</time>
      </trkpt>
      <trkpt lat="42.7509" lon="-0.08935">
        <ele>1838</ele>
        <time>2013-06-14T16:37:12Z</time>
      </trkpt>
      <trkpt lat="42.75088" lon="-0.08936">
        <ele>1839</ele>
        <time>2013-06-14T16:37:20Z</time>
      </trkpt>
      <trkpt lat="42.75086" lon="-0.08937">
        <ele>1840</ele>
        <time>2013-06-14T16:37:28Z</time>
      </trkpt>
      <trkpt lat="42.75083" lon="-0.08937">
        <ele>1841</ele>
        <time>2013-06-14T16:37:35Z</time>
      </trkpt>
      <trkpt lat="42.75081" lon="-0.08943">
        <ele>1842</ele>
        <time>2013-06-14T16:37:42Z</time>
      </trkpt>
      <trkpt lat="42.75079" lon="-0.08948">
        <ele>1843</ele>
        <time>2013-06-14T16:37:50Z</time>
      </trkpt>
      <trkpt lat="42.75077" lon="-0.08951">
        <ele>1844</ele>
        <time>2013-06-14T16:37:58Z</time>
      </trkpt>
      <trkpt lat="42.75074" lon="-0.08953">
        <ele>1845</ele>
        <time>2013-06-14T16:38:06Z</time>
      </trkpt>
      <trkpt lat="42.75072" lon="-0.08961">
        <ele>1847</ele>
        <time>2013-06-14T16:38:16Z</time>
      </trkpt>
      <trkpt lat="42.7507" lon="-0.08969">
        <ele>1849</ele>
        <time>2013-06-14T16:38:26Z</time>
      </trkpt>
      <trkpt lat="42.75067" lon="-0.08971">
        <ele>1849</ele>
        <time>2013-06-14T16:38:35Z</time>
      </trkpt>
      <trkpt lat="42.75064" lon="-0.08975">
        <ele>1850</ele>
        <time>2013-06-14T16:38:43Z</time>
      </trkpt>
      <trkpt lat="42.7506" lon="-0.08979">
        <ele>1852</ele>
        <time>2013-06-14T16:38:50Z</time>
      </trkpt>
      <trkpt lat="42.75057" lon="-0.08984">
        <ele>1853</ele>
        <time>2013-06-14T16:39:00Z</time>
      </trkpt>
      <trkpt lat="42.75055" lon="-0.0899">
        <ele>1853</ele>
        <time>2013-06-14T16:39:08Z</time>
      </trkpt>
      <trkpt lat="42.75052" lon="-0.08995">
        <ele>1854</ele>
        <time>2013-06-14T16:39:17Z</time>
      </trkpt>
      <trkpt lat="42.75049" lon="-0.08995">
        <ele>1855</ele>
        <time>2013-06-14T16:39:25Z</time>
      </trkpt>
      <trkpt lat="42.75048" lon="-0.08994">
        <ele>1856</ele>
        <time>2013-06-14T16:39:32Z</time>
      </trkpt>
      <trkpt lat="42.75048" lon="-0.08999">
        <ele>1857</ele>
        <time>2013-06-14T16:39:41Z</time>
      </trkpt>
      <trkpt lat="42.75047" lon="-0.09">
        <ele>1858</ele>
        <time>2013-06-14T16:39:52Z</time>
      </trkpt>
      <trkpt lat="42.75044" lon="-0.09006">
        <ele>1859</ele>
        <time>2013-06-14T16:40:01Z</time>
      </trkpt>
      <trkpt lat="42.75042" lon="-0.09008">
        <ele>1859</ele>
        <time>2013-06-14T16:40:08Z</time>
      </trkpt>
      <trkpt lat="42.75042" lon="-0.0901">
        <ele>1859</ele>
        <time>2013-06-14T16:40:16Z</time>
      </trkpt>
      <trkpt lat="42.75039" lon="-0.09011">
        <ele>1860</ele>
        <time>2013-06-14T16:40:23Z</time>
      </trkpt>
      <trkpt lat="42.75037" lon="-0.0901">
        <ele>1861</ele>
        <time>2013-06-14T16:40:30Z</time>
      </trkpt>
      <trkpt lat="42.75036" lon="-0.09011">
        <ele>1862</ele>
        <time>2013-06-14T16:40:35Z</time>
      </trkpt>
      <trkpt lat="42.75036" lon="-0.09017">
        <ele>1862</ele>
        <time>2013-06-14T16:40:43Z</time>
      </trkpt>
      <trkpt lat="42.75034" lon="-0.09023">
        <ele>1864</ele>
        <time>2013-06-14T16:40:53Z</time>
      </trkpt>
      <trkpt lat="42.75031" lon="-0.09023">
        <ele>1865</ele>
        <time>2013-06-14T16:40:58Z</time>
      </trkpt>
      <trkpt lat="42.75028" lon="-0.09026">
        <ele>1866</ele>
        <time>2013-06-14T16:41:05Z</time>
      </trkpt>
      <trkpt lat="42.75028" lon="-0.0903">
        <ele>1867</ele>
        <time>2013-06-14T16:41:12Z</time>
      </trkpt>
      <trkpt lat="42.75027" lon="-0.09033">
        <ele>1867</ele>
        <time>2013-06-14T16:41:18Z</time>
      </trkpt>
      <trkpt lat="42.75028" lon="-0.09035">
        <ele>1867</ele>
        <time>2013-06-14T16:41:25Z</time>
      </trkpt>
      <trkpt lat="42.75024" lon="-0.09036">
        <ele>1868</ele>
        <time>2013-06-14T16:41:33Z</time>
      </trkpt>
      <trkpt lat="42.75022" lon="-0.0904">
        <ele>1870</ele>
        <time>2013-06-14T16:41:42Z</time>
      </trkpt>
      <trkpt lat="42.75019" lon="-0.0904">
        <ele>1870</ele>
        <time>2013-06-14T16:41:49Z</time>
      </trkpt>
      <trkpt lat="42.75019" lon="-0.09044">
        <ele>1871</ele>
        <time>2013-06-14T16:41:56Z</time>
      </trkpt>
      <trkpt lat="42.75016" lon="-0.0905">
        <ele>1873</ele>
        <time>2013-06-14T16:42:05Z</time>
      </trkpt>
      <trkpt lat="42.75012" lon="-0.09053">
        <ele>1873</ele>
        <time>2013-06-14T16:42:13Z</time>
      </trkpt>
      <trkpt lat="42.75011" lon="-0.09057">
        <ele>1875</ele>
        <time>2013-06-14T16:42:21Z</time>
      </trkpt>
      <trkpt lat="42.75009" lon="-0.09061">
        <ele>1877</ele>
        <time>2013-06-14T16:42:32Z</time>
      </trkpt>
      <trkpt lat="42.75008" lon="-0.09063">
        <ele>1878</ele>
        <time>2013-06-14T16:42:39Z</time>
      </trkpt>
      <trkpt lat="42.75007" lon="-0.09067">
        <ele>1878</ele>
        <time>2013-06-14T16:42:46Z</time>
      </trkpt>
      <trkpt lat="42.75006" lon="-0.09069">
        <ele>1880</ele>
        <time>2013-06-14T16:42:55Z</time>
      </trkpt>
      <trkpt lat="42.75003" lon="-0.09072">
        <ele>1880</ele>
        <time>2013-06-14T16:43:06Z</time>
      </trkpt>
      <trkpt lat="42.75001" lon="-0.09073">
        <ele>1880</ele>
        <time>2013-06-14T16:43:15Z</time>
      </trkpt>
      <trkpt lat="42.75" lon="-0.09077">
        <ele>1882</ele>
        <time>2013-06-14T16:43:22Z</time>
      </trkpt>
      <trkpt lat="42.74997" lon="-0.09076">
        <ele>1883</ele>
        <time>2013-06-14T16:43:28Z</time>
      </trkpt>
      <trkpt lat="42.74996" lon="-0.09078">
        <ele>1884</ele>
        <time>2013-06-14T16:43:36Z</time>
      </trkpt>
      <trkpt lat="42.74992" lon="-0.09082">
        <ele>1885</ele>
        <time>2013-06-14T16:43:46Z</time>
      </trkpt>
      <trkpt lat="42.74988" lon="-0.09086">
        <ele>1887</ele>
        <time>2013-06-14T16:43:57Z</time>
      </trkpt>
      <trkpt lat="42.74986" lon="-0.0909">
        <ele>1888</ele>
        <time>2013-06-14T16:44:08Z</time>
      </trkpt>
      <trkpt lat="42.74983" lon="-0.09093">
        <ele>1889</ele>
        <time>2013-06-14T16:44:16Z</time>
      </trkpt>
      <trkpt lat="42.74981" lon="-0.09099">
        <ele>1890</ele>
        <time>2013-06-14T16:44:26Z</time>
      </trkpt>
      <trkpt lat="42.74979" lon="-0.09102">
        <ele>1891</ele>
        <time>2013-06-14T16:44:34Z</time>
      </trkpt>
      <trkpt lat="42.74974" lon="-0.09104">
        <ele>1892</ele>
        <time>2013-06-14T16:44:42Z</time>
      </trkpt>
      <trkpt lat="42.74972" lon="-0.09107">
        <ele>1893</ele>
        <time>2013-06-14T16:44:49Z</time>
      </trkpt>
      <trkpt lat="42.74968" lon="-0.09108">
        <ele>1894</ele>
        <time>2013-06-14T16:44:57Z</time>
      </trkpt>
      <trkpt lat="42.74966" lon="-0.09111">
        <ele>1895</ele>
        <time>2013-06-14T16:45:04Z</time>
      </trkpt>
      <trkpt lat="42.74962" lon="-0.09112">
        <ele>1896</ele>
        <time>2013-06-14T16:45:11Z</time>
      </trkpt>
      <trkpt lat="42.7496" lon="-0.09116">
        <ele>1898</ele>
        <time>2013-06-14T16:45:19Z</time>
      </trkpt>
      <trkpt lat="42.74957" lon="-0.0912">
        <ele>1899</ele>
        <time>2013-06-14T16:45:30Z</time>
      </trkpt>
      <trkpt lat="42.74955" lon="-0.09126">
        <ele>1900</ele>
        <time>2013-06-14T16:45:39Z</time>
      </trkpt>
      <trkpt lat="42.74953" lon="-0.09131">
        <ele>1901</ele>
        <time>2013-06-14T16:45:48Z</time>
      </trkpt>
      <trkpt lat="42.74951" lon="-0.09138">
        <ele>1903</ele>
        <time>2013-06-14T16:45:57Z</time>
      </trkpt>
      <trkpt lat="42.74947" lon="-0.09142">
        <ele>1904</ele>
        <time>2013-06-14T16:46:04Z</time>
      </trkpt>
      <trkpt lat="42.74945" lon="-0.09143">
        <ele>1905</ele>
        <time>2013-06-14T16:46:11Z</time>
      </trkpt>
      <trkpt lat="42.74943" lon="-0.09146">
        <ele>1905</ele>
        <time>2013-06-14T16:46:20Z</time>
      </trkpt>
      <trkpt lat="42.74941" lon="-0.09148">
        <ele>1907</ele>
        <time>2013-06-14T16:46:32Z</time>
      </trkpt>
      <trkpt lat="42.7494" lon="-0.0915">
        <ele>1908</ele>
        <time>2013-06-14T16:46:40Z</time>
      </trkpt>
      <trkpt lat="42.74939" lon="-0.09151">
        <ele>1908</ele>
        <time>2013-06-14T16:46:45Z</time>
      </trkpt>
      <trkpt lat="42.74936" lon="-0.09152">
        <ele>1909</ele>
        <time>2013-06-14T16:46:55Z</time>
      </trkpt>
      <trkpt lat="42.74934" lon="-0.09157">
        <ele>1910</ele>
        <time>2013-06-14T16:47:04Z</time>
      </trkpt>
      <trkpt lat="42.74932" lon="-0.09162">
        <ele>1911</ele>
        <time>2013-06-14T16:47:14Z</time>
      </trkpt>
      <trkpt lat="42.74928" lon="-0.09164">
        <ele>1912</ele>
        <time>2013-06-14T16:47:22Z</time>
      </trkpt>
      <trkpt lat="42.74925" lon="-0.09168">
        <ele>1913</ele>
        <time>2013-06-14T16:47:29Z</time>
      </trkpt>
      <trkpt lat="42.74921" lon="-0.09172">
        <ele>1914</ele>
        <time>2013-06-14T16:47:38Z</time>
      </trkpt>
      <trkpt lat="42.74917" lon="-0.09176">
        <ele>1915</ele>
        <time>2013-06-14T16:47:47Z</time>
      </trkpt>
      <trkpt lat="42.74913" lon="-0.09175">
        <ele>1916</ele>
        <time>2013-06-14T16:47:55Z</time>
      </trkpt>
      <trkpt lat="42.7491" lon="-0.09174">
        <ele>1917</ele>
        <time>2013-06-14T16:48:02Z</time>
      </trkpt>
      <trkpt lat="42.74905" lon="-0.09173">
        <ele>1918</ele>
        <time>2013-06-14T16:48:11Z</time>
      </trkpt>
      <trkpt lat="42.74901" lon="-0.09175">
        <ele>1919</ele>
        <time>2013-06-14T16:48:19Z</time>
      </trkpt>
      <trkpt lat="42.74899" lon="-0.09175">
        <ele>1920</ele>
        <time>2013-06-14T16:48:26Z</time>
      </trkpt>
      <trkpt lat="42.74899" lon="-0.09173">
        <ele>1921</ele>
        <time>2013-06-14T16:48:32Z</time>
      </trkpt>
      <trkpt lat="42.74894" lon="-0.09179">
        <ele>1921</ele>
        <time>2013-06-14T16:48:41Z</time>
      </trkpt>
      <trkpt lat="42.74891" lon="-0.09182">
        <ele>1922</ele>
        <time>2013-06-14T16:48:50Z</time>
      </trkpt>
      <trkpt lat="42.74888" lon="-0.09183">
        <ele>1923</ele>
        <time>2013-06-14T16:48:54Z</time>
      </trkpt>
      <trkpt lat="42.7488" lon="-0.09187">
        <ele>1923</ele>
        <time>2013-06-14T16:49:02Z</time>
      </trkpt>
      <trkpt lat="42.74876" lon="-0.09186">
        <ele>1923</ele>
        <time>2013-06-14T16:49:05Z</time>
      </trkpt>
      <trkpt lat="42.74873" lon="-0.09189">
        <ele>1923</ele>
        <time>2013-06-14T16:49:13Z</time>
      </trkpt>
      <trkpt lat="42.7487" lon="-0.0919">
        <ele>1923</ele>
        <time>2013-06-14T16:49:19Z</time>
      </trkpt>
      <trkpt lat="42.74867" lon="-0.09193">
        <ele>1923</ele>
        <time>2013-06-14T16:49:23Z</time>
      </trkpt>
      <trkpt lat="42.7486" lon="-0.09196">
        <ele>1924</ele>
        <time>2013-06-14T16:49:31Z</time>
      </trkpt>
      <trkpt lat="42.74854" lon="-0.09201">
        <ele>1924</ele>
        <time>2013-06-14T16:49:39Z</time>
      </trkpt>
      <trkpt lat="42.7485" lon="-0.09203">
        <ele>1924</ele>
        <time>2013-06-14T16:49:46Z</time>
      </trkpt>
      <trkpt lat="42.74845" lon="-0.09204">
        <ele>1924</ele>
        <time>2013-06-14T16:49:54Z</time>
      </trkpt>
      <trkpt lat="42.74841" lon="-0.09204">
        <ele>1925</ele>
        <time>2013-06-14T16:49:57Z</time>
      </trkpt>
      <trkpt lat="42.74834" lon="-0.09207">
        <ele>1925</ele>
        <time>2013-06-14T16:50:05Z</time>
      </trkpt>
      <trkpt lat="42.74828" lon="-0.09209">
        <ele>1924</ele>
        <time>2013-06-14T16:50:11Z</time>
      </trkpt>
      <trkpt lat="42.74821" lon="-0.09211">
        <ele>1924</ele>
        <time>2013-06-14T16:50:18Z</time>
      </trkpt>
      <trkpt lat="42.74816" lon="-0.09213">
        <ele>1924</ele>
        <time>2013-06-14T16:50:26Z</time>
      </trkpt>
      <trkpt lat="42.74812" lon="-0.09214">
        <ele>1924</ele>
        <time>2013-06-14T16:50:31Z</time>
      </trkpt>
      <trkpt lat="42.74803" lon="-0.09215">
        <ele>1924</ele>
        <time>2013-06-14T16:50:38Z</time>
      </trkpt>
      <trkpt lat="42.74796" lon="-0.09218">
        <ele>1924</ele>
        <time>2013-06-14T16:50:46Z</time>
      </trkpt>
      <trkpt lat="42.74789" lon="-0.09218">
        <ele>1925</ele>
        <time>2013-06-14T16:50:53Z</time>
      </trkpt>
      <trkpt lat="42.74782" lon="-0.09218">
        <ele>1924</ele>
        <time>2013-06-14T16:51:01Z</time>
      </trkpt>
      <trkpt lat="42.74778" lon="-0.09217">
        <ele>1923</ele>
        <time>2013-06-14T16:51:07Z</time>
      </trkpt>
      <trkpt lat="42.74771" lon="-0.09219">
        <ele>1922</ele>
        <time>2013-06-14T16:51:15Z</time>
      </trkpt>
      <trkpt lat="42.7477" lon="-0.09218">
        <ele>1922</ele>
        <time>2013-06-14T16:51:17Z</time>
      </trkpt>
      <trkpt lat="42.74768" lon="-0.09208">
        <ele>1921</ele>
        <time>2013-06-14T16:51:26Z</time>
      </trkpt>
      <trkpt lat="42.74767" lon="-0.09207">
        <ele>1920</ele>
        <time>2013-06-14T16:51:28Z</time>
      </trkpt>
      <trkpt lat="42.74767" lon="-0.09206">
        <ele>1920</ele>
        <time>2013-06-14T16:51:36Z</time>
      </trkpt>
      <trkpt lat="42.74766" lon="-0.09202">
        <ele>1917</ele>
        <time>2013-06-14T16:51:43Z</time>
      </trkpt>
      <trkpt lat="42.74761" lon="-0.092">
        <ele>1917</ele>
        <time>2013-06-14T16:51:50Z</time>
      </trkpt>
      <trkpt lat="42.74759" lon="-0.09195">
        <ele>1915</ele>
        <time>2013-06-14T16:51:57Z</time>
      </trkpt>
      <trkpt lat="42.74758" lon="-0.09193">
        <ele>1914</ele>
        <time>2013-06-14T16:52:01Z</time>
      </trkpt>
      <trkpt lat="42.74754" lon="-0.09187">
        <ele>1913</ele>
        <time>2013-06-14T16:52:06Z</time>
      </trkpt>
      <trkpt lat="42.74755" lon="-0.09182">
        <ele>1913</ele>
        <time>2013-06-14T16:52:10Z</time>
      </trkpt>
      <trkpt lat="42.74751" lon="-0.09177">
        <ele>1912</ele>
        <time>2013-06-14T16:52:14Z</time>
      </trkpt>
      <trkpt lat="42.74746" lon="-0.0917">
        <ele>1910</ele>
        <time>2013-06-14T16:52:21Z</time>
      </trkpt>
      <trkpt lat="42.74746" lon="-0.09167">
        <ele>1910</ele>
        <time>2013-06-14T16:52:23Z</time>
      </trkpt>
      <trkpt lat="42.74746" lon="-0.09162">
        <ele>1909</ele>
        <time>2013-06-14T16:52:26Z</time>
      </trkpt>
      <trkpt lat="42.74748" lon="-0.09152">
        <ele>1908</ele>
        <time>2013-06-14T16:52:34Z</time>
      </trkpt>
      <trkpt lat="42.74746" lon="-0.0915">
        <ele>1909</ele>
        <time>2013-06-14T16:52:40Z</time>
      </trkpt>
      <trkpt lat="42.74744" lon="-0.09146">
        <ele>1909</ele>
        <time>2013-06-14T16:52:48Z</time>
      </trkpt>
      <trkpt lat="42.74742" lon="-0.09145">
        <ele>1909</ele>
        <time>2013-06-14T16:52:49Z</time>
      </trkpt>
      <trkpt lat="42.74735" lon="-0.09144">
        <ele>1909</ele>
        <time>2013-06-14T16:52:57Z</time>
      </trkpt>
      <trkpt lat="42.74732" lon="-0.09149">
        <ele>1910</ele>
        <time>2013-06-14T16:53:04Z</time>
      </trkpt>
      <trkpt lat="42.74728" lon="-0.09153">
        <ele>1911</ele>
        <time>2013-06-14T16:53:10Z</time>
      </trkpt>
      <trkpt lat="42.74724" lon="-0.09157">
        <ele>1912</ele>
        <time>2013-06-14T16:53:17Z</time>
      </trkpt>
      <trkpt lat="42.74717" lon="-0.09161">
        <ele>1913</ele>
        <time>2013-06-14T16:53:27Z</time>
      </trkpt>
      <trkpt lat="42.74711" lon="-0.09161">
        <ele>1915</ele>
        <time>2013-06-14T16:53:36Z</time>
      </trkpt>
      <trkpt lat="42.74705" lon="-0.0916">
        <ele>1916</ele>
        <time>2013-06-14T16:53:43Z</time>
      </trkpt>
      <trkpt lat="42.74699" lon="-0.0916">
        <ele>1918</ele>
        <time>2013-06-14T16:53:52Z</time>
      </trkpt>
      <trkpt lat="42.74693" lon="-0.0916">
        <ele>1918</ele>
        <time>2013-06-14T16:53:58Z</time>
      </trkpt>
      <trkpt lat="42.74689" lon="-0.09163">
        <ele>1919</ele>
        <time>2013-06-14T16:54:05Z</time>
      </trkpt>
      <trkpt lat="42.74686" lon="-0.09164">
        <ele>1920</ele>
        <time>2013-06-14T16:54:08Z</time>
      </trkpt>
      <trkpt lat="42.74681" lon="-0.09166">
        <ele>1921</ele>
        <time>2013-06-14T16:54:16Z</time>
      </trkpt>
      <trkpt lat="42.74675" lon="-0.0917">
        <ele>1920</ele>
        <time>2013-06-14T16:54:22Z</time>
      </trkpt>
      <trkpt lat="42.74671" lon="-0.09173">
        <ele>1921</ele>
        <time>2013-06-14T16:54:29Z</time>
      </trkpt>
      <trkpt lat="42.74666" lon="-0.09173">
        <ele>1922</ele>
        <time>2013-06-14T16:54:37Z</time>
      </trkpt>
      <trkpt lat="42.74664" lon="-0.09176">
        <ele>1923</ele>
        <time>2013-06-14T16:54:44Z</time>
      </trkpt>
      <trkpt lat="42.74658" lon="-0.09179">
        <ele>1924</ele>
        <time>2013-06-14T16:54:51Z</time>
      </trkpt>
      <trkpt lat="42.74653" lon="-0.0918">
        <ele>1924</ele>
        <time>2013-06-14T16:54:56Z</time>
      </trkpt>
      <trkpt lat="42.74645" lon="-0.09184">
        <ele>1924</ele>
        <time>2013-06-14T16:55:04Z</time>
      </trkpt>
      <trkpt lat="42.74637" lon="-0.09187">
        <ele>1925</ele>
        <time>2013-06-14T16:55:11Z</time>
      </trkpt>
      <trkpt lat="42.74636" lon="-0.09188">
        <ele>1926</ele>
        <time>2013-06-14T16:55:12Z</time>
      </trkpt>
      <trkpt lat="42.7463" lon="-0.0919">
        <ele>1926</ele>
        <time>2013-06-14T16:55:19Z</time>
      </trkpt>
      <trkpt lat="42.74625" lon="-0.09191">
        <ele>1926</ele>
        <time>2013-06-14T16:55:26Z</time>
      </trkpt>
      <trkpt lat="42.7462" lon="-0.09194">
        <ele>1927</ele>
        <time>2013-06-14T16:55:33Z</time>
      </trkpt>
      <trkpt lat="42.74612" lon="-0.09198">
        <ele>1927</ele>
        <time>2013-06-14T16:55:40Z</time>
      </trkpt>
      <trkpt lat="42.74605" lon="-0.09201">
        <ele>1927</ele>
        <time>2013-06-14T16:55:47Z</time>
      </trkpt>
      <trkpt lat="42.746" lon="-0.09204">
        <ele>1927</ele>
        <time>2013-06-14T16:55:54Z</time>
      </trkpt>
      <trkpt lat="42.74596" lon="-0.09204">
        <ele>1927</ele>
        <time>2013-06-14T16:56:00Z</time>
      </trkpt>
      <trkpt lat="42.74591" lon="-0.09209">
        <ele>1927</ele>
        <time>2013-06-14T16:56:07Z</time>
      </trkpt>
      <trkpt lat="42.74588" lon="-0.09213">
        <ele>1928</ele>
        <time>2013-06-14T16:56:15Z</time>
      </trkpt>
      <trkpt lat="42.74585" lon="-0.09217">
        <ele>1929</ele>
        <time>2013-06-14T16:56:21Z</time>
      </trkpt>
      <trkpt lat="42.74579" lon="-0.09221">
        <ele>1929</ele>
        <time>2013-06-14T16:56:29Z</time>
      </trkpt>
      <trkpt lat="42.74552" lon="-0.09188">
        <ele>1930</ele>
        <time>2013-06-14T16:56:37Z</time>
      </trkpt>
      <trkpt lat="42.74546" lon="-0.09192">
        <ele>1931</ele>
        <time>2013-06-14T16:56:45Z</time>
      </trkpt>
      <trkpt lat="42.74546" lon="-0.09192">
        <ele>1931</ele>
        <time>2013-06-14T16:56:54Z</time>
      </trkpt>
      <trkpt lat="42.74553" lon="-0.09194">
        <ele>1931</ele>
        <time>2013-06-14T16:57:01Z</time>
      </trkpt>
      <trkpt lat="42.74547" lon="-0.09191">
        <ele>1930</ele>
        <time>2013-06-14T16:57:08Z</time>
      </trkpt>
      <trkpt lat="42.74542" lon="-0.09193">
        <ele>1931</ele>
        <time>2013-06-14T16:57:14Z</time>
      </trkpt>
      <trkpt lat="42.74538" lon="-0.09197">
        <ele>1933</ele>
        <time>2013-06-14T16:57:21Z</time>
      </trkpt>
      <trkpt lat="42.74534" lon="-0.09196">
        <ele>1933</ele>
        <time>2013-06-14T16:57:26Z</time>
      </trkpt>
      <trkpt lat="42.74532" lon="-0.09195">
        <ele>1934</ele>
        <time>2013-06-14T16:57:33Z</time>
      </trkpt>
      <trkpt lat="42.74531" lon="-0.09193">
        <ele>1934</ele>
        <time>2013-06-14T16:57:35Z</time>
      </trkpt>
      <trkpt lat="42.7453" lon="-0.09192">
        <ele>1934</ele>
        <time>2013-06-14T16:57:42Z</time>
      </trkpt>
      <trkpt lat="42.74532" lon="-0.09192">
        <ele>1935</ele>
        <time>2013-06-14T16:57:52Z</time>
      </trkpt>
      <trkpt lat="42.7453" lon="-0.09194">
        <ele>1934</ele>
        <time>2013-06-14T16:57:58Z</time>
      </trkpt>
      <trkpt lat="42.7453" lon="-0.09189">
        <ele>1934</ele>
        <time>2013-06-14T16:58:08Z</time>
      </trkpt>
      <trkpt lat="42.7453" lon="-0.09188">
        <ele>1934</ele>
        <time>2013-06-14T16:58:15Z</time>
      </trkpt>
      <trkpt lat="42.7453" lon="-0.09189">
        <ele>1935</ele>
        <time>2013-06-14T16:58:27Z</time>
      </trkpt>
      <trkpt lat="42.74531" lon="-0.09189">
        <ele>1935</ele>
        <time>2013-06-14T16:58:37Z</time>
      </trkpt>
      <trkpt lat="42.74529" lon="-0.09189">
        <ele>1934</ele>
        <time>2013-06-14T16:58:48Z</time>
      </trkpt>
      <trkpt lat="42.74528" lon="-0.09187">
        <ele>1933</ele>
        <time>2013-06-14T16:59:03Z</time>
      </trkpt>
      <trkpt lat="42.74528" lon="-0.09185">
        <ele>1934</ele>
        <time>2013-06-14T16:59:20Z</time>
      </trkpt>
      <trkpt lat="42.74527" lon="-0.09185">
        <ele>1934</ele>
        <time>2013-06-14T16:59:36Z</time>
      </trkpt>
      <trkpt lat="42.74527" lon="-0.09184">
        <ele>1934</ele>
        <time>2013-06-14T16:59:53Z</time>
      </trkpt>
      <trkpt lat="42.74527" lon="-0.09184">
        <ele>1934</ele>
        <time>2013-06-14T17:00:05Z</time>
      </trkpt>
      <trkpt lat="42.74526" lon="-0.09183">
        <ele>1934</ele>
        <time>2013-06-14T17:00:22Z</time>
      </trkpt>
      <trkpt lat="42.74527" lon="-0.09182">
        <ele>1933</ele>
        <time>2013-06-14T17:00:45Z</time>
      </trkpt>
      <trkpt lat="42.74526" lon="-0.09182">
        <ele>1934</ele>
        <time>2013-06-14T17:01:03Z</time>
      </trkpt>
      <trkpt lat="42.74529" lon="-0.09188">
        <ele>1933</ele>
        <time>2013-06-14T17:01:21Z</time>
      </trkpt>
      <trkpt lat="42.7453" lon="-0.09193">
        <ele>1934</ele>
        <time>2013-06-14T17:01:39Z</time>
      </trkpt>
      <trkpt lat="42.74531" lon="-0.09197">
        <ele>1934</ele>
        <time>2013-06-14T17:02:00Z</time>
      </trkpt>
      <trkpt lat="42.74532" lon="-0.09198">
        <ele>1934</ele>
        <time>2013-06-14T17:02:22Z</time>
      </trkpt>
      <trkpt lat="42.74534" lon="-0.09201">
        <ele>1934</ele>
        <time>2013-06-14T17:02:38Z</time>
      </trkpt>
      <trkpt lat="42.74533" lon="-0.09201">
        <ele>1934</ele>
        <time>2013-06-14T17:02:55Z</time>
      </trkpt>
      <trkpt lat="42.74532" lon="-0.092">
        <ele>1933</ele>
        <time>2013-06-14T17:03:12Z</time>
      </trkpt>
      <trkpt lat="42.74534" lon="-0.092">
        <ele>1934</ele>
        <time>2013-06-14T17:03:29Z</time>
      </trkpt>
      <trkpt lat="42.74534" lon="-0.09201">
        <ele>1935</ele>
        <time>2013-06-14T17:03:36Z</time>
      </trkpt>
      <trkpt lat="42.74532" lon="-0.09202">
        <ele>1935</ele>
        <time>2013-06-14T17:03:52Z</time>
      </trkpt>
      <trkpt lat="42.74532" lon="-0.09202">
        <ele>1935</ele>
        <time>2013-06-14T17:04:09Z</time>
      </trkpt>
      <trkpt lat="42.74533" lon="-0.09202">
        <ele>1934</ele>
        <time>2013-06-14T17:04:24Z</time>
      </trkpt>
      <trkpt lat="42.74534" lon="-0.09203">
        <ele>1935</ele>
        <time>2013-06-14T17:04:44Z</time>
      </trkpt>
      <trkpt lat="42.74531" lon="-0.09203">
        <ele>1935</ele>
        <time>2013-06-14T17:04:51Z</time>
      </trkpt>
      <trkpt lat="42.74531" lon="-0.09203">
        <ele>1937</ele>
        <time>2013-06-14T17:04:59Z</time>
      </trkpt>
      <trkpt lat="42.74531" lon="-0.09203">
        <ele>1932</ele>
        <time>2013-06-14T17:05:03Z</time>
      </trkpt>
      <trkpt lat="42.74531" lon="-0.09203">
        <ele>1905</ele>
        <time>2013-06-15T03:24:52Z</time>
      </trkpt>
      <trkpt lat="42.74579" lon="-0.09167">
        <ele>1905</ele>
        <time>2013-06-15T03:24:59Z</time>
      </trkpt>
      <trkpt lat="42.74582" lon="-0.09169">
        <ele>1905</ele>
        <time>2013-06-15T03:25:02Z</time>
      </trkpt>
      <trkpt lat="42.74586" lon="-0.09167">
        <ele>1905</ele>
        <time>2013-06-15T03:25:06Z</time>
      </trkpt>
      <trkpt lat="42.7459" lon="-0.09168">
        <ele>1908</ele>
        <time>2013-06-15T03:25:09Z</time>
      </trkpt>
      <trkpt lat="42.74595" lon="-0.09167">
        <ele>1913</ele>
        <time>2013-06-15T03:25:13Z</time>
      </trkpt>
      <trkpt lat="42.74601" lon="-0.09167">
        <ele>1917</ele>
        <time>2013-06-15T03:25:18Z</time>
      </trkpt>
      <trkpt lat="42.74605" lon="-0.09167">
        <ele>1922</ele>
        <time>2013-06-15T03:25:22Z</time>
      </trkpt>
      <trkpt lat="42.74606" lon="-0.09167">
        <ele>1922</ele>
        <time>2013-06-15T03:25:23Z</time>
      </trkpt>
      <trkpt lat="42.74607" lon="-0.09166">
        <ele>1923</ele>
        <time>2013-06-15T03:25:25Z</time>
      </trkpt>
      <trkpt lat="42.74613" lon="-0.09166">
        <ele>1926</ele>
        <time>2013-06-15T03:25:30Z</time>
      </trkpt>
      <trkpt lat="42.74622" lon="-0.0916">
        <ele>1929</ele>
        <time>2013-06-15T03:25:37Z</time>
      </trkpt>
      <trkpt lat="42.74634" lon="-0.09153">
        <ele>1932</ele>
        <time>2013-06-15T03:25:47Z</time>
      </trkpt>
      <trkpt lat="42.74651" lon="-0.09149">
        <ele>1935</ele>
        <time>2013-06-15T03:25:58Z</time>
      </trkpt>
      <trkpt lat="42.74659" lon="-0.09143">
        <ele>1936</ele>
        <time>2013-06-15T03:26:05Z</time>
      </trkpt>
      <trkpt lat="42.74668" lon="-0.09135">
        <ele>1937</ele>
        <time>2013-06-15T03:26:14Z</time>
      </trkpt>
      <trkpt lat="42.74673" lon="-0.09133">
        <ele>1937</ele>
        <time>2013-06-15T03:26:17Z</time>
      </trkpt>
      <trkpt lat="42.74679" lon="-0.0913">
        <ele>1937</ele>
        <time>2013-06-15T03:26:24Z</time>
      </trkpt>
      <trkpt lat="42.74681" lon="-0.09128">
        <ele>1937</ele>
        <time>2013-06-15T03:26:35Z</time>
      </trkpt>
      <trkpt lat="42.74684" lon="-0.0913">
        <ele>1937</ele>
        <time>2013-06-15T03:26:47Z</time>
      </trkpt>
      <trkpt lat="42.74684" lon="-0.0913">
        <ele>1937</ele>
        <time>2013-06-15T03:27:00Z</time>
      </trkpt>
      <trkpt lat="42.74685" lon="-0.0913">
        <ele>1936</ele>
        <time>2013-06-15T03:27:08Z</time>
      </trkpt>
      <trkpt lat="42.74688" lon="-0.0913">
        <ele>1936</ele>
        <time>2013-06-15T03:27:13Z</time>
      </trkpt>
      <trkpt lat="42.74691" lon="-0.09131">
        <ele>1935</ele>
        <time>2013-06-15T03:27:16Z</time>
      </trkpt>
      <trkpt lat="42.74699" lon="-0.09127">
        <ele>1933</ele>
        <time>2013-06-15T03:27:25Z</time>
      </trkpt>
      <trkpt lat="42.74705" lon="-0.09123">
        <ele>1930</ele>
        <time>2013-06-15T03:27:33Z</time>
      </trkpt>
      <trkpt lat="42.74706" lon="-0.0912">
        <ele>1930</ele>
        <time>2013-06-15T03:27:40Z</time>
      </trkpt>
      <trkpt lat="42.7471" lon="-0.09119">
        <ele>1928</ele>
        <time>2013-06-15T03:27:48Z</time>
      </trkpt>
      <trkpt lat="42.74716" lon="-0.09115">
        <ele>1927</ele>
        <time>2013-06-15T03:27:54Z</time>
      </trkpt>
      <trkpt lat="42.74724" lon="-0.09113">
        <ele>1926</ele>
        <time>2013-06-15T03:28:02Z</time>
      </trkpt>
      <trkpt lat="42.74726" lon="-0.09114">
        <ele>1926</ele>
        <time>2013-06-15T03:28:04Z</time>
      </trkpt>
      <trkpt lat="42.74728" lon="-0.09121">
        <ele>1927</ele>
        <time>2013-06-15T03:28:08Z</time>
      </trkpt>
      <trkpt lat="42.74727" lon="-0.09129">
        <ele>1927</ele>
        <time>2013-06-15T03:28:12Z</time>
      </trkpt>
      <trkpt lat="42.74727" lon="-0.09136">
        <ele>1928</ele>
        <time>2013-06-15T03:28:19Z</time>
      </trkpt>
      <trkpt lat="42.74728" lon="-0.09142">
        <ele>1929</ele>
        <time>2013-06-15T03:28:26Z</time>
      </trkpt>
      <trkpt lat="42.74727" lon="-0.09147">
        <ele>1930</ele>
        <time>2013-06-15T03:28:31Z</time>
      </trkpt>
      <trkpt lat="42.74724" lon="-0.09153">
        <ele>1930</ele>
        <time>2013-06-15T03:28:38Z</time>
      </trkpt>
      <trkpt lat="42.74722" lon="-0.0916">
        <ele>1931</ele>
        <time>2013-06-15T03:28:43Z</time>
      </trkpt>
      <trkpt lat="42.74721" lon="-0.09165">
        <ele>1931</ele>
        <time>2013-06-15T03:28:49Z</time>
      </trkpt>
      <trkpt lat="42.7472" lon="-0.09168">
        <ele>1932</ele>
        <time>2013-06-15T03:28:53Z</time>
      </trkpt>
      <trkpt lat="42.74719" lon="-0.09174">
        <ele>1931</ele>
        <time>2013-06-15T03:28:58Z</time>
      </trkpt>
      <trkpt lat="42.74718" lon="-0.09182">
        <ele>1932</ele>
        <time>2013-06-15T03:29:06Z</time>
      </trkpt>
      <trkpt lat="42.74716" lon="-0.09187">
        <ele>1932</ele>
        <time>2013-06-15T03:29:13Z</time>
      </trkpt>
      <trkpt lat="42.74717" lon="-0.09192">
        <ele>1933</ele>
        <time>2013-06-15T03:29:19Z</time>
      </trkpt>
      <trkpt lat="42.74714" lon="-0.09198">
        <ele>1934</ele>
        <time>2013-06-15T03:29:27Z</time>
      </trkpt>
      <trkpt lat="42.74715" lon="-0.09201">
        <ele>1935</ele>
        <time>2013-06-15T03:29:34Z</time>
      </trkpt>
      <trkpt lat="42.74718" lon="-0.09202">
        <ele>1937</ele>
        <time>2013-06-15T03:29:40Z</time>
      </trkpt>
      <trkpt lat="42.74718" lon="-0.09205">
        <ele>1938</ele>
        <time>2013-06-15T03:29:46Z</time>
      </trkpt>
      <trkpt lat="42.7472" lon="-0.0921">
        <ele>1939</ele>
        <time>2013-06-15T03:29:55Z</time>
      </trkpt>
      <trkpt lat="42.74721" lon="-0.09211">
        <ele>1941</ele>
        <time>2013-06-15T03:30:01Z</time>
      </trkpt>
      <trkpt lat="42.74724" lon="-0.09215">
        <ele>1941</ele>
        <time>2013-06-15T03:30:07Z</time>
      </trkpt>
      <trkpt lat="42.74723" lon="-0.09221">
        <ele>1942</ele>
        <time>2013-06-15T03:30:13Z</time>
      </trkpt>
      <trkpt lat="42.74724" lon="-0.09225">
        <ele>1943</ele>
        <time>2013-06-15T03:30:19Z</time>
      </trkpt>
      <trkpt lat="42.74724" lon="-0.0923">
        <ele>1944</ele>
        <time>2013-06-15T03:30:26Z</time>
      </trkpt>
      <trkpt lat="42.74726" lon="-0.09233">
        <ele>1945</ele>
        <time>2013-06-15T03:30:32Z</time>
      </trkpt>
      <trkpt lat="42.74727" lon="-0.09239">
        <ele>1946</ele>
        <time>2013-06-15T03:30:39Z</time>
      </trkpt>
      <trkpt lat="42.74729" lon="-0.09239">
        <ele>1946</ele>
        <time>2013-06-15T03:30:43Z</time>
      </trkpt>
      <trkpt lat="42.74731" lon="-0.09243">
        <ele>1947</ele>
        <time>2013-06-15T03:30:49Z</time>
      </trkpt>
      <trkpt lat="42.74733" lon="-0.09247">
        <ele>1947</ele>
        <time>2013-06-15T03:30:55Z</time>
      </trkpt>
      <trkpt lat="42.74734" lon="-0.09253">
        <ele>1949</ele>
        <time>2013-06-15T03:31:03Z</time>
      </trkpt>
      <trkpt lat="42.74737" lon="-0.09258">
        <ele>1950</ele>
        <time>2013-06-15T03:31:11Z</time>
      </trkpt>
      <trkpt lat="42.74735" lon="-0.09263">
        <ele>1952</ele>
        <time>2013-06-15T03:31:17Z</time>
      </trkpt>
      <trkpt lat="42.74736" lon="-0.09266">
        <ele>1952</ele>
        <time>2013-06-15T03:31:21Z</time>
      </trkpt>
      <trkpt lat="42.74738" lon="-0.09271">
        <ele>1953</ele>
        <time>2013-06-15T03:31:27Z</time>
      </trkpt>
      <trkpt lat="42.74737" lon="-0.09276">
        <ele>1954</ele>
        <time>2013-06-15T03:31:34Z</time>
      </trkpt>
      <trkpt lat="42.74739" lon="-0.09281">
        <ele>1954</ele>
        <time>2013-06-15T03:31:38Z</time>
      </trkpt>
      <trkpt lat="42.74739" lon="-0.09288">
        <ele>1954</ele>
        <time>2013-06-15T03:31:46Z</time>
      </trkpt>
      <trkpt lat="42.74739" lon="-0.09289">
        <ele>1955</ele>
        <time>2013-06-15T03:31:47Z</time>
      </trkpt>
      <trkpt lat="42.74739" lon="-0.09295">
        <ele>1955</ele>
        <time>2013-06-15T03:31:53Z</time>
      </trkpt>
      <trkpt lat="42.7474" lon="-0.09298">
        <ele>1956</ele>
        <time>2013-06-15T03:32:00Z</time>
      </trkpt>
      <trkpt lat="42.74739" lon="-0.09303">
        <ele>1957</ele>
        <time>2013-06-15T03:32:06Z</time>
      </trkpt>
      <trkpt lat="42.74738" lon="-0.09307">
        <ele>1958</ele>
        <time>2013-06-15T03:32:12Z</time>
      </trkpt>
      <trkpt lat="42.74737" lon="-0.09313">
        <ele>1959</ele>
        <time>2013-06-15T03:32:20Z</time>
      </trkpt>
      <trkpt lat="42.74737" lon="-0.09321">
        <ele>1960</ele>
        <time>2013-06-15T03:32:28Z</time>
      </trkpt>
      <trkpt lat="42.74736" lon="-0.09325">
        <ele>1961</ele>
        <time>2013-06-15T03:32:34Z</time>
      </trkpt>
      <trkpt lat="42.74736" lon="-0.09326">
        <ele>1962</ele>
        <time>2013-06-15T03:32:41Z</time>
      </trkpt>
      <trkpt lat="42.74739" lon="-0.09327">
        <ele>1962</ele>
        <time>2013-06-15T03:32:51Z</time>
      </trkpt>
      <trkpt lat="42.74742" lon="-0.0933">
        <ele>1963</ele>
        <time>2013-06-15T03:32:57Z</time>
      </trkpt>
      <trkpt lat="42.74744" lon="-0.09336">
        <ele>1965</ele>
        <time>2013-06-15T03:33:05Z</time>
      </trkpt>
      <trkpt lat="42.74747" lon="-0.09337">
        <ele>1966</ele>
        <time>2013-06-15T03:33:11Z</time>
      </trkpt>
      <trkpt lat="42.74753" lon="-0.09339">
        <ele>1967</ele>
        <time>2013-06-15T03:33:19Z</time>
      </trkpt>
      <trkpt lat="42.74753" lon="-0.09343">
        <ele>1967</ele>
        <time>2013-06-15T03:33:26Z</time>
      </trkpt>
      <trkpt lat="42.74755" lon="-0.09348">
        <ele>1968</ele>
        <time>2013-06-15T03:33:32Z</time>
      </trkpt>
      <trkpt lat="42.74755" lon="-0.09351">
        <ele>1970</ele>
        <time>2013-06-15T03:33:38Z</time>
      </trkpt>
      <trkpt lat="42.74758" lon="-0.09357">
        <ele>1970</ele>
        <time>2013-06-15T03:33:44Z</time>
      </trkpt>
      <trkpt lat="42.74756" lon="-0.09365">
        <ele>1970</ele>
        <time>2013-06-15T03:33:50Z</time>
      </trkpt>
      <trkpt lat="42.74756" lon="-0.09379">
        <ele>1971</ele>
        <time>2013-06-15T03:33:58Z</time>
      </trkpt>
      <trkpt lat="42.74757" lon="-0.09384">
        <ele>1971</ele>
        <time>2013-06-15T03:34:03Z</time>
      </trkpt>
      <trkpt lat="42.74756" lon="-0.09385">
        <ele>1971</ele>
        <time>2013-06-15T03:34:05Z</time>
      </trkpt>
      <trkpt lat="42.74757" lon="-0.09391">
        <ele>1971</ele>
        <time>2013-06-15T03:34:12Z</time>
      </trkpt>
      <trkpt lat="42.74759" lon="-0.09395">
        <ele>1972</ele>
        <time>2013-06-15T03:34:18Z</time>
      </trkpt>
      <trkpt lat="42.74761" lon="-0.094">
        <ele>1973</ele>
        <time>2013-06-15T03:34:25Z</time>
      </trkpt>
      <trkpt lat="42.74761" lon="-0.09406">
        <ele>1975</ele>
        <time>2013-06-15T03:34:33Z</time>
      </trkpt>
      <trkpt lat="42.74763" lon="-0.09411">
        <ele>1976</ele>
        <time>2013-06-15T03:34:41Z</time>
      </trkpt>
      <trkpt lat="42.74765" lon="-0.09416">
        <ele>1977</ele>
        <time>2013-06-15T03:34:49Z</time>
      </trkpt>
      <trkpt lat="42.74766" lon="-0.09421">
        <ele>1979</ele>
        <time>2013-06-15T03:34:55Z</time>
      </trkpt>
      <trkpt lat="42.74768" lon="-0.09424">
        <ele>1979</ele>
        <time>2013-06-15T03:35:01Z</time>
      </trkpt>
      <trkpt lat="42.74773" lon="-0.0943">
        <ele>1980</ele>
        <time>2013-06-15T03:35:08Z</time>
      </trkpt>
      <trkpt lat="42.74775" lon="-0.09437">
        <ele>1981</ele>
        <time>2013-06-15T03:35:16Z</time>
      </trkpt>
      <trkpt lat="42.74775" lon="-0.09439">
        <ele>1982</ele>
        <time>2013-06-15T03:35:18Z</time>
      </trkpt>
      <trkpt lat="42.74775" lon="-0.09445">
        <ele>1983</ele>
        <time>2013-06-15T03:35:24Z</time>
      </trkpt>
      <trkpt lat="42.74777" lon="-0.09447">
        <ele>1984</ele>
        <time>2013-06-15T03:35:27Z</time>
      </trkpt>
      <trkpt lat="42.74778" lon="-0.09452">
        <ele>1984</ele>
        <time>2013-06-15T03:35:30Z</time>
      </trkpt>
      <trkpt lat="42.74779" lon="-0.09458">
        <ele>1984</ele>
        <time>2013-06-15T03:35:36Z</time>
      </trkpt>
      <trkpt lat="42.74775" lon="-0.09465">
        <ele>1985</ele>
        <time>2013-06-15T03:35:42Z</time>
      </trkpt>
      <trkpt lat="42.74775" lon="-0.09467">
        <ele>1985</ele>
        <time>2013-06-15T03:35:44Z</time>
      </trkpt>
      <trkpt lat="42.74773" lon="-0.09472">
        <ele>1985</ele>
        <time>2013-06-15T03:35:47Z</time>
      </trkpt>
      <trkpt lat="42.74771" lon="-0.09477">
        <ele>1987</ele>
        <time>2013-06-15T03:35:54Z</time>
      </trkpt>
      <trkpt lat="42.74769" lon="-0.09481">
        <ele>1987</ele>
        <time>2013-06-15T03:36:00Z</time>
      </trkpt>
      <trkpt lat="42.74766" lon="-0.09486">
        <ele>1988</ele>
        <time>2013-06-15T03:36:06Z</time>
      </trkpt>
      <trkpt lat="42.74762" lon="-0.09489">
        <ele>1989</ele>
        <time>2013-06-15T03:36:13Z</time>
      </trkpt>
      <trkpt lat="42.74762" lon="-0.0949">
        <ele>1990</ele>
        <time>2013-06-15T03:36:14Z</time>
      </trkpt>
      <trkpt lat="42.7476" lon="-0.095">
        <ele>1990</ele>
        <time>2013-06-15T03:36:22Z</time>
      </trkpt>
      <trkpt lat="42.74756" lon="-0.09501">
        <ele>1991</ele>
        <time>2013-06-15T03:36:29Z</time>
      </trkpt>
      <trkpt lat="42.74754" lon="-0.09504">
        <ele>1992</ele>
        <time>2013-06-15T03:36:32Z</time>
      </trkpt>
      <trkpt lat="42.74751" lon="-0.09508">
        <ele>1992</ele>
        <time>2013-06-15T03:36:38Z</time>
      </trkpt>
      <trkpt lat="42.74747" lon="-0.09509">
        <ele>1993</ele>
        <time>2013-06-15T03:36:43Z</time>
      </trkpt>
      <trkpt lat="42.74747" lon="-0.0951">
        <ele>1994</ele>
        <time>2013-06-15T03:36:45Z</time>
      </trkpt>
      <trkpt lat="42.74745" lon="-0.09514">
        <ele>1995</ele>
        <time>2013-06-15T03:36:51Z</time>
      </trkpt>
      <trkpt lat="42.74744" lon="-0.0952">
        <ele>1996</ele>
        <time>2013-06-15T03:36:57Z</time>
      </trkpt>
      <trkpt lat="42.74742" lon="-0.09526">
        <ele>1996</ele>
        <time>2013-06-15T03:37:03Z</time>
      </trkpt>
      <trkpt lat="42.74742" lon="-0.0953">
        <ele>1997</ele>
        <time>2013-06-15T03:37:09Z</time>
      </trkpt>
      <trkpt lat="42.7474" lon="-0.09532">
        <ele>1998</ele>
        <time>2013-06-15T03:37:16Z</time>
      </trkpt>
      <trkpt lat="42.74741" lon="-0.09532">
        <ele>1998</ele>
        <time>2013-06-15T03:37:24Z</time>
      </trkpt>
      <trkpt lat="42.7474" lon="-0.09532">
        <ele>1997</ele>
        <time>2013-06-15T03:37:33Z</time>
      </trkpt>
      <trkpt lat="42.7474" lon="-0.09533">
        <ele>1998</ele>
        <time>2013-06-15T03:37:46Z</time>
      </trkpt>
      <trkpt lat="42.7474" lon="-0.09534">
        <ele>1998</ele>
        <time>2013-06-15T03:37:58Z</time>
      </trkpt>
      <trkpt lat="42.74739" lon="-0.09533">
        <ele>1998</ele>
        <time>2013-06-15T03:38:09Z</time>
      </trkpt>
      <trkpt lat="42.74738" lon="-0.09534">
        <ele>1998</ele>
        <time>2013-06-15T03:38:22Z</time>
      </trkpt>
      <trkpt lat="42.74737" lon="-0.09535">
        <ele>1999</ele>
        <time>2013-06-15T03:38:30Z</time>
      </trkpt>
      <trkpt lat="42.74733" lon="-0.09539">
        <ele>2001</ele>
        <time>2013-06-15T03:38:40Z</time>
      </trkpt>
      <trkpt lat="42.74735" lon="-0.09546">
        <ele>2003</ele>
        <time>2013-06-15T03:38:47Z</time>
      </trkpt>
      <trkpt lat="42.74738" lon="-0.09551">
        <ele>2004</ele>
        <time>2013-06-15T03:38:55Z</time>
      </trkpt>
      <trkpt lat="42.7474" lon="-0.09555">
        <ele>2004</ele>
        <time>2013-06-15T03:39:01Z</time>
      </trkpt>
      <trkpt lat="42.74742" lon="-0.09558">
        <ele>2006</ele>
        <time>2013-06-15T03:39:09Z</time>
      </trkpt>
      <trkpt lat="42.7474" lon="-0.09562">
        <ele>2006</ele>
        <time>2013-06-15T03:39:15Z</time>
      </trkpt>
      <trkpt lat="42.74739" lon="-0.09563">
        <ele>2007</ele>
        <time>2013-06-15T03:39:17Z</time>
      </trkpt>
      <trkpt lat="42.74737" lon="-0.09569">
        <ele>2008</ele>
        <time>2013-06-15T03:39:25Z</time>
      </trkpt>
      <trkpt lat="42.74733" lon="-0.09575">
        <ele>2010</ele>
        <time>2013-06-15T03:39:34Z</time>
      </trkpt>
      <trkpt lat="42.74729" lon="-0.0958">
        <ele>2011</ele>
        <time>2013-06-15T03:39:43Z</time>
      </trkpt>
      <trkpt lat="42.74727" lon="-0.09584">
        <ele>2012</ele>
        <time>2013-06-15T03:39:49Z</time>
      </trkpt>
      <trkpt lat="42.74725" lon="-0.09588">
        <ele>2014</ele>
        <time>2013-06-15T03:39:57Z</time>
      </trkpt>
      <trkpt lat="42.74722" lon="-0.09594">
        <ele>2015</ele>
        <time>2013-06-15T03:40:04Z</time>
      </trkpt>
      <trkpt lat="42.74718" lon="-0.096">
        <ele>2016</ele>
        <time>2013-06-15T03:40:11Z</time>
      </trkpt>
      <trkpt lat="42.74715" lon="-0.09604">
        <ele>2017</ele>
        <time>2013-06-15T03:40:19Z</time>
      </trkpt>
      <trkpt lat="42.74714" lon="-0.09607">
        <ele>2018</ele>
        <time>2013-06-15T03:40:25Z</time>
      </trkpt>
      <trkpt lat="42.74713" lon="-0.09613">
        <ele>2020</ele>
        <time>2013-06-15T03:40:35Z</time>
      </trkpt>
      <trkpt lat="42.74709" lon="-0.09621">
        <ele>2021</ele>
        <time>2013-06-15T03:40:45Z</time>
      </trkpt>
      <trkpt lat="42.74708" lon="-0.09627">
        <ele>2023</ele>
        <time>2013-06-15T03:40:52Z</time>
      </trkpt>
      <trkpt lat="42.74706" lon="-0.09634">
        <ele>2024</ele>
        <time>2013-06-15T03:41:03Z</time>
      </trkpt>
      <trkpt lat="42.74705" lon="-0.09641">
        <ele>2025</ele>
        <time>2013-06-15T03:41:09Z</time>
      </trkpt>
      <trkpt lat="42.74702" lon="-0.0965">
        <ele>2027</ele>
        <time>2013-06-15T03:41:18Z</time>
      </trkpt>
      <trkpt lat="42.74703" lon="-0.09655">
        <ele>2028</ele>
        <time>2013-06-15T03:41:26Z</time>
      </trkpt>
      <trkpt lat="42.74703" lon="-0.09661">
        <ele>2030</ele>
        <time>2013-06-15T03:41:35Z</time>
      </trkpt>
      <trkpt lat="42.74704" lon="-0.09668">
        <ele>2030</ele>
        <time>2013-06-15T03:41:42Z</time>
      </trkpt>
      <trkpt lat="42.74704" lon="-0.09675">
        <ele>2031</ele>
        <time>2013-06-15T03:41:49Z</time>
      </trkpt>
      <trkpt lat="42.74703" lon="-0.09675">
        <ele>2032</ele>
        <time>2013-06-15T03:41:58Z</time>
      </trkpt>
      <trkpt lat="42.74703" lon="-0.09674">
        <ele>2031</ele>
        <time>2013-06-15T03:42:05Z</time>
      </trkpt>
      <trkpt lat="42.74703" lon="-0.09675">
        <ele>2032</ele>
        <time>2013-06-15T03:42:13Z</time>
      </trkpt>
      <trkpt lat="42.74704" lon="-0.09678">
        <ele>2033</ele>
        <time>2013-06-15T03:42:20Z</time>
      </trkpt>
      <trkpt lat="42.74704" lon="-0.09685">
        <ele>2034</ele>
        <time>2013-06-15T03:42:27Z</time>
      </trkpt>
      <trkpt lat="42.74707" lon="-0.09691">
        <ele>2036</ele>
        <time>2013-06-15T03:42:35Z</time>
      </trkpt>
      <trkpt lat="42.74707" lon="-0.09691">
        <ele>2036</ele>
        <time>2013-06-15T03:42:36Z</time>
      </trkpt>
      <trkpt lat="42.74708" lon="-0.09699">
        <ele>2037</ele>
        <time>2013-06-15T03:42:44Z</time>
      </trkpt>
      <trkpt lat="42.74709" lon="-0.09701">
        <ele>2038</ele>
        <time>2013-06-15T03:42:46Z</time>
      </trkpt>
      <trkpt lat="42.74712" lon="-0.09706">
        <ele>2039</ele>
        <time>2013-06-15T03:42:53Z</time>
      </trkpt>
      <trkpt lat="42.74714" lon="-0.0971">
        <ele>2040</ele>
        <time>2013-06-15T03:42:58Z</time>
      </trkpt>
      <trkpt lat="42.74715" lon="-0.09715">
        <ele>2041</ele>
        <time>2013-06-15T03:43:03Z</time>
      </trkpt>
      <trkpt lat="42.74717" lon="-0.09717">
        <ele>2041</ele>
        <time>2013-06-15T03:43:06Z</time>
      </trkpt>
      <trkpt lat="42.74719" lon="-0.09725">
        <ele>2042</ele>
        <time>2013-06-15T03:43:13Z</time>
      </trkpt>
      <trkpt lat="42.7472" lon="-0.09727">
        <ele>2042</ele>
        <time>2013-06-15T03:43:16Z</time>
      </trkpt>
      <trkpt lat="42.74721" lon="-0.0973">
        <ele>2042</ele>
        <time>2013-06-15T03:43:19Z</time>
      </trkpt>
      <trkpt lat="42.74725" lon="-0.09735">
        <ele>2043</ele>
        <time>2013-06-15T03:43:26Z</time>
      </trkpt>
      <trkpt lat="42.7473" lon="-0.09738">
        <ele>2044</ele>
        <time>2013-06-15T03:43:33Z</time>
      </trkpt>
      <trkpt lat="42.74734" lon="-0.09743">
        <ele>2045</ele>
        <time>2013-06-15T03:43:40Z</time>
      </trkpt>
      <trkpt lat="42.74741" lon="-0.09745">
        <ele>2046</ele>
        <time>2013-06-15T03:43:49Z</time>
      </trkpt>
      <trkpt lat="42.74747" lon="-0.09746">
        <ele>2046</ele>
        <time>2013-06-15T03:43:56Z</time>
      </trkpt>
      <trkpt lat="42.74753" lon="-0.09749">
        <ele>2047</ele>
        <time>2013-06-15T03:44:04Z</time>
      </trkpt>
      <trkpt lat="42.74759" lon="-0.09748">
        <ele>2047</ele>
        <time>2013-06-15T03:44:11Z</time>
      </trkpt>
      <trkpt lat="42.74764" lon="-0.09748">
        <ele>2048</ele>
        <time>2013-06-15T03:44:17Z</time>
      </trkpt>
      <trkpt lat="42.7477" lon="-0.09748">
        <ele>2048</ele>
        <time>2013-06-15T03:44:25Z</time>
      </trkpt>
      <trkpt lat="42.74773" lon="-0.09747">
        <ele>2049</ele>
        <time>2013-06-15T03:44:31Z</time>
      </trkpt>
      <trkpt lat="42.74778" lon="-0.09744">
        <ele>2049</ele>
        <time>2013-06-15T03:44:39Z</time>
      </trkpt>
      <trkpt lat="42.74781" lon="-0.09745">
        <ele>2051</ele>
        <time>2013-06-15T03:44:46Z</time>
      </trkpt>
      <trkpt lat="42.74782" lon="-0.09742">
        <ele>2051</ele>
        <time>2013-06-15T03:44:54Z</time>
      </trkpt>
      <trkpt lat="42.74781" lon="-0.0974">
        <ele>2051</ele>
        <time>2013-06-15T03:45:06Z</time>
      </trkpt>
      <trkpt lat="42.74785" lon="-0.09741">
        <ele>2052</ele>
        <time>2013-06-15T03:45:15Z</time>
      </trkpt>
      <trkpt lat="42.74789" lon="-0.09744">
        <ele>2053</ele>
        <time>2013-06-15T03:45:24Z</time>
      </trkpt>
      <trkpt lat="42.74793" lon="-0.09745">
        <ele>2055</ele>
        <time>2013-06-15T03:45:34Z</time>
      </trkpt>
      <trkpt lat="42.74793" lon="-0.09745">
        <ele>2056</ele>
        <time>2013-06-15T03:45:36Z</time>
      </trkpt>
      <trkpt lat="42.74796" lon="-0.09745">
        <ele>2058</ele>
        <time>2013-06-15T03:45:44Z</time>
      </trkpt>
      <trkpt lat="42.748" lon="-0.09745">
        <ele>2058</ele>
        <time>2013-06-15T03:45:52Z</time>
      </trkpt>
      <trkpt lat="42.74806" lon="-0.09746">
        <ele>2060</ele>
        <time>2013-06-15T03:46:02Z</time>
      </trkpt>
      <trkpt lat="42.7481" lon="-0.09745">
        <ele>2062</ele>
        <time>2013-06-15T03:46:11Z</time>
      </trkpt>
      <trkpt lat="42.74814" lon="-0.09746">
        <ele>2062</ele>
        <time>2013-06-15T03:46:18Z</time>
      </trkpt>
      <trkpt lat="42.74816" lon="-0.09746">
        <ele>2062</ele>
        <time>2013-06-15T03:46:26Z</time>
      </trkpt>
      <trkpt lat="42.74818" lon="-0.09745">
        <ele>2064</ele>
        <time>2013-06-15T03:46:37Z</time>
      </trkpt>
      <trkpt lat="42.7482" lon="-0.09748">
        <ele>2065</ele>
        <time>2013-06-15T03:46:44Z</time>
      </trkpt>
      <trkpt lat="42.7482" lon="-0.09754">
        <ele>2066</ele>
        <time>2013-06-15T03:46:52Z</time>
      </trkpt>
      <trkpt lat="42.74819" lon="-0.09761">
        <ele>2068</ele>
        <time>2013-06-15T03:46:58Z</time>
      </trkpt>
      <trkpt lat="42.74822" lon="-0.09762">
        <ele>2069</ele>
        <time>2013-06-15T03:47:04Z</time>
      </trkpt>
      <trkpt lat="42.7482" lon="-0.09762">
        <ele>2069</ele>
        <time>2013-06-15T03:47:10Z</time>
      </trkpt>
      <trkpt lat="42.7482" lon="-0.09757">
        <ele>2069</ele>
        <time>2013-06-15T03:47:25Z</time>
      </trkpt>
      <trkpt lat="42.74821" lon="-0.09757">
        <ele>2068</ele>
        <time>2013-06-15T03:47:41Z</time>
      </trkpt>
      <trkpt lat="42.74822" lon="-0.09756">
        <ele>2069</ele>
        <time>2013-06-15T03:47:56Z</time>
      </trkpt>
      <trkpt lat="42.74823" lon="-0.0976">
        <ele>2068</ele>
        <time>2013-06-15T03:48:19Z</time>
      </trkpt>
      <trkpt lat="42.74825" lon="-0.09762">
        <ele>2069</ele>
        <time>2013-06-15T03:48:22Z</time>
      </trkpt>
      <trkpt lat="42.74829" lon="-0.09769">
        <ele>2069</ele>
        <time>2013-06-15T03:48:30Z</time>
      </trkpt>
      <trkpt lat="42.74829" lon="-0.0977">
        <ele>2069</ele>
        <time>2013-06-15T03:48:36Z</time>
      </trkpt>
      <trkpt lat="42.74829" lon="-0.0977">
        <ele>2069</ele>
        <time>2013-06-15T03:48:44Z</time>
      </trkpt>
      <trkpt lat="42.74829" lon="-0.0977">
        <ele>2069</ele>
        <time>2013-06-15T03:48:57Z</time>
      </trkpt>
      <trkpt lat="42.7483" lon="-0.09769">
        <ele>2070</ele>
        <time>2013-06-15T03:49:01Z</time>
      </trkpt>
      <trkpt lat="42.74828" lon="-0.0977">
        <ele>2070</ele>
        <time>2013-06-15T03:49:08Z</time>
      </trkpt>
      <trkpt lat="42.74828" lon="-0.09771">
        <ele>2070</ele>
        <time>2013-06-15T03:49:16Z</time>
      </trkpt>
      <trkpt lat="42.74829" lon="-0.09772">
        <ele>2070</ele>
        <time>2013-06-15T03:49:31Z</time>
      </trkpt>
      <trkpt lat="42.74827" lon="-0.09771">
        <ele>2071</ele>
        <time>2013-06-15T03:49:45Z</time>
      </trkpt>
      <trkpt lat="42.74826" lon="-0.09772">
        <ele>2069</ele>
        <time>2013-06-15T03:49:52Z</time>
      </trkpt>
      <trkpt lat="42.74826" lon="-0.09773">
        <ele>2069</ele>
        <time>2013-06-15T03:49:59Z</time>
      </trkpt>
      <trkpt lat="42.74827" lon="-0.09774">
        <ele>2069</ele>
        <time>2013-06-15T03:50:10Z</time>
      </trkpt>
      <trkpt lat="42.74828" lon="-0.09774">
        <ele>2069</ele>
        <time>2013-06-15T03:50:25Z</time>
      </trkpt>
      <trkpt lat="42.74828" lon="-0.09773">
        <ele>2069</ele>
        <time>2013-06-15T03:50:41Z</time>
      </trkpt>
      <trkpt lat="42.74828" lon="-0.09774">
        <ele>2069</ele>
        <time>2013-06-15T03:50:50Z</time>
      </trkpt>
      <trkpt lat="42.74828" lon="-0.09773">
        <ele>2069</ele>
        <time>2013-06-15T03:51:03Z</time>
      </trkpt>
      <trkpt lat="42.74828" lon="-0.0977">
        <ele>2069</ele>
        <time>2013-06-15T03:51:18Z</time>
      </trkpt>
      <trkpt lat="42.74828" lon="-0.09772">
        <ele>2070</ele>
        <time>2013-06-15T03:51:28Z</time>
      </trkpt>
      <trkpt lat="42.74828" lon="-0.09771">
        <ele>2070</ele>
        <time>2013-06-15T03:51:39Z</time>
      </trkpt>
      <trkpt lat="42.74828" lon="-0.09771">
        <ele>2070</ele>
        <time>2013-06-15T03:51:48Z</time>
      </trkpt>
      <trkpt lat="42.74828" lon="-0.09771">
        <ele>2070</ele>
        <time>2013-06-15T03:51:56Z</time>
      </trkpt>
      <trkpt lat="42.74829" lon="-0.09772">
        <ele>2070</ele>
        <time>2013-06-15T03:52:06Z</time>
      </trkpt>
      <trkpt lat="42.74828" lon="-0.09772">
        <ele>2070</ele>
        <time>2013-06-15T03:52:24Z</time>
      </trkpt>
      <trkpt lat="42.74827" lon="-0.09771">
        <ele>2070</ele>
        <time>2013-06-15T03:52:36Z</time>
      </trkpt>
      <trkpt lat="42.74828" lon="-0.09772">
        <ele>2072</ele>
        <time>2013-06-15T03:52:51Z</time>
      </trkpt>
      <trkpt lat="42.74829" lon="-0.09769">
        <ele>2070</ele>
        <time>2013-06-15T03:53:04Z</time>
      </trkpt>
      <trkpt lat="42.74827" lon="-0.09769">
        <ele>2072</ele>
        <time>2013-06-15T03:53:22Z</time>
      </trkpt>
      <trkpt lat="42.74827" lon="-0.09771">
        <ele>2071</ele>
        <time>2013-06-15T03:53:36Z</time>
      </trkpt>
      <trkpt lat="42.74827" lon="-0.09771">
        <ele>2070</ele>
        <time>2013-06-15T03:53:45Z</time>
      </trkpt>
      <trkpt lat="42.74826" lon="-0.09769">
        <ele>2070</ele>
        <time>2013-06-15T03:54:02Z</time>
      </trkpt>
      <trkpt lat="42.74827" lon="-0.0977">
        <ele>2071</ele>
        <time>2013-06-15T03:54:15Z</time>
      </trkpt>
      <trkpt lat="42.74826" lon="-0.09771">
        <ele>2071</ele>
        <time>2013-06-15T03:54:31Z</time>
      </trkpt>
      <trkpt lat="42.74826" lon="-0.09771">
        <ele>2071</ele>
        <time>2013-06-15T03:54:48Z</time>
      </trkpt>
      <trkpt lat="42.74826" lon="-0.09773">
        <ele>2070</ele>
        <time>2013-06-15T03:54:59Z</time>
      </trkpt>
      <trkpt lat="42.74825" lon="-0.09772">
        <ele>2071</ele>
        <time>2013-06-15T03:55:15Z</time>
      </trkpt>
      <trkpt lat="42.74825" lon="-0.09772">
        <ele>2071</ele>
        <time>2013-06-15T03:55:33Z</time>
      </trkpt>
      <trkpt lat="42.74825" lon="-0.09773">
        <ele>2071</ele>
        <time>2013-06-15T03:55:56Z</time>
      </trkpt>
      <trkpt lat="42.74824" lon="-0.09773">
        <ele>2071</ele>
        <time>2013-06-15T03:56:12Z</time>
      </trkpt>
      <trkpt lat="42.74824" lon="-0.09773">
        <ele>2072</ele>
        <time>2013-06-15T03:56:32Z</time>
      </trkpt>
      <trkpt lat="42.74824" lon="-0.09773">
        <ele>2070</ele>
        <time>2013-06-15T03:56:50Z</time>
      </trkpt>
      <trkpt lat="42.74823" lon="-0.09778">
        <ele>2072</ele>
        <time>2013-06-15T03:56:55Z</time>
      </trkpt>
      <trkpt lat="42.74823" lon="-0.09783">
        <ele>2073</ele>
        <time>2013-06-15T03:57:01Z</time>
      </trkpt>
      <trkpt lat="42.74823" lon="-0.0979">
        <ele>2075</ele>
        <time>2013-06-15T03:57:07Z</time>
      </trkpt>
      <trkpt lat="42.74823" lon="-0.09795">
        <ele>2076</ele>
        <time>2013-06-15T03:57:14Z</time>
      </trkpt>
      <trkpt lat="42.74823" lon="-0.09798">
        <ele>2076</ele>
        <time>2013-06-15T03:57:17Z</time>
      </trkpt>
      <trkpt lat="42.74822" lon="-0.09801">
        <ele>2077</ele>
        <time>2013-06-15T03:57:21Z</time>
      </trkpt>
      <trkpt lat="42.74822" lon="-0.09804">
        <ele>2078</ele>
        <time>2013-06-15T03:57:28Z</time>
      </trkpt>
      <trkpt lat="42.74825" lon="-0.09813">
        <ele>2080</ele>
        <time>2013-06-15T03:57:37Z</time>
      </trkpt>
      <trkpt lat="42.74825" lon="-0.09814">
        <ele>2080</ele>
        <time>2013-06-15T03:57:38Z</time>
      </trkpt>
      <trkpt lat="42.74825" lon="-0.09819">
        <ele>2081</ele>
        <time>2013-06-15T03:57:42Z</time>
      </trkpt>
      <trkpt lat="42.74826" lon="-0.09821">
        <ele>2082</ele>
        <time>2013-06-15T03:57:48Z</time>
      </trkpt>
      <trkpt lat="42.74827" lon="-0.09827">
        <ele>2081</ele>
        <time>2013-06-15T03:57:53Z</time>
      </trkpt>
      <trkpt lat="42.74825" lon="-0.09833">
        <ele>2083</ele>
        <time>2013-06-15T03:57:59Z</time>
      </trkpt>
      <trkpt lat="42.74825" lon="-0.09841">
        <ele>2084</ele>
        <time>2013-06-15T03:58:07Z</time>
      </trkpt>
      <trkpt lat="42.74826" lon="-0.09844">
        <ele>2084</ele>
        <time>2013-06-15T03:58:10Z</time>
      </trkpt>
      <trkpt lat="42.74829" lon="-0.09848">
        <ele>2085</ele>
        <time>2013-06-15T03:58:15Z</time>
      </trkpt>
      <trkpt lat="42.74831" lon="-0.09852">
        <ele>2086</ele>
        <time>2013-06-15T03:58:19Z</time>
      </trkpt>
      <trkpt lat="42.74831" lon="-0.09855">
        <ele>2085</ele>
        <time>2013-06-15T03:58:21Z</time>
      </trkpt>
      <trkpt lat="42.74832" lon="-0.09856">
        <ele>2086</ele>
        <time>2013-06-15T03:58:23Z</time>
      </trkpt>
      <trkpt lat="42.74834" lon="-0.09858">
        <ele>2086</ele>
        <time>2013-06-15T03:58:28Z</time>
      </trkpt>
      <trkpt lat="42.74835" lon="-0.09865">
        <ele>2087</ele>
        <time>2013-06-15T03:58:34Z</time>
      </trkpt>
      <trkpt lat="42.74836" lon="-0.09868">
        <ele>2088</ele>
        <time>2013-06-15T03:58:39Z</time>
      </trkpt>
      <trkpt lat="42.74838" lon="-0.09876">
        <ele>2089</ele>
        <time>2013-06-15T03:58:45Z</time>
      </trkpt>
      <trkpt lat="42.74839" lon="-0.09881">
        <ele>2089</ele>
        <time>2013-06-15T03:58:49Z</time>
      </trkpt>
      <trkpt lat="42.74842" lon="-0.09886">
        <ele>2090</ele>
        <time>2013-06-15T03:58:55Z</time>
      </trkpt>
      <trkpt lat="42.74844" lon="-0.09891">
        <ele>2091</ele>
        <time>2013-06-15T03:59:00Z</time>
      </trkpt>
      <trkpt lat="42.74846" lon="-0.09893">
        <ele>2091</ele>
        <time>2013-06-15T03:59:03Z</time>
      </trkpt>
      <trkpt lat="42.74849" lon="-0.09899">
        <ele>2091</ele>
        <time>2013-06-15T03:59:09Z</time>
      </trkpt>
      <trkpt lat="42.74854" lon="-0.09902">
        <ele>2092</ele>
        <time>2013-06-15T03:59:15Z</time>
      </trkpt>
      <trkpt lat="42.74858" lon="-0.0991">
        <ele>2092</ele>
        <time>2013-06-15T03:59:22Z</time>
      </trkpt>
      <trkpt lat="42.74859" lon="-0.09911">
        <ele>2093</ele>
        <time>2013-06-15T03:59:27Z</time>
      </trkpt>
      <trkpt lat="42.74862" lon="-0.09914">
        <ele>2093</ele>
        <time>2013-06-15T03:59:32Z</time>
      </trkpt>
      <trkpt lat="42.74866" lon="-0.09921">
        <ele>2095</ele>
        <time>2013-06-15T03:59:37Z</time>
      </trkpt>
      <trkpt lat="42.74865" lon="-0.09929">
        <ele>2095</ele>
        <time>2013-06-15T03:59:44Z</time>
      </trkpt>
      <trkpt lat="42.74867" lon="-0.09936">
        <ele>2097</ele>
        <time>2013-06-15T03:59:51Z</time>
      </trkpt>
      <trkpt lat="42.74867" lon="-0.09943">
        <ele>2097</ele>
        <time>2013-06-15T03:59:57Z</time>
      </trkpt>
      <trkpt lat="42.74867" lon="-0.09949">
        <ele>2098</ele>
        <time>2013-06-15T04:00:05Z</time>
      </trkpt>
      <trkpt lat="42.74868" lon="-0.09957">
        <ele>2100</ele>
        <time>2013-06-15T04:00:14Z</time>
      </trkpt>
      <trkpt lat="42.74869" lon="-0.09966">
        <ele>2102</ele>
        <time>2013-06-15T04:00:24Z</time>
      </trkpt>
      <trkpt lat="42.74871" lon="-0.09975">
        <ele>2103</ele>
        <time>2013-06-15T04:00:33Z</time>
      </trkpt>
      <trkpt lat="42.74871" lon="-0.0998">
        <ele>2105</ele>
        <time>2013-06-15T04:00:39Z</time>
      </trkpt>
      <trkpt lat="42.74873" lon="-0.09985">
        <ele>2105</ele>
        <time>2013-06-15T04:00:46Z</time>
      </trkpt>
      <trkpt lat="42.74873" lon="-0.09994">
        <ele>2106</ele>
        <time>2013-06-15T04:00:53Z</time>
      </trkpt>
      <trkpt lat="42.74873" lon="-0.10002">
        <ele>2107</ele>
        <time>2013-06-15T04:01:00Z</time>
      </trkpt>
      <trkpt lat="42.74873" lon="-0.10005">
        <ele>2107</ele>
        <time>2013-06-15T04:01:03Z</time>
      </trkpt>
      <trkpt lat="42.74875" lon="-0.10009">
        <ele>2107</ele>
        <time>2013-06-15T04:01:06Z</time>
      </trkpt>
      <trkpt lat="42.74874" lon="-0.10014">
        <ele>2108</ele>
        <time>2013-06-15T04:01:12Z</time>
      </trkpt>
      <trkpt lat="42.74875" lon="-0.10018">
        <ele>2109</ele>
        <time>2013-06-15T04:01:17Z</time>
      </trkpt>
      <trkpt lat="42.74876" lon="-0.10022">
        <ele>2110</ele>
        <time>2013-06-15T04:01:25Z</time>
      </trkpt>
      <trkpt lat="42.74874" lon="-0.10027">
        <ele>2113</ele>
        <time>2013-06-15T04:01:34Z</time>
      </trkpt>
      <trkpt lat="42.7487" lon="-0.10033">
        <ele>2114</ele>
        <time>2013-06-15T04:01:42Z</time>
      </trkpt>
      <trkpt lat="42.74867" lon="-0.10039">
        <ele>2114</ele>
        <time>2013-06-15T04:01:49Z</time>
      </trkpt>
      <trkpt lat="42.74865" lon="-0.10044">
        <ele>2116</ele>
        <time>2013-06-15T04:01:56Z</time>
      </trkpt>
      <trkpt lat="42.74865" lon="-0.1005">
        <ele>2116</ele>
        <time>2013-06-15T04:02:01Z</time>
      </trkpt>
      <trkpt lat="42.74868" lon="-0.10058">
        <ele>2118</ele>
        <time>2013-06-15T04:02:09Z</time>
      </trkpt>
      <trkpt lat="42.74866" lon="-0.10061">
        <ele>2118</ele>
        <time>2013-06-15T04:02:14Z</time>
      </trkpt>
      <trkpt lat="42.74866" lon="-0.10065">
        <ele>2120</ele>
        <time>2013-06-15T04:02:19Z</time>
      </trkpt>
      <trkpt lat="42.74859" lon="-0.10069">
        <ele>2120</ele>
        <time>2013-06-15T04:02:27Z</time>
      </trkpt>
      <trkpt lat="42.74857" lon="-0.10073">
        <ele>2122</ele>
        <time>2013-06-15T04:02:36Z</time>
      </trkpt>
      <trkpt lat="42.7486" lon="-0.10076">
        <ele>2123</ele>
        <time>2013-06-15T04:02:43Z</time>
      </trkpt>
      <trkpt lat="42.74863" lon="-0.10079">
        <ele>2125</ele>
        <time>2013-06-15T04:02:51Z</time>
      </trkpt>
      <trkpt lat="42.74867" lon="-0.10079">
        <ele>2126</ele>
        <time>2013-06-15T04:03:00Z</time>
      </trkpt>
      <trkpt lat="42.74873" lon="-0.10078">
        <ele>2127</ele>
        <time>2013-06-15T04:03:09Z</time>
      </trkpt>
      <trkpt lat="42.74879" lon="-0.10076">
        <ele>2128</ele>
        <time>2013-06-15T04:03:16Z</time>
      </trkpt>
      <trkpt lat="42.74882" lon="-0.10077">
        <ele>2129</ele>
        <time>2013-06-15T04:03:24Z</time>
      </trkpt>
      <trkpt lat="42.74884" lon="-0.10078">
        <ele>2130</ele>
        <time>2013-06-15T04:03:30Z</time>
      </trkpt>
      <trkpt lat="42.74882" lon="-0.10084">
        <ele>2132</ele>
        <time>2013-06-15T04:03:38Z</time>
      </trkpt>
      <trkpt lat="42.7488" lon="-0.1009">
        <ele>2133</ele>
        <time>2013-06-15T04:03:45Z</time>
      </trkpt>
      <trkpt lat="42.74879" lon="-0.10097">
        <ele>2134</ele>
        <time>2013-06-15T04:03:53Z</time>
      </trkpt>
      <trkpt lat="42.74877" lon="-0.10103">
        <ele>2135</ele>
        <time>2013-06-15T04:04:00Z</time>
      </trkpt>
      <trkpt lat="42.74877" lon="-0.10105">
        <ele>2137</ele>
        <time>2013-06-15T04:04:03Z</time>
      </trkpt>
      <trkpt lat="42.74876" lon="-0.10108">
        <ele>2137</ele>
        <time>2013-06-15T04:04:06Z</time>
      </trkpt>
      <trkpt lat="42.74871" lon="-0.10116">
        <ele>2138</ele>
        <time>2013-06-15T04:04:16Z</time>
      </trkpt>
      <trkpt lat="42.74868" lon="-0.1012">
        <ele>2139</ele>
        <time>2013-06-15T04:04:23Z</time>
      </trkpt>
      <trkpt lat="42.74866" lon="-0.10123">
        <ele>2140</ele>
        <time>2013-06-15T04:04:29Z</time>
      </trkpt>
      <trkpt lat="42.74865" lon="-0.10124">
        <ele>2140</ele>
        <time>2013-06-15T04:04:30Z</time>
      </trkpt>
      <trkpt lat="42.7487" lon="-0.10123">
        <ele>2141</ele>
        <time>2013-06-15T04:04:36Z</time>
      </trkpt>
      <trkpt lat="42.74875" lon="-0.10122">
        <ele>2142</ele>
        <time>2013-06-15T04:04:44Z</time>
      </trkpt>
      <trkpt lat="42.7488" lon="-0.10122">
        <ele>2143</ele>
        <time>2013-06-15T04:04:51Z</time>
      </trkpt>
      <trkpt lat="42.74885" lon="-0.10121">
        <ele>2144</ele>
        <time>2013-06-15T04:05:00Z</time>
      </trkpt>
      <trkpt lat="42.74889" lon="-0.10122">
        <ele>2145</ele>
        <time>2013-06-15T04:05:06Z</time>
      </trkpt>
      <trkpt lat="42.74887" lon="-0.10127">
        <ele>2146</ele>
        <time>2013-06-15T04:05:12Z</time>
      </trkpt>
      <trkpt lat="42.74883" lon="-0.10132">
        <ele>2148</ele>
        <time>2013-06-15T04:05:22Z</time>
      </trkpt>
      <trkpt lat="42.74881" lon="-0.10139">
        <ele>2149</ele>
        <time>2013-06-15T04:05:30Z</time>
      </trkpt>
      <trkpt lat="42.7488" lon="-0.10142">
        <ele>2149</ele>
        <time>2013-06-15T04:05:34Z</time>
      </trkpt>
      <trkpt lat="42.74876" lon="-0.10149">
        <ele>2151</ele>
        <time>2013-06-15T04:05:42Z</time>
      </trkpt>
      <trkpt lat="42.74876" lon="-0.10154">
        <ele>2152</ele>
        <time>2013-06-15T04:05:51Z</time>
      </trkpt>
      <trkpt lat="42.74875" lon="-0.10155">
        <ele>2153</ele>
        <time>2013-06-15T04:05:53Z</time>
      </trkpt>
      <trkpt lat="42.74871" lon="-0.1016">
        <ele>2154</ele>
        <time>2013-06-15T04:06:04Z</time>
      </trkpt>
      <trkpt lat="42.74869" lon="-0.10165">
        <ele>2155</ele>
        <time>2013-06-15T04:06:10Z</time>
      </trkpt>
      <trkpt lat="42.74869" lon="-0.1017">
        <ele>2156</ele>
        <time>2013-06-15T04:06:17Z</time>
      </trkpt>
      <trkpt lat="42.74866" lon="-0.10176">
        <ele>2158</ele>
        <time>2013-06-15T04:06:26Z</time>
      </trkpt>
      <trkpt lat="42.74864" lon="-0.10179">
        <ele>2159</ele>
        <time>2013-06-15T04:06:32Z</time>
      </trkpt>
      <trkpt lat="42.74866" lon="-0.10178">
        <ele>2159</ele>
        <time>2013-06-15T04:06:35Z</time>
      </trkpt>
      <trkpt lat="42.74868" lon="-0.10177">
        <ele>2160</ele>
        <time>2013-06-15T04:06:37Z</time>
      </trkpt>
      <trkpt lat="42.74874" lon="-0.10177">
        <ele>2161</ele>
        <time>2013-06-15T04:06:45Z</time>
      </trkpt>
      <trkpt lat="42.74879" lon="-0.10177">
        <ele>2161</ele>
        <time>2013-06-15T04:06:54Z</time>
      </trkpt>
      <trkpt lat="42.74884" lon="-0.10179">
        <ele>2162</ele>
        <time>2013-06-15T04:07:00Z</time>
      </trkpt>
      <trkpt lat="42.74888" lon="-0.10181">
        <ele>2163</ele>
        <time>2013-06-15T04:07:07Z</time>
      </trkpt>
      <trkpt lat="42.74893" lon="-0.10184">
        <ele>2164</ele>
        <time>2013-06-15T04:07:16Z</time>
      </trkpt>
      <trkpt lat="42.749" lon="-0.10185">
        <ele>2165</ele>
        <time>2013-06-15T04:07:24Z</time>
      </trkpt>
      <trkpt lat="42.74905" lon="-0.10187">
        <ele>2165</ele>
        <time>2013-06-15T04:07:30Z</time>
      </trkpt>
      <trkpt lat="42.74911" lon="-0.1019">
        <ele>2166</ele>
        <time>2013-06-15T04:07:38Z</time>
      </trkpt>
      <trkpt lat="42.74915" lon="-0.10191">
        <ele>2167</ele>
        <time>2013-06-15T04:07:46Z</time>
      </trkpt>
      <trkpt lat="42.7492" lon="-0.10193">
        <ele>2167</ele>
        <time>2013-06-15T04:07:52Z</time>
      </trkpt>
      <trkpt lat="42.74923" lon="-0.10197">
        <ele>2168</ele>
        <time>2013-06-15T04:07:59Z</time>
      </trkpt>
      <trkpt lat="42.74927" lon="-0.102">
        <ele>2169</ele>
        <time>2013-06-15T04:08:08Z</time>
      </trkpt>
      <trkpt lat="42.74931" lon="-0.10203">
        <ele>2170</ele>
        <time>2013-06-15T04:08:16Z</time>
      </trkpt>
      <trkpt lat="42.74936" lon="-0.10204">
        <ele>2171</ele>
        <time>2013-06-15T04:08:23Z</time>
      </trkpt>
      <trkpt lat="42.74939" lon="-0.10206">
        <ele>2171</ele>
        <time>2013-06-15T04:08:30Z</time>
      </trkpt>
      <trkpt lat="42.74943" lon="-0.10208">
        <ele>2172</ele>
        <time>2013-06-15T04:08:37Z</time>
      </trkpt>
      <trkpt lat="42.74948" lon="-0.1021">
        <ele>2173</ele>
        <time>2013-06-15T04:08:46Z</time>
      </trkpt>
      <trkpt lat="42.74954" lon="-0.10211">
        <ele>2175</ele>
        <time>2013-06-15T04:08:55Z</time>
      </trkpt>
      <trkpt lat="42.74958" lon="-0.10213">
        <ele>2175</ele>
        <time>2013-06-15T04:09:01Z</time>
      </trkpt>
      <trkpt lat="42.74963" lon="-0.10215">
        <ele>2176</ele>
        <time>2013-06-15T04:09:07Z</time>
      </trkpt>
      <trkpt lat="42.74968" lon="-0.10217">
        <ele>2176</ele>
        <time>2013-06-15T04:09:15Z</time>
      </trkpt>
      <trkpt lat="42.74972" lon="-0.10219">
        <ele>2178</ele>
        <time>2013-06-15T04:09:23Z</time>
      </trkpt>
      <trkpt lat="42.74975" lon="-0.10221">
        <ele>2178</ele>
        <time>2013-06-15T04:09:30Z</time>
      </trkpt>
      <trkpt lat="42.74976" lon="-0.10223">
        <ele>2178</ele>
        <time>2013-06-15T04:09:38Z</time>
      </trkpt>
      <trkpt lat="42.74978" lon="-0.10222">
        <ele>2178</ele>
        <time>2013-06-15T04:09:53Z</time>
      </trkpt>
      <trkpt lat="42.74981" lon="-0.10224">
        <ele>2180</ele>
        <time>2013-06-15T04:10:01Z</time>
      </trkpt>
      <trkpt lat="42.74986" lon="-0.10227">
        <ele>2181</ele>
        <time>2013-06-15T04:10:08Z</time>
      </trkpt>
      <trkpt lat="42.74988" lon="-0.10227">
        <ele>2181</ele>
        <time>2013-06-15T04:10:11Z</time>
      </trkpt>
      <trkpt lat="42.74991" lon="-0.10229">
        <ele>2182</ele>
        <time>2013-06-15T04:10:18Z</time>
      </trkpt>
      <trkpt lat="42.74993" lon="-0.1023">
        <ele>2183</ele>
        <time>2013-06-15T04:10:21Z</time>
      </trkpt>
      <trkpt lat="42.74998" lon="-0.10231">
        <ele>2183</ele>
        <time>2013-06-15T04:10:29Z</time>
      </trkpt>
      <trkpt lat="42.75003" lon="-0.10231">
        <ele>2185</ele>
        <time>2013-06-15T04:10:37Z</time>
      </trkpt>
      <trkpt lat="42.75006" lon="-0.10231">
        <ele>2186</ele>
        <time>2013-06-15T04:10:43Z</time>
      </trkpt>
      <trkpt lat="42.75011" lon="-0.10232">
        <ele>2187</ele>
        <time>2013-06-15T04:10:52Z</time>
      </trkpt>
      <trkpt lat="42.75018" lon="-0.10233">
        <ele>2188</ele>
        <time>2013-06-15T04:11:01Z</time>
      </trkpt>
      <trkpt lat="42.75022" lon="-0.10234">
        <ele>2189</ele>
        <time>2013-06-15T04:11:07Z</time>
      </trkpt>
      <trkpt lat="42.75027" lon="-0.10236">
        <ele>2190</ele>
        <time>2013-06-15T04:11:15Z</time>
      </trkpt>
      <trkpt lat="42.75029" lon="-0.10238">
        <ele>2191</ele>
        <time>2013-06-15T04:11:23Z</time>
      </trkpt>
      <trkpt lat="42.75029" lon="-0.10239">
        <ele>2191</ele>
        <time>2013-06-15T04:11:30Z</time>
      </trkpt>
      <trkpt lat="42.7503" lon="-0.1024">
        <ele>2192</ele>
        <time>2013-06-15T04:11:37Z</time>
      </trkpt>
      <trkpt lat="42.75032" lon="-0.10242">
        <ele>2192</ele>
        <time>2013-06-15T04:11:42Z</time>
      </trkpt>
      <trkpt lat="42.75033" lon="-0.10244">
        <ele>2193</ele>
        <time>2013-06-15T04:11:50Z</time>
      </trkpt>
      <trkpt lat="42.75034" lon="-0.10244">
        <ele>2193</ele>
        <time>2013-06-15T04:11:58Z</time>
      </trkpt>
      <trkpt lat="42.75035" lon="-0.10244">
        <ele>2193</ele>
        <time>2013-06-15T04:12:07Z</time>
      </trkpt>
      <trkpt lat="42.75039" lon="-0.10245">
        <ele>2193</ele>
        <time>2013-06-15T04:12:14Z</time>
      </trkpt>
      <trkpt lat="42.75043" lon="-0.10248">
        <ele>2195</ele>
        <time>2013-06-15T04:12:21Z</time>
      </trkpt>
      <trkpt lat="42.75046" lon="-0.1025">
        <ele>2197</ele>
        <time>2013-06-15T04:12:28Z</time>
      </trkpt>
      <trkpt lat="42.75049" lon="-0.10253">
        <ele>2198</ele>
        <time>2013-06-15T04:12:34Z</time>
      </trkpt>
      <trkpt lat="42.75048" lon="-0.10259">
        <ele>2198</ele>
        <time>2013-06-15T04:12:42Z</time>
      </trkpt>
      <trkpt lat="42.7505" lon="-0.10263">
        <ele>2198</ele>
        <time>2013-06-15T04:12:45Z</time>
      </trkpt>
      <trkpt lat="42.75053" lon="-0.10268">
        <ele>2199</ele>
        <time>2013-06-15T04:12:50Z</time>
      </trkpt>
      <trkpt lat="42.75052" lon="-0.10272">
        <ele>2199</ele>
        <time>2013-06-15T04:12:54Z</time>
      </trkpt>
      <trkpt lat="42.75053" lon="-0.10277">
        <ele>2200</ele>
        <time>2013-06-15T04:13:01Z</time>
      </trkpt>
      <trkpt lat="42.75053" lon="-0.1028">
        <ele>2201</ele>
        <time>2013-06-15T04:13:05Z</time>
      </trkpt>
      <trkpt lat="42.75053" lon="-0.10286">
        <ele>2201</ele>
        <time>2013-06-15T04:13:12Z</time>
      </trkpt>
      <trkpt lat="42.75055" lon="-0.10293">
        <ele>2202</ele>
        <time>2013-06-15T04:13:18Z</time>
      </trkpt>
      <trkpt lat="42.75053" lon="-0.10294">
        <ele>2202</ele>
        <time>2013-06-15T04:13:27Z</time>
      </trkpt>
      <trkpt lat="42.75053" lon="-0.10295">
        <ele>2202</ele>
        <time>2013-06-15T04:13:36Z</time>
      </trkpt>
      <trkpt lat="42.75056" lon="-0.10292">
        <ele>2201</ele>
        <time>2013-06-15T04:13:43Z</time>
      </trkpt>
      <trkpt lat="42.75055" lon="-0.10294">
        <ele>2202</ele>
        <time>2013-06-15T04:13:47Z</time>
      </trkpt>
      <trkpt lat="42.75056" lon="-0.10297">
        <ele>2202</ele>
        <time>2013-06-15T04:13:50Z</time>
      </trkpt>
      <trkpt lat="42.75056" lon="-0.10303">
        <ele>2203</ele>
        <time>2013-06-15T04:13:55Z</time>
      </trkpt>
      <trkpt lat="42.75057" lon="-0.10307">
        <ele>2203</ele>
        <time>2013-06-15T04:14:00Z</time>
      </trkpt>
      <trkpt lat="42.75057" lon="-0.10308">
        <ele>2204</ele>
        <time>2013-06-15T04:14:01Z</time>
      </trkpt>
      <trkpt lat="42.75057" lon="-0.10311">
        <ele>2205</ele>
        <time>2013-06-15T04:14:06Z</time>
      </trkpt>
      <trkpt lat="42.75058" lon="-0.10313">
        <ele>2205</ele>
        <time>2013-06-15T04:14:08Z</time>
      </trkpt>
      <trkpt lat="42.75059" lon="-0.10316">
        <ele>2205</ele>
        <time>2013-06-15T04:14:13Z</time>
      </trkpt>
      <trkpt lat="42.7506" lon="-0.10319">
        <ele>2206</ele>
        <time>2013-06-15T04:14:16Z</time>
      </trkpt>
      <trkpt lat="42.75061" lon="-0.10323">
        <ele>2207</ele>
        <time>2013-06-15T04:14:22Z</time>
      </trkpt>
      <trkpt lat="42.75061" lon="-0.10329">
        <ele>2209</ele>
        <time>2013-06-15T04:14:30Z</time>
      </trkpt>
      <trkpt lat="42.75062" lon="-0.10332">
        <ele>2209</ele>
        <time>2013-06-15T04:14:34Z</time>
      </trkpt>
      <trkpt lat="42.75064" lon="-0.10339">
        <ele>2209</ele>
        <time>2013-06-15T04:14:41Z</time>
      </trkpt>
      <trkpt lat="42.75064" lon="-0.10342">
        <ele>2210</ele>
        <time>2013-06-15T04:14:47Z</time>
      </trkpt>
      <trkpt lat="42.75067" lon="-0.10348">
        <ele>2212</ele>
        <time>2013-06-15T04:14:56Z</time>
      </trkpt>
      <trkpt lat="42.75069" lon="-0.10353">
        <ele>2214</ele>
        <time>2013-06-15T04:15:04Z</time>
      </trkpt>
      <trkpt lat="42.75072" lon="-0.10358">
        <ele>2215</ele>
        <time>2013-06-15T04:15:12Z</time>
      </trkpt>
      <trkpt lat="42.75073" lon="-0.10362">
        <ele>2215</ele>
        <time>2013-06-15T04:15:17Z</time>
      </trkpt>
      <trkpt lat="42.75074" lon="-0.10362">
        <ele>2215</ele>
        <time>2013-06-15T04:15:18Z</time>
      </trkpt>
      <trkpt lat="42.7508" lon="-0.10367">
        <ele>2216</ele>
        <time>2013-06-15T04:15:25Z</time>
      </trkpt>
      <trkpt lat="42.75084" lon="-0.10369">
        <ele>2217</ele>
        <time>2013-06-15T04:15:31Z</time>
      </trkpt>
      <trkpt lat="42.75084" lon="-0.10372">
        <ele>2218</ele>
        <time>2013-06-15T04:15:36Z</time>
      </trkpt>
      <trkpt lat="42.75089" lon="-0.10375">
        <ele>2219</ele>
        <time>2013-06-15T04:15:43Z</time>
      </trkpt>
      <trkpt lat="42.75093" lon="-0.10379">
        <ele>2220</ele>
        <time>2013-06-15T04:15:52Z</time>
      </trkpt>
      <trkpt lat="42.75096" lon="-0.10384">
        <ele>2222</ele>
        <time>2013-06-15T04:16:01Z</time>
      </trkpt>
      <trkpt lat="42.75087" lon="-0.10386">
        <ele>2223</ele>
        <time>2013-06-15T04:16:09Z</time>
      </trkpt>
      <trkpt lat="42.75083" lon="-0.10387">
        <ele>2224</ele>
        <time>2013-06-15T04:16:16Z</time>
      </trkpt>
      <trkpt lat="42.7508" lon="-0.10389">
        <ele>2225</ele>
        <time>2013-06-15T04:16:22Z</time>
      </trkpt>
      <trkpt lat="42.75081" lon="-0.1039">
        <ele>2225</ele>
        <time>2013-06-15T04:16:29Z</time>
      </trkpt>
      <trkpt lat="42.75086" lon="-0.10391">
        <ele>2227</ele>
        <time>2013-06-15T04:16:37Z</time>
      </trkpt>
      <trkpt lat="42.75092" lon="-0.10395">
        <ele>2227</ele>
        <time>2013-06-15T04:16:45Z</time>
      </trkpt>
      <trkpt lat="42.75097" lon="-0.10399">
        <ele>2227</ele>
        <time>2013-06-15T04:16:51Z</time>
      </trkpt>
      <trkpt lat="42.75099" lon="-0.10403">
        <ele>2227</ele>
        <time>2013-06-15T04:16:56Z</time>
      </trkpt>
      <trkpt lat="42.75102" lon="-0.10406">
        <ele>2228</ele>
        <time>2013-06-15T04:17:01Z</time>
      </trkpt>
      <trkpt lat="42.75104" lon="-0.10408">
        <ele>2228</ele>
        <time>2013-06-15T04:17:04Z</time>
      </trkpt>
      <trkpt lat="42.75109" lon="-0.10414">
        <ele>2228</ele>
        <time>2013-06-15T04:17:12Z</time>
      </trkpt>
      <trkpt lat="42.75114" lon="-0.10418">
        <ele>2228</ele>
        <time>2013-06-15T04:17:18Z</time>
      </trkpt>
      <trkpt lat="42.75119" lon="-0.10423">
        <ele>2228</ele>
        <time>2013-06-15T04:17:26Z</time>
      </trkpt>
      <trkpt lat="42.7512" lon="-0.10423">
        <ele>2228</ele>
        <time>2013-06-15T04:17:37Z</time>
      </trkpt>
      <trkpt lat="42.75124" lon="-0.10426">
        <ele>2228</ele>
        <time>2013-06-15T04:17:44Z</time>
      </trkpt>
      <trkpt lat="42.75124" lon="-0.10427">
        <ele>2229</ele>
        <time>2013-06-15T04:17:45Z</time>
      </trkpt>
      <trkpt lat="42.75129" lon="-0.10434">
        <ele>2229</ele>
        <time>2013-06-15T04:17:52Z</time>
      </trkpt>
      <trkpt lat="42.75129" lon="-0.10436">
        <ele>2229</ele>
        <time>2013-06-15T04:17:55Z</time>
      </trkpt>
      <trkpt lat="42.7513" lon="-0.10442">
        <ele>2230</ele>
        <time>2013-06-15T04:18:01Z</time>
      </trkpt>
      <trkpt lat="42.75131" lon="-0.10443">
        <ele>2231</ele>
        <time>2013-06-15T04:18:03Z</time>
      </trkpt>
      <trkpt lat="42.75133" lon="-0.10445">
        <ele>2231</ele>
        <time>2013-06-15T04:18:05Z</time>
      </trkpt>
      <trkpt lat="42.75135" lon="-0.10454">
        <ele>2232</ele>
        <time>2013-06-15T04:18:12Z</time>
      </trkpt>
      <trkpt lat="42.75136" lon="-0.10456">
        <ele>2232</ele>
        <time>2013-06-15T04:18:14Z</time>
      </trkpt>
      <trkpt lat="42.7514" lon="-0.10463">
        <ele>2232</ele>
        <time>2013-06-15T04:18:21Z</time>
      </trkpt>
      <trkpt lat="42.75143" lon="-0.1047">
        <ele>2232</ele>
        <time>2013-06-15T04:18:28Z</time>
      </trkpt>
      <trkpt lat="42.75145" lon="-0.1048">
        <ele>2233</ele>
        <time>2013-06-15T04:18:35Z</time>
      </trkpt>
      <trkpt lat="42.75147" lon="-0.10486">
        <ele>2234</ele>
        <time>2013-06-15T04:18:41Z</time>
      </trkpt>
      <trkpt lat="42.75147" lon="-0.10495">
        <ele>2234</ele>
        <time>2013-06-15T04:18:48Z</time>
      </trkpt>
      <trkpt lat="42.75147" lon="-0.10496">
        <ele>2235</ele>
        <time>2013-06-15T04:18:49Z</time>
      </trkpt>
      <trkpt lat="42.75148" lon="-0.10501">
        <ele>2235</ele>
        <time>2013-06-15T04:18:55Z</time>
      </trkpt>
      <trkpt lat="42.75149" lon="-0.10503">
        <ele>2236</ele>
        <time>2013-06-15T04:18:57Z</time>
      </trkpt>
      <trkpt lat="42.7515" lon="-0.10505">
        <ele>2236</ele>
        <time>2013-06-15T04:18:59Z</time>
      </trkpt>
      <trkpt lat="42.75153" lon="-0.10515">
        <ele>2236</ele>
        <time>2013-06-15T04:19:05Z</time>
      </trkpt>
      <trkpt lat="42.75154" lon="-0.10523">
        <ele>2236</ele>
        <time>2013-06-15T04:19:12Z</time>
      </trkpt>
      <trkpt lat="42.75158" lon="-0.10533">
        <ele>2237</ele>
        <time>2013-06-15T04:19:19Z</time>
      </trkpt>
      <trkpt lat="42.7516" lon="-0.10543">
        <ele>2237</ele>
        <time>2013-06-15T04:19:25Z</time>
      </trkpt>
      <trkpt lat="42.75161" lon="-0.10547">
        <ele>2236</ele>
        <time>2013-06-15T04:19:28Z</time>
      </trkpt>
      <trkpt lat="42.75164" lon="-0.10555">
        <ele>2235</ele>
        <time>2013-06-15T04:19:33Z</time>
      </trkpt>
      <trkpt lat="42.75166" lon="-0.10559">
        <ele>2236</ele>
        <time>2013-06-15T04:19:36Z</time>
      </trkpt>
      <trkpt lat="42.7517" lon="-0.10571">
        <ele>2234</ele>
        <time>2013-06-15T04:19:42Z</time>
      </trkpt>
      <trkpt lat="42.75172" lon="-0.10574">
        <ele>2233</ele>
        <time>2013-06-15T04:19:44Z</time>
      </trkpt>
      <trkpt lat="42.75173" lon="-0.10577">
        <ele>2232</ele>
        <time>2013-06-15T04:19:46Z</time>
      </trkpt>
      <trkpt lat="42.75176" lon="-0.10588">
        <ele>2230</ele>
        <time>2013-06-15T04:19:49Z</time>
      </trkpt>
      <trkpt lat="42.75179" lon="-0.10598">
        <ele>2227</ele>
        <time>2013-06-15T04:19:54Z</time>
      </trkpt>
      <trkpt lat="42.75182" lon="-0.10601">
        <ele>2227</ele>
        <time>2013-06-15T04:19:58Z</time>
      </trkpt>
      <trkpt lat="42.75188" lon="-0.10601">
        <ele>2228</ele>
        <time>2013-06-15T04:20:05Z</time>
      </trkpt>
      <trkpt lat="42.75193" lon="-0.10592">
        <ele>2227</ele>
        <time>2013-06-15T04:20:11Z</time>
      </trkpt>
      <trkpt lat="42.75198" lon="-0.1058">
        <ele>2227</ele>
        <time>2013-06-15T04:20:19Z</time>
      </trkpt>
      <trkpt lat="42.752" lon="-0.10575">
        <ele>2227</ele>
        <time>2013-06-15T04:20:22Z</time>
      </trkpt>
      <trkpt lat="42.75201" lon="-0.10564">
        <ele>2227</ele>
        <time>2013-06-15T04:20:29Z</time>
      </trkpt>
      <trkpt lat="42.75203" lon="-0.10556">
        <ele>2227</ele>
        <time>2013-06-15T04:20:35Z</time>
      </trkpt>
      <trkpt lat="42.75206" lon="-0.10548">
        <ele>2228</ele>
        <time>2013-06-15T04:20:42Z</time>
      </trkpt>
      <trkpt lat="42.75207" lon="-0.10546">
        <ele>2228</ele>
        <time>2013-06-15T04:20:45Z</time>
      </trkpt>
      <trkpt lat="42.75209" lon="-0.10541">
        <ele>2228</ele>
        <time>2013-06-15T04:20:50Z</time>
      </trkpt>
      <trkpt lat="42.75215" lon="-0.10537">
        <ele>2229</ele>
        <time>2013-06-15T04:20:57Z</time>
      </trkpt>
      <trkpt lat="42.75219" lon="-0.10536">
        <ele>2230</ele>
        <time>2013-06-15T04:21:04Z</time>
      </trkpt>
      <trkpt lat="42.75221" lon="-0.10535">
        <ele>2230</ele>
        <time>2013-06-15T04:21:11Z</time>
      </trkpt>
      <trkpt lat="42.75222" lon="-0.10534">
        <ele>2230</ele>
        <time>2013-06-15T04:21:12Z</time>
      </trkpt>
      <trkpt lat="42.75229" lon="-0.10527">
        <ele>2228</ele>
        <time>2013-06-15T04:21:18Z</time>
      </trkpt>
      <trkpt lat="42.75242" lon="-0.10522">
        <ele>2224</ele>
        <time>2013-06-15T04:21:23Z</time>
      </trkpt>
      <trkpt lat="42.75255" lon="-0.10524">
        <ele>2221</ele>
        <time>2013-06-15T04:21:27Z</time>
      </trkpt>
      <trkpt lat="42.75262" lon="-0.10528">
        <ele>2218</ele>
        <time>2013-06-15T04:21:33Z</time>
      </trkpt>
      <trkpt lat="42.75265" lon="-0.10531">
        <ele>2218</ele>
        <time>2013-06-15T04:21:39Z</time>
      </trkpt>
      <trkpt lat="42.75273" lon="-0.10535">
        <ele>2217</ele>
        <time>2013-06-15T04:21:46Z</time>
      </trkpt>
      <trkpt lat="42.7528" lon="-0.10541">
        <ele>2217</ele>
        <time>2013-06-15T04:21:52Z</time>
      </trkpt>
      <trkpt lat="42.75284" lon="-0.10544">
        <ele>2218</ele>
        <time>2013-06-15T04:21:57Z</time>
      </trkpt>
      <trkpt lat="42.75289" lon="-0.1055">
        <ele>2219</ele>
        <time>2013-06-15T04:22:04Z</time>
      </trkpt>
      <trkpt lat="42.75292" lon="-0.10556">
        <ele>2220</ele>
        <time>2013-06-15T04:22:10Z</time>
      </trkpt>
      <trkpt lat="42.75295" lon="-0.10563">
        <ele>2221</ele>
        <time>2013-06-15T04:22:17Z</time>
      </trkpt>
      <trkpt lat="42.75298" lon="-0.10569">
        <ele>2222</ele>
        <time>2013-06-15T04:22:24Z</time>
      </trkpt>
      <trkpt lat="42.75301" lon="-0.10576">
        <ele>2222</ele>
        <time>2013-06-15T04:22:29Z</time>
      </trkpt>
      <trkpt lat="42.75304" lon="-0.10579">
        <ele>2223</ele>
        <time>2013-06-15T04:22:35Z</time>
      </trkpt>
      <trkpt lat="42.75309" lon="-0.10586">
        <ele>2224</ele>
        <time>2013-06-15T04:22:42Z</time>
      </trkpt>
      <trkpt lat="42.75312" lon="-0.10595">
        <ele>2224</ele>
        <time>2013-06-15T04:22:49Z</time>
      </trkpt>
      <trkpt lat="42.75316" lon="-0.10604">
        <ele>2225</ele>
        <time>2013-06-15T04:22:57Z</time>
      </trkpt>
      <trkpt lat="42.7532" lon="-0.10611">
        <ele>2226</ele>
        <time>2013-06-15T04:23:03Z</time>
      </trkpt>
      <trkpt lat="42.7532" lon="-0.10612">
        <ele>2227</ele>
        <time>2013-06-15T04:23:05Z</time>
      </trkpt>
      <trkpt lat="42.75321" lon="-0.10618">
        <ele>2227</ele>
        <time>2013-06-15T04:23:10Z</time>
      </trkpt>
      <trkpt lat="42.75324" lon="-0.10628">
        <ele>2227</ele>
        <time>2013-06-15T04:23:17Z</time>
      </trkpt>
      <trkpt lat="42.75325" lon="-0.10633">
        <ele>2228</ele>
        <time>2013-06-15T04:23:22Z</time>
      </trkpt>
      <trkpt lat="42.75328" lon="-0.10641">
        <ele>2229</ele>
        <time>2013-06-15T04:23:30Z</time>
      </trkpt>
      <trkpt lat="42.7533" lon="-0.10646">
        <ele>2230</ele>
        <time>2013-06-15T04:23:36Z</time>
      </trkpt>
      <trkpt lat="42.75333" lon="-0.10652">
        <ele>2231</ele>
        <time>2013-06-15T04:23:43Z</time>
      </trkpt>
      <trkpt lat="42.75334" lon="-0.10655">
        <ele>2232</ele>
        <time>2013-06-15T04:23:47Z</time>
      </trkpt>
      <trkpt lat="42.75338" lon="-0.10661">
        <ele>2233</ele>
        <time>2013-06-15T04:23:55Z</time>
      </trkpt>
      <trkpt lat="42.75343" lon="-0.10667">
        <ele>2233</ele>
        <time>2013-06-15T04:24:03Z</time>
      </trkpt>
      <trkpt lat="42.75347" lon="-0.10671">
        <ele>2234</ele>
        <time>2013-06-15T04:24:10Z</time>
      </trkpt>
      <trkpt lat="42.75352" lon="-0.10677">
        <ele>2235</ele>
        <time>2013-06-15T04:24:18Z</time>
      </trkpt>
      <trkpt lat="42.75357" lon="-0.10682">
        <ele>2236</ele>
        <time>2013-06-15T04:24:26Z</time>
      </trkpt>
      <trkpt lat="42.75362" lon="-0.10687">
        <ele>2238</ele>
        <time>2013-06-15T04:24:35Z</time>
      </trkpt>
      <trkpt lat="42.75368" lon="-0.10691">
        <ele>2239</ele>
        <time>2013-06-15T04:24:44Z</time>
      </trkpt>
      <trkpt lat="42.75372" lon="-0.10695">
        <ele>2239</ele>
        <time>2013-06-15T04:24:51Z</time>
      </trkpt>
      <trkpt lat="42.75375" lon="-0.10698">
        <ele>2240</ele>
        <time>2013-06-15T04:24:57Z</time>
      </trkpt>
      <trkpt lat="42.75382" lon="-0.10702">
        <ele>2241</ele>
        <time>2013-06-15T04:25:05Z</time>
      </trkpt>
      <trkpt lat="42.75387" lon="-0.10706">
        <ele>2243</ele>
        <time>2013-06-15T04:25:16Z</time>
      </trkpt>
      <trkpt lat="42.75393" lon="-0.1071">
        <ele>2243</ele>
        <time>2013-06-15T04:25:25Z</time>
      </trkpt>
      <trkpt lat="42.75396" lon="-0.10713">
        <ele>2244</ele>
        <time>2013-06-15T04:25:32Z</time>
      </trkpt>
      <trkpt lat="42.75398" lon="-0.10714">
        <ele>2245</ele>
        <time>2013-06-15T04:25:40Z</time>
      </trkpt>
      <trkpt lat="42.754" lon="-0.10717">
        <ele>2246</ele>
        <time>2013-06-15T04:25:49Z</time>
      </trkpt>
      <trkpt lat="42.75404" lon="-0.10719">
        <ele>2247</ele>
        <time>2013-06-15T04:25:56Z</time>
      </trkpt>
      <trkpt lat="42.7541" lon="-0.10723">
        <ele>2249</ele>
        <time>2013-06-15T04:26:06Z</time>
      </trkpt>
      <trkpt lat="42.75414" lon="-0.10724">
        <ele>2250</ele>
        <time>2013-06-15T04:26:13Z</time>
      </trkpt>
      <trkpt lat="42.75418" lon="-0.10726">
        <ele>2251</ele>
        <time>2013-06-15T04:26:21Z</time>
      </trkpt>
      <trkpt lat="42.75423" lon="-0.10727">
        <ele>2252</ele>
        <time>2013-06-15T04:26:28Z</time>
      </trkpt>
      <trkpt lat="42.75426" lon="-0.10728">
        <ele>2253</ele>
        <time>2013-06-15T04:26:34Z</time>
      </trkpt>
      <trkpt lat="42.75431" lon="-0.10727">
        <ele>2255</ele>
        <time>2013-06-15T04:26:42Z</time>
      </trkpt>
      <trkpt lat="42.75432" lon="-0.10732">
        <ele>2256</ele>
        <time>2013-06-15T04:26:49Z</time>
      </trkpt>
      <trkpt lat="42.75431" lon="-0.10739">
        <ele>2258</ele>
        <time>2013-06-15T04:26:58Z</time>
      </trkpt>
      <trkpt lat="42.75428" lon="-0.10746">
        <ele>2259</ele>
        <time>2013-06-15T04:27:08Z</time>
      </trkpt>
      <trkpt lat="42.75423" lon="-0.10751">
        <ele>2261</ele>
        <time>2013-06-15T04:27:18Z</time>
      </trkpt>
      <trkpt lat="42.75418" lon="-0.10755">
        <ele>2262</ele>
        <time>2013-06-15T04:27:25Z</time>
      </trkpt>
      <trkpt lat="42.75412" lon="-0.10759">
        <ele>2264</ele>
        <time>2013-06-15T04:27:34Z</time>
      </trkpt>
      <trkpt lat="42.75412" lon="-0.10759">
        <ele>2265</ele>
        <time>2013-06-15T04:27:40Z</time>
      </trkpt>
      <trkpt lat="42.75414" lon="-0.10762">
        <ele>2266</ele>
        <time>2013-06-15T04:27:48Z</time>
      </trkpt>
      <trkpt lat="42.75417" lon="-0.10765">
        <ele>2267</ele>
        <time>2013-06-15T04:27:56Z</time>
      </trkpt>
      <trkpt lat="42.75422" lon="-0.10767">
        <ele>2267</ele>
        <time>2013-06-15T04:28:02Z</time>
      </trkpt>
      <trkpt lat="42.75426" lon="-0.10769">
        <ele>2269</ele>
        <time>2013-06-15T04:28:09Z</time>
      </trkpt>
      <trkpt lat="42.75432" lon="-0.1077">
        <ele>2270</ele>
        <time>2013-06-15T04:28:18Z</time>
      </trkpt>
      <trkpt lat="42.75433" lon="-0.10768">
        <ele>2271</ele>
        <time>2013-06-15T04:28:25Z</time>
      </trkpt>
      <trkpt lat="42.75432" lon="-0.10768">
        <ele>2271</ele>
        <time>2013-06-15T04:28:38Z</time>
      </trkpt>
      <trkpt lat="42.75437" lon="-0.10769">
        <ele>2272</ele>
        <time>2013-06-15T04:28:46Z</time>
      </trkpt>
      <trkpt lat="42.75443" lon="-0.10769">
        <ele>2274</ele>
        <time>2013-06-15T04:28:53Z</time>
      </trkpt>
      <trkpt lat="42.75447" lon="-0.1077">
        <ele>2274</ele>
        <time>2013-06-15T04:29:00Z</time>
      </trkpt>
      <trkpt lat="42.75449" lon="-0.1077">
        <ele>2275</ele>
        <time>2013-06-15T04:29:09Z</time>
      </trkpt>
      <trkpt lat="42.75453" lon="-0.10767">
        <ele>2277</ele>
        <time>2013-06-15T04:29:16Z</time>
      </trkpt>
      <trkpt lat="42.75457" lon="-0.10767">
        <ele>2277</ele>
        <time>2013-06-15T04:29:25Z</time>
      </trkpt>
      <trkpt lat="42.75456" lon="-0.10774">
        <ele>2278</ele>
        <time>2013-06-15T04:29:34Z</time>
      </trkpt>
      <trkpt lat="42.75452" lon="-0.10778">
        <ele>2278</ele>
        <time>2013-06-15T04:29:42Z</time>
      </trkpt>
      <trkpt lat="42.75449" lon="-0.1078">
        <ele>2279</ele>
        <time>2013-06-15T04:29:46Z</time>
      </trkpt>
      <trkpt lat="42.75445" lon="-0.10783">
        <ele>2280</ele>
        <time>2013-06-15T04:29:54Z</time>
      </trkpt>
      <trkpt lat="42.75438" lon="-0.10787">
        <ele>2281</ele>
        <time>2013-06-15T04:30:01Z</time>
      </trkpt>
      <trkpt lat="42.75433" lon="-0.1079">
        <ele>2282</ele>
        <time>2013-06-15T04:30:08Z</time>
      </trkpt>
      <trkpt lat="42.75427" lon="-0.10794">
        <ele>2283</ele>
        <time>2013-06-15T04:30:18Z</time>
      </trkpt>
      <trkpt lat="42.75424" lon="-0.10799">
        <ele>2284</ele>
        <time>2013-06-15T04:30:25Z</time>
      </trkpt>
      <trkpt lat="42.75423" lon="-0.108">
        <ele>2285</ele>
        <time>2013-06-15T04:30:27Z</time>
      </trkpt>
      <trkpt lat="42.75419" lon="-0.10802">
        <ele>2286</ele>
        <time>2013-06-15T04:30:34Z</time>
      </trkpt>
      <trkpt lat="42.75413" lon="-0.10804">
        <ele>2287</ele>
        <time>2013-06-15T04:30:41Z</time>
      </trkpt>
      <trkpt lat="42.7541" lon="-0.10804">
        <ele>2288</ele>
        <time>2013-06-15T04:30:50Z</time>
      </trkpt>
      <trkpt lat="42.75411" lon="-0.10808">
        <ele>2289</ele>
        <time>2013-06-15T04:30:56Z</time>
      </trkpt>
      <trkpt lat="42.75412" lon="-0.1081">
        <ele>2290</ele>
        <time>2013-06-15T04:31:02Z</time>
      </trkpt>
      <trkpt lat="42.75416" lon="-0.10814">
        <ele>2290</ele>
        <time>2013-06-15T04:31:11Z</time>
      </trkpt>
      <trkpt lat="42.75422" lon="-0.10818">
        <ele>2293</ele>
        <time>2013-06-15T04:31:20Z</time>
      </trkpt>
      <trkpt lat="42.75427" lon="-0.10821">
        <ele>2294</ele>
        <time>2013-06-15T04:31:26Z</time>
      </trkpt>
      <trkpt lat="42.75432" lon="-0.10821">
        <ele>2296</ele>
        <time>2013-06-15T04:31:34Z</time>
      </trkpt>
      <trkpt lat="42.75431" lon="-0.10822">
        <ele>2296</ele>
        <time>2013-06-15T04:31:42Z</time>
      </trkpt>
      <trkpt lat="42.75429" lon="-0.10825">
        <ele>2297</ele>
        <time>2013-06-15T04:31:45Z</time>
      </trkpt>
      <trkpt lat="42.75423" lon="-0.1083">
        <ele>2298</ele>
        <time>2013-06-15T04:31:52Z</time>
      </trkpt>
      <trkpt lat="42.75418" lon="-0.10833">
        <ele>2299</ele>
        <time>2013-06-15T04:32:00Z</time>
      </trkpt>
      <trkpt lat="42.75413" lon="-0.10835">
        <ele>2301</ele>
        <time>2013-06-15T04:32:07Z</time>
      </trkpt>
      <trkpt lat="42.75406" lon="-0.10837">
        <ele>2302</ele>
        <time>2013-06-15T04:32:17Z</time>
      </trkpt>
      <trkpt lat="42.75403" lon="-0.10836">
        <ele>2302</ele>
        <time>2013-06-15T04:32:21Z</time>
      </trkpt>
      <trkpt lat="42.75398" lon="-0.10834">
        <ele>2304</ele>
        <time>2013-06-15T04:32:30Z</time>
      </trkpt>
      <trkpt lat="42.75399" lon="-0.10834">
        <ele>2305</ele>
        <time>2013-06-15T04:32:37Z</time>
      </trkpt>
      <trkpt lat="42.75402" lon="-0.1084">
        <ele>2305</ele>
        <time>2013-06-15T04:32:46Z</time>
      </trkpt>
      <trkpt lat="42.75404" lon="-0.10844">
        <ele>2306</ele>
        <time>2013-06-15T04:32:52Z</time>
      </trkpt>
      <trkpt lat="42.75409" lon="-0.10849">
        <ele>2307</ele>
        <time>2013-06-15T04:32:59Z</time>
      </trkpt>
      <trkpt lat="42.75411" lon="-0.1085">
        <ele>2307</ele>
        <time>2013-06-15T04:33:04Z</time>
      </trkpt>
      <trkpt lat="42.75414" lon="-0.10854">
        <ele>2309</ele>
        <time>2013-06-15T04:33:13Z</time>
      </trkpt>
      <trkpt lat="42.75418" lon="-0.10856">
        <ele>2310</ele>
        <time>2013-06-15T04:33:20Z</time>
      </trkpt>
      <trkpt lat="42.75411" lon="-0.10858">
        <ele>2310</ele>
        <time>2013-06-15T04:33:29Z</time>
      </trkpt>
      <trkpt lat="42.75404" lon="-0.10859">
        <ele>2312</ele>
        <time>2013-06-15T04:33:39Z</time>
      </trkpt>
      <trkpt lat="42.75401" lon="-0.1086">
        <ele>2312</ele>
        <time>2013-06-15T04:33:43Z</time>
      </trkpt>
      <trkpt lat="42.75396" lon="-0.10862">
        <ele>2314</ele>
        <time>2013-06-15T04:33:50Z</time>
      </trkpt>
      <trkpt lat="42.75389" lon="-0.10865">
        <ele>2315</ele>
        <time>2013-06-15T04:34:00Z</time>
      </trkpt>
      <trkpt lat="42.75385" lon="-0.10867">
        <ele>2316</ele>
        <time>2013-06-15T04:34:09Z</time>
      </trkpt>
      <trkpt lat="42.7538" lon="-0.1087">
        <ele>2319</ele>
        <time>2013-06-15T04:34:20Z</time>
      </trkpt>
      <trkpt lat="42.75373" lon="-0.10871">
        <ele>2320</ele>
        <time>2013-06-15T04:34:28Z</time>
      </trkpt>
      <trkpt lat="42.75368" lon="-0.10874">
        <ele>2321</ele>
        <time>2013-06-15T04:34:35Z</time>
      </trkpt>
      <trkpt lat="42.75364" lon="-0.10877">
        <ele>2323</ele>
        <time>2013-06-15T04:34:43Z</time>
      </trkpt>
      <trkpt lat="42.75359" lon="-0.1088">
        <ele>2325</ele>
        <time>2013-06-15T04:34:53Z</time>
      </trkpt>
      <trkpt lat="42.75356" lon="-0.10882">
        <ele>2326</ele>
        <time>2013-06-15T04:35:01Z</time>
      </trkpt>
      <trkpt lat="42.75352" lon="-0.10885">
        <ele>2327</ele>
        <time>2013-06-15T04:35:07Z</time>
      </trkpt>
      <trkpt lat="42.75348" lon="-0.10888">
        <ele>2328</ele>
        <time>2013-06-15T04:35:15Z</time>
      </trkpt>
      <trkpt lat="42.75344" lon="-0.1089">
        <ele>2329</ele>
        <time>2013-06-15T04:35:23Z</time>
      </trkpt>
      <trkpt lat="42.75342" lon="-0.10891">
        <ele>2330</ele>
        <time>2013-06-15T04:35:31Z</time>
      </trkpt>
      <trkpt lat="42.75343" lon="-0.10892">
        <ele>2330</ele>
        <time>2013-06-15T04:35:32Z</time>
      </trkpt>
      <trkpt lat="42.75351" lon="-0.10894">
        <ele>2332</ele>
        <time>2013-06-15T04:35:40Z</time>
      </trkpt>
      <trkpt lat="42.75353" lon="-0.10896">
        <ele>2333</ele>
        <time>2013-06-15T04:35:46Z</time>
      </trkpt>
      <trkpt lat="42.75357" lon="-0.10901">
        <ele>2334</ele>
        <time>2013-06-15T04:35:55Z</time>
      </trkpt>
      <trkpt lat="42.75361" lon="-0.10905">
        <ele>2335</ele>
        <time>2013-06-15T04:36:03Z</time>
      </trkpt>
      <trkpt lat="42.75365" lon="-0.1091">
        <ele>2336</ele>
        <time>2013-06-15T04:36:10Z</time>
      </trkpt>
      <trkpt lat="42.75367" lon="-0.10912">
        <ele>2337</ele>
        <time>2013-06-15T04:36:17Z</time>
      </trkpt>
      <trkpt lat="42.75372" lon="-0.10917">
        <ele>2337</ele>
        <time>2013-06-15T04:36:24Z</time>
      </trkpt>
      <trkpt lat="42.75377" lon="-0.10922">
        <ele>2338</ele>
        <time>2013-06-15T04:36:32Z</time>
      </trkpt>
      <trkpt lat="42.75379" lon="-0.10925">
        <ele>2340</ele>
        <time>2013-06-15T04:36:40Z</time>
      </trkpt>
      <trkpt lat="42.75383" lon="-0.10929">
        <ele>2341</ele>
        <time>2013-06-15T04:36:49Z</time>
      </trkpt>
      <trkpt lat="42.75389" lon="-0.10934">
        <ele>2342</ele>
        <time>2013-06-15T04:36:58Z</time>
      </trkpt>
      <trkpt lat="42.75393" lon="-0.10941">
        <ele>2343</ele>
        <time>2013-06-15T04:37:06Z</time>
      </trkpt>
      <trkpt lat="42.75395" lon="-0.10945">
        <ele>2344</ele>
        <time>2013-06-15T04:37:13Z</time>
      </trkpt>
      <trkpt lat="42.75398" lon="-0.1095">
        <ele>2345</ele>
        <time>2013-06-15T04:37:23Z</time>
      </trkpt>
      <trkpt lat="42.75401" lon="-0.10954">
        <ele>2347</ele>
        <time>2013-06-15T04:37:29Z</time>
      </trkpt>
      <trkpt lat="42.75403" lon="-0.1096">
        <ele>2348</ele>
        <time>2013-06-15T04:37:37Z</time>
      </trkpt>
      <trkpt lat="42.75403" lon="-0.10961">
        <ele>2348</ele>
        <time>2013-06-15T04:37:39Z</time>
      </trkpt>
      <trkpt lat="42.75404" lon="-0.10963">
        <ele>2348</ele>
        <time>2013-06-15T04:37:41Z</time>
      </trkpt>
      <trkpt lat="42.75404" lon="-0.10966">
        <ele>2349</ele>
        <time>2013-06-15T04:37:48Z</time>
      </trkpt>
      <trkpt lat="42.75408" lon="-0.10972">
        <ele>2351</ele>
        <time>2013-06-15T04:37:55Z</time>
      </trkpt>
      <trkpt lat="42.75411" lon="-0.10978">
        <ele>2351</ele>
        <time>2013-06-15T04:38:02Z</time>
      </trkpt>
      <trkpt lat="42.75413" lon="-0.10982">
        <ele>2352</ele>
        <time>2013-06-15T04:38:10Z</time>
      </trkpt>
      <trkpt lat="42.75411" lon="-0.10983">
        <ele>2352</ele>
        <time>2013-06-15T04:38:18Z</time>
      </trkpt>
      <trkpt lat="42.7541" lon="-0.10984">
        <ele>2352</ele>
        <time>2013-06-15T04:38:32Z</time>
      </trkpt>
      <trkpt lat="42.75413" lon="-0.10988">
        <ele>2352</ele>
        <time>2013-06-15T04:38:39Z</time>
      </trkpt>
      <trkpt lat="42.75417" lon="-0.10993">
        <ele>2352</ele>
        <time>2013-06-15T04:38:46Z</time>
      </trkpt>
      <trkpt lat="42.7542" lon="-0.10998">
        <ele>2353</ele>
        <time>2013-06-15T04:38:53Z</time>
      </trkpt>
      <trkpt lat="42.75422" lon="-0.11005">
        <ele>2354</ele>
        <time>2013-06-15T04:39:00Z</time>
      </trkpt>
      <trkpt lat="42.75426" lon="-0.11012">
        <ele>2355</ele>
        <time>2013-06-15T04:39:08Z</time>
      </trkpt>
      <trkpt lat="42.7543" lon="-0.11019">
        <ele>2356</ele>
        <time>2013-06-15T04:39:17Z</time>
      </trkpt>
      <trkpt lat="42.75433" lon="-0.11027">
        <ele>2358</ele>
        <time>2013-06-15T04:39:25Z</time>
      </trkpt>
      <trkpt lat="42.75436" lon="-0.11037">
        <ele>2358</ele>
        <time>2013-06-15T04:39:33Z</time>
      </trkpt>
      <trkpt lat="42.75439" lon="-0.11045">
        <ele>2358</ele>
        <time>2013-06-15T04:39:40Z</time>
      </trkpt>
      <trkpt lat="42.75442" lon="-0.11052">
        <ele>2359</ele>
        <time>2013-06-15T04:39:47Z</time>
      </trkpt>
      <trkpt lat="42.75443" lon="-0.11054">
        <ele>2359</ele>
        <time>2013-06-15T04:39:49Z</time>
      </trkpt>
      <trkpt lat="42.75446" lon="-0.1106">
        <ele>2359</ele>
        <time>2013-06-15T04:39:55Z</time>
      </trkpt>
      <trkpt lat="42.75448" lon="-0.11066">
        <ele>2360</ele>
        <time>2013-06-15T04:40:01Z</time>
      </trkpt>
      <trkpt lat="42.75452" lon="-0.11071">
        <ele>2361</ele>
        <time>2013-06-15T04:40:09Z</time>
      </trkpt>
      <trkpt lat="42.75459" lon="-0.11078">
        <ele>2362</ele>
        <time>2013-06-15T04:40:17Z</time>
      </trkpt>
      <trkpt lat="42.75464" lon="-0.11084">
        <ele>2362</ele>
        <time>2013-06-15T04:40:27Z</time>
      </trkpt>
      <trkpt lat="42.75469" lon="-0.11089">
        <ele>2364</ele>
        <time>2013-06-15T04:40:35Z</time>
      </trkpt>
      <trkpt lat="42.75473" lon="-0.11092">
        <ele>2364</ele>
        <time>2013-06-15T04:40:42Z</time>
      </trkpt>
      <trkpt lat="42.75478" lon="-0.11095">
        <ele>2365</ele>
        <time>2013-06-15T04:40:49Z</time>
      </trkpt>
      <trkpt lat="42.7548" lon="-0.11096">
        <ele>2365</ele>
        <time>2013-06-15T04:40:51Z</time>
      </trkpt>
      <trkpt lat="42.75484" lon="-0.11097">
        <ele>2367</ele>
        <time>2013-06-15T04:40:58Z</time>
      </trkpt>
      <trkpt lat="42.75487" lon="-0.11098">
        <ele>2368</ele>
        <time>2013-06-15T04:41:04Z</time>
      </trkpt>
      <trkpt lat="42.75489" lon="-0.111">
        <ele>2368</ele>
        <time>2013-06-15T04:41:10Z</time>
      </trkpt>
      <trkpt lat="42.75487" lon="-0.11106">
        <ele>2369</ele>
        <time>2013-06-15T04:41:19Z</time>
      </trkpt>
      <trkpt lat="42.7549" lon="-0.1111">
        <ele>2371</ele>
        <time>2013-06-15T04:41:25Z</time>
      </trkpt>
      <trkpt lat="42.75494" lon="-0.11113">
        <ele>2372</ele>
        <time>2013-06-15T04:41:32Z</time>
      </trkpt>
      <trkpt lat="42.75493" lon="-0.11118">
        <ele>2374</ele>
        <time>2013-06-15T04:41:38Z</time>
      </trkpt>
      <trkpt lat="42.75491" lon="-0.11121">
        <ele>2375</ele>
        <time>2013-06-15T04:41:44Z</time>
      </trkpt>
      <trkpt lat="42.75491" lon="-0.11127">
        <ele>2377</ele>
        <time>2013-06-15T04:41:54Z</time>
      </trkpt>
      <trkpt lat="42.75494" lon="-0.11132">
        <ele>2377</ele>
        <time>2013-06-15T04:42:03Z</time>
      </trkpt>
      <trkpt lat="42.75491" lon="-0.11137">
        <ele>2378</ele>
        <time>2013-06-15T04:42:10Z</time>
      </trkpt>
      <trkpt lat="42.75491" lon="-0.11141">
        <ele>2380</ele>
        <time>2013-06-15T04:42:18Z</time>
      </trkpt>
      <trkpt lat="42.75493" lon="-0.11145">
        <ele>2382</ele>
        <time>2013-06-15T04:42:26Z</time>
      </trkpt>
      <trkpt lat="42.75492" lon="-0.11149">
        <ele>2382</ele>
        <time>2013-06-15T04:42:33Z</time>
      </trkpt>
      <trkpt lat="42.7549" lon="-0.11153">
        <ele>2384</ele>
        <time>2013-06-15T04:42:39Z</time>
      </trkpt>
      <trkpt lat="42.7549" lon="-0.11156">
        <ele>2385</ele>
        <time>2013-06-15T04:42:43Z</time>
      </trkpt>
      <trkpt lat="42.75494" lon="-0.1116">
        <ele>2386</ele>
        <time>2013-06-15T04:42:51Z</time>
      </trkpt>
      <trkpt lat="42.75497" lon="-0.11164">
        <ele>2388</ele>
        <time>2013-06-15T04:43:01Z</time>
      </trkpt>
      <trkpt lat="42.75502" lon="-0.1117">
        <ele>2390</ele>
        <time>2013-06-15T04:43:11Z</time>
      </trkpt>
      <trkpt lat="42.75504" lon="-0.11171">
        <ele>2389</ele>
        <time>2013-06-15T04:43:25Z</time>
      </trkpt>
      <trkpt lat="42.75504" lon="-0.11171">
        <ele>2390</ele>
        <time>2013-06-15T04:43:33Z</time>
      </trkpt>
      <trkpt lat="42.75504" lon="-0.11171">
        <ele>2391</ele>
        <time>2013-06-15T04:43:45Z</time>
      </trkpt>
      <trkpt lat="42.75503" lon="-0.1117">
        <ele>2391</ele>
        <time>2013-06-15T04:43:57Z</time>
      </trkpt>
      <trkpt lat="42.75504" lon="-0.11172">
        <ele>2392</ele>
        <time>2013-06-15T04:44:10Z</time>
      </trkpt>
      <trkpt lat="42.75508" lon="-0.1118">
        <ele>2393</ele>
        <time>2013-06-15T04:44:20Z</time>
      </trkpt>
      <trkpt lat="42.7551" lon="-0.11186">
        <ele>2393</ele>
        <time>2013-06-15T04:44:29Z</time>
      </trkpt>
      <trkpt lat="42.75511" lon="-0.11189">
        <ele>2394</ele>
        <time>2013-06-15T04:44:31Z</time>
      </trkpt>
      <trkpt lat="42.75512" lon="-0.11195">
        <ele>2393</ele>
        <time>2013-06-15T04:44:37Z</time>
      </trkpt>
      <trkpt lat="42.75514" lon="-0.11202">
        <ele>2394</ele>
        <time>2013-06-15T04:44:44Z</time>
      </trkpt>
      <trkpt lat="42.75515" lon="-0.11209">
        <ele>2394</ele>
        <time>2013-06-15T04:44:52Z</time>
      </trkpt>
      <trkpt lat="42.75516" lon="-0.1121">
        <ele>2394</ele>
        <time>2013-06-15T04:45:05Z</time>
      </trkpt>
      <trkpt lat="42.75516" lon="-0.11209">
        <ele>2394</ele>
        <time>2013-06-15T04:45:21Z</time>
      </trkpt>
      <trkpt lat="42.75514" lon="-0.1121">
        <ele>2394</ele>
        <time>2013-06-15T04:45:30Z</time>
      </trkpt>
      <trkpt lat="42.7552" lon="-0.11211">
        <ele>2394</ele>
        <time>2013-06-15T04:45:47Z</time>
      </trkpt>
      <trkpt lat="42.75518" lon="-0.11209">
        <ele>2394</ele>
        <time>2013-06-15T04:45:59Z</time>
      </trkpt>
      <trkpt lat="42.75516" lon="-0.11207">
        <ele>2394</ele>
        <time>2013-06-15T04:46:05Z</time>
      </trkpt>
      <trkpt lat="42.75514" lon="-0.11204">
        <ele>2394</ele>
        <time>2013-06-15T04:46:12Z</time>
      </trkpt>
      <trkpt lat="42.75515" lon="-0.112">
        <ele>2394</ele>
        <time>2013-06-15T04:46:27Z</time>
      </trkpt>
      <trkpt lat="42.75511" lon="-0.11198">
        <ele>2394</ele>
        <time>2013-06-15T04:46:43Z</time>
      </trkpt>
      <trkpt lat="42.75511" lon="-0.11195">
        <ele>2395</ele>
        <time>2013-06-15T04:46:57Z</time>
      </trkpt>
      <trkpt lat="42.75513" lon="-0.11197">
        <ele>2395</ele>
        <time>2013-06-15T04:47:06Z</time>
      </trkpt>
      <trkpt lat="42.75513" lon="-0.11195">
        <ele>2395</ele>
        <time>2013-06-15T04:47:18Z</time>
      </trkpt>
      <trkpt lat="42.75507" lon="-0.11197">
        <ele>2396</ele>
        <time>2013-06-15T04:47:29Z</time>
      </trkpt>
      <trkpt lat="42.75509" lon="-0.11197">
        <ele>2396</ele>
        <time>2013-06-15T04:47:39Z</time>
      </trkpt>
      <trkpt lat="42.7551" lon="-0.11197">
        <ele>2396</ele>
        <time>2013-06-15T04:47:53Z</time>
      </trkpt>
      <trkpt lat="42.75512" lon="-0.11203">
        <ele>2397</ele>
        <time>2013-06-15T04:48:02Z</time>
      </trkpt>
      <trkpt lat="42.75514" lon="-0.11202">
        <ele>2397</ele>
        <time>2013-06-15T04:48:09Z</time>
      </trkpt>
      <trkpt lat="42.75511" lon="-0.112">
        <ele>2397</ele>
        <time>2013-06-15T04:48:20Z</time>
      </trkpt>
      <trkpt lat="42.75512" lon="-0.11198">
        <ele>2396</ele>
        <time>2013-06-15T04:48:29Z</time>
      </trkpt>
      <trkpt lat="42.75515" lon="-0.11199">
        <ele>2398</ele>
        <time>2013-06-15T04:48:42Z</time>
      </trkpt>
      <trkpt lat="42.75518" lon="-0.11203">
        <ele>2397</ele>
        <time>2013-06-15T04:48:54Z</time>
      </trkpt>
      <trkpt lat="42.75516" lon="-0.11206">
        <ele>2397</ele>
        <time>2013-06-15T04:49:06Z</time>
      </trkpt>
      <trkpt lat="42.75514" lon="-0.1121">
        <ele>2397</ele>
        <time>2013-06-15T04:49:15Z</time>
      </trkpt>
      <trkpt lat="42.75517" lon="-0.11204">
        <ele>2398</ele>
        <time>2013-06-15T04:49:31Z</time>
      </trkpt>
      <trkpt lat="42.75514" lon="-0.11205">
        <ele>2398</ele>
        <time>2013-06-15T04:49:40Z</time>
      </trkpt>
      <trkpt lat="42.75514" lon="-0.11203">
        <ele>2398</ele>
        <time>2013-06-15T04:49:50Z</time>
      </trkpt>
      <trkpt lat="42.75515" lon="-0.11208">
        <ele>2398</ele>
        <time>2013-06-15T04:49:57Z</time>
      </trkpt>
      <trkpt lat="42.75508" lon="-0.11204">
        <ele>2398</ele>
        <time>2013-06-15T04:50:11Z</time>
      </trkpt>
      <trkpt lat="42.75512" lon="-0.11207">
        <ele>2397</ele>
        <time>2013-06-15T04:50:20Z</time>
      </trkpt>
      <trkpt lat="42.75511" lon="-0.11206">
        <ele>2397</ele>
        <time>2013-06-15T04:50:31Z</time>
      </trkpt>
      <trkpt lat="42.75509" lon="-0.11196">
        <ele>2398</ele>
        <time>2013-06-15T04:50:46Z</time>
      </trkpt>
      <trkpt lat="42.7551" lon="-0.11204">
        <ele>2398</ele>
        <time>2013-06-15T04:51:00Z</time>
      </trkpt>
      <trkpt lat="42.75513" lon="-0.11213">
        <ele>2398</ele>
        <time>2013-06-15T04:51:09Z</time>
      </trkpt>
      <trkpt lat="42.75515" lon="-0.1122">
        <ele>2398</ele>
        <time>2013-06-15T04:51:16Z</time>
      </trkpt>
      <trkpt lat="42.75515" lon="-0.11225">
        <ele>2399</ele>
        <time>2013-06-15T04:51:23Z</time>
      </trkpt>
      <trkpt lat="42.75516" lon="-0.11226">
        <ele>2398</ele>
        <time>2013-06-15T04:51:30Z</time>
      </trkpt>
      <trkpt lat="42.75516" lon="-0.11235">
        <ele>2399</ele>
        <time>2013-06-15T04:51:37Z</time>
      </trkpt>
      <trkpt lat="42.7552" lon="-0.11244">
        <ele>2399</ele>
        <time>2013-06-15T04:51:45Z</time>
      </trkpt>
      <trkpt lat="42.75523" lon="-0.11248">
        <ele>2400</ele>
        <time>2013-06-15T04:51:48Z</time>
      </trkpt>
      <trkpt lat="42.75523" lon="-0.11261">
        <ele>2399</ele>
        <time>2013-06-15T04:51:55Z</time>
      </trkpt>
      <trkpt lat="42.75524" lon="-0.11279">
        <ele>2396</ele>
        <time>2013-06-15T04:52:02Z</time>
      </trkpt>
      <trkpt lat="42.75526" lon="-0.11294">
        <ele>2394</ele>
        <time>2013-06-15T04:52:09Z</time>
      </trkpt>
      <trkpt lat="42.75529" lon="-0.11311">
        <ele>2393</ele>
        <time>2013-06-15T04:52:18Z</time>
      </trkpt>
      <trkpt lat="42.75531" lon="-0.11334">
        <ele>2391</ele>
        <time>2013-06-15T04:52:25Z</time>
      </trkpt>
      <trkpt lat="42.75531" lon="-0.1134">
        <ele>2389</ele>
        <time>2013-06-15T04:52:28Z</time>
      </trkpt>
      <trkpt lat="42.75531" lon="-0.11344">
        <ele>2389</ele>
        <time>2013-06-15T04:52:33Z</time>
      </trkpt>
      <trkpt lat="42.75533" lon="-0.11351">
        <ele>2390</ele>
        <time>2013-06-15T04:52:38Z</time>
      </trkpt>
      <trkpt lat="42.75538" lon="-0.11365">
        <ele>2390</ele>
        <time>2013-06-15T04:52:47Z</time>
      </trkpt>
      <trkpt lat="42.75541" lon="-0.1137">
        <ele>2390</ele>
        <time>2013-06-15T04:52:51Z</time>
      </trkpt>
      <trkpt lat="42.75549" lon="-0.11378">
        <ele>2389</ele>
        <time>2013-06-15T04:53:00Z</time>
      </trkpt>
      <trkpt lat="42.75552" lon="-0.11379">
        <ele>2389</ele>
        <time>2013-06-15T04:53:03Z</time>
      </trkpt>
      <trkpt lat="42.75558" lon="-0.11384">
        <ele>2389</ele>
        <time>2013-06-15T04:53:08Z</time>
      </trkpt>
      <trkpt lat="42.75564" lon="-0.11391">
        <ele>2388</ele>
        <time>2013-06-15T04:53:15Z</time>
      </trkpt>
      <trkpt lat="42.75569" lon="-0.11405">
        <ele>2387</ele>
        <time>2013-06-15T04:53:23Z</time>
      </trkpt>
      <trkpt lat="42.75571" lon="-0.11408">
        <ele>2387</ele>
        <time>2013-06-15T04:53:25Z</time>
      </trkpt>
      <trkpt lat="42.75575" lon="-0.11423">
        <ele>2385</ele>
        <time>2013-06-15T04:53:32Z</time>
      </trkpt>
      <trkpt lat="42.75578" lon="-0.11429">
        <ele>2385</ele>
        <time>2013-06-15T04:53:36Z</time>
      </trkpt>
      <trkpt lat="42.75577" lon="-0.1144">
        <ele>2384</ele>
        <time>2013-06-15T04:53:43Z</time>
      </trkpt>
      <trkpt lat="42.75577" lon="-0.1144">
        <ele>2385</ele>
        <time>2013-06-15T04:53:44Z</time>
      </trkpt>
      <trkpt lat="42.75573" lon="-0.11449">
        <ele>2386</ele>
        <time>2013-06-15T04:53:53Z</time>
      </trkpt>
      <trkpt lat="42.75571" lon="-0.11456">
        <ele>2387</ele>
        <time>2013-06-15T04:54:01Z</time>
      </trkpt>
      <trkpt lat="42.75568" lon="-0.11464">
        <ele>2388</ele>
        <time>2013-06-15T04:54:10Z</time>
      </trkpt>
      <trkpt lat="42.75566" lon="-0.11467">
        <ele>2388</ele>
        <time>2013-06-15T04:54:16Z</time>
      </trkpt>
      <trkpt lat="42.75566" lon="-0.11468">
        <ele>2389</ele>
        <time>2013-06-15T04:54:23Z</time>
      </trkpt>
      <trkpt lat="42.7557" lon="-0.11469">
        <ele>2390</ele>
        <time>2013-06-15T04:54:30Z</time>
      </trkpt>
      <trkpt lat="42.75575" lon="-0.11468">
        <ele>2390</ele>
        <time>2013-06-15T04:54:37Z</time>
      </trkpt>
      <trkpt lat="42.75579" lon="-0.1147">
        <ele>2391</ele>
        <time>2013-06-15T04:54:43Z</time>
      </trkpt>
      <trkpt lat="42.75582" lon="-0.11467">
        <ele>2392</ele>
        <time>2013-06-15T04:54:47Z</time>
      </trkpt>
      <trkpt lat="42.75588" lon="-0.11468">
        <ele>2393</ele>
        <time>2013-06-15T04:54:56Z</time>
      </trkpt>
      <trkpt lat="42.75596" lon="-0.11468">
        <ele>2396</ele>
        <time>2013-06-15T04:55:07Z</time>
      </trkpt>
      <trkpt lat="42.75601" lon="-0.11471">
        <ele>2396</ele>
        <time>2013-06-15T04:55:14Z</time>
      </trkpt>
      <trkpt lat="42.756" lon="-0.11474">
        <ele>2398</ele>
        <time>2013-06-15T04:55:21Z</time>
      </trkpt>
      <trkpt lat="42.75594" lon="-0.11478">
        <ele>2400</ele>
        <time>2013-06-15T04:55:29Z</time>
      </trkpt>
      <trkpt lat="42.7559" lon="-0.11481">
        <ele>2401</ele>
        <time>2013-06-15T04:55:37Z</time>
      </trkpt>
      <trkpt lat="42.75587" lon="-0.11486">
        <ele>2401</ele>
        <time>2013-06-15T04:55:46Z</time>
      </trkpt>
      <trkpt lat="42.75583" lon="-0.1149">
        <ele>2403</ele>
        <time>2013-06-15T04:55:53Z</time>
      </trkpt>
      <trkpt lat="42.75582" lon="-0.11494">
        <ele>2403</ele>
        <time>2013-06-15T04:56:02Z</time>
      </trkpt>
      <trkpt lat="42.75584" lon="-0.11493">
        <ele>2403</ele>
        <time>2013-06-15T04:56:08Z</time>
      </trkpt>
      <trkpt lat="42.7559" lon="-0.11494">
        <ele>2405</ele>
        <time>2013-06-15T04:56:17Z</time>
      </trkpt>
      <trkpt lat="42.75594" lon="-0.11496">
        <ele>2406</ele>
        <time>2013-06-15T04:56:24Z</time>
      </trkpt>
      <trkpt lat="42.75599" lon="-0.11496">
        <ele>2406</ele>
        <time>2013-06-15T04:56:32Z</time>
      </trkpt>
      <trkpt lat="42.75603" lon="-0.11497">
        <ele>2408</ele>
        <time>2013-06-15T04:56:42Z</time>
      </trkpt>
      <trkpt lat="42.75609" lon="-0.115">
        <ele>2411</ele>
        <time>2013-06-15T04:56:55Z</time>
      </trkpt>
      <trkpt lat="42.75614" lon="-0.11503">
        <ele>2412</ele>
        <time>2013-06-15T04:57:03Z</time>
      </trkpt>
      <trkpt lat="42.75618" lon="-0.11506">
        <ele>2412</ele>
        <time>2013-06-15T04:57:12Z</time>
      </trkpt>
      <trkpt lat="42.75623" lon="-0.11508">
        <ele>2414</ele>
        <time>2013-06-15T04:57:18Z</time>
      </trkpt>
      <trkpt lat="42.75627" lon="-0.11511">
        <ele>2414</ele>
        <time>2013-06-15T04:57:24Z</time>
      </trkpt>
      <trkpt lat="42.7563" lon="-0.11513">
        <ele>2415</ele>
        <time>2013-06-15T04:57:31Z</time>
      </trkpt>
      <trkpt lat="42.75632" lon="-0.11517">
        <ele>2416</ele>
        <time>2013-06-15T04:57:39Z</time>
      </trkpt>
      <trkpt lat="42.75628" lon="-0.11517">
        <ele>2418</ele>
        <time>2013-06-15T04:57:44Z</time>
      </trkpt>
      <trkpt lat="42.75623" lon="-0.11521">
        <ele>2419</ele>
        <time>2013-06-15T04:57:54Z</time>
      </trkpt>
      <trkpt lat="42.7562" lon="-0.11525">
        <ele>2419</ele>
        <time>2013-06-15T04:58:00Z</time>
      </trkpt>
      <trkpt lat="42.75616" lon="-0.11528">
        <ele>2421</ele>
        <time>2013-06-15T04:58:09Z</time>
      </trkpt>
      <trkpt lat="42.75615" lon="-0.11533">
        <ele>2422</ele>
        <time>2013-06-15T04:58:16Z</time>
      </trkpt>
      <trkpt lat="42.75612" lon="-0.11537">
        <ele>2424</ele>
        <time>2013-06-15T04:58:25Z</time>
      </trkpt>
      <trkpt lat="42.75612" lon="-0.1154">
        <ele>2424</ele>
        <time>2013-06-15T04:58:31Z</time>
      </trkpt>
      <trkpt lat="42.75618" lon="-0.11542">
        <ele>2426</ele>
        <time>2013-06-15T04:58:40Z</time>
      </trkpt>
      <trkpt lat="42.75624" lon="-0.11541">
        <ele>2425</ele>
        <time>2013-06-15T04:58:46Z</time>
      </trkpt>
      <trkpt lat="42.75631" lon="-0.11543">
        <ele>2425</ele>
        <time>2013-06-15T04:58:54Z</time>
      </trkpt>
      <trkpt lat="42.75634" lon="-0.1155">
        <ele>2426</ele>
        <time>2013-06-15T04:59:02Z</time>
      </trkpt>
      <trkpt lat="42.75636" lon="-0.11556">
        <ele>2426</ele>
        <time>2013-06-15T04:59:10Z</time>
      </trkpt>
      <trkpt lat="42.75634" lon="-0.11555">
        <ele>2427</ele>
        <time>2013-06-15T04:59:18Z</time>
      </trkpt>
      <trkpt lat="42.75632" lon="-0.11553">
        <ele>2427</ele>
        <time>2013-06-15T04:59:22Z</time>
      </trkpt>
      <trkpt lat="42.75634" lon="-0.11565">
        <ele>2429</ele>
        <time>2013-06-15T04:59:29Z</time>
      </trkpt>
      <trkpt lat="42.75636" lon="-0.11577">
        <ele>2429</ele>
        <time>2013-06-15T04:59:36Z</time>
      </trkpt>
      <trkpt lat="42.75635" lon="-0.11583">
        <ele>2430</ele>
        <time>2013-06-15T04:59:43Z</time>
      </trkpt>
      <trkpt lat="42.75633" lon="-0.11592">
        <ele>2431</ele>
        <time>2013-06-15T04:59:52Z</time>
      </trkpt>
      <trkpt lat="42.75631" lon="-0.11599">
        <ele>2432</ele>
        <time>2013-06-15T05:00:01Z</time>
      </trkpt>
      <trkpt lat="42.75631" lon="-0.11602">
        <ele>2433</ele>
        <time>2013-06-15T05:00:06Z</time>
      </trkpt>
      <trkpt lat="42.7563" lon="-0.11602">
        <ele>2433</ele>
        <time>2013-06-15T05:00:08Z</time>
      </trkpt>
      <trkpt lat="42.75625" lon="-0.11609">
        <ele>2434</ele>
        <time>2013-06-15T05:00:17Z</time>
      </trkpt>
      <trkpt lat="42.75624" lon="-0.11618">
        <ele>2435</ele>
        <time>2013-06-15T05:00:25Z</time>
      </trkpt>
      <trkpt lat="42.75626" lon="-0.11629">
        <ele>2436</ele>
        <time>2013-06-15T05:00:32Z</time>
      </trkpt>
      <trkpt lat="42.75625" lon="-0.11633">
        <ele>2437</ele>
        <time>2013-06-15T05:00:37Z</time>
      </trkpt>
      <trkpt lat="42.75624" lon="-0.11633">
        <ele>2437</ele>
        <time>2013-06-15T05:00:45Z</time>
      </trkpt>
      <trkpt lat="42.75626" lon="-0.11637">
        <ele>2438</ele>
        <time>2013-06-15T05:00:52Z</time>
      </trkpt>
      <trkpt lat="42.75629" lon="-0.11657">
        <ele>2438</ele>
        <time>2013-06-15T05:01:01Z</time>
      </trkpt>
      <trkpt lat="42.75628" lon="-0.11668">
        <ele>2438</ele>
        <time>2013-06-15T05:01:09Z</time>
      </trkpt>
      <trkpt lat="42.75627" lon="-0.11681">
        <ele>2438</ele>
        <time>2013-06-15T05:01:16Z</time>
      </trkpt>
      <trkpt lat="42.75626" lon="-0.11686">
        <ele>2439</ele>
        <time>2013-06-15T05:01:21Z</time>
      </trkpt>
      <trkpt lat="42.75619" lon="-0.11691">
        <ele>2439</ele>
        <time>2013-06-15T05:01:29Z</time>
      </trkpt>
      <trkpt lat="42.75615" lon="-0.11694">
        <ele>2441</ele>
        <time>2013-06-15T05:01:36Z</time>
      </trkpt>
      <trkpt lat="42.75614" lon="-0.117">
        <ele>2442</ele>
        <time>2013-06-15T05:01:42Z</time>
      </trkpt>
      <trkpt lat="42.75614" lon="-0.11709">
        <ele>2442</ele>
        <time>2013-06-15T05:01:49Z</time>
      </trkpt>
      <trkpt lat="42.75614" lon="-0.11713">
        <ele>2442</ele>
        <time>2013-06-15T05:01:51Z</time>
      </trkpt>
      <trkpt lat="42.75613" lon="-0.11725">
        <ele>2443</ele>
        <time>2013-06-15T05:01:59Z</time>
      </trkpt>
      <trkpt lat="42.75612" lon="-0.11736">
        <ele>2444</ele>
        <time>2013-06-15T05:02:07Z</time>
      </trkpt>
      <trkpt lat="42.7561" lon="-0.11747">
        <ele>2444</ele>
        <time>2013-06-15T05:02:14Z</time>
      </trkpt>
      <trkpt lat="42.7561" lon="-0.11751">
        <ele>2444</ele>
        <time>2013-06-15T05:02:17Z</time>
      </trkpt>
      <trkpt lat="42.75606" lon="-0.11759">
        <ele>2446</ele>
        <time>2013-06-15T05:02:25Z</time>
      </trkpt>
      <trkpt lat="42.75607" lon="-0.11766">
        <ele>2447</ele>
        <time>2013-06-15T05:02:32Z</time>
      </trkpt>
      <trkpt lat="42.75607" lon="-0.11772">
        <ele>2448</ele>
        <time>2013-06-15T05:02:38Z</time>
      </trkpt>
      <trkpt lat="42.7561" lon="-0.1178">
        <ele>2450</ele>
        <time>2013-06-15T05:02:46Z</time>
      </trkpt>
      <trkpt lat="42.75612" lon="-0.11783">
        <ele>2451</ele>
        <time>2013-06-15T05:02:50Z</time>
      </trkpt>
      <trkpt lat="42.75614" lon="-0.11792">
        <ele>2452</ele>
        <time>2013-06-15T05:02:58Z</time>
      </trkpt>
      <trkpt lat="42.75613" lon="-0.11799">
        <ele>2452</ele>
        <time>2013-06-15T05:03:06Z</time>
      </trkpt>
      <trkpt lat="42.75615" lon="-0.11797">
        <ele>2453</ele>
        <time>2013-06-15T05:03:20Z</time>
      </trkpt>
      <trkpt lat="42.75616" lon="-0.11794">
        <ele>2452</ele>
        <time>2013-06-15T05:03:30Z</time>
      </trkpt>
      <trkpt lat="42.75615" lon="-0.11795">
        <ele>2453</ele>
        <time>2013-06-15T05:03:46Z</time>
      </trkpt>
      <trkpt lat="42.75615" lon="-0.11794">
        <ele>2452</ele>
        <time>2013-06-15T05:04:00Z</time>
      </trkpt>
      <trkpt lat="42.75617" lon="-0.11795">
        <ele>2452</ele>
        <time>2013-06-15T05:04:13Z</time>
      </trkpt>
      <trkpt lat="42.75616" lon="-0.1179">
        <ele>2452</ele>
        <time>2013-06-15T05:04:25Z</time>
      </trkpt>
      <trkpt lat="42.75615" lon="-0.1179">
        <ele>2451</ele>
        <time>2013-06-15T05:04:41Z</time>
      </trkpt>
      <trkpt lat="42.75614" lon="-0.11794">
        <ele>2453</ele>
        <time>2013-06-15T05:04:52Z</time>
      </trkpt>
      <trkpt lat="42.75613" lon="-0.11794">
        <ele>2452</ele>
        <time>2013-06-15T05:05:02Z</time>
      </trkpt>
      <trkpt lat="42.75614" lon="-0.11796">
        <ele>2453</ele>
        <time>2013-06-15T05:05:12Z</time>
      </trkpt>
      <trkpt lat="42.75615" lon="-0.11796">
        <ele>2452</ele>
        <time>2013-06-15T05:05:21Z</time>
      </trkpt>
      <trkpt lat="42.75614" lon="-0.11795">
        <ele>2453</ele>
        <time>2013-06-15T05:05:28Z</time>
      </trkpt>
      <trkpt lat="42.75615" lon="-0.11799">
        <ele>2452</ele>
        <time>2013-06-15T05:05:39Z</time>
      </trkpt>
      <trkpt lat="42.75617" lon="-0.11813">
        <ele>2451</ele>
        <time>2013-06-15T05:05:47Z</time>
      </trkpt>
      <trkpt lat="42.75619" lon="-0.11821">
        <ele>2451</ele>
        <time>2013-06-15T05:05:55Z</time>
      </trkpt>
      <trkpt lat="42.75619" lon="-0.11822">
        <ele>2451</ele>
        <time>2013-06-15T05:05:56Z</time>
      </trkpt>
      <trkpt lat="42.75621" lon="-0.11832">
        <ele>2451</ele>
        <time>2013-06-15T05:06:03Z</time>
      </trkpt>
      <trkpt lat="42.75621" lon="-0.11834">
        <ele>2451</ele>
        <time>2013-06-15T05:06:04Z</time>
      </trkpt>
      <trkpt lat="42.75623" lon="-0.1184">
        <ele>2451</ele>
        <time>2013-06-15T05:06:09Z</time>
      </trkpt>
      <trkpt lat="42.75624" lon="-0.11846">
        <ele>2451</ele>
        <time>2013-06-15T05:06:14Z</time>
      </trkpt>
      <trkpt lat="42.75628" lon="-0.11855">
        <ele>2452</ele>
        <time>2013-06-15T05:06:23Z</time>
      </trkpt>
      <trkpt lat="42.75633" lon="-0.11864">
        <ele>2452</ele>
        <time>2013-06-15T05:06:31Z</time>
      </trkpt>
      <trkpt lat="42.75637" lon="-0.11871">
        <ele>2453</ele>
        <time>2013-06-15T05:06:39Z</time>
      </trkpt>
      <trkpt lat="42.7564" lon="-0.11873">
        <ele>2453</ele>
        <time>2013-06-15T05:06:46Z</time>
      </trkpt>
      <trkpt lat="42.75642" lon="-0.11882">
        <ele>2453</ele>
        <time>2013-06-15T05:06:54Z</time>
      </trkpt>
      <trkpt lat="42.75644" lon="-0.11894">
        <ele>2452</ele>
        <time>2013-06-15T05:07:02Z</time>
      </trkpt>
      <trkpt lat="42.75646" lon="-0.11909">
        <ele>2451</ele>
        <time>2013-06-15T05:07:10Z</time>
      </trkpt>
      <trkpt lat="42.75645" lon="-0.11918">
        <ele>2451</ele>
        <time>2013-06-15T05:07:16Z</time>
      </trkpt>
      <trkpt lat="42.75646" lon="-0.11929">
        <ele>2452</ele>
        <time>2013-06-15T05:07:24Z</time>
      </trkpt>
      <trkpt lat="42.75648" lon="-0.11937">
        <ele>2452</ele>
        <time>2013-06-15T05:07:30Z</time>
      </trkpt>
      <trkpt lat="42.75651" lon="-0.11951">
        <ele>2451</ele>
        <time>2013-06-15T05:07:38Z</time>
      </trkpt>
      <trkpt lat="42.75651" lon="-0.11961">
        <ele>2451</ele>
        <time>2013-06-15T05:07:45Z</time>
      </trkpt>
      <trkpt lat="42.7565" lon="-0.11968">
        <ele>2452</ele>
        <time>2013-06-15T05:07:53Z</time>
      </trkpt>
      <trkpt lat="42.75652" lon="-0.11974">
        <ele>2453</ele>
        <time>2013-06-15T05:07:59Z</time>
      </trkpt>
      <trkpt lat="42.75656" lon="-0.11977">
        <ele>2453</ele>
        <time>2013-06-15T05:08:04Z</time>
      </trkpt>
      <trkpt lat="42.75661" lon="-0.11978">
        <ele>2453</ele>
        <time>2013-06-15T05:08:12Z</time>
      </trkpt>
      <trkpt lat="42.75666" lon="-0.1198">
        <ele>2454</ele>
        <time>2013-06-15T05:08:18Z</time>
      </trkpt>
      <trkpt lat="42.75673" lon="-0.11983">
        <ele>2456</ele>
        <time>2013-06-15T05:08:27Z</time>
      </trkpt>
      <trkpt lat="42.75679" lon="-0.11987">
        <ele>2456</ele>
        <time>2013-06-15T05:08:35Z</time>
      </trkpt>
      <trkpt lat="42.75681" lon="-0.1199">
        <ele>2457</ele>
        <time>2013-06-15T05:08:38Z</time>
      </trkpt>
      <trkpt lat="42.75684" lon="-0.11999">
        <ele>2457</ele>
        <time>2013-06-15T05:08:46Z</time>
      </trkpt>
      <trkpt lat="42.75684" lon="-0.12006">
        <ele>2457</ele>
        <time>2013-06-15T05:08:50Z</time>
      </trkpt>
      <trkpt lat="42.75685" lon="-0.12011">
        <ele>2456</ele>
        <time>2013-06-15T05:08:54Z</time>
      </trkpt>
      <trkpt lat="42.75687" lon="-0.12022">
        <ele>2456</ele>
        <time>2013-06-15T05:09:02Z</time>
      </trkpt>
      <trkpt lat="42.75688" lon="-0.12033">
        <ele>2456</ele>
        <time>2013-06-15T05:09:10Z</time>
      </trkpt>
      <trkpt lat="42.7569" lon="-0.12042">
        <ele>2457</ele>
        <time>2013-06-15T05:09:19Z</time>
      </trkpt>
      <trkpt lat="42.7569" lon="-0.12044">
        <ele>2458</ele>
        <time>2013-06-15T05:09:20Z</time>
      </trkpt>
      <trkpt lat="42.75692" lon="-0.12045">
        <ele>2457</ele>
        <time>2013-06-15T05:09:22Z</time>
      </trkpt>
      <trkpt lat="42.75697" lon="-0.12056">
        <ele>2459</ele>
        <time>2013-06-15T05:09:31Z</time>
      </trkpt>
      <trkpt lat="42.75699" lon="-0.12063">
        <ele>2459</ele>
        <time>2013-06-15T05:09:37Z</time>
      </trkpt>
      <trkpt lat="42.75698" lon="-0.12074">
        <ele>2459</ele>
        <time>2013-06-15T05:09:45Z</time>
      </trkpt>
      <trkpt lat="42.75698" lon="-0.12074">
        <ele>2459</ele>
        <time>2013-06-15T05:09:46Z</time>
      </trkpt>
      <trkpt lat="42.75701" lon="-0.12083">
        <ele>2461</ele>
        <time>2013-06-15T05:09:54Z</time>
      </trkpt>
      <trkpt lat="42.75703" lon="-0.12087">
        <ele>2462</ele>
        <time>2013-06-15T05:10:02Z</time>
      </trkpt>
      <trkpt lat="42.75706" lon="-0.12085">
        <ele>2464</ele>
        <time>2013-06-15T05:10:08Z</time>
      </trkpt>
      <trkpt lat="42.75709" lon="-0.12082">
        <ele>2464</ele>
        <time>2013-06-15T05:10:13Z</time>
      </trkpt>
      <trkpt lat="42.75713" lon="-0.1208">
        <ele>2464</ele>
        <time>2013-06-15T05:10:18Z</time>
      </trkpt>
      <trkpt lat="42.75714" lon="-0.12079">
        <ele>2464</ele>
        <time>2013-06-15T05:10:20Z</time>
      </trkpt>
      <trkpt lat="42.75717" lon="-0.12076">
        <ele>2465</ele>
        <time>2013-06-15T05:10:25Z</time>
      </trkpt>
      <trkpt lat="42.75721" lon="-0.12074">
        <ele>2465</ele>
        <time>2013-06-15T05:10:30Z</time>
      </trkpt>
      <trkpt lat="42.75723" lon="-0.12072">
        <ele>2466</ele>
        <time>2013-06-15T05:10:35Z</time>
      </trkpt>
      <trkpt lat="42.75724" lon="-0.12071">
        <ele>2465</ele>
        <time>2013-06-15T05:10:36Z</time>
      </trkpt>
      <trkpt lat="42.75727" lon="-0.12067">
        <ele>2466</ele>
        <time>2013-06-15T05:10:39Z</time>
      </trkpt>
      <trkpt lat="42.75732" lon="-0.12066">
        <ele>2466</ele>
        <time>2013-06-15T05:10:45Z</time>
      </trkpt>
      <trkpt lat="42.75734" lon="-0.12065">
        <ele>2466</ele>
        <time>2013-06-15T05:10:48Z</time>
      </trkpt>
      <trkpt lat="42.75738" lon="-0.12067">
        <ele>2467</ele>
        <time>2013-06-15T05:10:54Z</time>
      </trkpt>
      <trkpt lat="42.75739" lon="-0.12065">
        <ele>2468</ele>
        <time>2013-06-15T05:10:56Z</time>
      </trkpt>
      <trkpt lat="42.75742" lon="-0.1206">
        <ele>2468</ele>
        <time>2013-06-15T05:11:03Z</time>
      </trkpt>
      <trkpt lat="42.75743" lon="-0.12066">
        <ele>2469</ele>
        <time>2013-06-15T05:11:10Z</time>
      </trkpt>
      <trkpt lat="42.75743" lon="-0.12068">
        <ele>2469</ele>
        <time>2013-06-15T05:11:12Z</time>
      </trkpt>
      <trkpt lat="42.75746" lon="-0.12078">
        <ele>2471</ele>
        <time>2013-06-15T05:11:20Z</time>
      </trkpt>
      <trkpt lat="42.75744" lon="-0.12085">
        <ele>2472</ele>
        <time>2013-06-15T05:11:28Z</time>
      </trkpt>
      <trkpt lat="42.75741" lon="-0.1209">
        <ele>2473</ele>
        <time>2013-06-15T05:11:34Z</time>
      </trkpt>
      <trkpt lat="42.75738" lon="-0.12096">
        <ele>2474</ele>
        <time>2013-06-15T05:11:41Z</time>
      </trkpt>
      <trkpt lat="42.75737" lon="-0.12101">
        <ele>2475</ele>
        <time>2013-06-15T05:11:48Z</time>
      </trkpt>
      <trkpt lat="42.75738" lon="-0.12105">
        <ele>2475</ele>
        <time>2013-06-15T05:11:52Z</time>
      </trkpt>
      <trkpt lat="42.75739" lon="-0.1211">
        <ele>2475</ele>
        <time>2013-06-15T05:12:01Z</time>
      </trkpt>
      <trkpt lat="42.7574" lon="-0.12111">
        <ele>2476</ele>
        <time>2013-06-15T05:12:09Z</time>
      </trkpt>
      <trkpt lat="42.75744" lon="-0.12105">
        <ele>2477</ele>
        <time>2013-06-15T05:12:15Z</time>
      </trkpt>
      <trkpt lat="42.75746" lon="-0.12102">
        <ele>2478</ele>
        <time>2013-06-15T05:12:20Z</time>
      </trkpt>
      <trkpt lat="42.75749" lon="-0.12099">
        <ele>2478</ele>
        <time>2013-06-15T05:12:25Z</time>
      </trkpt>
      <trkpt lat="42.75751" lon="-0.12098">
        <ele>2479</ele>
        <time>2013-06-15T05:12:30Z</time>
      </trkpt>
      <trkpt lat="42.75754" lon="-0.12096">
        <ele>2480</ele>
        <time>2013-06-15T05:12:35Z</time>
      </trkpt>
      <trkpt lat="42.75756" lon="-0.12093">
        <ele>2481</ele>
        <time>2013-06-15T05:12:42Z</time>
      </trkpt>
      <trkpt lat="42.75759" lon="-0.1209">
        <ele>2482</ele>
        <time>2013-06-15T05:12:48Z</time>
      </trkpt>
      <trkpt lat="42.75759" lon="-0.12093">
        <ele>2482</ele>
        <time>2013-06-15T05:12:54Z</time>
      </trkpt>
      <trkpt lat="42.75759" lon="-0.12102">
        <ele>2483</ele>
        <time>2013-06-15T05:13:03Z</time>
      </trkpt>
      <trkpt lat="42.75759" lon="-0.12107">
        <ele>2484</ele>
        <time>2013-06-15T05:13:09Z</time>
      </trkpt>
      <trkpt lat="42.75759" lon="-0.12113">
        <ele>2485</ele>
        <time>2013-06-15T05:13:17Z</time>
      </trkpt>
      <trkpt lat="42.75759" lon="-0.12118">
        <ele>2486</ele>
        <time>2013-06-15T05:13:24Z</time>
      </trkpt>
      <trkpt lat="42.75761" lon="-0.12114">
        <ele>2488</ele>
        <time>2013-06-15T05:13:31Z</time>
      </trkpt>
      <trkpt lat="42.75764" lon="-0.1211">
        <ele>2488</ele>
        <time>2013-06-15T05:13:37Z</time>
      </trkpt>
      <trkpt lat="42.75768" lon="-0.12106">
        <ele>2488</ele>
        <time>2013-06-15T05:13:45Z</time>
      </trkpt>
      <trkpt lat="42.75768" lon="-0.121">
        <ele>2489</ele>
        <time>2013-06-15T05:13:51Z</time>
      </trkpt>
      <trkpt lat="42.7577" lon="-0.12103">
        <ele>2489</ele>
        <time>2013-06-15T05:13:59Z</time>
      </trkpt>
      <trkpt lat="42.75773" lon="-0.12112">
        <ele>2490</ele>
        <time>2013-06-15T05:14:07Z</time>
      </trkpt>
      <trkpt lat="42.75773" lon="-0.12117">
        <ele>2491</ele>
        <time>2013-06-15T05:14:14Z</time>
      </trkpt>
      <trkpt lat="42.75772" lon="-0.12123">
        <ele>2493</ele>
        <time>2013-06-15T05:14:22Z</time>
      </trkpt>
      <trkpt lat="42.7577" lon="-0.12126">
        <ele>2494</ele>
        <time>2013-06-15T05:14:30Z</time>
      </trkpt>
      <trkpt lat="42.75768" lon="-0.12131">
        <ele>2496</ele>
        <time>2013-06-15T05:14:38Z</time>
      </trkpt>
      <trkpt lat="42.75771" lon="-0.12129">
        <ele>2496</ele>
        <time>2013-06-15T05:14:47Z</time>
      </trkpt>
      <trkpt lat="42.75776" lon="-0.12128">
        <ele>2497</ele>
        <time>2013-06-15T05:14:55Z</time>
      </trkpt>
      <trkpt lat="42.75781" lon="-0.12125">
        <ele>2498</ele>
        <time>2013-06-15T05:15:02Z</time>
      </trkpt>
      <trkpt lat="42.75783" lon="-0.12119">
        <ele>2499</ele>
        <time>2013-06-15T05:15:08Z</time>
      </trkpt>
      <trkpt lat="42.75783" lon="-0.12114">
        <ele>2500</ele>
        <time>2013-06-15T05:15:15Z</time>
      </trkpt>
      <trkpt lat="42.75784" lon="-0.12109">
        <ele>2501</ele>
        <time>2013-06-15T05:15:23Z</time>
      </trkpt>
      <trkpt lat="42.75786" lon="-0.12102">
        <ele>2502</ele>
        <time>2013-06-15T05:15:32Z</time>
      </trkpt>
      <trkpt lat="42.75788" lon="-0.12097">
        <ele>2503</ele>
        <time>2013-06-15T05:15:38Z</time>
      </trkpt>
      <trkpt lat="42.75792" lon="-0.12092">
        <ele>2505</ele>
        <time>2013-06-15T05:15:47Z</time>
      </trkpt>
      <trkpt lat="42.75798" lon="-0.1209">
        <ele>2507</ele>
        <time>2013-06-15T05:15:59Z</time>
      </trkpt>
      <trkpt lat="42.75802" lon="-0.12087">
        <ele>2507</ele>
        <time>2013-06-15T05:16:06Z</time>
      </trkpt>
      <trkpt lat="42.75806" lon="-0.12087">
        <ele>2509</ele>
        <time>2013-06-15T05:16:13Z</time>
      </trkpt>
      <trkpt lat="42.75813" lon="-0.12087">
        <ele>2511</ele>
        <time>2013-06-15T05:16:25Z</time>
      </trkpt>
      <trkpt lat="42.75818" lon="-0.12091">
        <ele>2512</ele>
        <time>2013-06-15T05:16:33Z</time>
      </trkpt>
      <trkpt lat="42.75821" lon="-0.12094">
        <ele>2513</ele>
        <time>2013-06-15T05:16:40Z</time>
      </trkpt>
      <trkpt lat="42.75825" lon="-0.12094">
        <ele>2514</ele>
        <time>2013-06-15T05:16:47Z</time>
      </trkpt>
      <trkpt lat="42.75828" lon="-0.12093">
        <ele>2515</ele>
        <time>2013-06-15T05:16:53Z</time>
      </trkpt>
      <trkpt lat="42.7583" lon="-0.12088">
        <ele>2516</ele>
        <time>2013-06-15T05:17:00Z</time>
      </trkpt>
      <trkpt lat="42.75836" lon="-0.12085">
        <ele>2519</ele>
        <time>2013-06-15T05:17:11Z</time>
      </trkpt>
      <trkpt lat="42.75842" lon="-0.12084">
        <ele>2519</ele>
        <time>2013-06-15T05:17:19Z</time>
      </trkpt>
      <trkpt lat="42.75844" lon="-0.12084">
        <ele>2519</ele>
        <time>2013-06-15T05:17:22Z</time>
      </trkpt>
      <trkpt lat="42.75848" lon="-0.12084">
        <ele>2520</ele>
        <time>2013-06-15T05:17:29Z</time>
      </trkpt>
      <trkpt lat="42.75852" lon="-0.1208">
        <ele>2522</ele>
        <time>2013-06-15T05:17:38Z</time>
      </trkpt>
      <trkpt lat="42.75858" lon="-0.12078">
        <ele>2522</ele>
        <time>2013-06-15T05:17:46Z</time>
      </trkpt>
      <trkpt lat="42.75863" lon="-0.1208">
        <ele>2523</ele>
        <time>2013-06-15T05:17:52Z</time>
      </trkpt>
      <trkpt lat="42.75871" lon="-0.12081">
        <ele>2524</ele>
        <time>2013-06-15T05:18:02Z</time>
      </trkpt>
      <trkpt lat="42.75875" lon="-0.12083">
        <ele>2524</ele>
        <time>2013-06-15T05:18:07Z</time>
      </trkpt>
      <trkpt lat="42.75875" lon="-0.12083">
        <ele>2524</ele>
        <time>2013-06-15T05:18:08Z</time>
      </trkpt>
      <trkpt lat="42.75877" lon="-0.12082">
        <ele>2525</ele>
        <time>2013-06-15T05:18:10Z</time>
      </trkpt>
      <trkpt lat="42.75881" lon="-0.12081">
        <ele>2524</ele>
        <time>2013-06-15T05:18:17Z</time>
      </trkpt>
      <trkpt lat="42.75883" lon="-0.12085">
        <ele>2525</ele>
        <time>2013-06-15T05:18:24Z</time>
      </trkpt>
      <trkpt lat="42.75886" lon="-0.12088">
        <ele>2526</ele>
        <time>2013-06-15T05:18:34Z</time>
      </trkpt>
      <trkpt lat="42.7589" lon="-0.12091">
        <ele>2527</ele>
        <time>2013-06-15T05:18:41Z</time>
      </trkpt>
      <trkpt lat="42.75893" lon="-0.12094">
        <ele>2529</ele>
        <time>2013-06-15T05:18:49Z</time>
      </trkpt>
      <trkpt lat="42.75894" lon="-0.12096">
        <ele>2531</ele>
        <time>2013-06-15T05:18:57Z</time>
      </trkpt>
      <trkpt lat="42.75898" lon="-0.121">
        <ele>2533</ele>
        <time>2013-06-15T05:19:05Z</time>
      </trkpt>
      <trkpt lat="42.75897" lon="-0.12105">
        <ele>2533</ele>
        <time>2013-06-15T05:19:12Z</time>
      </trkpt>
      <trkpt lat="42.75896" lon="-0.12104">
        <ele>2533</ele>
        <time>2013-06-15T05:19:19Z</time>
      </trkpt>
      <trkpt lat="42.75897" lon="-0.12105">
        <ele>2534</ele>
        <time>2013-06-15T05:19:31Z</time>
      </trkpt>
      <trkpt lat="42.75898" lon="-0.12103">
        <ele>2534</ele>
        <time>2013-06-15T05:19:39Z</time>
      </trkpt>
      <trkpt lat="42.75902" lon="-0.12102">
        <ele>2534</ele>
        <time>2013-06-15T05:19:45Z</time>
      </trkpt>
      <trkpt lat="42.75908" lon="-0.12098">
        <ele>2534</ele>
        <time>2013-06-15T05:19:52Z</time>
      </trkpt>
      <trkpt lat="42.75915" lon="-0.12095">
        <ele>2534</ele>
        <time>2013-06-15T05:19:59Z</time>
      </trkpt>
      <trkpt lat="42.75919" lon="-0.12119">
        <ele>2543</ele>
        <time>2013-06-15T05:22:14Z</time>
      </trkpt>
      <trkpt lat="42.75913" lon="-0.12123">
        <ele>2544</ele>
        <time>2013-06-15T05:22:23Z</time>
      </trkpt>
      <trkpt lat="42.75907" lon="-0.1213">
        <ele>2547</ele>
        <time>2013-06-15T05:22:37Z</time>
      </trkpt>
      <trkpt lat="42.75904" lon="-0.12134">
        <ele>2548</ele>
        <time>2013-06-15T05:22:45Z</time>
      </trkpt>
      <trkpt lat="42.759" lon="-0.1214">
        <ele>2550</ele>
        <time>2013-06-15T05:22:53Z</time>
      </trkpt>
      <trkpt lat="42.75897" lon="-0.12143">
        <ele>2549</ele>
        <time>2013-06-15T05:23:01Z</time>
      </trkpt>
      <trkpt lat="42.75895" lon="-0.12146">
        <ele>2551</ele>
        <time>2013-06-15T05:23:09Z</time>
      </trkpt>
      <trkpt lat="42.75891" lon="-0.12151">
        <ele>2551</ele>
        <time>2013-06-15T05:23:17Z</time>
      </trkpt>
      <trkpt lat="42.75888" lon="-0.12156">
        <ele>2551</ele>
        <time>2013-06-15T05:23:25Z</time>
      </trkpt>
      <trkpt lat="42.75888" lon="-0.1216">
        <ele>2552</ele>
        <time>2013-06-15T05:23:32Z</time>
      </trkpt>
      <trkpt lat="42.75887" lon="-0.12166">
        <ele>2554</ele>
        <time>2013-06-15T05:23:40Z</time>
      </trkpt>
      <trkpt lat="42.75884" lon="-0.12168">
        <ele>2554</ele>
        <time>2013-06-15T05:23:48Z</time>
      </trkpt>
      <trkpt lat="42.75884" lon="-0.12169">
        <ele>2554</ele>
        <time>2013-06-15T05:23:58Z</time>
      </trkpt>
      <trkpt lat="42.75883" lon="-0.12174">
        <ele>2555</ele>
        <time>2013-06-15T05:24:08Z</time>
      </trkpt>
      <trkpt lat="42.75885" lon="-0.12181">
        <ele>2556</ele>
        <time>2013-06-15T05:24:15Z</time>
      </trkpt>
      <trkpt lat="42.75881" lon="-0.12188">
        <ele>2557</ele>
        <time>2013-06-15T05:24:23Z</time>
      </trkpt>
      <trkpt lat="42.7588" lon="-0.12194">
        <ele>2558</ele>
        <time>2013-06-15T05:24:31Z</time>
      </trkpt>
      <trkpt lat="42.75879" lon="-0.12201">
        <ele>2560</ele>
        <time>2013-06-15T05:24:42Z</time>
      </trkpt>
      <trkpt lat="42.75875" lon="-0.12208">
        <ele>2562</ele>
        <time>2013-06-15T05:24:53Z</time>
      </trkpt>
      <trkpt lat="42.75875" lon="-0.12209">
        <ele>2563</ele>
        <time>2013-06-15T05:25:00Z</time>
      </trkpt>
      <trkpt lat="42.75873" lon="-0.12208">
        <ele>2562</ele>
        <time>2013-06-15T05:25:13Z</time>
      </trkpt>
      <trkpt lat="42.75872" lon="-0.12208">
        <ele>2563</ele>
        <time>2013-06-15T05:25:29Z</time>
      </trkpt>
      <trkpt lat="42.75872" lon="-0.12208">
        <ele>2562</ele>
        <time>2013-06-15T05:25:30Z</time>
      </trkpt>
      <trkpt lat="42.7587" lon="-0.12215">
        <ele>2563</ele>
        <time>2013-06-15T05:25:41Z</time>
      </trkpt>
      <trkpt lat="42.75868" lon="-0.12221">
        <ele>2563</ele>
        <time>2013-06-15T05:25:49Z</time>
      </trkpt>
      <trkpt lat="42.75868" lon="-0.12224">
        <ele>2563</ele>
        <time>2013-06-15T05:26:00Z</time>
      </trkpt>
      <trkpt lat="42.75866" lon="-0.12231">
        <ele>2564</ele>
        <time>2013-06-15T05:26:07Z</time>
      </trkpt>
      <trkpt lat="42.75863" lon="-0.12236">
        <ele>2564</ele>
        <time>2013-06-15T05:26:14Z</time>
      </trkpt>
      <trkpt lat="42.7586" lon="-0.1224">
        <ele>2565</ele>
        <time>2013-06-15T05:26:21Z</time>
      </trkpt>
      <trkpt lat="42.75856" lon="-0.12246">
        <ele>2565</ele>
        <time>2013-06-15T05:26:29Z</time>
      </trkpt>
      <trkpt lat="42.75852" lon="-0.1225">
        <ele>2566</ele>
        <time>2013-06-15T05:26:36Z</time>
      </trkpt>
      <trkpt lat="42.7586" lon="-0.12253">
        <ele>2574</ele>
        <time>2013-06-15T05:28:17Z</time>
      </trkpt>
      <trkpt lat="42.75864" lon="-0.1225">
        <ele>2575</ele>
        <time>2013-06-15T05:28:24Z</time>
      </trkpt>
      <trkpt lat="42.75866" lon="-0.12248">
        <ele>2575</ele>
        <time>2013-06-15T05:28:31Z</time>
      </trkpt>
      <trkpt lat="42.75871" lon="-0.12244">
        <ele>2575</ele>
        <time>2013-06-15T05:28:39Z</time>
      </trkpt>
      <trkpt lat="42.75876" lon="-0.12239">
        <ele>2575</ele>
        <time>2013-06-15T05:28:46Z</time>
      </trkpt>
      <trkpt lat="42.7588" lon="-0.12237">
        <ele>2575</ele>
        <time>2013-06-15T05:28:52Z</time>
      </trkpt>
      <trkpt lat="42.75883" lon="-0.1223">
        <ele>2576</ele>
        <time>2013-06-15T05:29:00Z</time>
      </trkpt>
      <trkpt lat="42.75884" lon="-0.12229">
        <ele>2576</ele>
        <time>2013-06-15T05:29:02Z</time>
      </trkpt>
      <trkpt lat="42.75888" lon="-0.12224">
        <ele>2576</ele>
        <time>2013-06-15T05:29:09Z</time>
      </trkpt>
      <trkpt lat="42.7589" lon="-0.12222">
        <ele>2577</ele>
        <time>2013-06-15T05:29:15Z</time>
      </trkpt>
      <trkpt lat="42.75894" lon="-0.12219">
        <ele>2577</ele>
        <time>2013-06-15T05:29:21Z</time>
      </trkpt>
      <trkpt lat="42.75898" lon="-0.12216">
        <ele>2578</ele>
        <time>2013-06-15T05:29:27Z</time>
      </trkpt>
      <trkpt lat="42.75898" lon="-0.12215">
        <ele>2578</ele>
        <time>2013-06-15T05:29:28Z</time>
      </trkpt>
      <trkpt lat="42.75901" lon="-0.1221">
        <ele>2578</ele>
        <time>2013-06-15T05:29:36Z</time>
      </trkpt>
      <trkpt lat="42.75905" lon="-0.12207">
        <ele>2579</ele>
        <time>2013-06-15T05:29:43Z</time>
      </trkpt>
      <trkpt lat="42.75908" lon="-0.122">
        <ele>2581</ele>
        <time>2013-06-15T05:29:50Z</time>
      </trkpt>
      <trkpt lat="42.75912" lon="-0.12199">
        <ele>2581</ele>
        <time>2013-06-15T05:29:57Z</time>
      </trkpt>
      <trkpt lat="42.75916" lon="-0.12196">
        <ele>2582</ele>
        <time>2013-06-15T05:30:05Z</time>
      </trkpt>
      <trkpt lat="42.75921" lon="-0.12192">
        <ele>2583</ele>
        <time>2013-06-15T05:30:14Z</time>
      </trkpt>
      <trkpt lat="42.75922" lon="-0.12191">
        <ele>2583</ele>
        <time>2013-06-15T05:30:15Z</time>
      </trkpt>
      <trkpt lat="42.75926" lon="-0.12187">
        <ele>2584</ele>
        <time>2013-06-15T05:30:23Z</time>
      </trkpt>
      <trkpt lat="42.75929" lon="-0.12186">
        <ele>2586</ele>
        <time>2013-06-15T05:30:29Z</time>
      </trkpt>
      <trkpt lat="42.75933" lon="-0.12186">
        <ele>2587</ele>
        <time>2013-06-15T05:30:36Z</time>
      </trkpt>
      <trkpt lat="42.75931" lon="-0.12188">
        <ele>2589</ele>
        <time>2013-06-15T05:30:44Z</time>
      </trkpt>
      <trkpt lat="42.7593" lon="-0.12187">
        <ele>2588</ele>
        <time>2013-06-15T05:30:47Z</time>
      </trkpt>
      <trkpt lat="42.75929" lon="-0.1219">
        <ele>2587</ele>
        <time>2013-06-15T05:30:51Z</time>
      </trkpt>
      <trkpt lat="42.75926" lon="-0.12195">
        <ele>2586</ele>
        <time>2013-06-15T05:31:00Z</time>
      </trkpt>
      <trkpt lat="42.75924" lon="-0.12199">
        <ele>2587</ele>
        <time>2013-06-15T05:31:08Z</time>
      </trkpt>
      <trkpt lat="42.75922" lon="-0.12203">
        <ele>2589</ele>
        <time>2013-06-15T05:31:17Z</time>
      </trkpt>
      <trkpt lat="42.75925" lon="-0.12201">
        <ele>2591</ele>
        <time>2013-06-15T05:31:27Z</time>
      </trkpt>
      <trkpt lat="42.75931" lon="-0.12198">
        <ele>2591</ele>
        <time>2013-06-15T05:31:38Z</time>
      </trkpt>
      <trkpt lat="42.75934" lon="-0.12198">
        <ele>2593</ele>
        <time>2013-06-15T05:31:46Z</time>
      </trkpt>
      <trkpt lat="42.75933" lon="-0.122">
        <ele>2593</ele>
        <time>2013-06-15T05:31:56Z</time>
      </trkpt>
      <trkpt lat="42.75931" lon="-0.12203">
        <ele>2592</ele>
        <time>2013-06-15T05:32:05Z</time>
      </trkpt>
      <trkpt lat="42.75929" lon="-0.12207">
        <ele>2595</ele>
        <time>2013-06-15T05:32:12Z</time>
      </trkpt>
      <trkpt lat="42.7593" lon="-0.12205">
        <ele>2595</ele>
        <time>2013-06-15T05:32:20Z</time>
      </trkpt>
      <trkpt lat="42.75933" lon="-0.12205">
        <ele>2596</ele>
        <time>2013-06-15T05:32:27Z</time>
      </trkpt>
      <trkpt lat="42.75935" lon="-0.12206">
        <ele>2597</ele>
        <time>2013-06-15T05:32:35Z</time>
      </trkpt>
      <trkpt lat="42.75933" lon="-0.12209">
        <ele>2597</ele>
        <time>2013-06-15T05:32:43Z</time>
      </trkpt>
      <trkpt lat="42.75932" lon="-0.1221">
        <ele>2598</ele>
        <time>2013-06-15T05:32:50Z</time>
      </trkpt>
      <trkpt lat="42.75937" lon="-0.12209">
        <ele>2597</ele>
        <time>2013-06-15T05:32:59Z</time>
      </trkpt>
      <trkpt lat="42.75938" lon="-0.1221">
        <ele>2599</ele>
        <time>2013-06-15T05:33:06Z</time>
      </trkpt>
      <trkpt lat="42.75936" lon="-0.12212">
        <ele>2599</ele>
        <time>2013-06-15T05:33:14Z</time>
      </trkpt>
      <trkpt lat="42.75935" lon="-0.12213">
        <ele>2599</ele>
        <time>2013-06-15T05:33:21Z</time>
      </trkpt>
      <trkpt lat="42.75936" lon="-0.12214">
        <ele>2599</ele>
        <time>2013-06-15T05:33:30Z</time>
      </trkpt>
      <trkpt lat="42.7594" lon="-0.12213">
        <ele>2600</ele>
        <time>2013-06-15T05:33:38Z</time>
      </trkpt>
      <trkpt lat="42.7594" lon="-0.12214">
        <ele>2600</ele>
        <time>2013-06-15T05:33:40Z</time>
      </trkpt>
      <trkpt lat="42.75937" lon="-0.12216">
        <ele>2602</ele>
        <time>2013-06-15T05:33:50Z</time>
      </trkpt>
      <trkpt lat="42.75934" lon="-0.12219">
        <ele>2603</ele>
        <time>2013-06-15T05:33:57Z</time>
      </trkpt>
      <trkpt lat="42.75935" lon="-0.12219">
        <ele>2603</ele>
        <time>2013-06-15T05:34:04Z</time>
      </trkpt>
      <trkpt lat="42.75939" lon="-0.12219">
        <ele>2603</ele>
        <time>2013-06-15T05:34:12Z</time>
      </trkpt>
      <trkpt lat="42.75944" lon="-0.12222">
        <ele>2606</ele>
        <time>2013-06-15T05:34:19Z</time>
      </trkpt>
      <trkpt lat="42.75948" lon="-0.12222">
        <ele>2607</ele>
        <time>2013-06-15T05:34:26Z</time>
      </trkpt>
      <trkpt lat="42.75945" lon="-0.12224">
        <ele>2609</ele>
        <time>2013-06-15T05:34:35Z</time>
      </trkpt>
      <trkpt lat="42.75943" lon="-0.12225">
        <ele>2610</ele>
        <time>2013-06-15T05:34:41Z</time>
      </trkpt>
      <trkpt lat="42.75942" lon="-0.12225">
        <ele>2609</ele>
        <time>2013-06-15T05:34:51Z</time>
      </trkpt>
      <trkpt lat="42.75939" lon="-0.12227">
        <ele>2611</ele>
        <time>2013-06-15T05:35:00Z</time>
      </trkpt>
      <trkpt lat="42.75942" lon="-0.12226">
        <ele>2612</ele>
        <time>2013-06-15T05:35:09Z</time>
      </trkpt>
      <trkpt lat="42.75946" lon="-0.12227">
        <ele>2609</ele>
        <time>2013-06-15T05:35:16Z</time>
      </trkpt>
      <trkpt lat="42.75949" lon="-0.12229">
        <ele>2610</ele>
        <time>2013-06-15T05:35:23Z</time>
      </trkpt>
      <trkpt lat="42.75952" lon="-0.12232">
        <ele>2612</ele>
        <time>2013-06-15T05:35:30Z</time>
      </trkpt>
      <trkpt lat="42.75955" lon="-0.12236">
        <ele>2612</ele>
        <time>2013-06-15T05:35:37Z</time>
      </trkpt>
      <trkpt lat="42.75958" lon="-0.12241">
        <ele>2613</ele>
        <time>2013-06-15T05:35:43Z</time>
      </trkpt>
      <trkpt lat="42.75961" lon="-0.12248">
        <ele>2614</ele>
        <time>2013-06-15T05:35:53Z</time>
      </trkpt>
      <trkpt lat="42.75964" lon="-0.12255">
        <ele>2616</ele>
        <time>2013-06-15T05:36:01Z</time>
      </trkpt>
      <trkpt lat="42.75966" lon="-0.12259">
        <ele>2618</ele>
        <time>2013-06-15T05:36:10Z</time>
      </trkpt>
      <trkpt lat="42.75967" lon="-0.12263">
        <ele>2619</ele>
        <time>2013-06-15T05:36:18Z</time>
      </trkpt>
      <trkpt lat="42.75968" lon="-0.12265">
        <ele>2620</ele>
        <time>2013-06-15T05:36:26Z</time>
      </trkpt>
      <trkpt lat="42.75971" lon="-0.12269">
        <ele>2621</ele>
        <time>2013-06-15T05:36:34Z</time>
      </trkpt>
      <trkpt lat="42.75974" lon="-0.12273">
        <ele>2623</ele>
        <time>2013-06-15T05:36:41Z</time>
      </trkpt>
      <trkpt lat="42.75977" lon="-0.12277">
        <ele>2624</ele>
        <time>2013-06-15T05:36:48Z</time>
      </trkpt>
      <trkpt lat="42.75979" lon="-0.1228">
        <ele>2625</ele>
        <time>2013-06-15T05:36:55Z</time>
      </trkpt>
      <trkpt lat="42.75983" lon="-0.12284">
        <ele>2625</ele>
        <time>2013-06-15T05:37:02Z</time>
      </trkpt>
      <trkpt lat="42.75985" lon="-0.12288">
        <ele>2626</ele>
        <time>2013-06-15T05:37:10Z</time>
      </trkpt>
      <trkpt lat="42.75988" lon="-0.12293">
        <ele>2627</ele>
        <time>2013-06-15T05:37:17Z</time>
      </trkpt>
      <trkpt lat="42.75993" lon="-0.12297">
        <ele>2629</ele>
        <time>2013-06-15T05:37:24Z</time>
      </trkpt>
      <trkpt lat="42.75996" lon="-0.12301">
        <ele>2629</ele>
        <time>2013-06-15T05:37:30Z</time>
      </trkpt>
      <trkpt lat="42.75999" lon="-0.12305">
        <ele>2630</ele>
        <time>2013-06-15T05:37:36Z</time>
      </trkpt>
      <trkpt lat="42.76002" lon="-0.12308">
        <ele>2631</ele>
        <time>2013-06-15T05:37:43Z</time>
      </trkpt>
      <trkpt lat="42.76005" lon="-0.12312">
        <ele>2632</ele>
        <time>2013-06-15T05:37:50Z</time>
      </trkpt>
      <trkpt lat="42.76009" lon="-0.12316">
        <ele>2634</ele>
        <time>2013-06-15T05:37:59Z</time>
      </trkpt>
      <trkpt lat="42.76013" lon="-0.12319">
        <ele>2635</ele>
        <time>2013-06-15T05:38:08Z</time>
      </trkpt>
      <trkpt lat="42.76017" lon="-0.12323">
        <ele>2636</ele>
        <time>2013-06-15T05:38:15Z</time>
      </trkpt>
      <trkpt lat="42.76006" lon="-0.12322">
        <ele>2636</ele>
        <time>2013-06-15T05:38:26Z</time>
      </trkpt>
      <trkpt lat="42.76003" lon="-0.12318">
        <ele>2636</ele>
        <time>2013-06-15T05:38:34Z</time>
      </trkpt>
      <trkpt lat="42.76001" lon="-0.1232">
        <ele>2637</ele>
        <time>2013-06-15T05:38:49Z</time>
      </trkpt>
      <trkpt lat="42.75998" lon="-0.1232">
        <ele>2637</ele>
        <time>2013-06-15T05:38:57Z</time>
      </trkpt>
      <trkpt lat="42.75996" lon="-0.12322">
        <ele>2638</ele>
        <time>2013-06-15T05:39:00Z</time>
      </trkpt>
      <trkpt lat="42.75991" lon="-0.12322">
        <ele>2638</ele>
        <time>2013-06-15T05:39:08Z</time>
      </trkpt>
      <trkpt lat="42.7599" lon="-0.12322">
        <ele>2640</ele>
        <time>2013-06-15T05:39:10Z</time>
      </trkpt>
      <trkpt lat="42.75984" lon="-0.12321">
        <ele>2640</ele>
        <time>2013-06-15T05:39:18Z</time>
      </trkpt>
      <trkpt lat="42.75979" lon="-0.12318">
        <ele>2641</ele>
        <time>2013-06-15T05:39:26Z</time>
      </trkpt>
      <trkpt lat="42.75975" lon="-0.12319">
        <ele>2643</ele>
        <time>2013-06-15T05:39:34Z</time>
      </trkpt>
      <trkpt lat="42.7597" lon="-0.12317">
        <ele>2644</ele>
        <time>2013-06-15T05:39:42Z</time>
      </trkpt>
      <trkpt lat="42.75968" lon="-0.12316">
        <ele>2647</ele>
        <time>2013-06-15T05:39:46Z</time>
      </trkpt>
      <trkpt lat="42.75969" lon="-0.12318">
        <ele>2644</ele>
        <time>2013-06-15T05:39:51Z</time>
      </trkpt>
      <trkpt lat="42.7597" lon="-0.12319">
        <ele>2644</ele>
        <time>2013-06-15T05:39:59Z</time>
      </trkpt>
      <trkpt lat="42.75973" lon="-0.12324">
        <ele>2645</ele>
        <time>2013-06-15T05:40:08Z</time>
      </trkpt>
      <trkpt lat="42.75978" lon="-0.12329">
        <ele>2647</ele>
        <time>2013-06-15T05:40:15Z</time>
      </trkpt>
      <trkpt lat="42.75982" lon="-0.12334">
        <ele>2648</ele>
        <time>2013-06-15T05:40:21Z</time>
      </trkpt>
      <trkpt lat="42.75986" lon="-0.12339">
        <ele>2649</ele>
        <time>2013-06-15T05:40:28Z</time>
      </trkpt>
      <trkpt lat="42.75993" lon="-0.12346">
        <ele>2651</ele>
        <time>2013-06-15T05:40:37Z</time>
      </trkpt>
      <trkpt lat="42.75996" lon="-0.1235">
        <ele>2652</ele>
        <time>2013-06-15T05:40:46Z</time>
      </trkpt>
      <trkpt lat="42.75999" lon="-0.12352">
        <ele>2652</ele>
        <time>2013-06-15T05:40:53Z</time>
      </trkpt>
      <trkpt lat="42.75999" lon="-0.12354">
        <ele>2653</ele>
        <time>2013-06-15T05:41:03Z</time>
      </trkpt>
      <trkpt lat="42.75991" lon="-0.12351">
        <ele>2653</ele>
        <time>2013-06-15T05:41:10Z</time>
      </trkpt>
      <trkpt lat="42.75986" lon="-0.12352">
        <ele>2655</ele>
        <time>2013-06-15T05:41:21Z</time>
      </trkpt>
      <trkpt lat="42.75982" lon="-0.12352">
        <ele>2656</ele>
        <time>2013-06-15T05:41:27Z</time>
      </trkpt>
      <trkpt lat="42.75976" lon="-0.12352">
        <ele>2657</ele>
        <time>2013-06-15T05:41:34Z</time>
      </trkpt>
      <trkpt lat="42.75972" lon="-0.12353">
        <ele>2657</ele>
        <time>2013-06-15T05:41:40Z</time>
      </trkpt>
      <trkpt lat="42.75968" lon="-0.12353">
        <ele>2658</ele>
        <time>2013-06-15T05:41:46Z</time>
      </trkpt>
      <trkpt lat="42.75963" lon="-0.12352">
        <ele>2659</ele>
        <time>2013-06-15T05:41:53Z</time>
      </trkpt>
      <trkpt lat="42.75959" lon="-0.12352">
        <ele>2660</ele>
        <time>2013-06-15T05:42:01Z</time>
      </trkpt>
      <trkpt lat="42.75953" lon="-0.12353">
        <ele>2660</ele>
        <time>2013-06-15T05:42:10Z</time>
      </trkpt>
      <trkpt lat="42.75947" lon="-0.12354">
        <ele>2662</ele>
        <time>2013-06-15T05:42:21Z</time>
      </trkpt>
      <trkpt lat="42.75942" lon="-0.12351">
        <ele>2664</ele>
        <time>2013-06-15T05:42:28Z</time>
      </trkpt>
      <trkpt lat="42.75941" lon="-0.12349">
        <ele>2665</ele>
        <time>2013-06-15T05:42:31Z</time>
      </trkpt>
      <trkpt lat="42.7594" lon="-0.12348">
        <ele>2666</ele>
        <time>2013-06-15T05:42:33Z</time>
      </trkpt>
      <trkpt lat="42.75939" lon="-0.12348">
        <ele>2667</ele>
        <time>2013-06-15T05:42:38Z</time>
      </trkpt>
      <trkpt lat="42.7594" lon="-0.12356">
        <ele>2668</ele>
        <time>2013-06-15T05:42:45Z</time>
      </trkpt>
      <trkpt lat="42.75939" lon="-0.12361">
        <ele>2671</ele>
        <time>2013-06-15T05:42:51Z</time>
      </trkpt>
      <trkpt lat="42.75939" lon="-0.12368">
        <ele>2674</ele>
        <time>2013-06-15T05:43:01Z</time>
      </trkpt>
      <trkpt lat="42.75939" lon="-0.12377">
        <ele>2674</ele>
        <time>2013-06-15T05:43:11Z</time>
      </trkpt>
      <trkpt lat="42.75937" lon="-0.12382">
        <ele>2677</ele>
        <time>2013-06-15T05:43:21Z</time>
      </trkpt>
      <trkpt lat="42.75937" lon="-0.12387">
        <ele>2677</ele>
        <time>2013-06-15T05:43:27Z</time>
      </trkpt>
      <trkpt lat="42.75937" lon="-0.1239">
        <ele>2675</ele>
        <time>2013-06-15T05:43:30Z</time>
      </trkpt>
      <trkpt lat="42.75938" lon="-0.124">
        <ele>2675</ele>
        <time>2013-06-15T05:43:39Z</time>
      </trkpt>
      <trkpt lat="42.75939" lon="-0.12405">
        <ele>2676</ele>
        <time>2013-06-15T05:43:47Z</time>
      </trkpt>
      <trkpt lat="42.75937" lon="-0.12406">
        <ele>2676</ele>
        <time>2013-06-15T05:43:54Z</time>
      </trkpt>
      <trkpt lat="42.75938" lon="-0.12414">
        <ele>2677</ele>
        <time>2013-06-15T05:44:03Z</time>
      </trkpt>
      <trkpt lat="42.75937" lon="-0.12419">
        <ele>2678</ele>
        <time>2013-06-15T05:44:10Z</time>
      </trkpt>
      <trkpt lat="42.75936" lon="-0.12426">
        <ele>2679</ele>
        <time>2013-06-15T05:44:18Z</time>
      </trkpt>
      <trkpt lat="42.75935" lon="-0.12428">
        <ele>2680</ele>
        <time>2013-06-15T05:44:24Z</time>
      </trkpt>
      <trkpt lat="42.75934" lon="-0.12432">
        <ele>2681</ele>
        <time>2013-06-15T05:44:32Z</time>
      </trkpt>
      <trkpt lat="42.75933" lon="-0.12435">
        <ele>2681</ele>
        <time>2013-06-15T05:44:37Z</time>
      </trkpt>
      <trkpt lat="42.75933" lon="-0.12443">
        <ele>2682</ele>
        <time>2013-06-15T05:44:44Z</time>
      </trkpt>
      <trkpt lat="42.75934" lon="-0.12452">
        <ele>2684</ele>
        <time>2013-06-15T05:44:54Z</time>
      </trkpt>
      <trkpt lat="42.75934" lon="-0.12461">
        <ele>2685</ele>
        <time>2013-06-15T05:45:01Z</time>
      </trkpt>
      <trkpt lat="42.75933" lon="-0.12467">
        <ele>2685</ele>
        <time>2013-06-15T05:45:08Z</time>
      </trkpt>
      <trkpt lat="42.75933" lon="-0.1247">
        <ele>2686</ele>
        <time>2013-06-15T05:45:13Z</time>
      </trkpt>
      <trkpt lat="42.75933" lon="-0.12473">
        <ele>2686</ele>
        <time>2013-06-15T05:45:20Z</time>
      </trkpt>
      <trkpt lat="42.75932" lon="-0.12479">
        <ele>2687</ele>
        <time>2013-06-15T05:45:26Z</time>
      </trkpt>
      <trkpt lat="42.75931" lon="-0.12483">
        <ele>2688</ele>
        <time>2013-06-15T05:45:33Z</time>
      </trkpt>
      <trkpt lat="42.7593" lon="-0.12488">
        <ele>2690</ele>
        <time>2013-06-15T05:45:41Z</time>
      </trkpt>
      <trkpt lat="42.75929" lon="-0.12493">
        <ele>2691</ele>
        <time>2013-06-15T05:45:50Z</time>
      </trkpt>
      <trkpt lat="42.75928" lon="-0.12501">
        <ele>2692</ele>
        <time>2013-06-15T05:45:59Z</time>
      </trkpt>
      <trkpt lat="42.75928" lon="-0.12505">
        <ele>2693</ele>
        <time>2013-06-15T05:46:06Z</time>
      </trkpt>
      <trkpt lat="42.75928" lon="-0.12512">
        <ele>2693</ele>
        <time>2013-06-15T05:46:12Z</time>
      </trkpt>
      <trkpt lat="42.75928" lon="-0.12517">
        <ele>2695</ele>
        <time>2013-06-15T05:46:19Z</time>
      </trkpt>
      <trkpt lat="42.75928" lon="-0.12521">
        <ele>2696</ele>
        <time>2013-06-15T05:46:25Z</time>
      </trkpt>
      <trkpt lat="42.75928" lon="-0.12525">
        <ele>2697</ele>
        <time>2013-06-15T05:46:31Z</time>
      </trkpt>
      <trkpt lat="42.75928" lon="-0.12528">
        <ele>2698</ele>
        <time>2013-06-15T05:46:36Z</time>
      </trkpt>
      <trkpt lat="42.75928" lon="-0.12532">
        <ele>2699</ele>
        <time>2013-06-15T05:46:42Z</time>
      </trkpt>
      <trkpt lat="42.75928" lon="-0.12535">
        <ele>2700</ele>
        <time>2013-06-15T05:46:48Z</time>
      </trkpt>
      <trkpt lat="42.75928" lon="-0.12541">
        <ele>2700</ele>
        <time>2013-06-15T05:46:55Z</time>
      </trkpt>
      <trkpt lat="42.75926" lon="-0.12544">
        <ele>2701</ele>
        <time>2013-06-15T05:47:01Z</time>
      </trkpt>
      <trkpt lat="42.75925" lon="-0.12545">
        <ele>2701</ele>
        <time>2013-06-15T05:47:03Z</time>
      </trkpt>
      <trkpt lat="42.75919" lon="-0.12551">
        <ele>2702</ele>
        <time>2013-06-15T05:47:11Z</time>
      </trkpt>
      <trkpt lat="42.75915" lon="-0.12555">
        <ele>2703</ele>
        <time>2013-06-15T05:47:18Z</time>
      </trkpt>
      <trkpt lat="42.75915" lon="-0.12556">
        <ele>2703</ele>
        <time>2013-06-15T05:47:19Z</time>
      </trkpt>
      <trkpt lat="42.75913" lon="-0.12556">
        <ele>2705</ele>
        <time>2013-06-15T05:47:25Z</time>
      </trkpt>
      <trkpt lat="42.7591" lon="-0.12556">
        <ele>2705</ele>
        <time>2013-06-15T05:47:32Z</time>
      </trkpt>
      <trkpt lat="42.75911" lon="-0.12556">
        <ele>2704</ele>
        <time>2013-06-15T05:47:42Z</time>
      </trkpt>
      <trkpt lat="42.75909" lon="-0.12557">
        <ele>2706</ele>
        <time>2013-06-15T05:47:54Z</time>
      </trkpt>
      <trkpt lat="42.75907" lon="-0.12557">
        <ele>2706</ele>
        <time>2013-06-15T05:47:59Z</time>
      </trkpt>
      <trkpt lat="42.75906" lon="-0.1256">
        <ele>2707</ele>
        <time>2013-06-15T05:48:04Z</time>
      </trkpt>
      <trkpt lat="42.75906" lon="-0.12566">
        <ele>2709</ele>
        <time>2013-06-15T05:48:10Z</time>
      </trkpt>
      <trkpt lat="42.75908" lon="-0.12569">
        <ele>2709</ele>
        <time>2013-06-15T05:48:16Z</time>
      </trkpt>
      <trkpt lat="42.75911" lon="-0.12574">
        <ele>2710</ele>
        <time>2013-06-15T05:48:22Z</time>
      </trkpt>
      <trkpt lat="42.75914" lon="-0.12574">
        <ele>2710</ele>
        <time>2013-06-15T05:48:33Z</time>
      </trkpt>
      <trkpt lat="42.75914" lon="-0.12578">
        <ele>2711</ele>
        <time>2013-06-15T05:48:39Z</time>
      </trkpt>
      <trkpt lat="42.7591" lon="-0.12581">
        <ele>2712</ele>
        <time>2013-06-15T05:48:47Z</time>
      </trkpt>
      <trkpt lat="42.75906" lon="-0.12583">
        <ele>2713</ele>
        <time>2013-06-15T05:48:55Z</time>
      </trkpt>
      <trkpt lat="42.75905" lon="-0.12585">
        <ele>2714</ele>
        <time>2013-06-15T05:49:04Z</time>
      </trkpt>
      <trkpt lat="42.75901" lon="-0.12586">
        <ele>2714</ele>
        <time>2013-06-15T05:49:11Z</time>
      </trkpt>
      <trkpt lat="42.759" lon="-0.12586">
        <ele>2716</ele>
        <time>2013-06-15T05:49:22Z</time>
      </trkpt>
      <trkpt lat="42.75895" lon="-0.12587">
        <ele>2717</ele>
        <time>2013-06-15T05:49:29Z</time>
      </trkpt>
      <trkpt lat="42.75891" lon="-0.12584">
        <ele>2717</ele>
        <time>2013-06-15T05:49:36Z</time>
      </trkpt>
      <trkpt lat="42.75893" lon="-0.12583">
        <ele>2717</ele>
        <time>2013-06-15T05:49:48Z</time>
      </trkpt>
      <trkpt lat="42.75894" lon="-0.12583">
        <ele>2717</ele>
        <time>2013-06-15T05:49:49Z</time>
      </trkpt>
      <trkpt lat="42.75895" lon="-0.12584">
        <ele>2718</ele>
        <time>2013-06-15T05:50:00Z</time>
      </trkpt>
      <trkpt lat="42.75893" lon="-0.12585">
        <ele>2716</ele>
        <time>2013-06-15T05:50:08Z</time>
      </trkpt>
      <trkpt lat="42.75892" lon="-0.12584">
        <ele>2717</ele>
        <time>2013-06-15T05:50:20Z</time>
      </trkpt>
      <trkpt lat="42.75891" lon="-0.12583">
        <ele>2717</ele>
        <time>2013-06-15T05:50:30Z</time>
      </trkpt>
      <trkpt lat="42.7589" lon="-0.12585">
        <ele>2717</ele>
        <time>2013-06-15T05:50:41Z</time>
      </trkpt>
      <trkpt lat="42.7589" lon="-0.12583">
        <ele>2717</ele>
        <time>2013-06-15T05:50:56Z</time>
      </trkpt>
      <trkpt lat="42.75892" lon="-0.12583">
        <ele>2717</ele>
        <time>2013-06-15T05:51:10Z</time>
      </trkpt>
      <trkpt lat="42.75892" lon="-0.12582">
        <ele>2717</ele>
        <time>2013-06-15T05:51:21Z</time>
      </trkpt>
      <trkpt lat="42.75891" lon="-0.12584">
        <ele>2719</ele>
        <time>2013-06-15T05:51:27Z</time>
      </trkpt>
      <trkpt lat="42.75892" lon="-0.12582">
        <ele>2718</ele>
        <time>2013-06-15T05:51:39Z</time>
      </trkpt>
      <trkpt lat="42.75893" lon="-0.12581">
        <ele>2718</ele>
        <time>2013-06-15T05:51:50Z</time>
      </trkpt>
      <trkpt lat="42.75893" lon="-0.12583">
        <ele>2718</ele>
        <time>2013-06-15T05:52:05Z</time>
      </trkpt>
      <trkpt lat="42.75894" lon="-0.12583">
        <ele>2719</ele>
        <time>2013-06-15T05:52:16Z</time>
      </trkpt>
      <trkpt lat="42.75894" lon="-0.12586">
        <ele>2719</ele>
        <time>2013-06-15T05:52:28Z</time>
      </trkpt>
      <trkpt lat="42.75896" lon="-0.12587">
        <ele>2719</ele>
        <time>2013-06-15T05:52:41Z</time>
      </trkpt>
      <trkpt lat="42.75896" lon="-0.12588">
        <ele>2719</ele>
        <time>2013-06-15T05:52:55Z</time>
      </trkpt>
      <trkpt lat="42.75897" lon="-0.1259">
        <ele>2720</ele>
        <time>2013-06-15T05:53:06Z</time>
      </trkpt>
      <trkpt lat="42.75899" lon="-0.12595">
        <ele>2720</ele>
        <time>2013-06-15T05:53:14Z</time>
      </trkpt>
      <trkpt lat="42.75898" lon="-0.12594">
        <ele>2720</ele>
        <time>2013-06-15T05:53:22Z</time>
      </trkpt>
      <trkpt lat="42.75897" lon="-0.12598">
        <ele>2721</ele>
        <time>2013-06-15T05:53:31Z</time>
      </trkpt>
      <trkpt lat="42.75899" lon="-0.12601">
        <ele>2722</ele>
        <time>2013-06-15T05:53:38Z</time>
      </trkpt>
      <trkpt lat="42.759" lon="-0.12603">
        <ele>2722</ele>
        <time>2013-06-15T05:53:45Z</time>
      </trkpt>
      <trkpt lat="42.75902" lon="-0.12604">
        <ele>2724</ele>
        <time>2013-06-15T05:53:55Z</time>
      </trkpt>
      <trkpt lat="42.75905" lon="-0.12607">
        <ele>2724</ele>
        <time>2013-06-15T05:54:01Z</time>
      </trkpt>
      <trkpt lat="42.75904" lon="-0.1261">
        <ele>2724</ele>
        <time>2013-06-15T05:54:07Z</time>
      </trkpt>
      <trkpt lat="42.75902" lon="-0.1261">
        <ele>2724</ele>
        <time>2013-06-15T05:54:14Z</time>
      </trkpt>
      <trkpt lat="42.759" lon="-0.12612">
        <ele>2724</ele>
        <time>2013-06-15T05:54:20Z</time>
      </trkpt>
      <trkpt lat="42.75897" lon="-0.12614">
        <ele>2726</ele>
        <time>2013-06-15T05:54:27Z</time>
      </trkpt>
      <trkpt lat="42.75893" lon="-0.12617">
        <ele>2728</ele>
        <time>2013-06-15T05:54:35Z</time>
      </trkpt>
      <trkpt lat="42.75894" lon="-0.1262">
        <ele>2729</ele>
        <time>2013-06-15T05:54:41Z</time>
      </trkpt>
      <trkpt lat="42.75898" lon="-0.12624">
        <ele>2730</ele>
        <time>2013-06-15T05:54:47Z</time>
      </trkpt>
      <trkpt lat="42.75901" lon="-0.12625">
        <ele>2731</ele>
        <time>2013-06-15T05:54:53Z</time>
      </trkpt>
      <trkpt lat="42.75906" lon="-0.12625">
        <ele>2731</ele>
        <time>2013-06-15T05:55:03Z</time>
      </trkpt>
      <trkpt lat="42.75908" lon="-0.12624">
        <ele>2732</ele>
        <time>2013-06-15T05:55:10Z</time>
      </trkpt>
      <trkpt lat="42.7591" lon="-0.12624">
        <ele>2732</ele>
        <time>2013-06-15T05:55:18Z</time>
      </trkpt>
      <trkpt lat="42.75907" lon="-0.12627">
        <ele>2732</ele>
        <time>2013-06-15T05:55:30Z</time>
      </trkpt>
      <trkpt lat="42.75904" lon="-0.12629">
        <ele>2733</ele>
        <time>2013-06-15T05:55:36Z</time>
      </trkpt>
      <trkpt lat="42.75901" lon="-0.12631">
        <ele>2733</ele>
        <time>2013-06-15T05:55:41Z</time>
      </trkpt>
      <trkpt lat="42.75898" lon="-0.12634">
        <ele>2734</ele>
        <time>2013-06-15T05:55:48Z</time>
      </trkpt>
      <trkpt lat="42.75896" lon="-0.12638">
        <ele>2736</ele>
        <time>2013-06-15T05:55:55Z</time>
      </trkpt>
      <trkpt lat="42.75893" lon="-0.12642">
        <ele>2737</ele>
        <time>2013-06-15T05:56:03Z</time>
      </trkpt>
      <trkpt lat="42.75891" lon="-0.12644">
        <ele>2739</ele>
        <time>2013-06-15T05:56:09Z</time>
      </trkpt>
      <trkpt lat="42.75888" lon="-0.12644">
        <ele>2740</ele>
        <time>2013-06-15T05:56:20Z</time>
      </trkpt>
      <trkpt lat="42.75888" lon="-0.12644">
        <ele>2740</ele>
        <time>2013-06-15T05:56:27Z</time>
      </trkpt>
      <trkpt lat="42.75884" lon="-0.12647">
        <ele>2741</ele>
        <time>2013-06-15T05:56:37Z</time>
      </trkpt>
      <trkpt lat="42.75879" lon="-0.12648">
        <ele>2742</ele>
        <time>2013-06-15T05:56:46Z</time>
      </trkpt>
      <trkpt lat="42.75881" lon="-0.12649">
        <ele>2744</ele>
        <time>2013-06-15T05:56:53Z</time>
      </trkpt>
      <trkpt lat="42.75883" lon="-0.12653">
        <ele>2745</ele>
        <time>2013-06-15T05:57:00Z</time>
      </trkpt>
      <trkpt lat="42.75887" lon="-0.12657">
        <ele>2745</ele>
        <time>2013-06-15T05:57:08Z</time>
      </trkpt>
      <trkpt lat="42.75891" lon="-0.1266">
        <ele>2747</ele>
        <time>2013-06-15T05:57:15Z</time>
      </trkpt>
      <trkpt lat="42.75896" lon="-0.12662">
        <ele>2748</ele>
        <time>2013-06-15T05:57:21Z</time>
      </trkpt>
      <trkpt lat="42.759" lon="-0.12664">
        <ele>2749</ele>
        <time>2013-06-15T05:57:28Z</time>
      </trkpt>
      <trkpt lat="42.75902" lon="-0.12667">
        <ele>2750</ele>
        <time>2013-06-15T05:57:36Z</time>
      </trkpt>
      <trkpt lat="42.75896" lon="-0.12672">
        <ele>2751</ele>
        <time>2013-06-15T05:57:43Z</time>
      </trkpt>
      <trkpt lat="42.75893" lon="-0.12676">
        <ele>2752</ele>
        <time>2013-06-15T05:57:50Z</time>
      </trkpt>
      <trkpt lat="42.75888" lon="-0.12679">
        <ele>2753</ele>
        <time>2013-06-15T05:58:00Z</time>
      </trkpt>
      <trkpt lat="42.75887" lon="-0.12686">
        <ele>2754</ele>
        <time>2013-06-15T05:58:07Z</time>
      </trkpt>
      <trkpt lat="42.75886" lon="-0.12692">
        <ele>2755</ele>
        <time>2013-06-15T05:58:13Z</time>
      </trkpt>
      <trkpt lat="42.75886" lon="-0.12697">
        <ele>2756</ele>
        <time>2013-06-15T05:58:19Z</time>
      </trkpt>
      <trkpt lat="42.75885" lon="-0.12702">
        <ele>2758</ele>
        <time>2013-06-15T05:58:28Z</time>
      </trkpt>
      <trkpt lat="42.75883" lon="-0.12705">
        <ele>2757</ele>
        <time>2013-06-15T05:58:35Z</time>
      </trkpt>
      <trkpt lat="42.75889" lon="-0.12712">
        <ele>2758</ele>
        <time>2013-06-15T05:58:42Z</time>
      </trkpt>
      <trkpt lat="42.75892" lon="-0.12714">
        <ele>2760</ele>
        <time>2013-06-15T05:58:50Z</time>
      </trkpt>
      <trkpt lat="42.75894" lon="-0.12718">
        <ele>2761</ele>
        <time>2013-06-15T05:58:57Z</time>
      </trkpt>
      <trkpt lat="42.75897" lon="-0.12722">
        <ele>2762</ele>
        <time>2013-06-15T05:59:04Z</time>
      </trkpt>
      <trkpt lat="42.759" lon="-0.12727">
        <ele>2763</ele>
        <time>2013-06-15T05:59:12Z</time>
      </trkpt>
      <trkpt lat="42.75903" lon="-0.12732">
        <ele>2764</ele>
        <time>2013-06-15T05:59:17Z</time>
      </trkpt>
      <trkpt lat="42.75904" lon="-0.12736">
        <ele>2765</ele>
        <time>2013-06-15T05:59:23Z</time>
      </trkpt>
      <trkpt lat="42.75901" lon="-0.12744">
        <ele>2766</ele>
        <time>2013-06-15T05:59:32Z</time>
      </trkpt>
      <trkpt lat="42.75899" lon="-0.1275">
        <ele>2768</ele>
        <time>2013-06-15T05:59:41Z</time>
      </trkpt>
      <trkpt lat="42.75898" lon="-0.12756">
        <ele>2770</ele>
        <time>2013-06-15T05:59:48Z</time>
      </trkpt>
      <trkpt lat="42.75895" lon="-0.12762">
        <ele>2771</ele>
        <time>2013-06-15T05:59:58Z</time>
      </trkpt>
      <trkpt lat="42.75897" lon="-0.12762">
        <ele>2772</ele>
        <time>2013-06-15T06:00:07Z</time>
      </trkpt>
      <trkpt lat="42.75896" lon="-0.12765">
        <ele>2771</ele>
        <time>2013-06-15T06:00:13Z</time>
      </trkpt>
      <trkpt lat="42.75895" lon="-0.12771">
        <ele>2773</ele>
        <time>2013-06-15T06:00:20Z</time>
      </trkpt>
      <trkpt lat="42.75897" lon="-0.12775">
        <ele>2774</ele>
        <time>2013-06-15T06:00:26Z</time>
      </trkpt>
      <trkpt lat="42.75899" lon="-0.12778">
        <ele>2774</ele>
        <time>2013-06-15T06:00:34Z</time>
      </trkpt>
      <trkpt lat="42.75904" lon="-0.12782">
        <ele>2775</ele>
        <time>2013-06-15T06:00:40Z</time>
      </trkpt>
      <trkpt lat="42.75902" lon="-0.12787">
        <ele>2776</ele>
        <time>2013-06-15T06:00:47Z</time>
      </trkpt>
      <trkpt lat="42.75901" lon="-0.1279">
        <ele>2778</ele>
        <time>2013-06-15T06:00:51Z</time>
      </trkpt>
      <trkpt lat="42.75898" lon="-0.12795">
        <ele>2778</ele>
        <time>2013-06-15T06:00:58Z</time>
      </trkpt>
      <trkpt lat="42.75896" lon="-0.12799">
        <ele>2779</ele>
        <time>2013-06-15T06:01:04Z</time>
      </trkpt>
      <trkpt lat="42.75891" lon="-0.12801">
        <ele>2782</ele>
        <time>2013-06-15T06:01:12Z</time>
      </trkpt>
      <trkpt lat="42.75886" lon="-0.12805">
        <ele>2783</ele>
        <time>2013-06-15T06:01:20Z</time>
      </trkpt>
      <trkpt lat="42.75887" lon="-0.12807">
        <ele>2783</ele>
        <time>2013-06-15T06:01:28Z</time>
      </trkpt>
      <trkpt lat="42.75889" lon="-0.12809">
        <ele>2784</ele>
        <time>2013-06-15T06:01:36Z</time>
      </trkpt>
      <trkpt lat="42.75892" lon="-0.1281">
        <ele>2785</ele>
        <time>2013-06-15T06:01:41Z</time>
      </trkpt>
      <trkpt lat="42.75894" lon="-0.12813">
        <ele>2785</ele>
        <time>2013-06-15T06:01:46Z</time>
      </trkpt>
      <trkpt lat="42.75897" lon="-0.12814">
        <ele>2786</ele>
        <time>2013-06-15T06:01:52Z</time>
      </trkpt>
      <trkpt lat="42.759" lon="-0.12814">
        <ele>2787</ele>
        <time>2013-06-15T06:01:58Z</time>
      </trkpt>
      <trkpt lat="42.75903" lon="-0.12814">
        <ele>2787</ele>
        <time>2013-06-15T06:02:09Z</time>
      </trkpt>
      <trkpt lat="42.75905" lon="-0.12813">
        <ele>2787</ele>
        <time>2013-06-15T06:02:15Z</time>
      </trkpt>
      <trkpt lat="42.75906" lon="-0.12813">
        <ele>2788</ele>
        <time>2013-06-15T06:02:17Z</time>
      </trkpt>
      <trkpt lat="42.75908" lon="-0.1281">
        <ele>2788</ele>
        <time>2013-06-15T06:02:23Z</time>
      </trkpt>
      <trkpt lat="42.75908" lon="-0.12809">
        <ele>2789</ele>
        <time>2013-06-15T06:02:25Z</time>
      </trkpt>
      <trkpt lat="42.75908" lon="-0.12807">
        <ele>2790</ele>
        <time>2013-06-15T06:02:27Z</time>
      </trkpt>
      <trkpt lat="42.75911" lon="-0.12808">
        <ele>2790</ele>
        <time>2013-06-15T06:02:33Z</time>
      </trkpt>
      <trkpt lat="42.75913" lon="-0.12807">
        <ele>2790</ele>
        <time>2013-06-15T06:02:38Z</time>
      </trkpt>
      <trkpt lat="42.75916" lon="-0.12807">
        <ele>2791</ele>
        <time>2013-06-15T06:02:43Z</time>
      </trkpt>
      <trkpt lat="42.75918" lon="-0.12805">
        <ele>2792</ele>
        <time>2013-06-15T06:02:49Z</time>
      </trkpt>
      <trkpt lat="42.75918" lon="-0.12803">
        <ele>2793</ele>
        <time>2013-06-15T06:02:52Z</time>
      </trkpt>
      <trkpt lat="42.75924" lon="-0.12804">
        <ele>2795</ele>
        <time>2013-06-15T06:02:59Z</time>
      </trkpt>
      <trkpt lat="42.75924" lon="-0.12805">
        <ele>2794</ele>
        <time>2013-06-15T06:03:08Z</time>
      </trkpt>
      <trkpt lat="42.75922" lon="-0.12809">
        <ele>2795</ele>
        <time>2013-06-15T06:03:17Z</time>
      </trkpt>
      <trkpt lat="42.7592" lon="-0.12813">
        <ele>2797</ele>
        <time>2013-06-15T06:03:25Z</time>
      </trkpt>
      <trkpt lat="42.7592" lon="-0.12819">
        <ele>2798</ele>
        <time>2013-06-15T06:03:31Z</time>
      </trkpt>
      <trkpt lat="42.75922" lon="-0.12824">
        <ele>2800</ele>
        <time>2013-06-15T06:03:42Z</time>
      </trkpt>
      <trkpt lat="42.75921" lon="-0.12831">
        <ele>2800</ele>
        <time>2013-06-15T06:03:51Z</time>
      </trkpt>
      <trkpt lat="42.75916" lon="-0.12839">
        <ele>2802</ele>
        <time>2013-06-15T06:03:58Z</time>
      </trkpt>
      <trkpt lat="42.75915" lon="-0.12841">
        <ele>2803</ele>
        <time>2013-06-15T06:03:59Z</time>
      </trkpt>
      <trkpt lat="42.75913" lon="-0.12847">
        <ele>2802</ele>
        <time>2013-06-15T06:04:06Z</time>
      </trkpt>
      <trkpt lat="42.75917" lon="-0.12849">
        <ele>2804</ele>
        <time>2013-06-15T06:04:13Z</time>
      </trkpt>
      <trkpt lat="42.75921" lon="-0.1285">
        <ele>2805</ele>
        <time>2013-06-15T06:04:19Z</time>
      </trkpt>
      <trkpt lat="42.75925" lon="-0.12848">
        <ele>2806</ele>
        <time>2013-06-15T06:04:27Z</time>
      </trkpt>
      <trkpt lat="42.75925" lon="-0.12848">
        <ele>2806</ele>
        <time>2013-06-15T06:04:34Z</time>
      </trkpt>
      <trkpt lat="42.75927" lon="-0.12846">
        <ele>2806</ele>
        <time>2013-06-15T06:04:45Z</time>
      </trkpt>
      <trkpt lat="42.7593" lon="-0.12846">
        <ele>2807</ele>
        <time>2013-06-15T06:04:52Z</time>
      </trkpt>
      <trkpt lat="42.75933" lon="-0.12843">
        <ele>2808</ele>
        <time>2013-06-15T06:04:57Z</time>
      </trkpt>
      <trkpt lat="42.75934" lon="-0.12842">
        <ele>2809</ele>
        <time>2013-06-15T06:05:03Z</time>
      </trkpt>
      <trkpt lat="42.75937" lon="-0.12839">
        <ele>2810</ele>
        <time>2013-06-15T06:05:09Z</time>
      </trkpt>
      <trkpt lat="42.75939" lon="-0.1284">
        <ele>2810</ele>
        <time>2013-06-15T06:05:14Z</time>
      </trkpt>
      <trkpt lat="42.75937" lon="-0.12846">
        <ele>2811</ele>
        <time>2013-06-15T06:05:24Z</time>
      </trkpt>
      <trkpt lat="42.75936" lon="-0.1285">
        <ele>2812</ele>
        <time>2013-06-15T06:05:31Z</time>
      </trkpt>
      <trkpt lat="42.75935" lon="-0.12855">
        <ele>2813</ele>
        <time>2013-06-15T06:05:39Z</time>
      </trkpt>
      <trkpt lat="42.75934" lon="-0.12861">
        <ele>2815</ele>
        <time>2013-06-15T06:05:47Z</time>
      </trkpt>
      <trkpt lat="42.75934" lon="-0.12862">
        <ele>2815</ele>
        <time>2013-06-15T06:05:48Z</time>
      </trkpt>
      <trkpt lat="42.75934" lon="-0.12867">
        <ele>2815</ele>
        <time>2013-06-15T06:05:56Z</time>
      </trkpt>
      <trkpt lat="42.75933" lon="-0.12873">
        <ele>2817</ele>
        <time>2013-06-15T06:06:05Z</time>
      </trkpt>
      <trkpt lat="42.75933" lon="-0.12879">
        <ele>2818</ele>
        <time>2013-06-15T06:06:13Z</time>
      </trkpt>
      <trkpt lat="42.75934" lon="-0.12877">
        <ele>2818</ele>
        <time>2013-06-15T06:06:21Z</time>
      </trkpt>
      <trkpt lat="42.75935" lon="-0.12876">
        <ele>2818</ele>
        <time>2013-06-15T06:06:30Z</time>
      </trkpt>
      <trkpt lat="42.75934" lon="-0.12875">
        <ele>2819</ele>
        <time>2013-06-15T06:06:37Z</time>
      </trkpt>
      <trkpt lat="42.75935" lon="-0.12872">
        <ele>2818</ele>
        <time>2013-06-15T06:06:43Z</time>
      </trkpt>
      <trkpt lat="42.75937" lon="-0.12868">
        <ele>2819</ele>
        <time>2013-06-15T06:06:49Z</time>
      </trkpt>
      <trkpt lat="42.75939" lon="-0.12867">
        <ele>2821</ele>
        <time>2013-06-15T06:06:57Z</time>
      </trkpt>
      <trkpt lat="42.75942" lon="-0.12864">
        <ele>2821</ele>
        <time>2013-06-15T06:07:02Z</time>
      </trkpt>
      <trkpt lat="42.75944" lon="-0.12861">
        <ele>2822</ele>
        <time>2013-06-15T06:07:08Z</time>
      </trkpt>
      <trkpt lat="42.75947" lon="-0.12858">
        <ele>2822</ele>
        <time>2013-06-15T06:07:14Z</time>
      </trkpt>
      <trkpt lat="42.75948" lon="-0.12857">
        <ele>2823</ele>
        <time>2013-06-15T06:07:20Z</time>
      </trkpt>
      <trkpt lat="42.75948" lon="-0.12856">
        <ele>2823</ele>
        <time>2013-06-15T06:07:21Z</time>
      </trkpt>
      <trkpt lat="42.75952" lon="-0.12854">
        <ele>2823</ele>
        <time>2013-06-15T06:07:28Z</time>
      </trkpt>
      <trkpt lat="42.75952" lon="-0.12858">
        <ele>2824</ele>
        <time>2013-06-15T06:07:37Z</time>
      </trkpt>
      <trkpt lat="42.75951" lon="-0.12857">
        <ele>2824</ele>
        <time>2013-06-15T06:07:47Z</time>
      </trkpt>
      <trkpt lat="42.7595" lon="-0.1286">
        <ele>2824</ele>
        <time>2013-06-15T06:07:58Z</time>
      </trkpt>
      <trkpt lat="42.7595" lon="-0.12865">
        <ele>2825</ele>
        <time>2013-06-15T06:08:05Z</time>
      </trkpt>
      <trkpt lat="42.7595" lon="-0.12867">
        <ele>2825</ele>
        <time>2013-06-15T06:08:14Z</time>
      </trkpt>
      <trkpt lat="42.75951" lon="-0.12869">
        <ele>2827</ele>
        <time>2013-06-15T06:08:20Z</time>
      </trkpt>
      <trkpt lat="42.75951" lon="-0.12875">
        <ele>2828</ele>
        <time>2013-06-15T06:08:28Z</time>
      </trkpt>
      <trkpt lat="42.75951" lon="-0.1288">
        <ele>2829</ele>
        <time>2013-06-15T06:08:36Z</time>
      </trkpt>
      <trkpt lat="42.75952" lon="-0.12879">
        <ele>2830</ele>
        <time>2013-06-15T06:08:42Z</time>
      </trkpt>
      <trkpt lat="42.75953" lon="-0.1288">
        <ele>2830</ele>
        <time>2013-06-15T06:08:53Z</time>
      </trkpt>
      <trkpt lat="42.75952" lon="-0.12882">
        <ele>2831</ele>
        <time>2013-06-15T06:09:00Z</time>
      </trkpt>
      <trkpt lat="42.75952" lon="-0.12883">
        <ele>2831</ele>
        <time>2013-06-15T06:09:13Z</time>
      </trkpt>
      <trkpt lat="42.75951" lon="-0.12882">
        <ele>2831</ele>
        <time>2013-06-15T06:09:24Z</time>
      </trkpt>
      <trkpt lat="42.75951" lon="-0.12881">
        <ele>2831</ele>
        <time>2013-06-15T06:09:35Z</time>
      </trkpt>
      <trkpt lat="42.75952" lon="-0.12885">
        <ele>2831</ele>
        <time>2013-06-15T06:09:46Z</time>
      </trkpt>
      <trkpt lat="42.75952" lon="-0.12889">
        <ele>2832</ele>
        <time>2013-06-15T06:09:52Z</time>
      </trkpt>
      <trkpt lat="42.75955" lon="-0.12895">
        <ele>2834</ele>
        <time>2013-06-15T06:10:02Z</time>
      </trkpt>
      <trkpt lat="42.75958" lon="-0.12897">
        <ele>2836</ele>
        <time>2013-06-15T06:10:09Z</time>
      </trkpt>
      <trkpt lat="42.75959" lon="-0.129">
        <ele>2836</ele>
        <time>2013-06-15T06:10:18Z</time>
      </trkpt>
      <trkpt lat="42.75961" lon="-0.12902">
        <ele>2837</ele>
        <time>2013-06-15T06:10:24Z</time>
      </trkpt>
      <trkpt lat="42.75958" lon="-0.12903">
        <ele>2837</ele>
        <time>2013-06-15T06:10:33Z</time>
      </trkpt>
      <trkpt lat="42.75958" lon="-0.12903">
        <ele>2838</ele>
        <time>2013-06-15T06:10:41Z</time>
      </trkpt>
      <trkpt lat="42.75959" lon="-0.12904">
        <ele>2838</ele>
        <time>2013-06-15T06:10:42Z</time>
      </trkpt>
      <trkpt lat="42.75962" lon="-0.12909">
        <ele>2840</ele>
        <time>2013-06-15T06:10:50Z</time>
      </trkpt>
      <trkpt lat="42.75965" lon="-0.12913">
        <ele>2842</ele>
        <time>2013-06-15T06:10:59Z</time>
      </trkpt>
      <trkpt lat="42.75966" lon="-0.12914">
        <ele>2844</ele>
        <time>2013-06-15T06:11:03Z</time>
      </trkpt>
      <trkpt lat="42.75971" lon="-0.1292">
        <ele>2845</ele>
        <time>2013-06-15T06:11:12Z</time>
      </trkpt>
      <trkpt lat="42.75973" lon="-0.12926">
        <ele>2846</ele>
        <time>2013-06-15T06:11:21Z</time>
      </trkpt>
      <trkpt lat="42.75973" lon="-0.12925">
        <ele>2846</ele>
        <time>2013-06-15T06:11:22Z</time>
      </trkpt>
      <trkpt lat="42.75975" lon="-0.1292">
        <ele>2846</ele>
        <time>2013-06-15T06:11:30Z</time>
      </trkpt>
      <trkpt lat="42.75976" lon="-0.12914">
        <ele>2847</ele>
        <time>2013-06-15T06:11:38Z</time>
      </trkpt>
      <trkpt lat="42.75977" lon="-0.1291">
        <ele>2848</ele>
        <time>2013-06-15T06:11:42Z</time>
      </trkpt>
      <trkpt lat="42.75979" lon="-0.12905">
        <ele>2850</ele>
        <time>2013-06-15T06:11:50Z</time>
      </trkpt>
      <trkpt lat="42.75983" lon="-0.12904">
        <ele>2849</ele>
        <time>2013-06-15T06:11:58Z</time>
      </trkpt>
      <trkpt lat="42.75984" lon="-0.12904">
        <ele>2850</ele>
        <time>2013-06-15T06:12:04Z</time>
      </trkpt>
      <trkpt lat="42.75986" lon="-0.12903">
        <ele>2851</ele>
        <time>2013-06-15T06:12:17Z</time>
      </trkpt>
      <trkpt lat="42.75989" lon="-0.12905">
        <ele>2851</ele>
        <time>2013-06-15T06:12:26Z</time>
      </trkpt>
      <trkpt lat="42.75994" lon="-0.1291">
        <ele>2854</ele>
        <time>2013-06-15T06:12:34Z</time>
      </trkpt>
      <trkpt lat="42.75997" lon="-0.12914">
        <ele>2854</ele>
        <time>2013-06-15T06:12:42Z</time>
      </trkpt>
      <trkpt lat="42.75998" lon="-0.12915">
        <ele>2856</ele>
        <time>2013-06-15T06:12:47Z</time>
      </trkpt>
      <trkpt lat="42.76003" lon="-0.1292">
        <ele>2857</ele>
        <time>2013-06-15T06:12:55Z</time>
      </trkpt>
      <trkpt lat="42.76004" lon="-0.12922">
        <ele>2859</ele>
        <time>2013-06-15T06:13:02Z</time>
      </trkpt>
      <trkpt lat="42.76005" lon="-0.12921">
        <ele>2860</ele>
        <time>2013-06-15T06:13:08Z</time>
      </trkpt>
      <trkpt lat="42.76007" lon="-0.12919">
        <ele>2861</ele>
        <time>2013-06-15T06:13:16Z</time>
      </trkpt>
      <trkpt lat="42.7601" lon="-0.12913">
        <ele>2862</ele>
        <time>2013-06-15T06:13:24Z</time>
      </trkpt>
      <trkpt lat="42.76011" lon="-0.12913">
        <ele>2863</ele>
        <time>2013-06-15T06:13:26Z</time>
      </trkpt>
      <trkpt lat="42.76014" lon="-0.12912">
        <ele>2862</ele>
        <time>2013-06-15T06:13:33Z</time>
      </trkpt>
      <trkpt lat="42.76016" lon="-0.12913">
        <ele>2862</ele>
        <time>2013-06-15T06:13:43Z</time>
      </trkpt>
      <trkpt lat="42.76016" lon="-0.12909">
        <ele>2862</ele>
        <time>2013-06-15T06:13:51Z</time>
      </trkpt>
      <trkpt lat="42.76015" lon="-0.12915">
        <ele>2864</ele>
        <time>2013-06-15T06:13:59Z</time>
      </trkpt>
      <trkpt lat="42.76016" lon="-0.12916">
        <ele>2864</ele>
        <time>2013-06-15T06:14:00Z</time>
      </trkpt>
      <trkpt lat="42.76019" lon="-0.12927">
        <ele>2864</ele>
        <time>2013-06-15T06:14:09Z</time>
      </trkpt>
      <trkpt lat="42.76022" lon="-0.12933">
        <ele>2865</ele>
        <time>2013-06-15T06:14:16Z</time>
      </trkpt>
      <trkpt lat="42.76023" lon="-0.12939">
        <ele>2865</ele>
        <time>2013-06-15T06:14:23Z</time>
      </trkpt>
      <trkpt lat="42.76025" lon="-0.12944">
        <ele>2868</ele>
        <time>2013-06-15T06:14:29Z</time>
      </trkpt>
      <trkpt lat="42.76028" lon="-0.12951">
        <ele>2867</ele>
        <time>2013-06-15T06:14:38Z</time>
      </trkpt>
      <trkpt lat="42.76028" lon="-0.12952">
        <ele>2867</ele>
        <time>2013-06-15T06:14:39Z</time>
      </trkpt>
      <trkpt lat="42.76027" lon="-0.12952">
        <ele>2870</ele>
        <time>2013-06-15T06:14:45Z</time>
      </trkpt>
      <trkpt lat="42.76034" lon="-0.12961">
        <ele>2869</ele>
        <time>2013-06-15T06:14:54Z</time>
      </trkpt>
      <trkpt lat="42.76039" lon="-0.12969">
        <ele>2872</ele>
        <time>2013-06-15T06:15:01Z</time>
      </trkpt>
      <trkpt lat="42.7604" lon="-0.12974">
        <ele>2872</ele>
        <time>2013-06-15T06:15:07Z</time>
      </trkpt>
      <trkpt lat="42.76041" lon="-0.12977">
        <ele>2874</ele>
        <time>2013-06-15T06:15:15Z</time>
      </trkpt>
      <trkpt lat="42.76043" lon="-0.12982">
        <ele>2875</ele>
        <time>2013-06-15T06:15:24Z</time>
      </trkpt>
      <trkpt lat="42.76048" lon="-0.1299">
        <ele>2878</ele>
        <time>2013-06-15T06:15:32Z</time>
      </trkpt>
      <trkpt lat="42.76054" lon="-0.12999">
        <ele>2879</ele>
        <time>2013-06-15T06:15:40Z</time>
      </trkpt>
      <trkpt lat="42.76055" lon="-0.13001">
        <ele>2876</ele>
        <time>2013-06-15T06:15:42Z</time>
      </trkpt>
      <trkpt lat="42.76061" lon="-0.13011">
        <ele>2876</ele>
        <time>2013-06-15T06:15:52Z</time>
      </trkpt>
      <trkpt lat="42.76062" lon="-0.13013">
        <ele>2880</ele>
        <time>2013-06-15T06:15:59Z</time>
      </trkpt>
      <trkpt lat="42.76065" lon="-0.13022">
        <ele>2881</ele>
        <time>2013-06-15T06:16:06Z</time>
      </trkpt>
      <trkpt lat="42.76067" lon="-0.13026">
        <ele>2877</ele>
        <time>2013-06-15T06:16:09Z</time>
      </trkpt>
      <trkpt lat="42.76071" lon="-0.1303">
        <ele>2882</ele>
        <time>2013-06-15T06:16:14Z</time>
      </trkpt>
      <trkpt lat="42.76071" lon="-0.1303">
        <ele>2880</ele>
        <time>2013-06-15T06:16:15Z</time>
      </trkpt>
      <trkpt lat="42.76072" lon="-0.13031">
        <ele>2879</ele>
        <time>2013-06-15T06:16:17Z</time>
      </trkpt>
      <trkpt lat="42.76076" lon="-0.13036">
        <ele>2881</ele>
        <time>2013-06-15T06:16:24Z</time>
      </trkpt>
      <trkpt lat="42.76079" lon="-0.1304">
        <ele>2882</ele>
        <time>2013-06-15T06:16:31Z</time>
      </trkpt>
      <trkpt lat="42.7608" lon="-0.13041">
        <ele>2882</ele>
        <time>2013-06-15T06:16:32Z</time>
      </trkpt>
      <trkpt lat="42.76082" lon="-0.13047">
        <ele>2883</ele>
        <time>2013-06-15T06:16:40Z</time>
      </trkpt>
      <trkpt lat="42.76084" lon="-0.13052">
        <ele>2885</ele>
        <time>2013-06-15T06:16:47Z</time>
      </trkpt>
      <trkpt lat="42.76086" lon="-0.13055">
        <ele>2882</ele>
        <time>2013-06-15T06:16:53Z</time>
      </trkpt>
      <trkpt lat="42.76086" lon="-0.13057">
        <ele>2886</ele>
        <time>2013-06-15T06:16:55Z</time>
      </trkpt>
      <trkpt lat="42.76087" lon="-0.13058">
        <ele>2883</ele>
        <time>2013-06-15T06:16:57Z</time>
      </trkpt>
      <trkpt lat="42.76087" lon="-0.1306">
        <ele>2886</ele>
        <time>2013-06-15T06:16:59Z</time>
      </trkpt>
      <trkpt lat="42.76088" lon="-0.13061">
        <ele>2885</ele>
        <time>2013-06-15T06:17:00Z</time>
      </trkpt>
      <trkpt lat="42.76089" lon="-0.13063">
        <ele>2883</ele>
        <time>2013-06-15T06:17:02Z</time>
      </trkpt>
      <trkpt lat="42.76091" lon="-0.13066">
        <ele>2886</ele>
        <time>2013-06-15T06:17:07Z</time>
      </trkpt>
      <trkpt lat="42.76092" lon="-0.13063">
        <ele>2887</ele>
        <time>2013-06-15T06:17:09Z</time>
      </trkpt>
      <trkpt lat="42.7609" lon="-0.1306">
        <ele>2890</ele>
        <time>2013-06-15T06:17:13Z</time>
      </trkpt>
      <trkpt lat="42.76091" lon="-0.13054">
        <ele>2894</ele>
        <time>2013-06-15T06:17:21Z</time>
      </trkpt>
      <trkpt lat="42.76091" lon="-0.13055">
        <ele>2897</ele>
        <time>2013-06-15T06:17:23Z</time>
      </trkpt>
      <trkpt lat="42.76091" lon="-0.13055">
        <ele>2891</ele>
        <time>2013-06-15T06:17:25Z</time>
      </trkpt>
      <trkpt lat="42.76091" lon="-0.13055">
        <ele>2892</ele>
        <time>2013-06-15T06:17:26Z</time>
      </trkpt>
      <trkpt lat="42.76094" lon="-0.13054">
        <ele>2888</ele>
        <time>2013-06-15T06:17:31Z</time>
      </trkpt>
      <trkpt lat="42.76094" lon="-0.13054">
        <ele>2888</ele>
        <time>2013-06-15T06:17:32Z</time>
      </trkpt>
      <trkpt lat="42.76096" lon="-0.13052">
        <ele>2889</ele>
        <time>2013-06-15T06:17:39Z</time>
      </trkpt>
      <trkpt lat="42.76098" lon="-0.1305">
        <ele>2892</ele>
        <time>2013-06-15T06:17:44Z</time>
      </trkpt>
      <trkpt lat="42.76098" lon="-0.1305">
        <ele>2893</ele>
        <time>2013-06-15T06:17:45Z</time>
      </trkpt>
      <trkpt lat="42.761" lon="-0.13048">
        <ele>2898</ele>
        <time>2013-06-15T06:17:49Z</time>
      </trkpt>
      <trkpt lat="42.76101" lon="-0.13047">
        <ele>2898</ele>
        <time>2013-06-15T06:17:50Z</time>
      </trkpt>
      <trkpt lat="42.76101" lon="-0.13047">
        <ele>2893</ele>
        <time>2013-06-15T06:17:51Z</time>
      </trkpt>
      <trkpt lat="42.76103" lon="-0.13046">
        <ele>2891</ele>
        <time>2013-06-15T06:17:53Z</time>
      </trkpt>
      <trkpt lat="42.76105" lon="-0.13045">
        <ele>2893</ele>
        <time>2013-06-15T06:17:57Z</time>
      </trkpt>
      <trkpt lat="42.76107" lon="-0.13044">
        <ele>2894</ele>
        <time>2013-06-15T06:18:00Z</time>
      </trkpt>
      <trkpt lat="42.76111" lon="-0.13042">
        <ele>2896</ele>
        <time>2013-06-15T06:18:06Z</time>
      </trkpt>
      <trkpt lat="42.76113" lon="-0.13042">
        <ele>2897</ele>
        <time>2013-06-15T06:18:12Z</time>
      </trkpt>
      <trkpt lat="42.76115" lon="-0.13041">
        <ele>2898</ele>
        <time>2013-06-15T06:18:18Z</time>
      </trkpt>
      <trkpt lat="42.76115" lon="-0.13041">
        <ele>2899</ele>
        <time>2013-06-15T06:18:23Z</time>
      </trkpt>
      <trkpt lat="42.76115" lon="-0.13041">
        <ele>2896</ele>
        <time>2013-06-15T06:18:28Z</time>
      </trkpt>
      <trkpt lat="42.76116" lon="-0.13041">
        <ele>2897</ele>
        <time>2013-06-15T06:18:41Z</time>
      </trkpt>
      <trkpt lat="42.76116" lon="-0.13044">
        <ele>2898</ele>
        <time>2013-06-15T06:18:51Z</time>
      </trkpt>
      <trkpt lat="42.76116" lon="-0.13046">
        <ele>2895</ele>
        <time>2013-06-15T06:18:53Z</time>
      </trkpt>
      <trkpt lat="42.76116" lon="-0.13047">
        <ele>2895</ele>
        <time>2013-06-15T06:18:54Z</time>
      </trkpt>
      <trkpt lat="42.76116" lon="-0.13048">
        <ele>2897</ele>
        <time>2013-06-15T06:18:57Z</time>
      </trkpt>
      <trkpt lat="42.76116" lon="-0.13054">
        <ele>2899</ele>
        <time>2013-06-15T06:19:05Z</time>
      </trkpt>
      <trkpt lat="42.76116" lon="-0.13059">
        <ele>2901</ele>
        <time>2013-06-15T06:19:12Z</time>
      </trkpt>
      <trkpt lat="42.76118" lon="-0.13063">
        <ele>2899</ele>
        <time>2013-06-15T06:19:18Z</time>
      </trkpt>
      <trkpt lat="42.76118" lon="-0.13067">
        <ele>2903</ele>
        <time>2013-06-15T06:19:23Z</time>
      </trkpt>
      <trkpt lat="42.76119" lon="-0.13076">
        <ele>2903</ele>
        <time>2013-06-15T06:19:31Z</time>
      </trkpt>
      <trkpt lat="42.76121" lon="-0.13081">
        <ele>2904</ele>
        <time>2013-06-15T06:19:38Z</time>
      </trkpt>
      <trkpt lat="42.76121" lon="-0.13077">
        <ele>2907</ele>
        <time>2013-06-15T06:19:48Z</time>
      </trkpt>
      <trkpt lat="42.76122" lon="-0.13074">
        <ele>2905</ele>
        <time>2013-06-15T06:19:55Z</time>
      </trkpt>
      <trkpt lat="42.76124" lon="-0.13068">
        <ele>2909</ele>
        <time>2013-06-15T06:20:02Z</time>
      </trkpt>
      <trkpt lat="42.76125" lon="-0.13067">
        <ele>2911</ele>
        <time>2013-06-15T06:20:05Z</time>
      </trkpt>
      <trkpt lat="42.76127" lon="-0.13065">
        <ele>2911</ele>
        <time>2013-06-15T06:20:11Z</time>
      </trkpt>
      <trkpt lat="42.76129" lon="-0.13064">
        <ele>2913</ele>
        <time>2013-06-15T06:20:14Z</time>
      </trkpt>
      <trkpt lat="42.7613" lon="-0.13063">
        <ele>2914</ele>
        <time>2013-06-15T06:20:16Z</time>
      </trkpt>
      <trkpt lat="42.76132" lon="-0.13062">
        <ele>2912</ele>
        <time>2013-06-15T06:20:18Z</time>
      </trkpt>
      <trkpt lat="42.76136" lon="-0.13062">
        <ele>2913</ele>
        <time>2013-06-15T06:20:25Z</time>
      </trkpt>
      <trkpt lat="42.76138" lon="-0.13062">
        <ele>2910</ele>
        <time>2013-06-15T06:20:28Z</time>
      </trkpt>
      <trkpt lat="42.76138" lon="-0.13061">
        <ele>2910</ele>
        <time>2013-06-15T06:20:29Z</time>
      </trkpt>
      <trkpt lat="42.76141" lon="-0.13061">
        <ele>2912</ele>
        <time>2013-06-15T06:20:33Z</time>
      </trkpt>
      <trkpt lat="42.76145" lon="-0.1306">
        <ele>2912</ele>
        <time>2013-06-15T06:20:41Z</time>
      </trkpt>
      <trkpt lat="42.76146" lon="-0.1306">
        <ele>2913</ele>
        <time>2013-06-15T06:20:43Z</time>
      </trkpt>
      <trkpt lat="42.76148" lon="-0.13057">
        <ele>2916</ele>
        <time>2013-06-15T06:20:49Z</time>
      </trkpt>
      <trkpt lat="42.7615" lon="-0.13057">
        <ele>2915</ele>
        <time>2013-06-15T06:20:54Z</time>
      </trkpt>
      <trkpt lat="42.7615" lon="-0.13058">
        <ele>2911</ele>
        <time>2013-06-15T06:20:59Z</time>
      </trkpt>
      <trkpt lat="42.7615" lon="-0.13062">
        <ele>2914</ele>
        <time>2013-06-15T06:21:06Z</time>
      </trkpt>
      <trkpt lat="42.76149" lon="-0.13069">
        <ele>2915</ele>
        <time>2013-06-15T06:21:14Z</time>
      </trkpt>
      <trkpt lat="42.76149" lon="-0.1307">
        <ele>2915</ele>
        <time>2013-06-15T06:21:15Z</time>
      </trkpt>
      <trkpt lat="42.76149" lon="-0.13072">
        <ele>2917</ele>
        <time>2013-06-15T06:21:18Z</time>
      </trkpt>
      <trkpt lat="42.76148" lon="-0.13079">
        <ele>2919</ele>
        <time>2013-06-15T06:21:29Z</time>
      </trkpt>
      <trkpt lat="42.76148" lon="-0.13084">
        <ele>2919</ele>
        <time>2013-06-15T06:21:36Z</time>
      </trkpt>
      <trkpt lat="42.76146" lon="-0.1309">
        <ele>2920</ele>
        <time>2013-06-15T06:21:42Z</time>
      </trkpt>
      <trkpt lat="42.76146" lon="-0.13097">
        <ele>2923</ele>
        <time>2013-06-15T06:21:50Z</time>
      </trkpt>
      <trkpt lat="42.76145" lon="-0.13101">
        <ele>2922</ele>
        <time>2013-06-15T06:21:58Z</time>
      </trkpt>
      <trkpt lat="42.76145" lon="-0.13103">
        <ele>2923</ele>
        <time>2013-06-15T06:22:01Z</time>
      </trkpt>
      <trkpt lat="42.76144" lon="-0.13108">
        <ele>2925</ele>
        <time>2013-06-15T06:22:11Z</time>
      </trkpt>
      <trkpt lat="42.76145" lon="-0.13113">
        <ele>2929</ele>
        <time>2013-06-15T06:22:22Z</time>
      </trkpt>
      <trkpt lat="42.76144" lon="-0.13113">
        <ele>2929</ele>
        <time>2013-06-15T06:22:23Z</time>
      </trkpt>
      <trkpt lat="42.76144" lon="-0.13112">
        <ele>2928</ele>
        <time>2013-06-15T06:22:28Z</time>
      </trkpt>
      <trkpt lat="42.76143" lon="-0.13109">
        <ele>2926</ele>
        <time>2013-06-15T06:22:38Z</time>
      </trkpt>
      <trkpt lat="42.76145" lon="-0.13108">
        <ele>2928</ele>
        <time>2013-06-15T06:22:45Z</time>
      </trkpt>
      <trkpt lat="42.76148" lon="-0.13107">
        <ele>2930</ele>
        <time>2013-06-15T06:22:54Z</time>
      </trkpt>
      <trkpt lat="42.76151" lon="-0.13106">
        <ele>2930</ele>
        <time>2013-06-15T06:22:59Z</time>
      </trkpt>
      <trkpt lat="42.76154" lon="-0.13104">
        <ele>2933</ele>
        <time>2013-06-15T06:23:05Z</time>
      </trkpt>
      <trkpt lat="42.76156" lon="-0.13103">
        <ele>2935</ele>
        <time>2013-06-15T06:23:10Z</time>
      </trkpt>
      <trkpt lat="42.76159" lon="-0.13101">
        <ele>2933</ele>
        <time>2013-06-15T06:23:16Z</time>
      </trkpt>
      <trkpt lat="42.76162" lon="-0.131">
        <ele>2936</ele>
        <time>2013-06-15T06:23:22Z</time>
      </trkpt>
      <trkpt lat="42.76164" lon="-0.131">
        <ele>2939</ele>
        <time>2013-06-15T06:23:27Z</time>
      </trkpt>
      <trkpt lat="42.76167" lon="-0.13099">
        <ele>2938</ele>
        <time>2013-06-15T06:23:35Z</time>
      </trkpt>
      <trkpt lat="42.76169" lon="-0.13098">
        <ele>2940</ele>
        <time>2013-06-15T06:23:38Z</time>
      </trkpt>
      <trkpt lat="42.76171" lon="-0.13098">
        <ele>2938</ele>
        <time>2013-06-15T06:23:44Z</time>
      </trkpt>
      <trkpt lat="42.76172" lon="-0.13097">
        <ele>2941</ele>
        <time>2013-06-15T06:23:48Z</time>
      </trkpt>
      <trkpt lat="42.76173" lon="-0.13097">
        <ele>2941</ele>
        <time>2013-06-15T06:23:49Z</time>
      </trkpt>
      <trkpt lat="42.76177" lon="-0.13096">
        <ele>2944</ele>
        <time>2013-06-15T06:23:56Z</time>
      </trkpt>
      <trkpt lat="42.76177" lon="-0.13096">
        <ele>2940</ele>
        <time>2013-06-15T06:23:58Z</time>
      </trkpt>
      <trkpt lat="42.76179" lon="-0.13096">
        <ele>2944</ele>
        <time>2013-06-15T06:24:01Z</time>
      </trkpt>
      <trkpt lat="42.7618" lon="-0.13097">
        <ele>2941</ele>
        <time>2013-06-15T06:24:03Z</time>
      </trkpt>
      <trkpt lat="42.7618" lon="-0.13099">
        <ele>2937</ele>
        <time>2013-06-15T06:24:12Z</time>
      </trkpt>
      <trkpt lat="42.76179" lon="-0.13099">
        <ele>2939</ele>
        <time>2013-06-15T06:24:15Z</time>
      </trkpt>
      <trkpt lat="42.76178" lon="-0.13101">
        <ele>2936</ele>
        <time>2013-06-15T06:24:19Z</time>
      </trkpt>
      <trkpt lat="42.76177" lon="-0.13106">
        <ele>2938</ele>
        <time>2013-06-15T06:24:25Z</time>
      </trkpt>
      <trkpt lat="42.76177" lon="-0.13107">
        <ele>2940</ele>
        <time>2013-06-15T06:24:28Z</time>
      </trkpt>
      <trkpt lat="42.76177" lon="-0.13113">
        <ele>2940</ele>
        <time>2013-06-15T06:24:34Z</time>
      </trkpt>
      <trkpt lat="42.76176" lon="-0.13119">
        <ele>2941</ele>
        <time>2013-06-15T06:24:42Z</time>
      </trkpt>
      <trkpt lat="42.76176" lon="-0.13126">
        <ele>2944</ele>
        <time>2013-06-15T06:24:50Z</time>
      </trkpt>
      <trkpt lat="42.76175" lon="-0.13133">
        <ele>2946</ele>
        <time>2013-06-15T06:24:58Z</time>
      </trkpt>
      <trkpt lat="42.76174" lon="-0.13138">
        <ele>2945</ele>
        <time>2013-06-15T06:25:06Z</time>
      </trkpt>
      <trkpt lat="42.76174" lon="-0.13143">
        <ele>2947</ele>
        <time>2013-06-15T06:25:14Z</time>
      </trkpt>
      <trkpt lat="42.76174" lon="-0.13153">
        <ele>2948</ele>
        <time>2013-06-15T06:25:24Z</time>
      </trkpt>
      <trkpt lat="42.76174" lon="-0.1316">
        <ele>2947</ele>
        <time>2013-06-15T06:25:32Z</time>
      </trkpt>
      <trkpt lat="42.76176" lon="-0.13168">
        <ele>2947</ele>
        <time>2013-06-15T06:25:40Z</time>
      </trkpt>
      <trkpt lat="42.76176" lon="-0.13175">
        <ele>2948</ele>
        <time>2013-06-15T06:25:49Z</time>
      </trkpt>
      <trkpt lat="42.76175" lon="-0.13181">
        <ele>2949</ele>
        <time>2013-06-15T06:25:56Z</time>
      </trkpt>
      <trkpt lat="42.76173" lon="-0.13187">
        <ele>2949</ele>
        <time>2013-06-15T06:26:04Z</time>
      </trkpt>
      <trkpt lat="42.76169" lon="-0.13194">
        <ele>2952</ele>
        <time>2013-06-15T06:26:12Z</time>
      </trkpt>
      <trkpt lat="42.76168" lon="-0.13195">
        <ele>2952</ele>
        <time>2013-06-15T06:26:13Z</time>
      </trkpt>
      <trkpt lat="42.76164" lon="-0.13201">
        <ele>2954</ele>
        <time>2013-06-15T06:26:20Z</time>
      </trkpt>
      <trkpt lat="42.76161" lon="-0.13203">
        <ele>2954</ele>
        <time>2013-06-15T06:26:28Z</time>
      </trkpt>
      <trkpt lat="42.76159" lon="-0.13203">
        <ele>2954</ele>
        <time>2013-06-15T06:26:33Z</time>
      </trkpt>
      <trkpt lat="42.76157" lon="-0.13205">
        <ele>2956</ele>
        <time>2013-06-15T06:26:37Z</time>
      </trkpt>
      <trkpt lat="42.76155" lon="-0.13206">
        <ele>2959</ele>
        <time>2013-06-15T06:26:43Z</time>
      </trkpt>
      <trkpt lat="42.76153" lon="-0.13209">
        <ele>2958</ele>
        <time>2013-06-15T06:26:51Z</time>
      </trkpt>
      <trkpt lat="42.76153" lon="-0.13214">
        <ele>2961</ele>
        <time>2013-06-15T06:26:58Z</time>
      </trkpt>
      <trkpt lat="42.76154" lon="-0.13216">
        <ele>2963</ele>
        <time>2013-06-15T06:27:01Z</time>
      </trkpt>
      <trkpt lat="42.76156" lon="-0.13218">
        <ele>2964</ele>
        <time>2013-06-15T06:27:08Z</time>
      </trkpt>
      <trkpt lat="42.76158" lon="-0.13222">
        <ele>2965</ele>
        <time>2013-06-15T06:27:17Z</time>
      </trkpt>
      <trkpt lat="42.76161" lon="-0.13226">
        <ele>2967</ele>
        <time>2013-06-15T06:27:26Z</time>
      </trkpt>
      <trkpt lat="42.76163" lon="-0.13225">
        <ele>2968</ele>
        <time>2013-06-15T06:27:34Z</time>
      </trkpt>
      <trkpt lat="42.76164" lon="-0.13225">
        <ele>2967</ele>
        <time>2013-06-15T06:27:36Z</time>
      </trkpt>
      <trkpt lat="42.76167" lon="-0.13228">
        <ele>2968</ele>
        <time>2013-06-15T06:27:50Z</time>
      </trkpt>
      <trkpt lat="42.76167" lon="-0.13228">
        <ele>2964</ele>
        <time>2013-06-15T06:27:52Z</time>
      </trkpt>
      <trkpt lat="42.76167" lon="-0.13229">
        <ele>2965</ele>
        <time>2013-06-15T06:28:04Z</time>
      </trkpt>
      <trkpt lat="42.76169" lon="-0.13231">
        <ele>2966</ele>
        <time>2013-06-15T06:28:10Z</time>
      </trkpt>
      <trkpt lat="42.76172" lon="-0.13231">
        <ele>2968</ele>
        <time>2013-06-15T06:28:16Z</time>
      </trkpt>
      <trkpt lat="42.76176" lon="-0.1323">
        <ele>2969</ele>
        <time>2013-06-15T06:28:22Z</time>
      </trkpt>
      <trkpt lat="42.7618" lon="-0.13232">
        <ele>2970</ele>
        <time>2013-06-15T06:28:29Z</time>
      </trkpt>
      <trkpt lat="42.7618" lon="-0.13232">
        <ele>2970</ele>
        <time>2013-06-15T06:28:36Z</time>
      </trkpt>
      <trkpt lat="42.76179" lon="-0.13231">
        <ele>2970</ele>
        <time>2013-06-15T06:28:51Z</time>
      </trkpt>
      <trkpt lat="42.7618" lon="-0.13232">
        <ele>2971</ele>
        <time>2013-06-15T06:29:01Z</time>
      </trkpt>
      <trkpt lat="42.7618" lon="-0.13235">
        <ele>2969</ele>
        <time>2013-06-15T06:29:09Z</time>
      </trkpt>
      <trkpt lat="42.76177" lon="-0.1324">
        <ele>2969</ele>
        <time>2013-06-15T06:29:17Z</time>
      </trkpt>
      <trkpt lat="42.76174" lon="-0.13244">
        <ele>2971</ele>
        <time>2013-06-15T06:29:24Z</time>
      </trkpt>
      <trkpt lat="42.76171" lon="-0.1325">
        <ele>2972</ele>
        <time>2013-06-15T06:29:34Z</time>
      </trkpt>
      <trkpt lat="42.7617" lon="-0.13253">
        <ele>2973</ele>
        <time>2013-06-15T06:29:39Z</time>
      </trkpt>
      <trkpt lat="42.76169" lon="-0.13256">
        <ele>2973</ele>
        <time>2013-06-15T06:29:42Z</time>
      </trkpt>
      <trkpt lat="42.76165" lon="-0.1326">
        <ele>2973</ele>
        <time>2013-06-15T06:29:51Z</time>
      </trkpt>
      <trkpt lat="42.76163" lon="-0.13263">
        <ele>2973</ele>
        <time>2013-06-15T06:29:58Z</time>
      </trkpt>
      <trkpt lat="42.76162" lon="-0.13264">
        <ele>2976</ele>
        <time>2013-06-15T06:30:01Z</time>
      </trkpt>
      <trkpt lat="42.76161" lon="-0.13265">
        <ele>2975</ele>
        <time>2013-06-15T06:30:02Z</time>
      </trkpt>
      <trkpt lat="42.76158" lon="-0.13269">
        <ele>2977</ele>
        <time>2013-06-15T06:30:11Z</time>
      </trkpt>
      <trkpt lat="42.76155" lon="-0.13272">
        <ele>2980</ele>
        <time>2013-06-15T06:30:16Z</time>
      </trkpt>
      <trkpt lat="42.76151" lon="-0.13276">
        <ele>2980</ele>
        <time>2013-06-15T06:30:25Z</time>
      </trkpt>
      <trkpt lat="42.7615" lon="-0.13277">
        <ele>2981</ele>
        <time>2013-06-15T06:30:29Z</time>
      </trkpt>
      <trkpt lat="42.76147" lon="-0.13279">
        <ele>2982</ele>
        <time>2013-06-15T06:30:34Z</time>
      </trkpt>
      <trkpt lat="42.76145" lon="-0.1328">
        <ele>2984</ele>
        <time>2013-06-15T06:30:37Z</time>
      </trkpt>
      <trkpt lat="42.76145" lon="-0.13281">
        <ele>2984</ele>
        <time>2013-06-15T06:30:43Z</time>
      </trkpt>
      <trkpt lat="42.76145" lon="-0.13281">
        <ele>2984</ele>
        <time>2013-06-15T06:30:48Z</time>
      </trkpt>
      <trkpt lat="42.76146" lon="-0.13281">
        <ele>2981</ele>
        <time>2013-06-15T06:30:50Z</time>
      </trkpt>
      <trkpt lat="42.76146" lon="-0.13281">
        <ele>2981</ele>
        <time>2013-06-15T06:30:51Z</time>
      </trkpt>
      <trkpt lat="42.76147" lon="-0.13281">
        <ele>2985</ele>
        <time>2013-06-15T06:30:52Z</time>
      </trkpt>
      <trkpt lat="42.76149" lon="-0.13282">
        <ele>2988</ele>
        <time>2013-06-15T06:30:54Z</time>
      </trkpt>
      <trkpt lat="42.76151" lon="-0.13282">
        <ele>2986</ele>
        <time>2013-06-15T06:30:56Z</time>
      </trkpt>
      <trkpt lat="42.76155" lon="-0.13284">
        <ele>2987</ele>
        <time>2013-06-15T06:31:03Z</time>
      </trkpt>
      <trkpt lat="42.76158" lon="-0.13286">
        <ele>2991</ele>
        <time>2013-06-15T06:31:09Z</time>
      </trkpt>
      <trkpt lat="42.7616" lon="-0.13286">
        <ele>2988</ele>
        <time>2013-06-15T06:31:12Z</time>
      </trkpt>
      <trkpt lat="42.76163" lon="-0.13288">
        <ele>2990</ele>
        <time>2013-06-15T06:31:19Z</time>
      </trkpt>
      <trkpt lat="42.76167" lon="-0.13289">
        <ele>2990</ele>
        <time>2013-06-15T06:31:31Z</time>
      </trkpt>
      <trkpt lat="42.76169" lon="-0.13289">
        <ele>2992</ele>
        <time>2013-06-15T06:31:35Z</time>
      </trkpt>
      <trkpt lat="42.76173" lon="-0.13288">
        <ele>2996</ele>
        <time>2013-06-15T06:31:44Z</time>
      </trkpt>
      <trkpt lat="42.76175" lon="-0.13288">
        <ele>2995</ele>
        <time>2013-06-15T06:31:50Z</time>
      </trkpt>
      <trkpt lat="42.76177" lon="-0.13288">
        <ele>2998</ele>
        <time>2013-06-15T06:31:53Z</time>
      </trkpt>
      <trkpt lat="42.76178" lon="-0.13288">
        <ele>2994</ele>
        <time>2013-06-15T06:31:56Z</time>
      </trkpt>
      <trkpt lat="42.76178" lon="-0.13289">
        <ele>2994</ele>
        <time>2013-06-15T06:31:57Z</time>
      </trkpt>
      <trkpt lat="42.76177" lon="-0.13292">
        <ele>2990</ele>
        <time>2013-06-15T06:32:04Z</time>
      </trkpt>
      <trkpt lat="42.76177" lon="-0.1329">
        <ele>2990</ele>
        <time>2013-06-15T06:32:10Z</time>
      </trkpt>
      <trkpt lat="42.76176" lon="-0.13293">
        <ele>2994</ele>
        <time>2013-06-15T06:32:15Z</time>
      </trkpt>
      <trkpt lat="42.76174" lon="-0.13295">
        <ele>2992</ele>
        <time>2013-06-15T06:32:17Z</time>
      </trkpt>
      <trkpt lat="42.76172" lon="-0.13299">
        <ele>2988</ele>
        <time>2013-06-15T06:32:24Z</time>
      </trkpt>
      <trkpt lat="42.76172" lon="-0.133">
        <ele>2992</ele>
        <time>2013-06-15T06:32:26Z</time>
      </trkpt>
      <trkpt lat="42.7617" lon="-0.13305">
        <ele>2993</ele>
        <time>2013-06-15T06:32:35Z</time>
      </trkpt>
      <trkpt lat="42.76167" lon="-0.1331">
        <ele>2994</ele>
        <time>2013-06-15T06:32:42Z</time>
      </trkpt>
      <trkpt lat="42.76167" lon="-0.1331">
        <ele>2992</ele>
        <time>2013-06-15T06:32:44Z</time>
      </trkpt>
      <trkpt lat="42.76165" lon="-0.13312">
        <ele>2995</ele>
        <time>2013-06-15T06:32:47Z</time>
      </trkpt>
      <trkpt lat="42.76164" lon="-0.13313">
        <ele>2998</ele>
        <time>2013-06-15T06:32:50Z</time>
      </trkpt>
      <trkpt lat="42.76163" lon="-0.13314">
        <ele>2998</ele>
        <time>2013-06-15T06:32:51Z</time>
      </trkpt>
      <trkpt lat="42.7616" lon="-0.13317">
        <ele>2996</ele>
        <time>2013-06-15T06:32:56Z</time>
      </trkpt>
      <trkpt lat="42.76157" lon="-0.1332">
        <ele>2999</ele>
        <time>2013-06-15T06:33:01Z</time>
      </trkpt>
      <trkpt lat="42.76155" lon="-0.13321">
        <ele>2999</ele>
        <time>2013-06-15T06:33:03Z</time>
      </trkpt>
      <trkpt lat="42.76153" lon="-0.13322">
        <ele>3002</ele>
        <time>2013-06-15T06:33:06Z</time>
      </trkpt>
      <trkpt lat="42.76152" lon="-0.13322">
        <ele>2999</ele>
        <time>2013-06-15T06:33:07Z</time>
      </trkpt>
      <trkpt lat="42.76152" lon="-0.13322">
        <ele>2999</ele>
        <time>2013-06-15T06:33:08Z</time>
      </trkpt>
      <trkpt lat="42.76149" lon="-0.13323">
        <ele>3004</ele>
        <time>2013-06-15T06:33:12Z</time>
      </trkpt>
      <trkpt lat="42.76149" lon="-0.13323">
        <ele>3003</ele>
        <time>2013-06-15T06:33:13Z</time>
      </trkpt>
      <trkpt lat="42.76146" lon="-0.13324">
        <ele>3005</ele>
        <time>2013-06-15T06:33:19Z</time>
      </trkpt>
      <trkpt lat="42.76145" lon="-0.13324">
        <ele>3010</ele>
        <time>2013-06-15T06:33:22Z</time>
      </trkpt>
      <trkpt lat="42.76144" lon="-0.13324">
        <ele>3005</ele>
        <time>2013-06-15T06:33:26Z</time>
      </trkpt>
      <trkpt lat="42.76143" lon="-0.13324">
        <ele>3006</ele>
        <time>2013-06-15T06:33:27Z</time>
      </trkpt>
      <trkpt lat="42.76141" lon="-0.13325">
        <ele>3009</ele>
        <time>2013-06-15T06:33:32Z</time>
      </trkpt>
      <trkpt lat="42.76141" lon="-0.13326">
        <ele>3006</ele>
        <time>2013-06-15T06:33:35Z</time>
      </trkpt>
      <trkpt lat="42.76142" lon="-0.13328">
        <ele>3003</ele>
        <time>2013-06-15T06:33:41Z</time>
      </trkpt>
      <trkpt lat="42.76142" lon="-0.13328">
        <ele>3004</ele>
        <time>2013-06-15T06:33:43Z</time>
      </trkpt>
      <trkpt lat="42.76142" lon="-0.1333">
        <ele>3001</ele>
        <time>2013-06-15T06:33:49Z</time>
      </trkpt>
      <trkpt lat="42.76143" lon="-0.1333">
        <ele>3005</ele>
        <time>2013-06-15T06:33:50Z</time>
      </trkpt>
      <trkpt lat="42.76143" lon="-0.1333">
        <ele>3008</ele>
        <time>2013-06-15T06:33:51Z</time>
      </trkpt>
      <trkpt lat="42.76144" lon="-0.1333">
        <ele>3007</ele>
        <time>2013-06-15T06:33:52Z</time>
      </trkpt>
      <trkpt lat="42.76144" lon="-0.13331">
        <ele>3006</ele>
        <time>2013-06-15T06:33:54Z</time>
      </trkpt>
      <trkpt lat="42.76147" lon="-0.13333">
        <ele>3010</ele>
        <time>2013-06-15T06:34:00Z</time>
      </trkpt>
      <trkpt lat="42.76147" lon="-0.13333">
        <ele>3009</ele>
        <time>2013-06-15T06:34:01Z</time>
      </trkpt>
      <trkpt lat="42.76148" lon="-0.13333">
        <ele>3008</ele>
        <time>2013-06-15T06:34:03Z</time>
      </trkpt>
      <trkpt lat="42.76151" lon="-0.13336">
        <ele>3009</ele>
        <time>2013-06-15T06:34:12Z</time>
      </trkpt>
      <trkpt lat="42.76152" lon="-0.13337">
        <ele>3010</ele>
        <time>2013-06-15T06:34:14Z</time>
      </trkpt>
      <trkpt lat="42.76156" lon="-0.13339">
        <ele>3014</ele>
        <time>2013-06-15T06:34:20Z</time>
      </trkpt>
      <trkpt lat="42.76157" lon="-0.1334">
        <ele>3010</ele>
        <time>2013-06-15T06:34:22Z</time>
      </trkpt>
      <trkpt lat="42.76161" lon="-0.13343">
        <ele>3010</ele>
        <time>2013-06-15T06:34:30Z</time>
      </trkpt>
      <trkpt lat="42.76165" lon="-0.13344">
        <ele>3011</ele>
        <time>2013-06-15T06:34:38Z</time>
      </trkpt>
      <trkpt lat="42.76169" lon="-0.13345">
        <ele>3014</ele>
        <time>2013-06-15T06:34:48Z</time>
      </trkpt>
      <trkpt lat="42.76169" lon="-0.13345">
        <ele>3014</ele>
        <time>2013-06-15T06:34:55Z</time>
      </trkpt>
      <trkpt lat="42.76169" lon="-0.13347">
        <ele>3010</ele>
        <time>2013-06-15T06:35:03Z</time>
      </trkpt>
      <trkpt lat="42.76169" lon="-0.13347">
        <ele>3011</ele>
        <time>2013-06-15T06:35:04Z</time>
      </trkpt>
      <trkpt lat="42.76169" lon="-0.13347">
        <ele>3008</ele>
        <time>2013-06-15T06:35:08Z</time>
      </trkpt>
      <trkpt lat="42.76169" lon="-0.13348">
        <ele>3008</ele>
        <time>2013-06-15T06:35:15Z</time>
      </trkpt>
      <trkpt lat="42.76167" lon="-0.13349">
        <ele>3010</ele>
        <time>2013-06-15T06:35:18Z</time>
      </trkpt>
      <trkpt lat="42.76164" lon="-0.13353">
        <ele>3010</ele>
        <time>2013-06-15T06:35:25Z</time>
      </trkpt>
      <trkpt lat="42.76162" lon="-0.13356">
        <ele>3015</ele>
        <time>2013-06-15T06:35:32Z</time>
      </trkpt>
      <trkpt lat="42.76162" lon="-0.13355">
        <ele>3012</ele>
        <time>2013-06-15T06:35:36Z</time>
      </trkpt>
      <trkpt lat="42.76162" lon="-0.13356">
        <ele>3016</ele>
        <time>2013-06-15T06:35:39Z</time>
      </trkpt>
      <trkpt lat="42.76162" lon="-0.13356">
        <ele>3014</ele>
        <time>2013-06-15T06:35:42Z</time>
      </trkpt>
      <trkpt lat="42.76162" lon="-0.13357">
        <ele>3015</ele>
        <time>2013-06-15T06:35:44Z</time>
      </trkpt>
      <trkpt lat="42.76162" lon="-0.13356">
        <ele>3019</ele>
        <time>2013-06-15T06:35:48Z</time>
      </trkpt>
      <trkpt lat="42.76161" lon="-0.13356">
        <ele>3020</ele>
        <time>2013-06-15T06:35:50Z</time>
      </trkpt>
      <trkpt lat="42.76161" lon="-0.13355">
        <ele>3019</ele>
        <time>2013-06-15T06:35:52Z</time>
      </trkpt>
      <trkpt lat="42.76165" lon="-0.13354">
        <ele>3023</ele>
        <time>2013-06-15T06:35:57Z</time>
      </trkpt>
      <trkpt lat="42.76166" lon="-0.13353">
        <ele>3023</ele>
        <time>2013-06-15T06:35:59Z</time>
      </trkpt>
      <trkpt lat="42.76168" lon="-0.13353">
        <ele>3019</ele>
        <time>2013-06-15T06:36:01Z</time>
      </trkpt>
      <trkpt lat="42.76172" lon="-0.13352">
        <ele>3021</ele>
        <time>2013-06-15T06:36:08Z</time>
      </trkpt>
      <trkpt lat="42.76174" lon="-0.13352">
        <ele>3025</ele>
        <time>2013-06-15T06:36:11Z</time>
      </trkpt>
      <trkpt lat="42.76178" lon="-0.13352">
        <ele>3021</ele>
        <time>2013-06-15T06:36:18Z</time>
      </trkpt>
      <trkpt lat="42.76179" lon="-0.13351">
        <ele>3021</ele>
        <time>2013-06-15T06:36:22Z</time>
      </trkpt>
      <trkpt lat="42.76182" lon="-0.13352">
        <ele>3018</ele>
        <time>2013-06-15T06:36:30Z</time>
      </trkpt>
      <trkpt lat="42.76181" lon="-0.13353">
        <ele>3014</ele>
        <time>2013-06-15T06:36:32Z</time>
      </trkpt>
      <trkpt lat="42.76181" lon="-0.13353">
        <ele>3014</ele>
        <time>2013-06-15T06:36:33Z</time>
      </trkpt>
      <trkpt lat="42.76181" lon="-0.13353">
        <ele>3018</ele>
        <time>2013-06-15T06:36:35Z</time>
      </trkpt>
      <trkpt lat="42.76181" lon="-0.13354">
        <ele>3018</ele>
        <time>2013-06-15T06:36:36Z</time>
      </trkpt>
      <trkpt lat="42.7618" lon="-0.13354">
        <ele>3014</ele>
        <time>2013-06-15T06:36:41Z</time>
      </trkpt>
      <trkpt lat="42.76179" lon="-0.13357">
        <ele>3016</ele>
        <time>2013-06-15T06:36:48Z</time>
      </trkpt>
      <trkpt lat="42.76179" lon="-0.13357">
        <ele>3016</ele>
        <time>2013-06-15T06:36:49Z</time>
      </trkpt>
      <trkpt lat="42.76177" lon="-0.1336">
        <ele>3017</ele>
        <time>2013-06-15T06:36:55Z</time>
      </trkpt>
      <trkpt lat="42.76176" lon="-0.13364">
        <ele>3017</ele>
        <time>2013-06-15T06:37:02Z</time>
      </trkpt>
      <trkpt lat="42.76173" lon="-0.13368">
        <ele>3017</ele>
        <time>2013-06-15T06:37:10Z</time>
      </trkpt>
      <trkpt lat="42.76172" lon="-0.13371">
        <ele>3019</ele>
        <time>2013-06-15T06:37:13Z</time>
      </trkpt>
      <trkpt lat="42.7617" lon="-0.13373">
        <ele>3022</ele>
        <time>2013-06-15T06:37:18Z</time>
      </trkpt>
      <trkpt lat="42.76169" lon="-0.13374">
        <ele>3024</ele>
        <time>2013-06-15T06:37:20Z</time>
      </trkpt>
      <trkpt lat="42.76168" lon="-0.13375">
        <ele>3022</ele>
        <time>2013-06-15T06:37:23Z</time>
      </trkpt>
      <trkpt lat="42.76165" lon="-0.13378">
        <ele>3023</ele>
        <time>2013-06-15T06:37:32Z</time>
      </trkpt>
      <trkpt lat="42.76163" lon="-0.13382">
        <ele>3024</ele>
        <time>2013-06-15T06:37:37Z</time>
      </trkpt>
      <trkpt lat="42.76161" lon="-0.13385">
        <ele>3024</ele>
        <time>2013-06-15T06:37:45Z</time>
      </trkpt>
      <trkpt lat="42.76158" lon="-0.13389">
        <ele>3025</ele>
        <time>2013-06-15T06:37:49Z</time>
      </trkpt>
      <trkpt lat="42.76155" lon="-0.1339">
        <ele>3030</ele>
        <time>2013-06-15T06:37:53Z</time>
      </trkpt>
      <trkpt lat="42.76153" lon="-0.13392">
        <ele>3029</ele>
        <time>2013-06-15T06:37:57Z</time>
      </trkpt>
      <trkpt lat="42.76152" lon="-0.13392">
        <ele>3032</ele>
        <time>2013-06-15T06:37:59Z</time>
      </trkpt>
      <trkpt lat="42.76152" lon="-0.13392">
        <ele>3031</ele>
        <time>2013-06-15T06:38:00Z</time>
      </trkpt>
      <trkpt lat="42.76151" lon="-0.13393">
        <ele>3032</ele>
        <time>2013-06-15T06:38:04Z</time>
      </trkpt>
      <trkpt lat="42.76151" lon="-0.13393">
        <ele>3028</ele>
        <time>2013-06-15T06:38:06Z</time>
      </trkpt>
      <trkpt lat="42.76152" lon="-0.13394">
        <ele>3031</ele>
        <time>2013-06-15T06:38:10Z</time>
      </trkpt>
      <trkpt lat="42.76153" lon="-0.13394">
        <ele>3027</ele>
        <time>2013-06-15T06:38:14Z</time>
      </trkpt>
      <trkpt lat="42.76151" lon="-0.13393">
        <ele>3032</ele>
        <time>2013-06-15T06:38:21Z</time>
      </trkpt>
      <trkpt lat="42.7615" lon="-0.13393">
        <ele>3035</ele>
        <time>2013-06-15T06:38:22Z</time>
      </trkpt>
      <trkpt lat="42.7615" lon="-0.13393">
        <ele>3039</ele>
        <time>2013-06-15T06:38:23Z</time>
      </trkpt>
      <trkpt lat="42.7615" lon="-0.13393">
        <ele>3035</ele>
        <time>2013-06-15T06:38:24Z</time>
      </trkpt>
      <trkpt lat="42.76148" lon="-0.13389">
        <ele>3032</ele>
        <time>2013-06-15T06:38:36Z</time>
      </trkpt>
      <trkpt lat="42.76148" lon="-0.13389">
        <ele>3032</ele>
        <time>2013-06-15T06:38:37Z</time>
      </trkpt>
      <trkpt lat="42.76148" lon="-0.13389">
        <ele>3035</ele>
        <time>2013-06-15T06:38:38Z</time>
      </trkpt>
      <trkpt lat="42.76148" lon="-0.13389">
        <ele>3034</ele>
        <time>2013-06-15T06:38:39Z</time>
      </trkpt>
      <trkpt lat="42.76147" lon="-0.13388">
        <ele>3033</ele>
        <time>2013-06-15T06:38:42Z</time>
      </trkpt>
      <trkpt lat="42.76145" lon="-0.13386">
        <ele>3032</ele>
        <time>2013-06-15T06:38:47Z</time>
      </trkpt>
      <trkpt lat="42.76145" lon="-0.13386">
        <ele>3035</ele>
        <time>2013-06-15T06:38:48Z</time>
      </trkpt>
      <trkpt lat="42.76145" lon="-0.13386">
        <ele>3033</ele>
        <time>2013-06-15T06:38:49Z</time>
      </trkpt>
      <trkpt lat="42.76144" lon="-0.13386">
        <ele>3031</ele>
        <time>2013-06-15T06:38:51Z</time>
      </trkpt>
      <trkpt lat="42.76144" lon="-0.13386">
        <ele>3033</ele>
        <time>2013-06-15T06:38:54Z</time>
      </trkpt>
      <trkpt lat="42.76135" lon="-0.13388">
        <ele>3037</ele>
        <time>2013-06-15T06:39:03Z</time>
      </trkpt>
      <trkpt lat="42.76135" lon="-0.13389">
        <ele>3034</ele>
        <time>2013-06-15T06:39:05Z</time>
      </trkpt>
      <trkpt lat="42.76135" lon="-0.1339">
        <ele>3031</ele>
        <time>2013-06-15T06:39:07Z</time>
      </trkpt>
      <trkpt lat="42.76139" lon="-0.13391">
        <ele>3035</ele>
        <time>2013-06-15T06:39:10Z</time>
      </trkpt>
      <trkpt lat="42.76144" lon="-0.13394">
        <ele>3034</ele>
        <time>2013-06-15T06:39:15Z</time>
      </trkpt>
      <trkpt lat="42.76155" lon="-0.13396">
        <ele>3037</ele>
        <time>2013-06-15T06:39:24Z</time>
      </trkpt>
      <trkpt lat="42.76156" lon="-0.13396">
        <ele>3035</ele>
        <time>2013-06-15T06:39:26Z</time>
      </trkpt>
      <trkpt lat="42.76159" lon="-0.13396">
        <ele>3035</ele>
        <time>2013-06-15T06:39:30Z</time>
      </trkpt>
      <trkpt lat="42.76162" lon="-0.13397">
        <ele>3033</ele>
        <time>2013-06-15T06:39:34Z</time>
      </trkpt>
      <trkpt lat="42.76169" lon="-0.13397">
        <ele>3035</ele>
        <time>2013-06-15T06:39:42Z</time>
      </trkpt>
      <trkpt lat="42.76174" lon="-0.13397">
        <ele>3037</ele>
        <time>2013-06-15T06:39:49Z</time>
      </trkpt>
      <trkpt lat="42.76177" lon="-0.13397">
        <ele>3039</ele>
        <time>2013-06-15T06:39:55Z</time>
      </trkpt>
      <trkpt lat="42.7618" lon="-0.13395">
        <ele>3038</ele>
        <time>2013-06-15T06:40:02Z</time>
      </trkpt>
      <trkpt lat="42.76181" lon="-0.13396">
        <ele>3038</ele>
        <time>2013-06-15T06:40:13Z</time>
      </trkpt>
      <trkpt lat="42.76182" lon="-0.13397">
        <ele>3034</ele>
        <time>2013-06-15T06:40:18Z</time>
      </trkpt>
      <trkpt lat="42.76181" lon="-0.13398">
        <ele>3034</ele>
        <time>2013-06-15T06:40:26Z</time>
      </trkpt>
      <trkpt lat="42.7618" lon="-0.13397">
        <ele>3032</ele>
        <time>2013-06-15T06:40:31Z</time>
      </trkpt>
      <trkpt lat="42.76181" lon="-0.13396">
        <ele>3033</ele>
        <time>2013-06-15T06:40:45Z</time>
      </trkpt>
      <trkpt lat="42.76181" lon="-0.13397">
        <ele>3035</ele>
        <time>2013-06-15T06:40:48Z</time>
      </trkpt>
      <trkpt lat="42.76181" lon="-0.13397">
        <ele>3036</ele>
        <time>2013-06-15T06:40:50Z</time>
      </trkpt>
      <trkpt lat="42.76181" lon="-0.13398">
        <ele>3040</ele>
        <time>2013-06-15T06:40:52Z</time>
      </trkpt>
      <trkpt lat="42.76181" lon="-0.13398">
        <ele>3040</ele>
        <time>2013-06-15T06:40:53Z</time>
      </trkpt>
      <trkpt lat="42.76181" lon="-0.13398">
        <ele>3035</ele>
        <time>2013-06-15T06:40:54Z</time>
      </trkpt>
      <trkpt lat="42.76181" lon="-0.13399">
        <ele>3033</ele>
        <time>2013-06-15T06:40:59Z</time>
      </trkpt>
      <trkpt lat="42.7618" lon="-0.13401">
        <ele>3035</ele>
        <time>2013-06-15T06:41:02Z</time>
      </trkpt>
      <trkpt lat="42.76179" lon="-0.13404">
        <ele>3036</ele>
        <time>2013-06-15T06:41:06Z</time>
      </trkpt>
      <trkpt lat="42.76177" lon="-0.13409">
        <ele>3034</ele>
        <time>2013-06-15T06:41:13Z</time>
      </trkpt>
      <trkpt lat="42.76176" lon="-0.13409">
        <ele>3038</ele>
        <time>2013-06-15T06:41:17Z</time>
      </trkpt>
      <trkpt lat="42.76176" lon="-0.13409">
        <ele>3034</ele>
        <time>2013-06-15T06:41:19Z</time>
      </trkpt>
      <trkpt lat="42.76176" lon="-0.13409">
        <ele>3035</ele>
        <time>2013-06-15T06:41:20Z</time>
      </trkpt>
      <trkpt lat="42.76177" lon="-0.13409">
        <ele>3033</ele>
        <time>2013-06-15T06:41:23Z</time>
      </trkpt>
      <trkpt lat="42.76177" lon="-0.13409">
        <ele>3035</ele>
        <time>2013-06-15T06:41:26Z</time>
      </trkpt>
      <trkpt lat="42.76176" lon="-0.1341">
        <ele>3035</ele>
        <time>2013-06-15T06:41:34Z</time>
      </trkpt>
      <trkpt lat="42.76176" lon="-0.1341">
        <ele>3039</ele>
        <time>2013-06-15T06:41:35Z</time>
      </trkpt>
      <trkpt lat="42.76176" lon="-0.13412">
        <ele>3035</ele>
        <time>2013-06-15T06:41:44Z</time>
      </trkpt>
      <trkpt lat="42.76176" lon="-0.13412">
        <ele>3036</ele>
        <time>2013-06-15T06:41:45Z</time>
      </trkpt>
      <trkpt lat="42.76176" lon="-0.13414">
        <ele>3038</ele>
        <time>2013-06-15T06:41:47Z</time>
      </trkpt>
      <trkpt lat="42.76173" lon="-0.1342">
        <ele>3038</ele>
        <time>2013-06-15T06:41:55Z</time>
      </trkpt>
      <trkpt lat="42.76172" lon="-0.13424">
        <ele>3039</ele>
        <time>2013-06-15T06:42:02Z</time>
      </trkpt>
      <trkpt lat="42.76171" lon="-0.13429">
        <ele>3039</ele>
        <time>2013-06-15T06:42:08Z</time>
      </trkpt>
      <trkpt lat="42.7617" lon="-0.1343">
        <ele>3041</ele>
        <time>2013-06-15T06:42:11Z</time>
      </trkpt>
      <trkpt lat="42.7617" lon="-0.13432">
        <ele>3037</ele>
        <time>2013-06-15T06:42:13Z</time>
      </trkpt>
      <trkpt lat="42.76169" lon="-0.13432">
        <ele>3041</ele>
        <time>2013-06-15T06:42:15Z</time>
      </trkpt>
      <trkpt lat="42.76168" lon="-0.13432">
        <ele>3040</ele>
        <time>2013-06-15T06:42:16Z</time>
      </trkpt>
      <trkpt lat="42.76166" lon="-0.13438">
        <ele>3040</ele>
        <time>2013-06-15T06:42:25Z</time>
      </trkpt>
      <trkpt lat="42.76163" lon="-0.13443">
        <ele>3041</ele>
        <time>2013-06-15T06:42:32Z</time>
      </trkpt>
      <trkpt lat="42.76162" lon="-0.13444">
        <ele>3040</ele>
        <time>2013-06-15T06:42:34Z</time>
      </trkpt>
      <trkpt lat="42.7616" lon="-0.13446">
        <ele>3042</ele>
        <time>2013-06-15T06:42:37Z</time>
      </trkpt>
      <trkpt lat="42.7616" lon="-0.13447">
        <ele>3043</ele>
        <time>2013-06-15T06:42:40Z</time>
      </trkpt>
      <trkpt lat="42.76157" lon="-0.13449">
        <ele>3044</ele>
        <time>2013-06-15T06:42:48Z</time>
      </trkpt>
      <trkpt lat="42.76154" lon="-0.13453">
        <ele>3046</ele>
        <time>2013-06-15T06:42:55Z</time>
      </trkpt>
      <trkpt lat="42.76151" lon="-0.13455">
        <ele>3048</ele>
        <time>2013-06-15T06:43:02Z</time>
      </trkpt>
      <trkpt lat="42.7615" lon="-0.13457">
        <ele>3052</ele>
        <time>2013-06-15T06:43:06Z</time>
      </trkpt>
      <trkpt lat="42.76151" lon="-0.13457">
        <ele>3050</ele>
        <time>2013-06-15T06:43:20Z</time>
      </trkpt>
      <trkpt lat="42.76151" lon="-0.13458">
        <ele>3055</ele>
        <time>2013-06-15T06:43:25Z</time>
      </trkpt>
      <trkpt lat="42.76152" lon="-0.13458">
        <ele>3059</ele>
        <time>2013-06-15T06:43:26Z</time>
      </trkpt>
      <trkpt lat="42.76152" lon="-0.13459">
        <ele>3053</ele>
        <time>2013-06-15T06:43:27Z</time>
      </trkpt>
      <trkpt lat="42.76152" lon="-0.13459">
        <ele>3056</ele>
        <time>2013-06-15T06:43:28Z</time>
      </trkpt>
      <trkpt lat="42.76152" lon="-0.13459">
        <ele>3052</ele>
        <time>2013-06-15T06:43:30Z</time>
      </trkpt>
      <trkpt lat="42.76152" lon="-0.13459">
        <ele>3052</ele>
        <time>2013-06-15T06:43:31Z</time>
      </trkpt>
      <trkpt lat="42.76153" lon="-0.13461">
        <ele>3051</ele>
        <time>2013-06-15T06:43:40Z</time>
      </trkpt>
      <trkpt lat="42.76156" lon="-0.13465">
        <ele>3055</ele>
        <time>2013-06-15T06:43:52Z</time>
      </trkpt>
      <trkpt lat="42.76157" lon="-0.13465">
        <ele>3055</ele>
        <time>2013-06-15T06:43:57Z</time>
      </trkpt>
      <trkpt lat="42.7616" lon="-0.13467">
        <ele>3054</ele>
        <time>2013-06-15T06:44:06Z</time>
      </trkpt>
      <trkpt lat="42.76163" lon="-0.1347">
        <ele>3055</ele>
        <time>2013-06-15T06:44:11Z</time>
      </trkpt>
      <trkpt lat="42.76167" lon="-0.13473">
        <ele>3055</ele>
        <time>2013-06-15T06:44:18Z</time>
      </trkpt>
      <trkpt lat="42.7617" lon="-0.13476">
        <ele>3057</ele>
        <time>2013-06-15T06:44:25Z</time>
      </trkpt>
      <trkpt lat="42.76174" lon="-0.1348">
        <ele>3058</ele>
        <time>2013-06-15T06:44:34Z</time>
      </trkpt>
      <trkpt lat="42.76179" lon="-0.13482">
        <ele>3059</ele>
        <time>2013-06-15T06:44:43Z</time>
      </trkpt>
      <trkpt lat="42.76184" lon="-0.13483">
        <ele>3060</ele>
        <time>2013-06-15T06:44:53Z</time>
      </trkpt>
      <trkpt lat="42.7619" lon="-0.13486">
        <ele>3061</ele>
        <time>2013-06-15T06:45:03Z</time>
      </trkpt>
      <trkpt lat="42.76194" lon="-0.13488">
        <ele>3062</ele>
        <time>2013-06-15T06:45:10Z</time>
      </trkpt>
      <trkpt lat="42.76192" lon="-0.13489">
        <ele>3061</ele>
        <time>2013-06-15T06:45:21Z</time>
      </trkpt>
      <trkpt lat="42.76193" lon="-0.13489">
        <ele>3061</ele>
        <time>2013-06-15T06:45:31Z</time>
      </trkpt>
      <trkpt lat="42.76194" lon="-0.13491">
        <ele>3063</ele>
        <time>2013-06-15T06:45:45Z</time>
      </trkpt>
      <trkpt lat="42.76195" lon="-0.13491">
        <ele>3063</ele>
        <time>2013-06-15T06:45:58Z</time>
      </trkpt>
      <trkpt lat="42.76195" lon="-0.1349">
        <ele>3062</ele>
        <time>2013-06-15T06:46:09Z</time>
      </trkpt>
      <trkpt lat="42.76192" lon="-0.13494">
        <ele>3063</ele>
        <time>2013-06-15T06:46:18Z</time>
      </trkpt>
      <trkpt lat="42.76189" lon="-0.135">
        <ele>3065</ele>
        <time>2013-06-15T06:46:27Z</time>
      </trkpt>
      <trkpt lat="42.76187" lon="-0.13506">
        <ele>3065</ele>
        <time>2013-06-15T06:46:36Z</time>
      </trkpt>
      <trkpt lat="42.76183" lon="-0.13514">
        <ele>3066</ele>
        <time>2013-06-15T06:46:45Z</time>
      </trkpt>
      <trkpt lat="42.7618" lon="-0.13518">
        <ele>3069</ele>
        <time>2013-06-15T06:46:52Z</time>
      </trkpt>
      <trkpt lat="42.76175" lon="-0.13523">
        <ele>3068</ele>
        <time>2013-06-15T06:47:00Z</time>
      </trkpt>
      <trkpt lat="42.76174" lon="-0.13522">
        <ele>3070</ele>
        <time>2013-06-15T06:47:04Z</time>
      </trkpt>
      <trkpt lat="42.76172" lon="-0.13525">
        <ele>3071</ele>
        <time>2013-06-15T06:47:10Z</time>
      </trkpt>
      <trkpt lat="42.76169" lon="-0.13528">
        <ele>3070</ele>
        <time>2013-06-15T06:47:17Z</time>
      </trkpt>
      <trkpt lat="42.76166" lon="-0.1353">
        <ele>3073</ele>
        <time>2013-06-15T06:47:25Z</time>
      </trkpt>
      <trkpt lat="42.76165" lon="-0.13531">
        <ele>3074</ele>
        <time>2013-06-15T06:47:30Z</time>
      </trkpt>
      <trkpt lat="42.76166" lon="-0.13532">
        <ele>3074</ele>
        <time>2013-06-15T06:47:40Z</time>
      </trkpt>
      <trkpt lat="42.76169" lon="-0.13535">
        <ele>3075</ele>
        <time>2013-06-15T06:47:47Z</time>
      </trkpt>
      <trkpt lat="42.76171" lon="-0.13538">
        <ele>3076</ele>
        <time>2013-06-15T06:47:55Z</time>
      </trkpt>
      <trkpt lat="42.76176" lon="-0.13543">
        <ele>3077</ele>
        <time>2013-06-15T06:48:02Z</time>
      </trkpt>
      <trkpt lat="42.76178" lon="-0.13545">
        <ele>3079</ele>
        <time>2013-06-15T06:48:05Z</time>
      </trkpt>
      <trkpt lat="42.7618" lon="-0.13547">
        <ele>3080</ele>
        <time>2013-06-15T06:48:09Z</time>
      </trkpt>
      <trkpt lat="42.76183" lon="-0.13552">
        <ele>3081</ele>
        <time>2013-06-15T06:48:18Z</time>
      </trkpt>
      <trkpt lat="42.76184" lon="-0.13554">
        <ele>3085</ele>
        <time>2013-06-15T06:48:21Z</time>
      </trkpt>
      <trkpt lat="42.76186" lon="-0.13555">
        <ele>3081</ele>
        <time>2013-06-15T06:48:23Z</time>
      </trkpt>
      <trkpt lat="42.76187" lon="-0.13555">
        <ele>3081</ele>
        <time>2013-06-15T06:48:24Z</time>
      </trkpt>
      <trkpt lat="42.7619" lon="-0.13559">
        <ele>3084</ele>
        <time>2013-06-15T06:48:30Z</time>
      </trkpt>
      <trkpt lat="42.76191" lon="-0.13559">
        <ele>3084</ele>
        <time>2013-06-15T06:48:31Z</time>
      </trkpt>
      <trkpt lat="42.76192" lon="-0.13561">
        <ele>3085</ele>
        <time>2013-06-15T06:48:35Z</time>
      </trkpt>
      <trkpt lat="42.76196" lon="-0.13564">
        <ele>3084</ele>
        <time>2013-06-15T06:48:43Z</time>
      </trkpt>
      <trkpt lat="42.76197" lon="-0.13564">
        <ele>3085</ele>
        <time>2013-06-15T06:48:45Z</time>
      </trkpt>
      <trkpt lat="42.76202" lon="-0.13565">
        <ele>3085</ele>
        <time>2013-06-15T06:48:56Z</time>
      </trkpt>
      <trkpt lat="42.76204" lon="-0.13567">
        <ele>3087</ele>
        <time>2013-06-15T06:49:05Z</time>
      </trkpt>
      <trkpt lat="42.76205" lon="-0.13567">
        <ele>3087</ele>
        <time>2013-06-15T06:49:19Z</time>
      </trkpt>
      <trkpt lat="42.76205" lon="-0.13569">
        <ele>3087</ele>
        <time>2013-06-15T06:49:33Z</time>
      </trkpt>
      <trkpt lat="42.76206" lon="-0.1357">
        <ele>3086</ele>
        <time>2013-06-15T06:49:43Z</time>
      </trkpt>
      <trkpt lat="42.76204" lon="-0.1357">
        <ele>3086</ele>
        <time>2013-06-15T06:49:55Z</time>
      </trkpt>
      <trkpt lat="42.76203" lon="-0.13571">
        <ele>3087</ele>
        <time>2013-06-15T06:50:13Z</time>
      </trkpt>
      <trkpt lat="42.76203" lon="-0.13571">
        <ele>3085</ele>
        <time>2013-06-15T06:50:24Z</time>
      </trkpt>
      <trkpt lat="42.76203" lon="-0.1357">
        <ele>3087</ele>
        <time>2013-06-15T06:50:38Z</time>
      </trkpt>
      <trkpt lat="42.76204" lon="-0.1357">
        <ele>3087</ele>
        <time>2013-06-15T06:50:59Z</time>
      </trkpt>
      <trkpt lat="42.76203" lon="-0.1357">
        <ele>3085</ele>
        <time>2013-06-15T06:51:13Z</time>
      </trkpt>
      <trkpt lat="42.76203" lon="-0.13568">
        <ele>3086</ele>
        <time>2013-06-15T06:51:31Z</time>
      </trkpt>
      <trkpt lat="42.76203" lon="-0.13569">
        <ele>3085</ele>
        <time>2013-06-15T06:51:43Z</time>
      </trkpt>
      <trkpt lat="42.76204" lon="-0.13571">
        <ele>3086</ele>
        <time>2013-06-15T06:51:57Z</time>
      </trkpt>
      <trkpt lat="42.76204" lon="-0.13572">
        <ele>3087</ele>
        <time>2013-06-15T06:52:12Z</time>
      </trkpt>
      <trkpt lat="42.76204" lon="-0.1357">
        <ele>3086</ele>
        <time>2013-06-15T06:52:27Z</time>
      </trkpt>
      <trkpt lat="42.76204" lon="-0.13569">
        <ele>3085</ele>
        <time>2013-06-15T06:52:38Z</time>
      </trkpt>
      <trkpt lat="42.76203" lon="-0.13569">
        <ele>3089</ele>
        <time>2013-06-15T06:52:50Z</time>
      </trkpt>
      <trkpt lat="42.76204" lon="-0.13569">
        <ele>3086</ele>
        <time>2013-06-15T06:52:58Z</time>
      </trkpt>
      <trkpt lat="42.76203" lon="-0.13568">
        <ele>3086</ele>
        <time>2013-06-15T06:53:14Z</time>
      </trkpt>
      <trkpt lat="42.76204" lon="-0.13567">
        <ele>3087</ele>
        <time>2013-06-15T06:53:25Z</time>
      </trkpt>
      <trkpt lat="42.76205" lon="-0.13567">
        <ele>3086</ele>
        <time>2013-06-15T06:53:37Z</time>
      </trkpt>
      <trkpt lat="42.76203" lon="-0.13571">
        <ele>3087</ele>
        <time>2013-06-15T06:53:48Z</time>
      </trkpt>
      <trkpt lat="42.76202" lon="-0.13572">
        <ele>3087</ele>
        <time>2013-06-15T06:53:54Z</time>
      </trkpt>
      <trkpt lat="42.76199" lon="-0.13575">
        <ele>3088</ele>
        <time>2013-06-15T06:54:00Z</time>
      </trkpt>
      <trkpt lat="42.76198" lon="-0.13576">
        <ele>3089</ele>
        <time>2013-06-15T06:54:02Z</time>
      </trkpt>
      <trkpt lat="42.76194" lon="-0.1358">
        <ele>3091</ele>
        <time>2013-06-15T06:54:12Z</time>
      </trkpt>
      <trkpt lat="42.76189" lon="-0.13585">
        <ele>3091</ele>
        <time>2013-06-15T06:54:21Z</time>
      </trkpt>
      <trkpt lat="42.76184" lon="-0.13587">
        <ele>3092</ele>
        <time>2013-06-15T06:54:31Z</time>
      </trkpt>
      <trkpt lat="42.76182" lon="-0.13589">
        <ele>3095</ele>
        <time>2013-06-15T06:54:36Z</time>
      </trkpt>
      <trkpt lat="42.76178" lon="-0.1359">
        <ele>3094</ele>
        <time>2013-06-15T06:54:43Z</time>
      </trkpt>
      <trkpt lat="42.76176" lon="-0.13593">
        <ele>3097</ele>
        <time>2013-06-15T06:54:50Z</time>
      </trkpt>
      <trkpt lat="42.76177" lon="-0.13593">
        <ele>3097</ele>
        <time>2013-06-15T06:54:51Z</time>
      </trkpt>
      <trkpt lat="42.76178" lon="-0.13595">
        <ele>3099</ele>
        <time>2013-06-15T06:55:01Z</time>
      </trkpt>
      <trkpt lat="42.76179" lon="-0.13595">
        <ele>3099</ele>
        <time>2013-06-15T06:55:02Z</time>
      </trkpt>
      <trkpt lat="42.76183" lon="-0.13598">
        <ele>3099</ele>
        <time>2013-06-15T06:55:09Z</time>
      </trkpt>
      <trkpt lat="42.76185" lon="-0.13599">
        <ele>3102</ele>
        <time>2013-06-15T06:55:13Z</time>
      </trkpt>
      <trkpt lat="42.76189" lon="-0.13601">
        <ele>3100</ele>
        <time>2013-06-15T06:55:21Z</time>
      </trkpt>
      <trkpt lat="42.76191" lon="-0.13603">
        <ele>3101</ele>
        <time>2013-06-15T06:55:25Z</time>
      </trkpt>
      <trkpt lat="42.76193" lon="-0.13603">
        <ele>3104</ele>
        <time>2013-06-15T06:55:29Z</time>
      </trkpt>
      <trkpt lat="42.76196" lon="-0.13604">
        <ele>3103</ele>
        <time>2013-06-15T06:55:36Z</time>
      </trkpt>
      <trkpt lat="42.762" lon="-0.13602">
        <ele>3103</ele>
        <time>2013-06-15T06:55:42Z</time>
      </trkpt>
      <trkpt lat="42.76201" lon="-0.13604">
        <ele>3104</ele>
        <time>2013-06-15T06:55:48Z</time>
      </trkpt>
      <trkpt lat="42.76195" lon="-0.13607">
        <ele>3104</ele>
        <time>2013-06-15T06:56:00Z</time>
      </trkpt>
      <trkpt lat="42.76192" lon="-0.13609">
        <ele>3106</ele>
        <time>2013-06-15T06:56:09Z</time>
      </trkpt>
      <trkpt lat="42.76188" lon="-0.13611">
        <ele>3107</ele>
        <time>2013-06-15T06:56:17Z</time>
      </trkpt>
      <trkpt lat="42.76187" lon="-0.13612">
        <ele>3109</ele>
        <time>2013-06-15T06:56:19Z</time>
      </trkpt>
      <trkpt lat="42.76184" lon="-0.13615">
        <ele>3110</ele>
        <time>2013-06-15T06:56:28Z</time>
      </trkpt>
      <trkpt lat="42.76184" lon="-0.13617">
        <ele>3111</ele>
        <time>2013-06-15T06:56:32Z</time>
      </trkpt>
      <trkpt lat="42.76186" lon="-0.13618">
        <ele>3110</ele>
        <time>2013-06-15T06:56:41Z</time>
      </trkpt>
      <trkpt lat="42.7619" lon="-0.13618">
        <ele>3111</ele>
        <time>2013-06-15T06:56:51Z</time>
      </trkpt>
      <trkpt lat="42.76193" lon="-0.13619">
        <ele>3112</ele>
        <time>2013-06-15T06:56:59Z</time>
      </trkpt>
      <trkpt lat="42.76197" lon="-0.13619">
        <ele>3113</ele>
        <time>2013-06-15T06:57:06Z</time>
      </trkpt>
      <trkpt lat="42.76201" lon="-0.13625">
        <ele>3083</ele>
      </trkpt>
      <trkpt lat="42.76222" lon="-0.13607">
        <ele>3087</ele>
      </trkpt>
      <trkpt lat="42.76242" lon="-0.13599">
        <ele>3091</ele>
      </trkpt>
      <trkpt lat="42.76274" lon="-0.13582">
        <ele>3094</ele>
      </trkpt>
      <trkpt lat="42.76291" lon="-0.13561">
        <ele>3093</ele>
      </trkpt>
      <trkpt lat="42.76293" lon="-0.13562">
        <ele>3093</ele>
      </trkpt>
      <trkpt lat="42.76277" lon="-0.13579">
        <ele>3094</ele>
      </trkpt>
      <trkpt lat="42.76204" lon="-0.13619">
        <ele>3084</ele>
      </trkpt>
      <trkpt lat="42.76197" lon="-0.13619">
        <ele>3113</ele>
        <time>2013-06-15T06:57:06Z</time>
      </trkpt>
      <trkpt lat="42.762" lon="-0.13621">
        <ele>3114</ele>
        <time>2013-06-15T06:57:14Z</time>
      </trkpt>
      <trkpt lat="42.76203" lon="-0.13621">
        <ele>3114</ele>
        <time>2013-06-15T06:57:24Z</time>
      </trkpt>
      <trkpt lat="42.76204" lon="-0.13621">
        <ele>3114</ele>
        <time>2013-06-15T06:57:34Z</time>
      </trkpt>
      <trkpt lat="42.76201" lon="-0.13619">
        <ele>3115</ele>
        <time>2013-06-15T06:57:46Z</time>
      </trkpt>
      <trkpt lat="42.76202" lon="-0.13618">
        <ele>3115</ele>
        <time>2013-06-15T06:58:02Z</time>
      </trkpt>
      <trkpt lat="42.76202" lon="-0.13619">
        <ele>3115</ele>
        <time>2013-06-15T06:58:13Z</time>
      </trkpt>
      <trkpt lat="42.76202" lon="-0.1362">
        <ele>3115</ele>
        <time>2013-06-15T06:58:24Z</time>
      </trkpt>
      <trkpt lat="42.76201" lon="-0.13618">
        <ele>3115</ele>
        <time>2013-06-15T06:58:30Z</time>
      </trkpt>
      <trkpt lat="42.762" lon="-0.13618">
        <ele>3114</ele>
        <time>2013-06-15T06:58:40Z</time>
      </trkpt>
      <trkpt lat="42.76199" lon="-0.13621">
        <ele>3115</ele>
        <time>2013-06-15T06:58:46Z</time>
      </trkpt>
      <trkpt lat="42.76199" lon="-0.13622">
        <ele>3114</ele>
        <time>2013-06-15T06:58:57Z</time>
      </trkpt>
      <trkpt lat="42.76201" lon="-0.13622">
        <ele>3115</ele>
        <time>2013-06-15T06:59:09Z</time>
      </trkpt>
      <trkpt lat="42.762" lon="-0.13622">
        <ele>3117</ele>
        <time>2013-06-15T06:59:14Z</time>
      </trkpt>
      <trkpt lat="42.76198" lon="-0.13621">
        <ele>3117</ele>
        <time>2013-06-15T06:59:23Z</time>
      </trkpt>
      <trkpt lat="42.76199" lon="-0.13623">
        <ele>3116</ele>
        <time>2013-06-15T06:59:34Z</time>
      </trkpt>
      <trkpt lat="42.76199" lon="-0.13621">
        <ele>3113</ele>
        <time>2013-06-15T06:59:43Z</time>
      </trkpt>
      <trkpt lat="42.76199" lon="-0.13621">
        <ele>3114</ele>
        <time>2013-06-15T06:59:59Z</time>
      </trkpt>
      <trkpt lat="42.76198" lon="-0.1362">
        <ele>3113</ele>
        <time>2013-06-15T07:00:16Z</time>
      </trkpt>
      <trkpt lat="42.76198" lon="-0.1362">
        <ele>3113</ele>
        <time>2013-06-15T07:00:45Z</time>
      </trkpt>
      <trkpt lat="42.76197" lon="-0.13619">
        <ele>3114</ele>
        <time>2013-06-15T07:01:15Z</time>
      </trkpt>
      <trkpt lat="42.76197" lon="-0.13619">
        <ele>3115</ele>
        <time>2013-06-15T07:01:36Z</time>
      </trkpt>
      <trkpt lat="42.76198" lon="-0.1362">
        <ele>3114</ele>
        <time>2013-06-15T07:02:01Z</time>
      </trkpt>
      <trkpt lat="42.76199" lon="-0.1362">
        <ele>3116</ele>
        <time>2013-06-15T07:02:17Z</time>
      </trkpt>
      <trkpt lat="42.76199" lon="-0.1362">
        <ele>3116</ele>
        <time>2013-06-15T07:02:33Z</time>
      </trkpt>
      <trkpt lat="42.76198" lon="-0.1362">
        <ele>3114</ele>
        <time>2013-06-15T07:02:57Z</time>
      </trkpt>
      <trkpt lat="42.76197" lon="-0.13619">
        <ele>3115</ele>
        <time>2013-06-15T07:03:14Z</time>
      </trkpt>
      <trkpt lat="42.76198" lon="-0.13619">
        <ele>3116</ele>
        <time>2013-06-15T07:03:36Z</time>
      </trkpt>
      <trkpt lat="42.76199" lon="-0.1362">
        <ele>3115</ele>
        <time>2013-06-15T07:04:02Z</time>
      </trkpt>
      <trkpt lat="42.76199" lon="-0.1362">
        <ele>3113</ele>
        <time>2013-06-15T07:04:24Z</time>
      </trkpt>
      <trkpt lat="42.76198" lon="-0.1362">
        <ele>3114</ele>
        <time>2013-06-15T07:04:42Z</time>
      </trkpt>
      <trkpt lat="42.76199" lon="-0.1362">
        <ele>3114</ele>
        <time>2013-06-15T07:05:00Z</time>
      </trkpt>
      <trkpt lat="42.76198" lon="-0.13619">
        <ele>3114</ele>
        <time>2013-06-15T07:05:18Z</time>
      </trkpt>
      <trkpt lat="42.76198" lon="-0.13619">
        <ele>3114</ele>
        <time>2013-06-15T07:05:37Z</time>
      </trkpt>
      <trkpt lat="42.76199" lon="-0.1362">
        <ele>3115</ele>
        <time>2013-06-15T07:05:53Z</time>
      </trkpt>
      <trkpt lat="42.76199" lon="-0.13621">
        <ele>3114</ele>
        <time>2013-06-15T07:06:15Z</time>
      </trkpt>
      <trkpt lat="42.76199" lon="-0.1362">
        <ele>3114</ele>
        <time>2013-06-15T07:06:32Z</time>
      </trkpt>
      <trkpt lat="42.76198" lon="-0.1362">
        <ele>3113</ele>
        <time>2013-06-15T07:06:46Z</time>
      </trkpt>
      <trkpt lat="42.76199" lon="-0.13619">
        <ele>3114</ele>
        <time>2013-06-15T07:07:02Z</time>
      </trkpt>
      <trkpt lat="42.76199" lon="-0.1362">
        <ele>3114</ele>
        <time>2013-06-15T07:07:23Z</time>
      </trkpt>
      <trkpt lat="42.76199" lon="-0.1362">
        <ele>3114</ele>
        <time>2013-06-15T07:07:44Z</time>
      </trkpt>
      <trkpt lat="42.76199" lon="-0.1362">
        <ele>3114</ele>
        <time>2013-06-15T07:08:01Z</time>
      </trkpt>
      <trkpt lat="42.76199" lon="-0.1362">
        <ele>3115</ele>
        <time>2013-06-15T07:08:13Z</time>
      </trkpt>
      <trkpt lat="42.76199" lon="-0.13618">
        <ele>3114</ele>
        <time>2013-06-15T07:08:29Z</time>
      </trkpt>
      <trkpt lat="42.76198" lon="-0.13619">
        <ele>3115</ele>
        <time>2013-06-15T07:08:45Z</time>
      </trkpt>
      <trkpt lat="42.76199" lon="-0.1362">
        <ele>3114</ele>
        <time>2013-06-15T07:09:05Z</time>
      </trkpt>
      <trkpt lat="42.76199" lon="-0.13619">
        <ele>3116</ele>
        <time>2013-06-15T07:09:26Z</time>
      </trkpt>
      <trkpt lat="42.76199" lon="-0.13619">
        <ele>3115</ele>
        <time>2013-06-15T07:09:30Z</time>
      </trkpt>
      <trkpt lat="42.76199" lon="-0.13619">
        <ele>3114</ele>
        <time>2013-06-15T07:10:01Z</time>
      </trkpt>
      <trkpt lat="42.76199" lon="-0.1362">
        <ele>3116</ele>
        <time>2013-06-15T07:10:27Z</time>
      </trkpt>
      <trkpt lat="42.76199" lon="-0.13618">
        <ele>3115</ele>
        <time>2013-06-15T07:10:51Z</time>
      </trkpt>
      <trkpt lat="42.76199" lon="-0.13619">
        <ele>3115</ele>
        <time>2013-06-15T07:11:03Z</time>
      </trkpt>
      <trkpt lat="42.76198" lon="-0.13619">
        <ele>3115</ele>
        <time>2013-06-15T07:11:19Z</time>
      </trkpt>
      <trkpt lat="42.76198" lon="-0.1362">
        <ele>3116</ele>
        <time>2013-06-15T07:11:29Z</time>
      </trkpt>
      <trkpt lat="42.76199" lon="-0.13621">
        <ele>3115</ele>
        <time>2013-06-15T07:11:45Z</time>
      </trkpt>
      <trkpt lat="42.76199" lon="-0.13621">
        <ele>3115</ele>
        <time>2013-06-15T07:11:55Z</time>
      </trkpt>
      <trkpt lat="42.76199" lon="-0.13621">
        <ele>3115</ele>
        <time>2013-06-15T07:12:09Z</time>
      </trkpt>
      <trkpt lat="42.76199" lon="-0.1362">
        <ele>3116</ele>
        <time>2013-06-15T07:12:24Z</time>
      </trkpt>
      <trkpt lat="42.76199" lon="-0.1362">
        <ele>3114</ele>
        <time>2013-06-15T07:12:28Z</time>
      </trkpt>
      <trkpt lat="42.762" lon="-0.1362">
        <ele>3115</ele>
        <time>2013-06-15T07:12:53Z</time>
      </trkpt>
      <trkpt lat="42.762" lon="-0.1362">
        <ele>3116</ele>
        <time>2013-06-15T07:13:20Z</time>
      </trkpt>
      <trkpt lat="42.762" lon="-0.1362">
        <ele>3116</ele>
        <time>2013-06-15T07:13:45Z</time>
      </trkpt>
      <trkpt lat="42.762" lon="-0.1362">
        <ele>3116</ele>
        <time>2013-06-15T07:14:06Z</time>
      </trkpt>
      <trkpt lat="42.762" lon="-0.1362">
        <ele>3115</ele>
        <time>2013-06-15T07:14:24Z</time>
      </trkpt>
      <trkpt lat="42.762" lon="-0.1362">
        <ele>3115</ele>
        <time>2013-06-15T07:14:48Z</time>
      </trkpt>
      <trkpt lat="42.762" lon="-0.1362">
        <ele>3115</ele>
        <time>2013-06-15T07:15:08Z</time>
      </trkpt>
      <trkpt lat="42.762" lon="-0.1362">
        <ele>3114</ele>
        <time>2013-06-15T07:15:32Z</time>
      </trkpt>
      <trkpt lat="42.762" lon="-0.1362">
        <ele>3115</ele>
        <time>2013-06-15T07:15:50Z</time>
      </trkpt>
      <trkpt lat="42.762" lon="-0.1362">
        <ele>3115</ele>
        <time>2013-06-15T07:16:09Z</time>
      </trkpt>
      <trkpt lat="42.762" lon="-0.1362">
        <ele>3115</ele>
        <time>2013-06-15T07:16:33Z</time>
      </trkpt>
      <trkpt lat="42.762" lon="-0.1362">
        <ele>3116</ele>
        <time>2013-06-15T07:16:53Z</time>
      </trkpt>
      <trkpt lat="42.762" lon="-0.1362">
        <ele>3116</ele>
        <time>2013-06-15T07:17:13Z</time>
      </trkpt>
      <trkpt lat="42.762" lon="-0.1362">
        <ele>3116</ele>
        <time>2013-06-15T07:17:36Z</time>
      </trkpt>
      <trkpt lat="42.762" lon="-0.1362">
        <ele>3117</ele>
        <time>2013-06-15T07:17:56Z</time>
      </trkpt>
      <trkpt lat="42.76201" lon="-0.13621">
        <ele>3117</ele>
        <time>2013-06-15T07:18:17Z</time>
      </trkpt>
      <trkpt lat="42.76201" lon="-0.1362">
        <ele>3116</ele>
        <time>2013-06-15T07:18:43Z</time>
      </trkpt>
      <trkpt lat="42.76201" lon="-0.13621">
        <ele>3116</ele>
        <time>2013-06-15T07:18:58Z</time>
      </trkpt>
      <trkpt lat="42.762" lon="-0.13622">
        <ele>3115</ele>
        <time>2013-06-15T07:19:23Z</time>
      </trkpt>
      <trkpt lat="42.762" lon="-0.13622">
        <ele>3115</ele>
        <time>2013-06-15T07:19:49Z</time>
      </trkpt>
      <trkpt lat="42.762" lon="-0.13622">
        <ele>3117</ele>
        <time>2013-06-15T07:20:16Z</time>
      </trkpt>
      <trkpt lat="42.76199" lon="-0.13621">
        <ele>3117</ele>
        <time>2013-06-15T07:20:23Z</time>
      </trkpt>
      <trkpt lat="42.76199" lon="-0.13621">
        <ele>3117</ele>
        <time>2013-06-15T07:20:24Z</time>
      </trkpt>
      <trkpt lat="42.76199" lon="-0.1362">
        <ele>3117</ele>
        <time>2013-06-15T07:20:32Z</time>
      </trkpt>
      <trkpt lat="42.76199" lon="-0.13619">
        <ele>3117</ele>
        <time>2013-06-15T07:20:42Z</time>
      </trkpt>
      <trkpt lat="42.76201" lon="-0.13619">
        <ele>3116</ele>
        <time>2013-06-15T07:20:55Z</time>
      </trkpt>
      <trkpt lat="42.762" lon="-0.13619">
        <ele>3118</ele>
        <time>2013-06-15T07:21:06Z</time>
      </trkpt>
      <trkpt lat="42.762" lon="-0.13618">
        <ele>3116</ele>
        <time>2013-06-15T07:21:12Z</time>
      </trkpt>
      <trkpt lat="42.76199" lon="-0.1362">
        <ele>3117</ele>
        <time>2013-06-15T07:21:26Z</time>
      </trkpt>
      <trkpt lat="42.76198" lon="-0.13621">
        <ele>3117</ele>
        <time>2013-06-15T07:21:40Z</time>
      </trkpt>
      <trkpt lat="42.76199" lon="-0.13619">
        <ele>3117</ele>
        <time>2013-06-15T07:21:51Z</time>
      </trkpt>
      <trkpt lat="42.762" lon="-0.1362">
        <ele>3116</ele>
        <time>2013-06-15T07:22:00Z</time>
      </trkpt>
      <trkpt lat="42.76201" lon="-0.1362">
        <ele>3117</ele>
        <time>2013-06-15T07:22:14Z</time>
      </trkpt>
      <trkpt lat="42.76201" lon="-0.1362">
        <ele>3117</ele>
        <time>2013-06-15T07:22:23Z</time>
      </trkpt>
      <trkpt lat="42.762" lon="-0.13621">
        <ele>3116</ele>
        <time>2013-06-15T07:22:47Z</time>
      </trkpt>
      <trkpt lat="42.76201" lon="-0.13621">
        <ele>3117</ele>
        <time>2013-06-15T07:23:03Z</time>
      </trkpt>
      <trkpt lat="42.76201" lon="-0.1362">
        <ele>3117</ele>
        <time>2013-06-15T07:23:16Z</time>
      </trkpt>
      <trkpt lat="42.76199" lon="-0.13619">
        <ele>3118</ele>
        <time>2013-06-15T07:23:37Z</time>
      </trkpt>
      <trkpt lat="42.76201" lon="-0.1362">
        <ele>3117</ele>
        <time>2013-06-15T07:23:48Z</time>
      </trkpt>
      <trkpt lat="42.762" lon="-0.1362">
        <ele>3118</ele>
        <time>2013-06-15T07:24:02Z</time>
      </trkpt>
      <trkpt lat="42.76198" lon="-0.13621">
        <ele>3117</ele>
        <time>2013-06-15T07:24:11Z</time>
      </trkpt>
      <trkpt lat="42.76197" lon="-0.13621">
        <ele>3117</ele>
        <time>2013-06-15T07:24:23Z</time>
      </trkpt>
      <trkpt lat="42.76198" lon="-0.13621">
        <ele>3116</ele>
        <time>2013-06-15T07:24:37Z</time>
      </trkpt>
      <trkpt lat="42.76198" lon="-0.13622">
        <ele>3118</ele>
        <time>2013-06-15T07:24:45Z</time>
      </trkpt>
      <trkpt lat="42.76197" lon="-0.13621">
        <ele>3117</ele>
        <time>2013-06-15T07:24:59Z</time>
      </trkpt>
      <trkpt lat="42.76199" lon="-0.13623">
        <ele>3117</ele>
        <time>2013-06-15T07:25:09Z</time>
      </trkpt>
      <trkpt lat="42.762" lon="-0.13624">
        <ele>3116</ele>
        <time>2013-06-15T07:25:18Z</time>
      </trkpt>
      <trkpt lat="42.762" lon="-0.13623">
        <ele>3115</ele>
        <time>2013-06-15T07:25:20Z</time>
      </trkpt>
      <trkpt lat="42.762" lon="-0.13622">
        <ele>3117</ele>
        <time>2013-06-15T07:25:33Z</time>
      </trkpt>
      <trkpt lat="42.76199" lon="-0.13623">
        <ele>3116</ele>
        <time>2013-06-15T07:25:44Z</time>
      </trkpt>
      <trkpt lat="42.76199" lon="-0.13622">
        <ele>3117</ele>
        <time>2013-06-15T07:25:55Z</time>
      </trkpt>
      <trkpt lat="42.76199" lon="-0.13622">
        <ele>3115</ele>
        <time>2013-06-15T07:25:57Z</time>
      </trkpt>
      <trkpt lat="42.762" lon="-0.13623">
        <ele>3117</ele>
        <time>2013-06-15T07:26:07Z</time>
      </trkpt>
      <trkpt lat="42.762" lon="-0.13623">
        <ele>3118</ele>
        <time>2013-06-15T07:26:20Z</time>
      </trkpt>
      <trkpt lat="42.762" lon="-0.13623">
        <ele>3118</ele>
        <time>2013-06-15T07:26:39Z</time>
      </trkpt>
      <trkpt lat="42.76201" lon="-0.13623">
        <ele>3116</ele>
        <time>2013-06-15T07:26:42Z</time>
      </trkpt>
      <trkpt lat="42.762" lon="-0.13622">
        <ele>3116</ele>
        <time>2013-06-15T07:26:55Z</time>
      </trkpt>
      <trkpt lat="42.76199" lon="-0.13622">
        <ele>3117</ele>
        <time>2013-06-15T07:27:16Z</time>
      </trkpt>
      <trkpt lat="42.76199" lon="-0.13623">
        <ele>3117</ele>
        <time>2013-06-15T07:27:33Z</time>
      </trkpt>
      <trkpt lat="42.76199" lon="-0.13622">
        <ele>3117</ele>
        <time>2013-06-15T07:27:43Z</time>
      </trkpt>
      <trkpt lat="42.762" lon="-0.13623">
        <ele>3117</ele>
        <time>2013-06-15T07:27:54Z</time>
      </trkpt>
      <trkpt lat="42.76199" lon="-0.13622">
        <ele>3117</ele>
        <time>2013-06-15T07:28:15Z</time>
      </trkpt>
      <trkpt lat="42.76198" lon="-0.1362">
        <ele>3117</ele>
        <time>2013-06-15T07:28:22Z</time>
      </trkpt>
      <trkpt lat="42.76196" lon="-0.13618">
        <ele>3116</ele>
        <time>2013-06-15T07:28:25Z</time>
      </trkpt>
      <trkpt lat="42.7619" lon="-0.13611">
        <ele>3112</ele>
        <time>2013-06-15T07:28:31Z</time>
      </trkpt>
      <trkpt lat="42.76188" lon="-0.13607">
        <ele>3111</ele>
        <time>2013-06-15T07:28:33Z</time>
      </trkpt>
      <trkpt lat="42.76191" lon="-0.13599">
        <ele>3108</ele>
        <time>2013-06-15T07:28:36Z</time>
      </trkpt>
      <trkpt lat="42.76189" lon="-0.13591">
        <ele>3104</ele>
        <time>2013-06-15T07:28:40Z</time>
      </trkpt>
      <trkpt lat="42.76185" lon="-0.13588">
        <ele>3101</ele>
        <time>2013-06-15T07:28:43Z</time>
      </trkpt>
      <trkpt lat="42.76187" lon="-0.1358">
        <ele>3097</ele>
        <time>2013-06-15T07:28:48Z</time>
      </trkpt>
      <trkpt lat="42.76197" lon="-0.13575">
        <ele>3095</ele>
        <time>2013-06-15T07:28:53Z</time>
      </trkpt>
      <trkpt lat="42.76192" lon="-0.13564">
        <ele>3091</ele>
        <time>2013-06-15T07:28:57Z</time>
      </trkpt>
      <trkpt lat="42.76191" lon="-0.13556">
        <ele>3090</ele>
        <time>2013-06-15T07:28:59Z</time>
      </trkpt>
      <trkpt lat="42.76192" lon="-0.1355">
        <ele>3086</ele>
        <time>2013-06-15T07:29:01Z</time>
      </trkpt>
      <trkpt lat="42.76189" lon="-0.13547">
        <ele>3086</ele>
        <time>2013-06-15T07:29:04Z</time>
      </trkpt>
      <trkpt lat="42.76184" lon="-0.13533">
        <ele>3080</ele>
        <time>2013-06-15T07:29:08Z</time>
      </trkpt>
      <trkpt lat="42.76183" lon="-0.13523">
        <ele>3079</ele>
        <time>2013-06-15T07:29:12Z</time>
      </trkpt>
      <trkpt lat="42.7618" lon="-0.13514">
        <ele>3074</ele>
        <time>2013-06-15T07:29:15Z</time>
      </trkpt>
      <trkpt lat="42.76182" lon="-0.13503">
        <ele>3072</ele>
        <time>2013-06-15T07:29:18Z</time>
      </trkpt>
      <trkpt lat="42.76182" lon="-0.13495">
        <ele>3069</ele>
        <time>2013-06-15T07:29:20Z</time>
      </trkpt>
      <trkpt lat="42.76175" lon="-0.13491">
        <ele>3065</ele>
        <time>2013-06-15T07:29:22Z</time>
      </trkpt>
      <trkpt lat="42.76173" lon="-0.1348">
        <ele>3065</ele>
        <time>2013-06-15T07:29:25Z</time>
      </trkpt>
      <trkpt lat="42.76172" lon="-0.1347">
        <ele>3061</ele>
        <time>2013-06-15T07:29:27Z</time>
      </trkpt>
      <trkpt lat="42.76166" lon="-0.13468">
        <ele>3060</ele>
        <time>2013-06-15T07:29:29Z</time>
      </trkpt>
      <trkpt lat="42.76165" lon="-0.13461">
        <ele>3060</ele>
        <time>2013-06-15T07:29:31Z</time>
      </trkpt>
      <trkpt lat="42.76168" lon="-0.13448">
        <ele>3056</ele>
        <time>2013-06-15T07:29:34Z</time>
      </trkpt>
      <trkpt lat="42.76169" lon="-0.13434">
        <ele>3053</ele>
        <time>2013-06-15T07:29:37Z</time>
      </trkpt>
      <trkpt lat="42.76164" lon="-0.13422">
        <ele>3049</ele>
        <time>2013-06-15T07:29:40Z</time>
      </trkpt>
      <trkpt lat="42.76162" lon="-0.13409">
        <ele>3045</ele>
        <time>2013-06-15T07:29:43Z</time>
      </trkpt>
      <trkpt lat="42.7616" lon="-0.13397">
        <ele>3043</ele>
        <time>2013-06-15T07:29:46Z</time>
      </trkpt>
      <trkpt lat="42.76161" lon="-0.13383">
        <ele>3038</ele>
        <time>2013-06-15T07:29:49Z</time>
      </trkpt>
      <trkpt lat="42.76159" lon="-0.13369">
        <ele>3033</ele>
        <time>2013-06-15T07:29:52Z</time>
      </trkpt>
      <trkpt lat="42.76163" lon="-0.13354">
        <ele>3028</ele>
        <time>2013-06-15T07:29:56Z</time>
      </trkpt>
      <trkpt lat="42.76156" lon="-0.13346">
        <ele>3024</ele>
        <time>2013-06-15T07:29:59Z</time>
      </trkpt>
      <trkpt lat="42.76161" lon="-0.13336">
        <ele>3021</ele>
        <time>2013-06-15T07:30:01Z</time>
      </trkpt>
      <trkpt lat="42.7616" lon="-0.13327">
        <ele>3015</ele>
        <time>2013-06-15T07:30:03Z</time>
      </trkpt>
      <trkpt lat="42.7616" lon="-0.13304">
        <ele>3009</ele>
        <time>2013-06-15T07:30:08Z</time>
      </trkpt>
      <trkpt lat="42.76161" lon="-0.13299">
        <ele>3005</ele>
        <time>2013-06-15T07:30:09Z</time>
      </trkpt>
      <trkpt lat="42.76157" lon="-0.13287">
        <ele>3002</ele>
        <time>2013-06-15T07:30:11Z</time>
      </trkpt>
      <trkpt lat="42.76156" lon="-0.13272">
        <ele>2998</ele>
        <time>2013-06-15T07:30:13Z</time>
      </trkpt>
      <trkpt lat="42.76153" lon="-0.13247">
        <ele>2989</ele>
        <time>2013-06-15T07:30:17Z</time>
      </trkpt>
      <trkpt lat="42.76154" lon="-0.13234">
        <ele>2985</ele>
        <time>2013-06-15T07:30:19Z</time>
      </trkpt>
      <trkpt lat="42.76153" lon="-0.13221">
        <ele>2981</ele>
        <time>2013-06-15T07:30:21Z</time>
      </trkpt>
      <trkpt lat="42.76157" lon="-0.13204">
        <ele>2976</ele>
        <time>2013-06-15T07:30:24Z</time>
      </trkpt>
      <trkpt lat="42.76161" lon="-0.13192">
        <ele>2973</ele>
        <time>2013-06-15T07:30:26Z</time>
      </trkpt>
      <trkpt lat="42.76163" lon="-0.13181">
        <ele>2969</ele>
        <time>2013-06-15T07:30:28Z</time>
      </trkpt>
      <trkpt lat="42.76163" lon="-0.13168">
        <ele>2965</ele>
        <time>2013-06-15T07:30:30Z</time>
      </trkpt>
      <trkpt lat="42.76159" lon="-0.13169">
        <ele>2964</ele>
        <time>2013-06-15T07:30:32Z</time>
      </trkpt>
      <trkpt lat="42.76161" lon="-0.1317">
        <ele>2966</ele>
        <time>2013-06-15T07:30:38Z</time>
      </trkpt>
      <trkpt lat="42.76161" lon="-0.13171">
        <ele>2968</ele>
        <time>2013-06-15T07:30:41Z</time>
      </trkpt>
      <trkpt lat="42.76159" lon="-0.13166">
        <ele>2963</ele>
        <time>2013-06-15T07:30:43Z</time>
      </trkpt>
      <trkpt lat="42.7616" lon="-0.13162">
        <ele>2963</ele>
        <time>2013-06-15T07:30:44Z</time>
      </trkpt>
      <trkpt lat="42.76163" lon="-0.13154">
        <ele>2961</ele>
        <time>2013-06-15T07:30:46Z</time>
      </trkpt>
      <trkpt lat="42.76166" lon="-0.1315">
        <ele>2961</ele>
        <time>2013-06-15T07:30:47Z</time>
      </trkpt>
      <trkpt lat="42.76169" lon="-0.13126">
        <ele>2955</ele>
        <time>2013-06-15T07:30:52Z</time>
      </trkpt>
      <trkpt lat="42.7616" lon="-0.13114">
        <ele>2948</ele>
        <time>2013-06-15T07:30:56Z</time>
      </trkpt>
      <trkpt lat="42.76157" lon="-0.13111">
        <ele>2948</ele>
        <time>2013-06-15T07:30:57Z</time>
      </trkpt>
      <trkpt lat="42.76156" lon="-0.13107">
        <ele>2947</ele>
        <time>2013-06-15T07:30:58Z</time>
      </trkpt>
      <trkpt lat="42.76151" lon="-0.13097">
        <ele>2940</ele>
        <time>2013-06-15T07:31:02Z</time>
      </trkpt>
      <trkpt lat="42.76144" lon="-0.1309">
        <ele>2936</ele>
        <time>2013-06-15T07:31:05Z</time>
      </trkpt>
      <trkpt lat="42.76141" lon="-0.13082">
        <ele>2932</ele>
        <time>2013-06-15T07:31:07Z</time>
      </trkpt>
      <trkpt lat="42.76131" lon="-0.13078">
        <ele>2926</ele>
        <time>2013-06-15T07:31:10Z</time>
      </trkpt>
      <trkpt lat="42.76124" lon="-0.13074">
        <ele>2921</ele>
        <time>2013-06-15T07:31:13Z</time>
      </trkpt>
      <trkpt lat="42.76118" lon="-0.13078">
        <ele>2920</ele>
        <time>2013-06-15T07:31:15Z</time>
      </trkpt>
      <trkpt lat="42.7611" lon="-0.13067">
        <ele>2916</ele>
        <time>2013-06-15T07:31:18Z</time>
      </trkpt>
      <trkpt lat="42.76102" lon="-0.13068">
        <ele>2910</ele>
        <time>2013-06-15T07:31:20Z</time>
      </trkpt>
      <trkpt lat="42.76095" lon="-0.13063">
        <ele>2907</ele>
        <time>2013-06-15T07:31:22Z</time>
      </trkpt>
      <trkpt lat="42.76089" lon="-0.13055">
        <ele>2902</ele>
        <time>2013-06-15T07:31:24Z</time>
      </trkpt>
      <trkpt lat="42.76077" lon="-0.13054">
        <ele>2898</ele>
        <time>2013-06-15T07:31:26Z</time>
      </trkpt>
      <trkpt lat="42.76067" lon="-0.13042">
        <ele>2895</ele>
        <time>2013-06-15T07:31:28Z</time>
      </trkpt>
      <trkpt lat="42.7606" lon="-0.13032">
        <ele>2891</ele>
        <time>2013-06-15T07:31:30Z</time>
      </trkpt>
      <trkpt lat="42.76055" lon="-0.13017">
        <ele>2891</ele>
        <time>2013-06-15T07:31:33Z</time>
      </trkpt>
      <trkpt lat="42.76054" lon="-0.13013">
        <ele>2890</ele>
        <time>2013-06-15T07:31:34Z</time>
      </trkpt>
      <trkpt lat="42.76045" lon="-0.12982">
        <ele>2887</ele>
        <time>2013-06-15T07:31:41Z</time>
      </trkpt>
      <trkpt lat="42.76045" lon="-0.12978">
        <ele>2886</ele>
        <time>2013-06-15T07:31:42Z</time>
      </trkpt>
      <trkpt lat="42.76037" lon="-0.12978">
        <ele>2884</ele>
        <time>2013-06-15T07:31:46Z</time>
      </trkpt>
      <trkpt lat="42.76037" lon="-0.12981">
        <ele>2883</ele>
        <time>2013-06-15T07:31:48Z</time>
      </trkpt>
      <trkpt lat="42.76038" lon="-0.12984">
        <ele>2883</ele>
        <time>2013-06-15T07:31:55Z</time>
      </trkpt>
      <trkpt lat="42.76038" lon="-0.12982">
        <ele>2883</ele>
        <time>2013-06-15T07:32:11Z</time>
      </trkpt>
      <trkpt lat="42.76038" lon="-0.12982">
        <ele>2883</ele>
        <time>2013-06-15T07:32:21Z</time>
      </trkpt>
      <trkpt lat="42.76036" lon="-0.12982">
        <ele>2882</ele>
        <time>2013-06-15T07:32:40Z</time>
      </trkpt>
      <trkpt lat="42.76039" lon="-0.12985">
        <ele>2883</ele>
        <time>2013-06-15T07:32:54Z</time>
      </trkpt>
      <trkpt lat="42.76037" lon="-0.12982">
        <ele>2883</ele>
        <time>2013-06-15T07:33:14Z</time>
      </trkpt>
      <trkpt lat="42.76038" lon="-0.12983">
        <ele>2883</ele>
        <time>2013-06-15T07:33:22Z</time>
      </trkpt>
      <trkpt lat="42.76038" lon="-0.12985">
        <ele>2883</ele>
        <time>2013-06-15T07:33:34Z</time>
      </trkpt>
      <trkpt lat="42.76039" lon="-0.12986">
        <ele>2883</ele>
        <time>2013-06-15T07:33:48Z</time>
      </trkpt>
      <trkpt lat="42.76038" lon="-0.12984">
        <ele>2882</ele>
        <time>2013-06-15T07:33:59Z</time>
      </trkpt>
      <trkpt lat="42.76039" lon="-0.12985">
        <ele>2882</ele>
        <time>2013-06-15T07:34:21Z</time>
      </trkpt>
      <trkpt lat="42.76041" lon="-0.12988">
        <ele>2882</ele>
        <time>2013-06-15T07:34:37Z</time>
      </trkpt>
      <trkpt lat="42.76043" lon="-0.1299">
        <ele>2882</ele>
        <time>2013-06-15T07:34:49Z</time>
      </trkpt>
      <trkpt lat="42.76043" lon="-0.12988">
        <ele>2881</ele>
        <time>2013-06-15T07:34:59Z</time>
      </trkpt>
      <trkpt lat="42.76043" lon="-0.12987">
        <ele>2883</ele>
        <time>2013-06-15T07:35:09Z</time>
      </trkpt>
      <trkpt lat="42.76043" lon="-0.12987">
        <ele>2881</ele>
        <time>2013-06-15T07:35:11Z</time>
      </trkpt>
      <trkpt lat="42.76043" lon="-0.12987">
        <ele>2881</ele>
        <time>2013-06-15T07:35:26Z</time>
      </trkpt>
      <trkpt lat="42.76042" lon="-0.12987">
        <ele>2882</ele>
        <time>2013-06-15T07:35:40Z</time>
      </trkpt>
      <trkpt lat="42.76041" lon="-0.12986">
        <ele>2881</ele>
        <time>2013-06-15T07:35:52Z</time>
      </trkpt>
      <trkpt lat="42.7604" lon="-0.12985">
        <ele>2881</ele>
        <time>2013-06-15T07:36:07Z</time>
      </trkpt>
      <trkpt lat="42.76039" lon="-0.12985">
        <ele>2882</ele>
        <time>2013-06-15T07:36:27Z</time>
      </trkpt>
      <trkpt lat="42.7604" lon="-0.12984">
        <ele>2879</ele>
        <time>2013-06-15T07:36:48Z</time>
      </trkpt>
      <trkpt lat="42.76039" lon="-0.12983">
        <ele>2881</ele>
        <time>2013-06-15T07:36:58Z</time>
      </trkpt>
      <trkpt lat="42.76038" lon="-0.12983">
        <ele>2881</ele>
        <time>2013-06-15T07:37:11Z</time>
      </trkpt>
      <trkpt lat="42.76038" lon="-0.12983">
        <ele>2879</ele>
        <time>2013-06-15T07:37:15Z</time>
      </trkpt>
      <trkpt lat="42.76039" lon="-0.12984">
        <ele>2879</ele>
        <time>2013-06-15T07:37:29Z</time>
      </trkpt>
      <trkpt lat="42.76039" lon="-0.12983">
        <ele>2881</ele>
        <time>2013-06-15T07:37:49Z</time>
      </trkpt>
      <trkpt lat="42.76038" lon="-0.12983">
        <ele>2880</ele>
        <time>2013-06-15T07:38:03Z</time>
      </trkpt>
      <trkpt lat="42.76038" lon="-0.12984">
        <ele>2879</ele>
        <time>2013-06-15T07:38:18Z</time>
      </trkpt>
      <trkpt lat="42.76037" lon="-0.12982">
        <ele>2878</ele>
        <time>2013-06-15T07:38:34Z</time>
      </trkpt>
      <trkpt lat="42.76036" lon="-0.12982">
        <ele>2879</ele>
        <time>2013-06-15T07:38:49Z</time>
      </trkpt>
      <trkpt lat="42.76034" lon="-0.12981">
        <ele>2878</ele>
        <time>2013-06-15T07:39:03Z</time>
      </trkpt>
      <trkpt lat="42.76033" lon="-0.12981">
        <ele>2880</ele>
        <time>2013-06-15T07:39:21Z</time>
      </trkpt>
      <trkpt lat="42.76036" lon="-0.12984">
        <ele>2880</ele>
        <time>2013-06-15T07:39:36Z</time>
      </trkpt>
      <trkpt lat="42.7604" lon="-0.12986">
        <ele>2880</ele>
        <time>2013-06-15T07:39:51Z</time>
      </trkpt>
      <trkpt lat="42.76038" lon="-0.12986">
        <ele>2879</ele>
        <time>2013-06-15T07:40:06Z</time>
      </trkpt>
      <trkpt lat="42.76038" lon="-0.12985">
        <ele>2878</ele>
        <time>2013-06-15T07:40:20Z</time>
      </trkpt>
      <trkpt lat="42.76039" lon="-0.12986">
        <ele>2879</ele>
        <time>2013-06-15T07:40:34Z</time>
      </trkpt>
      <trkpt lat="42.7604" lon="-0.12987">
        <ele>2879</ele>
        <time>2013-06-15T07:40:44Z</time>
      </trkpt>
      <trkpt lat="42.76034" lon="-0.12978">
        <ele>2877</ele>
        <time>2013-06-15T07:40:48Z</time>
      </trkpt>
      <trkpt lat="42.76022" lon="-0.12951">
        <ele>2874</ele>
        <time>2013-06-15T07:40:52Z</time>
      </trkpt>
      <trkpt lat="42.7601" lon="-0.12921">
        <ele>2871</ele>
        <time>2013-06-15T07:40:56Z</time>
      </trkpt>
      <trkpt lat="42.76003" lon="-0.12901">
        <ele>2867</ele>
        <time>2013-06-15T07:40:59Z</time>
      </trkpt>
      <trkpt lat="42.75998" lon="-0.12887">
        <ele>2866</ele>
        <time>2013-06-15T07:41:01Z</time>
      </trkpt>
      <trkpt lat="42.75996" lon="-0.12869">
        <ele>2863</ele>
        <time>2013-06-15T07:41:05Z</time>
      </trkpt>
      <trkpt lat="42.75995" lon="-0.12869">
        <ele>2864</ele>
        <time>2013-06-15T07:41:11Z</time>
      </trkpt>
      <trkpt lat="42.75996" lon="-0.12848">
        <ele>2861</ele>
        <time>2013-06-15T07:41:17Z</time>
      </trkpt>
      <trkpt lat="42.75995" lon="-0.12848">
        <ele>2858</ele>
        <time>2013-06-15T07:41:23Z</time>
      </trkpt>
      <trkpt lat="42.75994" lon="-0.1285">
        <ele>2858</ele>
        <time>2013-06-15T07:41:40Z</time>
      </trkpt>
      <trkpt lat="42.75995" lon="-0.12851">
        <ele>2858</ele>
        <time>2013-06-15T07:41:59Z</time>
      </trkpt>
      <trkpt lat="42.75995" lon="-0.12848">
        <ele>2858</ele>
        <time>2013-06-15T07:42:04Z</time>
      </trkpt>
      <trkpt lat="42.75988" lon="-0.12838">
        <ele>2853</ele>
        <time>2013-06-15T07:42:08Z</time>
      </trkpt>
      <trkpt lat="42.75986" lon="-0.12834">
        <ele>2852</ele>
        <time>2013-06-15T07:42:09Z</time>
      </trkpt>
      <trkpt lat="42.75979" lon="-0.12821">
        <ele>2845</ele>
        <time>2013-06-15T07:42:12Z</time>
      </trkpt>
      <trkpt lat="42.75976" lon="-0.12805">
        <ele>2836</ele>
        <time>2013-06-15T07:42:15Z</time>
      </trkpt>
      <trkpt lat="42.75972" lon="-0.12797">
        <ele>2833</ele>
        <time>2013-06-15T07:42:17Z</time>
      </trkpt>
      <trkpt lat="42.75966" lon="-0.12794">
        <ele>2829</ele>
        <time>2013-06-15T07:42:19Z</time>
      </trkpt>
      <trkpt lat="42.75964" lon="-0.12788">
        <ele>2825</ele>
        <time>2013-06-15T07:42:21Z</time>
      </trkpt>
      <trkpt lat="42.75965" lon="-0.12788">
        <ele>2825</ele>
        <time>2013-06-15T07:42:22Z</time>
      </trkpt>
      <trkpt lat="42.75966" lon="-0.1279">
        <ele>2825</ele>
        <time>2013-06-15T07:42:29Z</time>
      </trkpt>
      <trkpt lat="42.7597" lon="-0.12789">
        <ele>2825</ele>
        <time>2013-06-15T07:42:36Z</time>
      </trkpt>
      <trkpt lat="42.75971" lon="-0.12789">
        <ele>2824</ele>
        <time>2013-06-15T07:42:43Z</time>
      </trkpt>
      <trkpt lat="42.75971" lon="-0.12778">
        <ele>2823</ele>
        <time>2013-06-15T07:42:47Z</time>
      </trkpt>
      <trkpt lat="42.75971" lon="-0.12773">
        <ele>2822</ele>
        <time>2013-06-15T07:42:48Z</time>
      </trkpt>
      <trkpt lat="42.75973" lon="-0.12763">
        <ele>2820</ele>
        <time>2013-06-15T07:42:51Z</time>
      </trkpt>
      <trkpt lat="42.75972" lon="-0.1276">
        <ele>2820</ele>
        <time>2013-06-15T07:42:56Z</time>
      </trkpt>
      <trkpt lat="42.75961" lon="-0.12757">
        <ele>2817</ele>
        <time>2013-06-15T07:43:00Z</time>
      </trkpt>
      <trkpt lat="42.75949" lon="-0.12754">
        <ele>2814</ele>
        <time>2013-06-15T07:43:03Z</time>
      </trkpt>
      <trkpt lat="42.75946" lon="-0.12743">
        <ele>2811</ele>
        <time>2013-06-15T07:43:05Z</time>
      </trkpt>
      <trkpt lat="42.75944" lon="-0.12742">
        <ele>2809</ele>
        <time>2013-06-15T07:43:07Z</time>
      </trkpt>
      <trkpt lat="42.75942" lon="-0.12751">
        <ele>2809</ele>
        <time>2013-06-15T07:43:15Z</time>
      </trkpt>
      <trkpt lat="42.75941" lon="-0.12752">
        <ele>2810</ele>
        <time>2013-06-15T07:43:23Z</time>
      </trkpt>
      <trkpt lat="42.75941" lon="-0.12753">
        <ele>2809</ele>
        <time>2013-06-15T07:43:35Z</time>
      </trkpt>
      <trkpt lat="42.75937" lon="-0.12766">
        <ele>2807</ele>
        <time>2013-06-15T07:43:40Z</time>
      </trkpt>
      <trkpt lat="42.75936" lon="-0.12769">
        <ele>2805</ele>
        <time>2013-06-15T07:43:41Z</time>
      </trkpt>
      <trkpt lat="42.75933" lon="-0.12775">
        <ele>2805</ele>
        <time>2013-06-15T07:43:43Z</time>
      </trkpt>
      <trkpt lat="42.75926" lon="-0.12769">
        <ele>2800</ele>
        <time>2013-06-15T07:43:47Z</time>
      </trkpt>
      <trkpt lat="42.75925" lon="-0.12764">
        <ele>2798</ele>
        <time>2013-06-15T07:43:48Z</time>
      </trkpt>
      <trkpt lat="42.75915" lon="-0.12755">
        <ele>2791</ele>
        <time>2013-06-15T07:43:52Z</time>
      </trkpt>
      <trkpt lat="42.75908" lon="-0.12747">
        <ele>2782</ele>
        <time>2013-06-15T07:43:54Z</time>
      </trkpt>
      <trkpt lat="42.75907" lon="-0.12732">
        <ele>2779</ele>
        <time>2013-06-15T07:43:56Z</time>
      </trkpt>
      <trkpt lat="42.7591" lon="-0.12722">
        <ele>2777</ele>
        <time>2013-06-15T07:43:57Z</time>
      </trkpt>
      <trkpt lat="42.75911" lon="-0.12678">
        <ele>2773</ele>
        <time>2013-06-15T07:44:04Z</time>
      </trkpt>
      <trkpt lat="42.75909" lon="-0.12669">
        <ele>2771</ele>
        <time>2013-06-15T07:44:06Z</time>
      </trkpt>
      <trkpt lat="42.75903" lon="-0.12662">
        <ele>2768</ele>
        <time>2013-06-15T07:44:08Z</time>
      </trkpt>
      <trkpt lat="42.75902" lon="-0.12656">
        <ele>2764</ele>
        <time>2013-06-15T07:44:09Z</time>
      </trkpt>
      <trkpt lat="42.75897" lon="-0.12648">
        <ele>2762</ele>
        <time>2013-06-15T07:44:11Z</time>
      </trkpt>
      <trkpt lat="42.75891" lon="-0.12636">
        <ele>2754</ele>
        <time>2013-06-15T07:44:15Z</time>
      </trkpt>
      <trkpt lat="42.75892" lon="-0.12627">
        <ele>2752</ele>
        <time>2013-06-15T07:44:18Z</time>
      </trkpt>
      <trkpt lat="42.75892" lon="-0.12629">
        <ele>2752</ele>
        <time>2013-06-15T07:44:19Z</time>
      </trkpt>
      <trkpt lat="42.7589" lon="-0.1262">
        <ele>2749</ele>
        <time>2013-06-15T07:44:22Z</time>
      </trkpt>
      <trkpt lat="42.75893" lon="-0.12613">
        <ele>2745</ele>
        <time>2013-06-15T07:44:24Z</time>
      </trkpt>
      <trkpt lat="42.75893" lon="-0.12608">
        <ele>2746</ele>
        <time>2013-06-15T07:44:25Z</time>
      </trkpt>
      <trkpt lat="42.75893" lon="-0.12598">
        <ele>2741</ele>
        <time>2013-06-15T07:44:27Z</time>
      </trkpt>
      <trkpt lat="42.75895" lon="-0.12594">
        <ele>2738</ele>
        <time>2013-06-15T07:44:28Z</time>
      </trkpt>
      <trkpt lat="42.75898" lon="-0.12581">
        <ele>2735</ele>
        <time>2013-06-15T07:44:31Z</time>
      </trkpt>
      <trkpt lat="42.759" lon="-0.12575">
        <ele>2731</ele>
        <time>2013-06-15T07:44:32Z</time>
      </trkpt>
      <trkpt lat="42.75904" lon="-0.12571">
        <ele>2731</ele>
        <time>2013-06-15T07:44:33Z</time>
      </trkpt>
      <trkpt lat="42.75911" lon="-0.12564">
        <ele>2727</ele>
        <time>2013-06-15T07:44:35Z</time>
      </trkpt>
      <trkpt lat="42.75911" lon="-0.12559">
        <ele>2728</ele>
        <time>2013-06-15T07:44:36Z</time>
      </trkpt>
      <trkpt lat="42.75911" lon="-0.12552">
        <ele>2724</ele>
        <time>2013-06-15T07:44:37Z</time>
      </trkpt>
      <trkpt lat="42.75914" lon="-0.12545">
        <ele>2720</ele>
        <time>2013-06-15T07:44:38Z</time>
      </trkpt>
      <trkpt lat="42.75922" lon="-0.12535">
        <ele>2717</ele>
        <time>2013-06-15T07:44:40Z</time>
      </trkpt>
      <trkpt lat="42.75924" lon="-0.12519">
        <ele>2717</ele>
        <time>2013-06-15T07:44:43Z</time>
      </trkpt>
      <trkpt lat="42.75927" lon="-0.12514">
        <ele>2714</ele>
        <time>2013-06-15T07:44:44Z</time>
      </trkpt>
      <trkpt lat="42.75934" lon="-0.12504">
        <ele>2711</ele>
        <time>2013-06-15T07:44:46Z</time>
      </trkpt>
      <trkpt lat="42.7595" lon="-0.12471">
        <ele>2707</ele>
        <time>2013-06-15T07:44:51Z</time>
      </trkpt>
      <trkpt lat="42.75954" lon="-0.12459">
        <ele>2705</ele>
        <time>2013-06-15T07:44:53Z</time>
      </trkpt>
      <trkpt lat="42.75955" lon="-0.12446">
        <ele>2703</ele>
        <time>2013-06-15T07:44:55Z</time>
      </trkpt>
      <trkpt lat="42.75958" lon="-0.12423">
        <ele>2699</ele>
        <time>2013-06-15T07:44:59Z</time>
      </trkpt>
      <trkpt lat="42.75948" lon="-0.12414">
        <ele>2695</ele>
        <time>2013-06-15T07:45:02Z</time>
      </trkpt>
      <trkpt lat="42.75949" lon="-0.12408">
        <ele>2694</ele>
        <time>2013-06-15T07:45:04Z</time>
      </trkpt>
      <trkpt lat="42.7595" lon="-0.12411">
        <ele>2695</ele>
        <time>2013-06-15T07:45:12Z</time>
      </trkpt>
      <trkpt lat="42.75951" lon="-0.12412">
        <ele>2694</ele>
        <time>2013-06-15T07:45:21Z</time>
      </trkpt>
      <trkpt lat="42.7595" lon="-0.12413">
        <ele>2694</ele>
        <time>2013-06-15T07:45:36Z</time>
      </trkpt>
      <trkpt lat="42.7595" lon="-0.12414">
        <ele>2694</ele>
        <time>2013-06-15T07:45:52Z</time>
      </trkpt>
      <trkpt lat="42.75956" lon="-0.12417">
        <ele>2694</ele>
        <time>2013-06-15T07:46:09Z</time>
      </trkpt>
      <trkpt lat="42.75953" lon="-0.12416">
        <ele>2694</ele>
        <time>2013-06-15T07:46:20Z</time>
      </trkpt>
      <trkpt lat="42.75951" lon="-0.12418">
        <ele>2693</ele>
        <time>2013-06-15T07:46:30Z</time>
      </trkpt>
      <trkpt lat="42.75954" lon="-0.1241">
        <ele>2692</ele>
        <time>2013-06-15T07:46:34Z</time>
      </trkpt>
      <trkpt lat="42.75951" lon="-0.12388">
        <ele>2687</ele>
        <time>2013-06-15T07:46:38Z</time>
      </trkpt>
      <trkpt lat="42.75953" lon="-0.12383">
        <ele>2687</ele>
        <time>2013-06-15T07:46:39Z</time>
      </trkpt>
      <trkpt lat="42.75954" lon="-0.12366">
        <ele>2682</ele>
        <time>2013-06-15T07:46:42Z</time>
      </trkpt>
      <trkpt lat="42.75958" lon="-0.12357">
        <ele>2681</ele>
        <time>2013-06-15T07:46:44Z</time>
      </trkpt>
      <trkpt lat="42.75963" lon="-0.12347">
        <ele>2677</ele>
        <time>2013-06-15T07:46:46Z</time>
      </trkpt>
      <trkpt lat="42.75971" lon="-0.12346">
        <ele>2673</ele>
        <time>2013-06-15T07:46:48Z</time>
      </trkpt>
      <trkpt lat="42.75984" lon="-0.12341">
        <ele>2670</ele>
        <time>2013-06-15T07:46:51Z</time>
      </trkpt>
      <trkpt lat="42.75985" lon="-0.12329">
        <ele>2667</ele>
        <time>2013-06-15T07:46:54Z</time>
      </trkpt>
      <trkpt lat="42.7598" lon="-0.12318">
        <ele>2663</ele>
        <time>2013-06-15T07:46:57Z</time>
      </trkpt>
      <trkpt lat="42.75975" lon="-0.12305">
        <ele>2658</ele>
        <time>2013-06-15T07:47:00Z</time>
      </trkpt>
      <trkpt lat="42.75973" lon="-0.123">
        <ele>2657</ele>
        <time>2013-06-15T07:47:01Z</time>
      </trkpt>
      <trkpt lat="42.75966" lon="-0.12288">
        <ele>2652</ele>
        <time>2013-06-15T07:47:04Z</time>
      </trkpt>
      <trkpt lat="42.75965" lon="-0.12274">
        <ele>2645</ele>
        <time>2013-06-15T07:47:07Z</time>
      </trkpt>
      <trkpt lat="42.75965" lon="-0.12262">
        <ele>2641</ele>
        <time>2013-06-15T07:47:09Z</time>
      </trkpt>
      <trkpt lat="42.75962" lon="-0.12255">
        <ele>2641</ele>
        <time>2013-06-15T07:47:10Z</time>
      </trkpt>
      <trkpt lat="42.75954" lon="-0.12242">
        <ele>2638</ele>
        <time>2013-06-15T07:47:12Z</time>
      </trkpt>
      <trkpt lat="42.7595" lon="-0.12234">
        <ele>2631</ele>
        <time>2013-06-15T07:47:15Z</time>
      </trkpt>
      <trkpt lat="42.75949" lon="-0.12233">
        <ele>2631</ele>
        <time>2013-06-15T07:47:16Z</time>
      </trkpt>
      <trkpt lat="42.75945" lon="-0.12231">
        <ele>2629</ele>
        <time>2013-06-15T07:47:21Z</time>
      </trkpt>
      <trkpt lat="42.75945" lon="-0.12232">
        <ele>2629</ele>
        <time>2013-06-15T07:47:27Z</time>
      </trkpt>
      <trkpt lat="42.75946" lon="-0.12235">
        <ele>2628</ele>
        <time>2013-06-15T07:47:39Z</time>
      </trkpt>
      <trkpt lat="42.75945" lon="-0.12234">
        <ele>2628</ele>
        <time>2013-06-15T07:47:51Z</time>
      </trkpt>
      <trkpt lat="42.75944" lon="-0.12235">
        <ele>2628</ele>
        <time>2013-06-15T07:47:59Z</time>
      </trkpt>
      <trkpt lat="42.75943" lon="-0.12223">
        <ele>2624</ele>
        <time>2013-06-15T07:48:04Z</time>
      </trkpt>
      <trkpt lat="42.7594" lon="-0.12213">
        <ele>2621</ele>
        <time>2013-06-15T07:48:07Z</time>
      </trkpt>
      <trkpt lat="42.75937" lon="-0.1221">
        <ele>2616</ele>
        <time>2013-06-15T07:48:09Z</time>
      </trkpt>
      <trkpt lat="42.75935" lon="-0.12208">
        <ele>2612</ele>
        <time>2013-06-15T07:48:12Z</time>
      </trkpt>
      <trkpt lat="42.75931" lon="-0.12207">
        <ele>2609</ele>
        <time>2013-06-15T07:48:15Z</time>
      </trkpt>
      <trkpt lat="42.7593" lon="-0.12202">
        <ele>2605</ele>
        <time>2013-06-15T07:48:17Z</time>
      </trkpt>
      <trkpt lat="42.75922" lon="-0.12198">
        <ele>2600</ele>
        <time>2013-06-15T07:48:20Z</time>
      </trkpt>
      <trkpt lat="42.75915" lon="-0.12196">
        <ele>2597</ele>
        <time>2013-06-15T07:48:22Z</time>
      </trkpt>
      <trkpt lat="42.75909" lon="-0.12192">
        <ele>2593</ele>
        <time>2013-06-15T07:48:24Z</time>
      </trkpt>
      <trkpt lat="42.75905" lon="-0.12192">
        <ele>2590</ele>
        <time>2013-06-15T07:48:25Z</time>
      </trkpt>
      <trkpt lat="42.759" lon="-0.1219">
        <ele>2587</ele>
        <time>2013-06-15T07:48:27Z</time>
      </trkpt>
      <trkpt lat="42.75898" lon="-0.12186">
        <ele>2581</ele>
        <time>2013-06-15T07:48:28Z</time>
      </trkpt>
      <trkpt lat="42.75896" lon="-0.12183">
        <ele>2582</ele>
        <time>2013-06-15T07:48:29Z</time>
      </trkpt>
      <trkpt lat="42.75892" lon="-0.12182">
        <ele>2579</ele>
        <time>2013-06-15T07:48:30Z</time>
      </trkpt>
      <trkpt lat="42.75888" lon="-0.12182">
        <ele>2576</ele>
        <time>2013-06-15T07:48:31Z</time>
      </trkpt>
      <trkpt lat="42.75874" lon="-0.1219">
        <ele>2570</ele>
        <time>2013-06-15T07:48:36Z</time>
      </trkpt>
      <trkpt lat="42.75868" lon="-0.12179">
        <ele>2565</ele>
        <time>2013-06-15T07:48:39Z</time>
      </trkpt>
      <trkpt lat="42.75868" lon="-0.12175">
        <ele>2564</ele>
        <time>2013-06-15T07:48:40Z</time>
      </trkpt>
      <trkpt lat="42.75863" lon="-0.12168">
        <ele>2561</ele>
        <time>2013-06-15T07:48:43Z</time>
      </trkpt>
      <trkpt lat="42.7586" lon="-0.1217">
        <ele>2561</ele>
        <time>2013-06-15T07:48:47Z</time>
      </trkpt>
      <trkpt lat="42.7586" lon="-0.12173">
        <ele>2560</ele>
        <time>2013-06-15T07:48:57Z</time>
      </trkpt>
      <trkpt lat="42.75859" lon="-0.12172">
        <ele>2560</ele>
        <time>2013-06-15T07:49:08Z</time>
      </trkpt>
      <trkpt lat="42.75848" lon="-0.12176">
        <ele>2556</ele>
        <time>2013-06-15T07:49:14Z</time>
      </trkpt>
      <trkpt lat="42.75845" lon="-0.12166">
        <ele>2553</ele>
        <time>2013-06-15T07:49:16Z</time>
      </trkpt>
      <trkpt lat="42.75846" lon="-0.1216">
        <ele>2553</ele>
        <time>2013-06-15T07:49:17Z</time>
      </trkpt>
      <trkpt lat="42.75849" lon="-0.12149">
        <ele>2550</ele>
        <time>2013-06-15T07:49:19Z</time>
      </trkpt>
      <trkpt lat="42.75845" lon="-0.12132">
        <ele>2544</ele>
        <time>2013-06-15T07:49:23Z</time>
      </trkpt>
      <trkpt lat="42.75839" lon="-0.12127">
        <ele>2539</ele>
        <time>2013-06-15T07:49:25Z</time>
      </trkpt>
      <trkpt lat="42.75834" lon="-0.12115">
        <ele>2535</ele>
        <time>2013-06-15T07:49:27Z</time>
      </trkpt>
      <trkpt lat="42.75834" lon="-0.12106">
        <ele>2535</ele>
        <time>2013-06-15T07:49:28Z</time>
      </trkpt>
      <trkpt lat="42.75829" lon="-0.12081">
        <ele>2531</ele>
        <time>2013-06-15T07:49:31Z</time>
      </trkpt>
      <trkpt lat="42.75818" lon="-0.12061">
        <ele>2527</ele>
        <time>2013-06-15T07:49:35Z</time>
      </trkpt>
      <trkpt lat="42.75813" lon="-0.1206">
        <ele>2525</ele>
        <time>2013-06-15T07:49:36Z</time>
      </trkpt>
      <trkpt lat="42.75794" lon="-0.12054">
        <ele>2518</ele>
        <time>2013-06-15T07:49:40Z</time>
      </trkpt>
      <trkpt lat="42.7578" lon="-0.12058">
        <ele>2513</ele>
        <time>2013-06-15T07:49:43Z</time>
      </trkpt>
      <trkpt lat="42.75769" lon="-0.12053">
        <ele>2507</ele>
        <time>2013-06-15T07:49:46Z</time>
      </trkpt>
      <trkpt lat="42.75769" lon="-0.12049">
        <ele>2506</ele>
        <time>2013-06-15T07:49:48Z</time>
      </trkpt>
      <trkpt lat="42.75771" lon="-0.12033">
        <ele>2503</ele>
        <time>2013-06-15T07:49:52Z</time>
      </trkpt>
      <trkpt lat="42.75772" lon="-0.12025">
        <ele>2502</ele>
        <time>2013-06-15T07:49:54Z</time>
      </trkpt>
      <trkpt lat="42.75765" lon="-0.12013">
        <ele>2496</ele>
        <time>2013-06-15T07:49:58Z</time>
      </trkpt>
      <trkpt lat="42.75759" lon="-0.12008">
        <ele>2492</ele>
        <time>2013-06-15T07:50:00Z</time>
      </trkpt>
      <trkpt lat="42.75753" lon="-0.11999">
        <ele>2487</ele>
        <time>2013-06-15T07:50:03Z</time>
      </trkpt>
      <trkpt lat="42.75747" lon="-0.11996">
        <ele>2482</ele>
        <time>2013-06-15T07:50:05Z</time>
      </trkpt>
      <trkpt lat="42.75744" lon="-0.11987">
        <ele>2478</ele>
        <time>2013-06-15T07:50:07Z</time>
      </trkpt>
      <trkpt lat="42.75737" lon="-0.1198">
        <ele>2474</ele>
        <time>2013-06-15T07:50:09Z</time>
      </trkpt>
      <trkpt lat="42.75737" lon="-0.11971">
        <ele>2470</ele>
        <time>2013-06-15T07:50:11Z</time>
      </trkpt>
      <trkpt lat="42.75739" lon="-0.11967">
        <ele>2470</ele>
        <time>2013-06-15T07:50:12Z</time>
      </trkpt>
      <trkpt lat="42.75743" lon="-0.1196">
        <ele>2468</ele>
        <time>2013-06-15T07:50:14Z</time>
      </trkpt>
      <trkpt lat="42.75743" lon="-0.11952">
        <ele>2467</ele>
        <time>2013-06-15T07:50:16Z</time>
      </trkpt>
      <trkpt lat="42.75739" lon="-0.11942">
        <ele>2467</ele>
        <time>2013-06-15T07:50:18Z</time>
      </trkpt>
      <trkpt lat="42.75717" lon="-0.11918">
        <ele>2461</ele>
        <time>2013-06-15T07:50:22Z</time>
      </trkpt>
      <trkpt lat="42.7571" lon="-0.11912">
        <ele>2457</ele>
        <time>2013-06-15T07:50:23Z</time>
      </trkpt>
      <trkpt lat="42.75694" lon="-0.11904">
        <ele>2456</ele>
        <time>2013-06-15T07:50:26Z</time>
      </trkpt>
      <trkpt lat="42.75691" lon="-0.11903">
        <ele>2455</ele>
        <time>2013-06-15T07:50:31Z</time>
      </trkpt>
      <trkpt lat="42.75691" lon="-0.11905">
        <ele>2455</ele>
        <time>2013-06-15T07:50:39Z</time>
      </trkpt>
      <trkpt lat="42.75691" lon="-0.11905">
        <ele>2455</ele>
        <time>2013-06-15T07:50:46Z</time>
      </trkpt>
      <trkpt lat="42.75692" lon="-0.11904">
        <ele>2456</ele>
        <time>2013-06-15T07:50:53Z</time>
      </trkpt>
      <trkpt lat="42.75692" lon="-0.11904">
        <ele>2455</ele>
        <time>2013-06-15T07:50:55Z</time>
      </trkpt>
      <trkpt lat="42.75694" lon="-0.11899">
        <ele>2454</ele>
        <time>2013-06-15T07:50:59Z</time>
      </trkpt>
      <trkpt lat="42.75696" lon="-0.11895">
        <ele>2455</ele>
        <time>2013-06-15T07:51:04Z</time>
      </trkpt>
      <trkpt lat="42.75697" lon="-0.11892">
        <ele>2454</ele>
        <time>2013-06-15T07:51:06Z</time>
      </trkpt>
      <trkpt lat="42.75698" lon="-0.1189">
        <ele>2455</ele>
        <time>2013-06-15T07:51:08Z</time>
      </trkpt>
      <trkpt lat="42.75701" lon="-0.11884">
        <ele>2455</ele>
        <time>2013-06-15T07:51:14Z</time>
      </trkpt>
      <trkpt lat="42.75701" lon="-0.11882">
        <ele>2455</ele>
        <time>2013-06-15T07:51:17Z</time>
      </trkpt>
      <trkpt lat="42.75704" lon="-0.11876">
        <ele>2454</ele>
        <time>2013-06-15T07:51:24Z</time>
      </trkpt>
      <trkpt lat="42.75705" lon="-0.11872">
        <ele>2455</ele>
        <time>2013-06-15T07:51:29Z</time>
      </trkpt>
      <trkpt lat="42.75707" lon="-0.11868">
        <ele>2454</ele>
        <time>2013-06-15T07:51:32Z</time>
      </trkpt>
      <trkpt lat="42.75711" lon="-0.11854">
        <ele>2454</ele>
        <time>2013-06-15T07:51:38Z</time>
      </trkpt>
      <trkpt lat="42.75713" lon="-0.11844">
        <ele>2456</ele>
        <time>2013-06-15T07:51:43Z</time>
      </trkpt>
      <trkpt lat="42.75714" lon="-0.11842">
        <ele>2454</ele>
        <time>2013-06-15T07:51:46Z</time>
      </trkpt>
      <trkpt lat="42.75715" lon="-0.11836">
        <ele>2454</ele>
        <time>2013-06-15T07:51:52Z</time>
      </trkpt>
      <trkpt lat="42.75715" lon="-0.11835">
        <ele>2454</ele>
        <time>2013-06-15T07:51:54Z</time>
      </trkpt>
      <trkpt lat="42.75713" lon="-0.1183">
        <ele>2455</ele>
        <time>2013-06-15T07:52:01Z</time>
      </trkpt>
      <trkpt lat="42.75711" lon="-0.11826">
        <ele>2456</ele>
        <time>2013-06-15T07:52:06Z</time>
      </trkpt>
      <trkpt lat="42.75705" lon="-0.11817">
        <ele>2454</ele>
        <time>2013-06-15T07:52:16Z</time>
      </trkpt>
      <trkpt lat="42.75701" lon="-0.11812">
        <ele>2455</ele>
        <time>2013-06-15T07:52:25Z</time>
      </trkpt>
      <trkpt lat="42.757" lon="-0.11809">
        <ele>2455</ele>
        <time>2013-06-15T07:52:37Z</time>
      </trkpt>
      <trkpt lat="42.757" lon="-0.11808">
        <ele>2454</ele>
        <time>2013-06-15T07:52:38Z</time>
      </trkpt>
      <trkpt lat="42.75695" lon="-0.118">
        <ele>2454</ele>
        <time>2013-06-15T07:52:46Z</time>
      </trkpt>
      <trkpt lat="42.75689" lon="-0.11796">
        <ele>2454</ele>
        <time>2013-06-15T07:52:54Z</time>
      </trkpt>
      <trkpt lat="42.75682" lon="-0.11793">
        <ele>2454</ele>
        <time>2013-06-15T07:53:02Z</time>
      </trkpt>
      <trkpt lat="42.75676" lon="-0.11792">
        <ele>2455</ele>
        <time>2013-06-15T07:53:10Z</time>
      </trkpt>
      <trkpt lat="42.75671" lon="-0.11791">
        <ele>2455</ele>
        <time>2013-06-15T07:53:18Z</time>
      </trkpt>
      <trkpt lat="42.75666" lon="-0.1179">
        <ele>2456</ele>
        <time>2013-06-15T07:53:26Z</time>
      </trkpt>
      <trkpt lat="42.7566" lon="-0.1179">
        <ele>2456</ele>
        <time>2013-06-15T07:53:35Z</time>
      </trkpt>
      <trkpt lat="42.75655" lon="-0.1179">
        <ele>2457</ele>
        <time>2013-06-15T07:53:42Z</time>
      </trkpt>
      <trkpt lat="42.75653" lon="-0.11789">
        <ele>2457</ele>
        <time>2013-06-15T07:53:49Z</time>
      </trkpt>
      <trkpt lat="42.7565" lon="-0.11789">
        <ele>2458</ele>
        <time>2013-06-15T07:53:57Z</time>
      </trkpt>
      <trkpt lat="42.75647" lon="-0.11789">
        <ele>2458</ele>
        <time>2013-06-15T07:54:05Z</time>
      </trkpt>
      <trkpt lat="42.75649" lon="-0.11788">
        <ele>2459</ele>
        <time>2013-06-15T07:54:12Z</time>
      </trkpt>
      <trkpt lat="42.75649" lon="-0.11797">
        <ele>2459</ele>
        <time>2013-06-15T07:54:20Z</time>
      </trkpt>
      <trkpt lat="42.75648" lon="-0.11799">
        <ele>2460</ele>
        <time>2013-06-15T07:54:27Z</time>
      </trkpt>
      <trkpt lat="42.75647" lon="-0.11799">
        <ele>2460</ele>
        <time>2013-06-15T07:54:34Z</time>
      </trkpt>
      <trkpt lat="42.75647" lon="-0.11806">
        <ele>2460</ele>
        <time>2013-06-15T07:54:41Z</time>
      </trkpt>
      <trkpt lat="42.75645" lon="-0.11809">
        <ele>2461</ele>
        <time>2013-06-15T07:54:47Z</time>
      </trkpt>
      <trkpt lat="42.75644" lon="-0.11809">
        <ele>2461</ele>
        <time>2013-06-15T07:54:49Z</time>
      </trkpt>
      <trkpt lat="42.75639" lon="-0.11808">
        <ele>2461</ele>
        <time>2013-06-15T07:54:56Z</time>
      </trkpt>
      <trkpt lat="42.75634" lon="-0.11802">
        <ele>2462</ele>
        <time>2013-06-15T07:55:05Z</time>
      </trkpt>
      <trkpt lat="42.75634" lon="-0.11801">
        <ele>2462</ele>
        <time>2013-06-15T07:55:06Z</time>
      </trkpt>
      <trkpt lat="42.75634" lon="-0.11794">
        <ele>2461</ele>
        <time>2013-06-15T07:55:13Z</time>
      </trkpt>
      <trkpt lat="42.75634" lon="-0.1179">
        <ele>2462</ele>
        <time>2013-06-15T07:55:20Z</time>
      </trkpt>
      <trkpt lat="42.75633" lon="-0.11785">
        <ele>2464</ele>
        <time>2013-06-15T07:55:27Z</time>
      </trkpt>
      <trkpt lat="42.75633" lon="-0.11784">
        <ele>2463</ele>
        <time>2013-06-15T07:55:29Z</time>
      </trkpt>
      <trkpt lat="42.75632" lon="-0.1178">
        <ele>2464</ele>
        <time>2013-06-15T07:55:34Z</time>
      </trkpt>
      <trkpt lat="42.75626" lon="-0.11777">
        <ele>2464</ele>
        <time>2013-06-15T07:55:43Z</time>
      </trkpt>
      <trkpt lat="42.75621" lon="-0.11772">
        <ele>2464</ele>
        <time>2013-06-15T07:55:46Z</time>
      </trkpt>
      <trkpt lat="42.75603" lon="-0.11759">
        <ele>2460</ele>
        <time>2013-06-15T07:55:50Z</time>
      </trkpt>
      <trkpt lat="42.75598" lon="-0.11755">
        <ele>2460</ele>
        <time>2013-06-15T07:55:51Z</time>
      </trkpt>
      <trkpt lat="42.7559" lon="-0.11746">
        <ele>2459</ele>
        <time>2013-06-15T07:55:54Z</time>
      </trkpt>
      <trkpt lat="42.75587" lon="-0.11734">
        <ele>2459</ele>
        <time>2013-06-15T07:55:59Z</time>
      </trkpt>
      <trkpt lat="42.75583" lon="-0.1172">
        <ele>2459</ele>
        <time>2013-06-15T07:56:03Z</time>
      </trkpt>
      <trkpt lat="42.75577" lon="-0.11699">
        <ele>2457</ele>
        <time>2013-06-15T07:56:07Z</time>
      </trkpt>
      <trkpt lat="42.75566" lon="-0.11676">
        <ele>2454</ele>
        <time>2013-06-15T07:56:11Z</time>
      </trkpt>
      <trkpt lat="42.75559" lon="-0.11661">
        <ele>2453</ele>
        <time>2013-06-15T07:56:15Z</time>
      </trkpt>
      <trkpt lat="42.75553" lon="-0.11634">
        <ele>2450</ele>
        <time>2013-06-15T07:56:19Z</time>
      </trkpt>
      <trkpt lat="42.75552" lon="-0.11609">
        <ele>2447</ele>
        <time>2013-06-15T07:56:23Z</time>
      </trkpt>
      <trkpt lat="42.75551" lon="-0.11598">
        <ele>2446</ele>
        <time>2013-06-15T07:56:25Z</time>
      </trkpt>
      <trkpt lat="42.75544" lon="-0.11578">
        <ele>2441</ele>
        <time>2013-06-15T07:56:29Z</time>
      </trkpt>
      <trkpt lat="42.75545" lon="-0.11562">
        <ele>2436</ele>
        <time>2013-06-15T07:56:32Z</time>
      </trkpt>
      <trkpt lat="42.75547" lon="-0.11557">
        <ele>2434</ele>
        <time>2013-06-15T07:56:33Z</time>
      </trkpt>
      <trkpt lat="42.75549" lon="-0.11554">
        <ele>2432</ele>
        <time>2013-06-15T07:56:35Z</time>
      </trkpt>
      <trkpt lat="42.75552" lon="-0.11557">
        <ele>2434</ele>
        <time>2013-06-15T07:56:42Z</time>
      </trkpt>
      <trkpt lat="42.75555" lon="-0.11561">
        <ele>2433</ele>
        <time>2013-06-15T07:56:53Z</time>
      </trkpt>
      <trkpt lat="42.75555" lon="-0.1156">
        <ele>2433</ele>
        <time>2013-06-15T07:57:04Z</time>
      </trkpt>
      <trkpt lat="42.7555" lon="-0.11557">
        <ele>2434</ele>
        <time>2013-06-15T07:57:18Z</time>
      </trkpt>
      <trkpt lat="42.7555" lon="-0.11556">
        <ele>2433</ele>
        <time>2013-06-15T07:57:30Z</time>
      </trkpt>
      <trkpt lat="42.75553" lon="-0.11557">
        <ele>2433</ele>
        <time>2013-06-15T07:57:41Z</time>
      </trkpt>
      <trkpt lat="42.75553" lon="-0.11557">
        <ele>2433</ele>
        <time>2013-06-15T07:57:50Z</time>
      </trkpt>
      <trkpt lat="42.75555" lon="-0.11555">
        <ele>2432</ele>
        <time>2013-06-15T07:58:00Z</time>
      </trkpt>
      <trkpt lat="42.75562" lon="-0.11541">
        <ele>2430</ele>
        <time>2013-06-15T07:58:04Z</time>
      </trkpt>
      <trkpt lat="42.75573" lon="-0.11523">
        <ele>2426</ele>
        <time>2013-06-15T07:58:08Z</time>
      </trkpt>
      <trkpt lat="42.75576" lon="-0.11521">
        <ele>2425</ele>
        <time>2013-06-15T07:58:09Z</time>
      </trkpt>
      <trkpt lat="42.75576" lon="-0.1151">
        <ele>2422</ele>
        <time>2013-06-15T07:58:13Z</time>
      </trkpt>
      <trkpt lat="42.75571" lon="-0.115">
        <ele>2417</ele>
        <time>2013-06-15T07:58:16Z</time>
      </trkpt>
      <trkpt lat="42.75574" lon="-0.11489">
        <ele>2412</ele>
        <time>2013-06-15T07:58:18Z</time>
      </trkpt>
      <trkpt lat="42.7558" lon="-0.1148">
        <ele>2409</ele>
        <time>2013-06-15T07:58:21Z</time>
      </trkpt>
      <trkpt lat="42.75588" lon="-0.11476">
        <ele>2408</ele>
        <time>2013-06-15T07:58:24Z</time>
      </trkpt>
      <trkpt lat="42.7559" lon="-0.1146">
        <ele>2406</ele>
        <time>2013-06-15T07:58:28Z</time>
      </trkpt>
      <trkpt lat="42.75585" lon="-0.11437">
        <ele>2398</ele>
        <time>2013-06-15T07:58:30Z</time>
      </trkpt>
      <trkpt lat="42.75578" lon="-0.11417">
        <ele>2397</ele>
        <time>2013-06-15T07:58:32Z</time>
      </trkpt>
      <trkpt lat="42.75575" lon="-0.11411">
        <ele>2400</ele>
        <time>2013-06-15T07:58:35Z</time>
      </trkpt>
      <trkpt lat="42.75575" lon="-0.1141">
        <ele>2400</ele>
        <time>2013-06-15T07:58:36Z</time>
      </trkpt>
      <trkpt lat="42.75573" lon="-0.11407">
        <ele>2401</ele>
        <time>2013-06-15T07:58:44Z</time>
      </trkpt>
      <trkpt lat="42.7557" lon="-0.11403">
        <ele>2402</ele>
        <time>2013-06-15T07:58:51Z</time>
      </trkpt>
      <trkpt lat="42.75567" lon="-0.11396">
        <ele>2402</ele>
        <time>2013-06-15T07:59:00Z</time>
      </trkpt>
      <trkpt lat="42.75565" lon="-0.11392">
        <ele>2401</ele>
        <time>2013-06-15T07:59:06Z</time>
      </trkpt>
      <trkpt lat="42.75565" lon="-0.11391">
        <ele>2401</ele>
        <time>2013-06-15T07:59:07Z</time>
      </trkpt>
      <trkpt lat="42.7556" lon="-0.11385">
        <ele>2402</ele>
        <time>2013-06-15T07:59:15Z</time>
      </trkpt>
      <trkpt lat="42.75555" lon="-0.11381">
        <ele>2402</ele>
        <time>2013-06-15T07:59:24Z</time>
      </trkpt>
      <trkpt lat="42.7555" lon="-0.11381">
        <ele>2402</ele>
        <time>2013-06-15T07:59:32Z</time>
      </trkpt>
      <trkpt lat="42.75546" lon="-0.11377">
        <ele>2402</ele>
        <time>2013-06-15T07:59:39Z</time>
      </trkpt>
      <trkpt lat="42.75547" lon="-0.1137">
        <ele>2402</ele>
        <time>2013-06-15T07:59:45Z</time>
      </trkpt>
      <trkpt lat="42.75547" lon="-0.11364">
        <ele>2402</ele>
        <time>2013-06-15T07:59:50Z</time>
      </trkpt>
      <trkpt lat="42.75545" lon="-0.11358">
        <ele>2403</ele>
        <time>2013-06-15T07:59:57Z</time>
      </trkpt>
      <trkpt lat="42.75545" lon="-0.11355">
        <ele>2403</ele>
        <time>2013-06-15T07:59:59Z</time>
      </trkpt>
      <trkpt lat="42.75545" lon="-0.11348">
        <ele>2403</ele>
        <time>2013-06-15T08:00:06Z</time>
      </trkpt>
      <trkpt lat="42.75545" lon="-0.11342">
        <ele>2404</ele>
        <time>2013-06-15T08:00:12Z</time>
      </trkpt>
      <trkpt lat="42.75544" lon="-0.11336">
        <ele>2403</ele>
        <time>2013-06-15T08:00:18Z</time>
      </trkpt>
      <trkpt lat="42.75543" lon="-0.11329">
        <ele>2404</ele>
        <time>2013-06-15T08:00:24Z</time>
      </trkpt>
      <trkpt lat="42.75543" lon="-0.11328">
        <ele>2404</ele>
        <time>2013-06-15T08:00:26Z</time>
      </trkpt>
      <trkpt lat="42.75543" lon="-0.11321">
        <ele>2404</ele>
        <time>2013-06-15T08:00:33Z</time>
      </trkpt>
      <trkpt lat="42.75543" lon="-0.11316">
        <ele>2405</ele>
        <time>2013-06-15T08:00:39Z</time>
      </trkpt>
      <trkpt lat="42.75543" lon="-0.11311">
        <ele>2405</ele>
        <time>2013-06-15T08:00:45Z</time>
      </trkpt>
      <trkpt lat="42.75544" lon="-0.11304">
        <ele>2405</ele>
        <time>2013-06-15T08:00:52Z</time>
      </trkpt>
      <trkpt lat="42.75545" lon="-0.11302">
        <ele>2406</ele>
        <time>2013-06-15T08:00:58Z</time>
      </trkpt>
      <trkpt lat="42.75545" lon="-0.11299">
        <ele>2407</ele>
        <time>2013-06-15T08:01:07Z</time>
      </trkpt>
      <trkpt lat="42.75545" lon="-0.11294">
        <ele>2406</ele>
        <time>2013-06-15T08:01:12Z</time>
      </trkpt>
      <trkpt lat="42.75544" lon="-0.11288">
        <ele>2407</ele>
        <time>2013-06-15T08:01:19Z</time>
      </trkpt>
      <trkpt lat="42.75544" lon="-0.11282">
        <ele>2408</ele>
        <time>2013-06-15T08:01:25Z</time>
      </trkpt>
      <trkpt lat="42.75544" lon="-0.11277">
        <ele>2407</ele>
        <time>2013-06-15T08:01:31Z</time>
      </trkpt>
      <trkpt lat="42.75542" lon="-0.1127">
        <ele>2408</ele>
        <time>2013-06-15T08:01:38Z</time>
      </trkpt>
      <trkpt lat="42.75541" lon="-0.11263">
        <ele>2408</ele>
        <time>2013-06-15T08:01:46Z</time>
      </trkpt>
      <trkpt lat="42.75542" lon="-0.11256">
        <ele>2409</ele>
        <time>2013-06-15T08:01:53Z</time>
      </trkpt>
      <trkpt lat="42.75542" lon="-0.11249">
        <ele>2409</ele>
        <time>2013-06-15T08:02:00Z</time>
      </trkpt>
      <trkpt lat="42.75542" lon="-0.11243">
        <ele>2410</ele>
        <time>2013-06-15T08:02:06Z</time>
      </trkpt>
      <trkpt lat="42.75545" lon="-0.11235">
        <ele>2410</ele>
        <time>2013-06-15T08:02:14Z</time>
      </trkpt>
      <trkpt lat="42.75545" lon="-0.11232">
        <ele>2410</ele>
        <time>2013-06-15T08:02:17Z</time>
      </trkpt>
      <trkpt lat="42.75547" lon="-0.11226">
        <ele>2411</ele>
        <time>2013-06-15T08:02:24Z</time>
      </trkpt>
      <trkpt lat="42.75548" lon="-0.11226">
        <ele>2411</ele>
        <time>2013-06-15T08:02:34Z</time>
      </trkpt>
      <trkpt lat="42.75548" lon="-0.11228">
        <ele>2410</ele>
        <time>2013-06-15T08:02:44Z</time>
      </trkpt>
      <trkpt lat="42.75547" lon="-0.11229">
        <ele>2409</ele>
        <time>2013-06-15T08:02:56Z</time>
      </trkpt>
      <trkpt lat="42.75548" lon="-0.11227">
        <ele>2409</ele>
        <time>2013-06-15T08:03:20Z</time>
      </trkpt>
      <trkpt lat="42.75547" lon="-0.11228">
        <ele>2409</ele>
        <time>2013-06-15T08:03:40Z</time>
      </trkpt>
      <trkpt lat="42.75546" lon="-0.11229">
        <ele>2409</ele>
        <time>2013-06-15T08:03:58Z</time>
      </trkpt>
      <trkpt lat="42.75547" lon="-0.11229">
        <ele>2409</ele>
        <time>2013-06-15T08:04:18Z</time>
      </trkpt>
      <trkpt lat="42.75547" lon="-0.11229">
        <ele>2409</ele>
        <time>2013-06-15T08:04:35Z</time>
      </trkpt>
      <trkpt lat="42.75548" lon="-0.11228">
        <ele>2408</ele>
        <time>2013-06-15T08:04:56Z</time>
      </trkpt>
      <trkpt lat="42.75547" lon="-0.11229">
        <ele>2410</ele>
        <time>2013-06-15T08:05:11Z</time>
      </trkpt>
      <trkpt lat="42.75547" lon="-0.11228">
        <ele>2409</ele>
        <time>2013-06-15T08:05:19Z</time>
      </trkpt>
      <trkpt lat="42.75547" lon="-0.11228">
        <ele>2410</ele>
        <time>2013-06-15T08:05:26Z</time>
      </trkpt>
      <trkpt lat="42.75547" lon="-0.11227">
        <ele>2409</ele>
        <time>2013-06-15T08:05:34Z</time>
      </trkpt>
      <trkpt lat="42.75548" lon="-0.11227">
        <ele>2409</ele>
        <time>2013-06-15T08:05:45Z</time>
      </trkpt>
      <trkpt lat="42.75548" lon="-0.11227">
        <ele>2409</ele>
        <time>2013-06-15T08:05:58Z</time>
      </trkpt>
      <trkpt lat="42.75547" lon="-0.11228">
        <ele>2409</ele>
        <time>2013-06-15T08:06:13Z</time>
      </trkpt>
      <trkpt lat="42.75547" lon="-0.11226">
        <ele>2409</ele>
        <time>2013-06-15T08:06:21Z</time>
      </trkpt>
      <trkpt lat="42.75548" lon="-0.11216">
        <ele>2407</ele>
        <time>2013-06-15T08:06:26Z</time>
      </trkpt>
      <trkpt lat="42.75549" lon="-0.11214">
        <ele>2408</ele>
        <time>2013-06-15T08:06:29Z</time>
      </trkpt>
      <trkpt lat="42.75549" lon="-0.11195">
        <ele>2407</ele>
        <time>2013-06-15T08:06:37Z</time>
      </trkpt>
      <trkpt lat="42.75541" lon="-0.11175">
        <ele>2405</ele>
        <time>2013-06-15T08:06:43Z</time>
      </trkpt>
      <trkpt lat="42.75532" lon="-0.11163">
        <ele>2404</ele>
        <time>2013-06-15T08:06:49Z</time>
      </trkpt>
      <trkpt lat="42.75521" lon="-0.1115">
        <ele>2403</ele>
        <time>2013-06-15T08:06:55Z</time>
      </trkpt>
      <trkpt lat="42.75514" lon="-0.11142">
        <ele>2403</ele>
        <time>2013-06-15T08:07:02Z</time>
      </trkpt>
      <trkpt lat="42.75516" lon="-0.1114">
        <ele>2403</ele>
        <time>2013-06-15T08:07:12Z</time>
      </trkpt>
      <trkpt lat="42.75516" lon="-0.1114">
        <ele>2402</ele>
        <time>2013-06-15T08:07:25Z</time>
      </trkpt>
      <trkpt lat="42.75516" lon="-0.1114">
        <ele>2403</ele>
        <time>2013-06-15T08:07:36Z</time>
      </trkpt>
      <trkpt lat="42.75516" lon="-0.11139">
        <ele>2403</ele>
        <time>2013-06-15T08:07:48Z</time>
      </trkpt>
      <trkpt lat="42.75515" lon="-0.11139">
        <ele>2402</ele>
        <time>2013-06-15T08:07:56Z</time>
      </trkpt>
      <trkpt lat="42.75514" lon="-0.11136">
        <ele>2402</ele>
        <time>2013-06-15T08:07:59Z</time>
      </trkpt>
      <trkpt lat="42.75504" lon="-0.11137">
        <ele>2401</ele>
        <time>2013-06-15T08:08:04Z</time>
      </trkpt>
      <trkpt lat="42.75487" lon="-0.11138">
        <ele>2398</ele>
        <time>2013-06-15T08:08:08Z</time>
      </trkpt>
      <trkpt lat="42.75485" lon="-0.11133">
        <ele>2398</ele>
        <time>2013-06-15T08:08:09Z</time>
      </trkpt>
      <trkpt lat="42.75475" lon="-0.11109">
        <ele>2392</ele>
        <time>2013-06-15T08:08:13Z</time>
      </trkpt>
      <trkpt lat="42.7546" lon="-0.11092">
        <ele>2384</ele>
        <time>2013-06-15T08:08:16Z</time>
      </trkpt>
      <trkpt lat="42.75448" lon="-0.11074">
        <ele>2380</ele>
        <time>2013-06-15T08:08:19Z</time>
      </trkpt>
      <trkpt lat="42.75445" lon="-0.11067">
        <ele>2379</ele>
        <time>2013-06-15T08:08:20Z</time>
      </trkpt>
      <trkpt lat="42.75438" lon="-0.11049">
        <ele>2377</ele>
        <time>2013-06-15T08:08:23Z</time>
      </trkpt>
      <trkpt lat="42.75428" lon="-0.11026">
        <ele>2375</ele>
        <time>2013-06-15T08:08:29Z</time>
      </trkpt>
      <trkpt lat="42.7542" lon="-0.11007">
        <ele>2372</ele>
        <time>2013-06-15T08:08:33Z</time>
      </trkpt>
      <trkpt lat="42.75412" lon="-0.10989">
        <ele>2370</ele>
        <time>2013-06-15T08:08:37Z</time>
      </trkpt>
      <trkpt lat="42.75405" lon="-0.10976">
        <ele>2369</ele>
        <time>2013-06-15T08:08:40Z</time>
      </trkpt>
      <trkpt lat="42.75393" lon="-0.10957">
        <ele>2365</ele>
        <time>2013-06-15T08:08:45Z</time>
      </trkpt>
      <trkpt lat="42.75387" lon="-0.10953">
        <ele>2364</ele>
        <time>2013-06-15T08:08:47Z</time>
      </trkpt>
      <trkpt lat="42.75379" lon="-0.10947">
        <ele>2363</ele>
        <time>2013-06-15T08:08:53Z</time>
      </trkpt>
      <trkpt lat="42.75378" lon="-0.10946">
        <ele>2363</ele>
        <time>2013-06-15T08:09:02Z</time>
      </trkpt>
      <trkpt lat="42.75371" lon="-0.10934">
        <ele>2361</ele>
        <time>2013-06-15T08:09:07Z</time>
      </trkpt>
      <trkpt lat="42.75363" lon="-0.10924">
        <ele>2357</ele>
        <time>2013-06-15T08:09:10Z</time>
      </trkpt>
      <trkpt lat="42.75355" lon="-0.10917">
        <ele>2355</ele>
        <time>2013-06-15T08:09:13Z</time>
      </trkpt>
      <trkpt lat="42.7535" lon="-0.10911">
        <ele>2354</ele>
        <time>2013-06-15T08:09:16Z</time>
      </trkpt>
      <trkpt lat="42.75346" lon="-0.10906">
        <ele>2353</ele>
        <time>2013-06-15T08:09:21Z</time>
      </trkpt>
      <trkpt lat="42.75346" lon="-0.10907">
        <ele>2352</ele>
        <time>2013-06-15T08:09:23Z</time>
      </trkpt>
      <trkpt lat="42.75342" lon="-0.10894">
        <ele>2350</ele>
        <time>2013-06-15T08:09:28Z</time>
      </trkpt>
      <trkpt lat="42.75345" lon="-0.10877">
        <ele>2345</ele>
        <time>2013-06-15T08:09:32Z</time>
      </trkpt>
      <trkpt lat="42.75339" lon="-0.10868">
        <ele>2342</ele>
        <time>2013-06-15T08:09:35Z</time>
      </trkpt>
      <trkpt lat="42.75329" lon="-0.10856">
        <ele>2339</ele>
        <time>2013-06-15T08:09:39Z</time>
      </trkpt>
      <trkpt lat="42.7532" lon="-0.10834">
        <ele>2336</ele>
        <time>2013-06-15T08:09:43Z</time>
      </trkpt>
      <trkpt lat="42.75315" lon="-0.10823">
        <ele>2332</ele>
        <time>2013-06-15T08:09:46Z</time>
      </trkpt>
      <trkpt lat="42.75312" lon="-0.10817">
        <ele>2331</ele>
        <time>2013-06-15T08:09:52Z</time>
      </trkpt>
      <trkpt lat="42.75312" lon="-0.10816">
        <ele>2331</ele>
        <time>2013-06-15T08:10:03Z</time>
      </trkpt>
      <trkpt lat="42.75313" lon="-0.10815">
        <ele>2330</ele>
        <time>2013-06-15T08:10:06Z</time>
      </trkpt>
      <trkpt lat="42.75313" lon="-0.10803">
        <ele>2327</ele>
        <time>2013-06-15T08:10:11Z</time>
      </trkpt>
      <trkpt lat="42.7532" lon="-0.10799">
        <ele>2324</ele>
        <time>2013-06-15T08:10:14Z</time>
      </trkpt>
      <trkpt lat="42.75322" lon="-0.10799">
        <ele>2324</ele>
        <time>2013-06-15T08:10:15Z</time>
      </trkpt>
      <trkpt lat="42.75333" lon="-0.10801">
        <ele>2322</ele>
        <time>2013-06-15T08:10:18Z</time>
      </trkpt>
      <trkpt lat="42.75345" lon="-0.10804">
        <ele>2319</ele>
        <time>2013-06-15T08:10:22Z</time>
      </trkpt>
      <trkpt lat="42.75351" lon="-0.10805">
        <ele>2318</ele>
        <time>2013-06-15T08:10:24Z</time>
      </trkpt>
      <trkpt lat="42.7535" lon="-0.10796">
        <ele>2314</ele>
        <time>2013-06-15T08:10:27Z</time>
      </trkpt>
      <trkpt lat="42.75348" lon="-0.10787">
        <ele>2310</ele>
        <time>2013-06-15T08:10:30Z</time>
      </trkpt>
      <trkpt lat="42.75358" lon="-0.10784">
        <ele>2306</ele>
        <time>2013-06-15T08:10:33Z</time>
      </trkpt>
      <trkpt lat="42.75361" lon="-0.10774">
        <ele>2301</ele>
        <time>2013-06-15T08:10:36Z</time>
      </trkpt>
      <trkpt lat="42.75367" lon="-0.10767">
        <ele>2296</ele>
        <time>2013-06-15T08:10:39Z</time>
      </trkpt>
      <trkpt lat="42.75374" lon="-0.10769">
        <ele>2295</ele>
        <time>2013-06-15T08:10:41Z</time>
      </trkpt>
      <trkpt lat="42.75377" lon="-0.10765">
        <ele>2291</ele>
        <time>2013-06-15T08:10:43Z</time>
      </trkpt>
      <trkpt lat="42.75377" lon="-0.10758">
        <ele>2287</ele>
        <time>2013-06-15T08:10:46Z</time>
      </trkpt>
      <trkpt lat="42.75384" lon="-0.10752">
        <ele>2282</ele>
        <time>2013-06-15T08:10:48Z</time>
      </trkpt>
      <trkpt lat="42.75395" lon="-0.10752">
        <ele>2279</ele>
        <time>2013-06-15T08:10:51Z</time>
      </trkpt>
      <trkpt lat="42.75394" lon="-0.10747">
        <ele>2277</ele>
        <time>2013-06-15T08:10:54Z</time>
      </trkpt>
      <trkpt lat="42.75392" lon="-0.10744">
        <ele>2275</ele>
        <time>2013-06-15T08:10:55Z</time>
      </trkpt>
      <trkpt lat="42.75387" lon="-0.10737">
        <ele>2272</ele>
        <time>2013-06-15T08:10:57Z</time>
      </trkpt>
      <trkpt lat="42.75382" lon="-0.10725">
        <ele>2268</ele>
        <time>2013-06-15T08:11:01Z</time>
      </trkpt>
      <trkpt lat="42.75378" lon="-0.10715">
        <ele>2265</ele>
        <time>2013-06-15T08:11:03Z</time>
      </trkpt>
      <trkpt lat="42.75365" lon="-0.10705">
        <ele>2260</ele>
        <time>2013-06-15T08:11:07Z</time>
      </trkpt>
      <trkpt lat="42.7536" lon="-0.10702">
        <ele>2259</ele>
        <time>2013-06-15T08:11:09Z</time>
      </trkpt>
      <trkpt lat="42.7535" lon="-0.10697">
        <ele>2258</ele>
        <time>2013-06-15T08:11:15Z</time>
      </trkpt>
      <trkpt lat="42.75333" lon="-0.10693">
        <ele>2257</ele>
        <time>2013-06-15T08:11:24Z</time>
      </trkpt>
      <trkpt lat="42.7532" lon="-0.10689">
        <ele>2256</ele>
        <time>2013-06-15T08:11:31Z</time>
      </trkpt>
      <trkpt lat="42.75305" lon="-0.10681">
        <ele>2255</ele>
        <time>2013-06-15T08:11:37Z</time>
      </trkpt>
      <trkpt lat="42.75299" lon="-0.10678">
        <ele>2254</ele>
        <time>2013-06-15T08:11:39Z</time>
      </trkpt>
      <trkpt lat="42.75279" lon="-0.10669">
        <ele>2253</ele>
        <time>2013-06-15T08:11:47Z</time>
      </trkpt>
      <trkpt lat="42.75271" lon="-0.10665">
        <ele>2253</ele>
        <time>2013-06-15T08:11:54Z</time>
      </trkpt>
      <trkpt lat="42.75264" lon="-0.10662">
        <ele>2254</ele>
        <time>2013-06-15T08:12:01Z</time>
      </trkpt>
      <trkpt lat="42.75259" lon="-0.10659">
        <ele>2254</ele>
        <time>2013-06-15T08:12:07Z</time>
      </trkpt>
      <trkpt lat="42.75257" lon="-0.10657">
        <ele>2254</ele>
        <time>2013-06-15T08:12:09Z</time>
      </trkpt>
      <trkpt lat="42.75249" lon="-0.1065">
        <ele>2254</ele>
        <time>2013-06-15T08:12:16Z</time>
      </trkpt>
      <trkpt lat="42.75243" lon="-0.10641">
        <ele>2254</ele>
        <time>2013-06-15T08:12:23Z</time>
      </trkpt>
      <trkpt lat="42.75238" lon="-0.10633">
        <ele>2254</ele>
        <time>2013-06-15T08:12:31Z</time>
      </trkpt>
      <trkpt lat="42.75234" lon="-0.10628">
        <ele>2254</ele>
        <time>2013-06-15T08:12:37Z</time>
      </trkpt>
      <trkpt lat="42.75233" lon="-0.10627">
        <ele>2254</ele>
        <time>2013-06-15T08:12:39Z</time>
      </trkpt>
      <trkpt lat="42.75231" lon="-0.10623">
        <ele>2255</ele>
        <time>2013-06-15T08:12:43Z</time>
      </trkpt>
      <trkpt lat="42.7523" lon="-0.1062">
        <ele>2255</ele>
        <time>2013-06-15T08:12:47Z</time>
      </trkpt>
      <trkpt lat="42.75228" lon="-0.10614">
        <ele>2256</ele>
        <time>2013-06-15T08:12:54Z</time>
      </trkpt>
      <trkpt lat="42.75226" lon="-0.10611">
        <ele>2254</ele>
        <time>2013-06-15T08:12:59Z</time>
      </trkpt>
      <trkpt lat="42.75224" lon="-0.10607">
        <ele>2256</ele>
        <time>2013-06-15T08:13:05Z</time>
      </trkpt>
      <trkpt lat="42.75221" lon="-0.10602">
        <ele>2256</ele>
        <time>2013-06-15T08:13:11Z</time>
      </trkpt>
      <trkpt lat="42.75219" lon="-0.10598">
        <ele>2256</ele>
        <time>2013-06-15T08:13:18Z</time>
      </trkpt>
      <trkpt lat="42.7522" lon="-0.10598">
        <ele>2256</ele>
        <time>2013-06-15T08:13:32Z</time>
      </trkpt>
      <trkpt lat="42.75219" lon="-0.10598">
        <ele>2256</ele>
        <time>2013-06-15T08:13:49Z</time>
      </trkpt>
      <trkpt lat="42.7522" lon="-0.10594">
        <ele>2256</ele>
        <time>2013-06-15T08:14:00Z</time>
      </trkpt>
      <trkpt lat="42.75221" lon="-0.10593">
        <ele>2256</ele>
        <time>2013-06-15T08:14:08Z</time>
      </trkpt>
      <trkpt lat="42.75223" lon="-0.10595">
        <ele>2256</ele>
        <time>2013-06-15T08:14:19Z</time>
      </trkpt>
      <trkpt lat="42.75221" lon="-0.10595">
        <ele>2256</ele>
        <time>2013-06-15T08:14:32Z</time>
      </trkpt>
      <trkpt lat="42.75221" lon="-0.10594">
        <ele>2255</ele>
        <time>2013-06-15T08:14:45Z</time>
      </trkpt>
      <trkpt lat="42.7522" lon="-0.10593">
        <ele>2255</ele>
        <time>2013-06-15T08:14:54Z</time>
      </trkpt>
      <trkpt lat="42.75219" lon="-0.10589">
        <ele>2255</ele>
        <time>2013-06-15T08:15:04Z</time>
      </trkpt>
      <trkpt lat="42.75219" lon="-0.10587">
        <ele>2255</ele>
        <time>2013-06-15T08:15:08Z</time>
      </trkpt>
      <trkpt lat="42.75219" lon="-0.10582">
        <ele>2255</ele>
        <time>2013-06-15T08:15:12Z</time>
      </trkpt>
      <trkpt lat="42.75217" lon="-0.10561">
        <ele>2252</ele>
        <time>2013-06-15T08:15:17Z</time>
      </trkpt>
      <trkpt lat="42.75221" lon="-0.10542">
        <ele>2249</ele>
        <time>2013-06-15T08:15:22Z</time>
      </trkpt>
      <trkpt lat="42.75215" lon="-0.10532">
        <ele>2246</ele>
        <time>2013-06-15T08:15:25Z</time>
      </trkpt>
      <trkpt lat="42.75198" lon="-0.10515">
        <ele>2240</ele>
        <time>2013-06-15T08:15:28Z</time>
      </trkpt>
      <trkpt lat="42.75185" lon="-0.1048">
        <ele>2235</ele>
        <time>2013-06-15T08:15:33Z</time>
      </trkpt>
      <trkpt lat="42.75176" lon="-0.10437">
        <ele>2229</ele>
        <time>2013-06-15T08:15:38Z</time>
      </trkpt>
      <trkpt lat="42.75175" lon="-0.10426">
        <ele>2229</ele>
        <time>2013-06-15T08:15:40Z</time>
      </trkpt>
      <trkpt lat="42.75169" lon="-0.10402">
        <ele>2227</ele>
        <time>2013-06-15T08:15:46Z</time>
      </trkpt>
      <trkpt lat="42.75159" lon="-0.1038">
        <ele>2226</ele>
        <time>2013-06-15T08:15:53Z</time>
      </trkpt>
      <trkpt lat="42.75146" lon="-0.10359">
        <ele>2224</ele>
        <time>2013-06-15T08:16:00Z</time>
      </trkpt>
      <trkpt lat="42.7513" lon="-0.10344">
        <ele>2221</ele>
        <time>2013-06-15T08:16:07Z</time>
      </trkpt>
      <trkpt lat="42.75122" lon="-0.10341">
        <ele>2220</ele>
        <time>2013-06-15T08:16:10Z</time>
      </trkpt>
      <trkpt lat="42.75122" lon="-0.10321">
        <ele>2214</ele>
        <time>2013-06-15T08:16:14Z</time>
      </trkpt>
      <trkpt lat="42.7513" lon="-0.10304">
        <ele>2211</ele>
        <time>2013-06-15T08:16:17Z</time>
      </trkpt>
      <trkpt lat="42.75127" lon="-0.10279">
        <ele>2205</ele>
        <time>2013-06-15T08:16:21Z</time>
      </trkpt>
      <trkpt lat="42.75125" lon="-0.10244">
        <ele>2200</ele>
        <time>2013-06-15T08:16:25Z</time>
      </trkpt>
      <trkpt lat="42.75122" lon="-0.10205">
        <ele>2197</ele>
        <time>2013-06-15T08:16:30Z</time>
      </trkpt>
      <trkpt lat="42.75121" lon="-0.1018">
        <ele>2193</ele>
        <time>2013-06-15T08:16:33Z</time>
      </trkpt>
      <trkpt lat="42.75121" lon="-0.10172">
        <ele>2192</ele>
        <time>2013-06-15T08:16:34Z</time>
      </trkpt>
      <trkpt lat="42.75121" lon="-0.10164">
        <ele>2192</ele>
        <time>2013-06-15T08:16:35Z</time>
      </trkpt>
      <trkpt lat="42.75122" lon="-0.10154">
        <ele>2191</ele>
        <time>2013-06-15T08:16:37Z</time>
      </trkpt>
      <trkpt lat="42.75122" lon="-0.10154">
        <ele>2191</ele>
        <time>2013-06-15T08:16:41Z</time>
      </trkpt>
      <trkpt lat="42.75122" lon="-0.10154">
        <ele>2191</ele>
        <time>2013-06-15T08:16:42Z</time>
      </trkpt>
      <trkpt lat="42.75122" lon="-0.10154">
        <ele>2191</ele>
        <time>2013-06-15T08:16:50Z</time>
      </trkpt>
      <trkpt lat="42.75122" lon="-0.10152">
        <ele>2190</ele>
        <time>2013-06-15T08:17:07Z</time>
      </trkpt>
      <trkpt lat="42.75122" lon="-0.10151">
        <ele>2190</ele>
        <time>2013-06-15T08:17:08Z</time>
      </trkpt>
      <trkpt lat="42.75113" lon="-0.10139">
        <ele>2188</ele>
        <time>2013-06-15T08:17:13Z</time>
      </trkpt>
      <trkpt lat="42.75108" lon="-0.10136">
        <ele>2185</ele>
        <time>2013-06-15T08:17:15Z</time>
      </trkpt>
      <trkpt lat="42.75102" lon="-0.10138">
        <ele>2184</ele>
        <time>2013-06-15T08:17:17Z</time>
      </trkpt>
      <trkpt lat="42.75097" lon="-0.1014">
        <ele>2183</ele>
        <time>2013-06-15T08:17:21Z</time>
      </trkpt>
      <trkpt lat="42.75091" lon="-0.10142">
        <ele>2182</ele>
        <time>2013-06-15T08:17:28Z</time>
      </trkpt>
      <trkpt lat="42.75086" lon="-0.10144">
        <ele>2183</ele>
        <time>2013-06-15T08:17:35Z</time>
      </trkpt>
      <trkpt lat="42.75072" lon="-0.10134">
        <ele>2182</ele>
        <time>2013-06-15T08:17:41Z</time>
      </trkpt>
      <trkpt lat="42.75064" lon="-0.10126">
        <ele>2180</ele>
        <time>2013-06-15T08:17:43Z</time>
      </trkpt>
      <trkpt lat="42.7506" lon="-0.10122">
        <ele>2179</ele>
        <time>2013-06-15T08:17:44Z</time>
      </trkpt>
      <trkpt lat="42.75044" lon="-0.10107">
        <ele>2178</ele>
        <time>2013-06-15T08:17:50Z</time>
      </trkpt>
      <trkpt lat="42.75041" lon="-0.10109">
        <ele>2178</ele>
        <time>2013-06-15T08:17:57Z</time>
      </trkpt>
      <trkpt lat="42.75038" lon="-0.10109">
        <ele>2178</ele>
        <time>2013-06-15T08:18:04Z</time>
      </trkpt>
      <trkpt lat="42.75036" lon="-0.1011">
        <ele>2178</ele>
        <time>2013-06-15T08:18:10Z</time>
      </trkpt>
      <trkpt lat="42.75031" lon="-0.10108">
        <ele>2178</ele>
        <time>2013-06-15T08:18:17Z</time>
      </trkpt>
      <trkpt lat="42.75027" lon="-0.10111">
        <ele>2179</ele>
        <time>2013-06-15T08:18:25Z</time>
      </trkpt>
      <trkpt lat="42.75026" lon="-0.10115">
        <ele>2178</ele>
        <time>2013-06-15T08:18:31Z</time>
      </trkpt>
      <trkpt lat="42.75022" lon="-0.10118">
        <ele>2178</ele>
        <time>2013-06-15T08:18:38Z</time>
      </trkpt>
      <trkpt lat="42.75022" lon="-0.10118">
        <ele>2178</ele>
        <time>2013-06-15T08:18:46Z</time>
      </trkpt>
      <trkpt lat="42.7502" lon="-0.10119">
        <ele>2177</ele>
        <time>2013-06-15T08:19:02Z</time>
      </trkpt>
      <trkpt lat="42.75019" lon="-0.10121">
        <ele>2178</ele>
        <time>2013-06-15T08:19:09Z</time>
      </trkpt>
      <trkpt lat="42.75012" lon="-0.10127">
        <ele>2177</ele>
        <time>2013-06-15T08:19:16Z</time>
      </trkpt>
      <trkpt lat="42.75008" lon="-0.10131">
        <ele>2178</ele>
        <time>2013-06-15T08:19:21Z</time>
      </trkpt>
      <trkpt lat="42.74995" lon="-0.10138">
        <ele>2175</ele>
        <time>2013-06-15T08:19:26Z</time>
      </trkpt>
      <trkpt lat="42.74973" lon="-0.10149">
        <ele>2171</ele>
        <time>2013-06-15T08:19:30Z</time>
      </trkpt>
      <trkpt lat="42.74955" lon="-0.10152">
        <ele>2168</ele>
        <time>2013-06-15T08:19:34Z</time>
      </trkpt>
      <trkpt lat="42.74938" lon="-0.10147">
        <ele>2166</ele>
        <time>2013-06-15T08:19:38Z</time>
      </trkpt>
      <trkpt lat="42.74931" lon="-0.10132">
        <ele>2161</ele>
        <time>2013-06-15T08:19:41Z</time>
      </trkpt>
      <trkpt lat="42.7493" lon="-0.10117">
        <ele>2157</ele>
        <time>2013-06-15T08:19:43Z</time>
      </trkpt>
      <trkpt lat="42.74933" lon="-0.10102">
        <ele>2153</ele>
        <time>2013-06-15T08:19:45Z</time>
      </trkpt>
      <trkpt lat="42.74943" lon="-0.10085">
        <ele>2150</ele>
        <time>2013-06-15T08:19:48Z</time>
      </trkpt>
      <trkpt lat="42.7494" lon="-0.10078">
        <ele>2148</ele>
        <time>2013-06-15T08:19:49Z</time>
      </trkpt>
      <trkpt lat="42.74928" lon="-0.10056">
        <ele>2144</ele>
        <time>2013-06-15T08:19:52Z</time>
      </trkpt>
      <trkpt lat="42.7492" lon="-0.10043">
        <ele>2142</ele>
        <time>2013-06-15T08:19:55Z</time>
      </trkpt>
      <trkpt lat="42.74905" lon="-0.10033">
        <ele>2140</ele>
        <time>2013-06-15T08:20:02Z</time>
      </trkpt>
      <trkpt lat="42.74892" lon="-0.10034">
        <ele>2138</ele>
        <time>2013-06-15T08:20:07Z</time>
      </trkpt>
      <trkpt lat="42.74889" lon="-0.10035">
        <ele>2137</ele>
        <time>2013-06-15T08:20:08Z</time>
      </trkpt>
      <trkpt lat="42.74879" lon="-0.10037">
        <ele>2137</ele>
        <time>2013-06-15T08:20:10Z</time>
      </trkpt>
      <trkpt lat="42.74862" lon="-0.10033">
        <ele>2132</ele>
        <time>2013-06-15T08:20:13Z</time>
      </trkpt>
      <trkpt lat="42.74848" lon="-0.10014">
        <ele>2132</ele>
        <time>2013-06-15T08:20:17Z</time>
      </trkpt>
      <trkpt lat="42.74847" lon="-0.10008">
        <ele>2131</ele>
        <time>2013-06-15T08:20:18Z</time>
      </trkpt>
      <trkpt lat="42.74837" lon="-0.09969">
        <ele>2127</ele>
        <time>2013-06-15T08:20:26Z</time>
      </trkpt>
      <trkpt lat="42.74835" lon="-0.09965">
        <ele>2127</ele>
        <time>2013-06-15T08:20:27Z</time>
      </trkpt>
      <trkpt lat="42.74827" lon="-0.09946">
        <ele>2125</ele>
        <time>2013-06-15T08:20:31Z</time>
      </trkpt>
      <trkpt lat="42.74813" lon="-0.09922">
        <ele>2121</ele>
        <time>2013-06-15T08:20:36Z</time>
      </trkpt>
      <trkpt lat="42.74809" lon="-0.09913">
        <ele>2121</ele>
        <time>2013-06-15T08:20:38Z</time>
      </trkpt>
      <trkpt lat="42.74803" lon="-0.0988">
        <ele>2117</ele>
        <time>2013-06-15T08:20:44Z</time>
      </trkpt>
      <trkpt lat="42.74801" lon="-0.09878">
        <ele>2116</ele>
        <time>2013-06-15T08:20:51Z</time>
      </trkpt>
      <trkpt lat="42.748" lon="-0.09877">
        <ele>2116</ele>
        <time>2013-06-15T08:21:00Z</time>
      </trkpt>
      <trkpt lat="42.74799" lon="-0.09877">
        <ele>2116</ele>
        <time>2013-06-15T08:21:06Z</time>
      </trkpt>
      <trkpt lat="42.74794" lon="-0.09875">
        <ele>2116</ele>
        <time>2013-06-15T08:21:15Z</time>
      </trkpt>
      <trkpt lat="42.74791" lon="-0.09874">
        <ele>2116</ele>
        <time>2013-06-15T08:21:22Z</time>
      </trkpt>
      <trkpt lat="42.7479" lon="-0.09872">
        <ele>2116</ele>
        <time>2013-06-15T08:21:30Z</time>
      </trkpt>
      <trkpt lat="42.74791" lon="-0.09871">
        <ele>2115</ele>
        <time>2013-06-15T08:21:46Z</time>
      </trkpt>
      <trkpt lat="42.74789" lon="-0.09872">
        <ele>2116</ele>
        <time>2013-06-15T08:21:52Z</time>
      </trkpt>
      <trkpt lat="42.74787" lon="-0.09873">
        <ele>2115</ele>
        <time>2013-06-15T08:22:01Z</time>
      </trkpt>
      <trkpt lat="42.74784" lon="-0.09874">
        <ele>2114</ele>
        <time>2013-06-15T08:22:08Z</time>
      </trkpt>
      <trkpt lat="42.74783" lon="-0.09874">
        <ele>2113</ele>
        <time>2013-06-15T08:22:09Z</time>
      </trkpt>
      <trkpt lat="42.74776" lon="-0.09865">
        <ele>2111</ele>
        <time>2013-06-15T08:22:14Z</time>
      </trkpt>
      <trkpt lat="42.74779" lon="-0.09848">
        <ele>2107</ele>
        <time>2013-06-15T08:22:18Z</time>
      </trkpt>
      <trkpt lat="42.7478" lon="-0.09834">
        <ele>2103</ele>
        <time>2013-06-15T08:22:21Z</time>
      </trkpt>
      <trkpt lat="42.74782" lon="-0.09819">
        <ele>2098</ele>
        <time>2013-06-15T08:22:24Z</time>
      </trkpt>
      <trkpt lat="42.74785" lon="-0.09815">
        <ele>2098</ele>
        <time>2013-06-15T08:22:25Z</time>
      </trkpt>
      <trkpt lat="42.7479" lon="-0.09808">
        <ele>2097</ele>
        <time>2013-06-15T08:22:27Z</time>
      </trkpt>
      <trkpt lat="42.74787" lon="-0.09794">
        <ele>2092</ele>
        <time>2013-06-15T08:22:30Z</time>
      </trkpt>
      <trkpt lat="42.74792" lon="-0.09774">
        <ele>2086</ele>
        <time>2013-06-15T08:22:33Z</time>
      </trkpt>
      <trkpt lat="42.74802" lon="-0.0975">
        <ele>2082</ele>
        <time>2013-06-15T08:22:38Z</time>
      </trkpt>
      <trkpt lat="42.74806" lon="-0.09728">
        <ele>2078</ele>
        <time>2013-06-15T08:22:41Z</time>
      </trkpt>
      <trkpt lat="42.74813" lon="-0.09716">
        <ele>2075</ele>
        <time>2013-06-15T08:22:43Z</time>
      </trkpt>
      <trkpt lat="42.7482" lon="-0.09702">
        <ele>2074</ele>
        <time>2013-06-15T08:22:46Z</time>
      </trkpt>
      <trkpt lat="42.74819" lon="-0.09697">
        <ele>2070</ele>
        <time>2013-06-15T08:22:47Z</time>
      </trkpt>
      <trkpt lat="42.74817" lon="-0.0969">
        <ele>2068</ele>
        <time>2013-06-15T08:22:48Z</time>
      </trkpt>
      <trkpt lat="42.74826" lon="-0.09661">
        <ele>2063</ele>
        <time>2013-06-15T08:22:52Z</time>
      </trkpt>
      <trkpt lat="42.74828" lon="-0.0966">
        <ele>2063</ele>
        <time>2013-06-15T08:22:55Z</time>
      </trkpt>
      <trkpt lat="42.74828" lon="-0.09661">
        <ele>2063</ele>
        <time>2013-06-15T08:23:06Z</time>
      </trkpt>
      <trkpt lat="42.74829" lon="-0.09653">
        <ele>2063</ele>
        <time>2013-06-15T08:23:09Z</time>
      </trkpt>
      <trkpt lat="42.74838" lon="-0.09634">
        <ele>2058</ele>
        <time>2013-06-15T08:23:13Z</time>
      </trkpt>
      <trkpt lat="42.74837" lon="-0.09622">
        <ele>2054</ele>
        <time>2013-06-15T08:23:16Z</time>
      </trkpt>
      <trkpt lat="42.74833" lon="-0.09607">
        <ele>2049</ele>
        <time>2013-06-15T08:23:19Z</time>
      </trkpt>
      <trkpt lat="42.74834" lon="-0.09603">
        <ele>2048</ele>
        <time>2013-06-15T08:23:20Z</time>
      </trkpt>
      <trkpt lat="42.74839" lon="-0.09594">
        <ele>2047</ele>
        <time>2013-06-15T08:23:22Z</time>
      </trkpt>
      <trkpt lat="42.74848" lon="-0.09581">
        <ele>2044</ele>
        <time>2013-06-15T08:23:26Z</time>
      </trkpt>
      <trkpt lat="42.74844" lon="-0.0957">
        <ele>2041</ele>
        <time>2013-06-15T08:23:29Z</time>
      </trkpt>
      <trkpt lat="42.74845" lon="-0.09562">
        <ele>2038</ele>
        <time>2013-06-15T08:23:31Z</time>
      </trkpt>
      <trkpt lat="42.7484" lon="-0.09553">
        <ele>2033</ele>
        <time>2013-06-15T08:23:34Z</time>
      </trkpt>
      <trkpt lat="42.74832" lon="-0.09548">
        <ele>2030</ele>
        <time>2013-06-15T08:23:37Z</time>
      </trkpt>
      <trkpt lat="42.74829" lon="-0.09546">
        <ele>2029</ele>
        <time>2013-06-15T08:23:38Z</time>
      </trkpt>
      <trkpt lat="42.74814" lon="-0.09535">
        <ele>2026</ele>
        <time>2013-06-15T08:23:43Z</time>
      </trkpt>
      <trkpt lat="42.74806" lon="-0.09533">
        <ele>2026</ele>
        <time>2013-06-15T08:23:48Z</time>
      </trkpt>
      <trkpt lat="42.74792" lon="-0.09527">
        <ele>2025</ele>
        <time>2013-06-15T08:23:56Z</time>
      </trkpt>
      <trkpt lat="42.74789" lon="-0.09525">
        <ele>2025</ele>
        <time>2013-06-15T08:23:57Z</time>
      </trkpt>
      <trkpt lat="42.74788" lon="-0.09513">
        <ele>2020</ele>
        <time>2013-06-15T08:24:00Z</time>
      </trkpt>
      <trkpt lat="42.7479" lon="-0.09505">
        <ele>2017</ele>
        <time>2013-06-15T08:24:02Z</time>
      </trkpt>
      <trkpt lat="42.74789" lon="-0.09491">
        <ele>2014</ele>
        <time>2013-06-15T08:24:05Z</time>
      </trkpt>
      <trkpt lat="42.74796" lon="-0.09481">
        <ele>2010</ele>
        <time>2013-06-15T08:24:07Z</time>
      </trkpt>
      <trkpt lat="42.74803" lon="-0.09475">
        <ele>2010</ele>
        <time>2013-06-15T08:24:09Z</time>
      </trkpt>
      <trkpt lat="42.74806" lon="-0.09473">
        <ele>2009</ele>
        <time>2013-06-15T08:24:10Z</time>
      </trkpt>
      <trkpt lat="42.74815" lon="-0.09463">
        <ele>2008</ele>
        <time>2013-06-15T08:24:13Z</time>
      </trkpt>
      <trkpt lat="42.74802" lon="-0.09451">
        <ele>2002</ele>
        <time>2013-06-15T08:24:18Z</time>
      </trkpt>
      <trkpt lat="42.74801" lon="-0.09446">
        <ele>2003</ele>
        <time>2013-06-15T08:24:19Z</time>
      </trkpt>
      <trkpt lat="42.74808" lon="-0.09435">
        <ele>2000</ele>
        <time>2013-06-15T08:24:22Z</time>
      </trkpt>
      <trkpt lat="42.74809" lon="-0.09431">
        <ele>2000</ele>
        <time>2013-06-15T08:24:23Z</time>
      </trkpt>
      <trkpt lat="42.74809" lon="-0.09424">
        <ele>1998</ele>
        <time>2013-06-15T08:24:25Z</time>
      </trkpt>
      <trkpt lat="42.74812" lon="-0.09407">
        <ele>1995</ele>
        <time>2013-06-15T08:24:29Z</time>
      </trkpt>
      <trkpt lat="42.74825" lon="-0.09394">
        <ele>1992</ele>
        <time>2013-06-15T08:24:33Z</time>
      </trkpt>
      <trkpt lat="42.74825" lon="-0.09387">
        <ele>1990</ele>
        <time>2013-06-15T08:24:36Z</time>
      </trkpt>
      <trkpt lat="42.74821" lon="-0.09387">
        <ele>1991</ele>
        <time>2013-06-15T08:24:42Z</time>
      </trkpt>
      <trkpt lat="42.74819" lon="-0.09388">
        <ele>1991</ele>
        <time>2013-06-15T08:24:55Z</time>
      </trkpt>
      <trkpt lat="42.74818" lon="-0.09388">
        <ele>1991</ele>
        <time>2013-06-15T08:25:06Z</time>
      </trkpt>
      <trkpt lat="42.74818" lon="-0.09388">
        <ele>1991</ele>
        <time>2013-06-15T08:25:16Z</time>
      </trkpt>
      <trkpt lat="42.74818" lon="-0.09388">
        <ele>1990</ele>
        <time>2013-06-15T08:25:29Z</time>
      </trkpt>
      <trkpt lat="42.74819" lon="-0.09388">
        <ele>1990</ele>
        <time>2013-06-15T08:25:36Z</time>
      </trkpt>
      <trkpt lat="42.74819" lon="-0.09389">
        <ele>1989</ele>
        <time>2013-06-15T08:25:47Z</time>
      </trkpt>
      <trkpt lat="42.7482" lon="-0.09388">
        <ele>1989</ele>
        <time>2013-06-15T08:26:01Z</time>
      </trkpt>
      <trkpt lat="42.7482" lon="-0.09388">
        <ele>1989</ele>
        <time>2013-06-15T08:26:11Z</time>
      </trkpt>
      <trkpt lat="42.74818" lon="-0.09388">
        <ele>1988</ele>
        <time>2013-06-15T08:26:23Z</time>
      </trkpt>
      <trkpt lat="42.74818" lon="-0.09388">
        <ele>1989</ele>
        <time>2013-06-15T08:26:31Z</time>
      </trkpt>
      <trkpt lat="42.74818" lon="-0.09387">
        <ele>1988</ele>
        <time>2013-06-15T08:26:44Z</time>
      </trkpt>
      <trkpt lat="42.74819" lon="-0.09386">
        <ele>1988</ele>
        <time>2013-06-15T08:26:56Z</time>
      </trkpt>
      <trkpt lat="42.74818" lon="-0.09388">
        <ele>1988</ele>
        <time>2013-06-15T08:27:09Z</time>
      </trkpt>
      <trkpt lat="42.74818" lon="-0.09387">
        <ele>1988</ele>
        <time>2013-06-15T08:27:17Z</time>
      </trkpt>
      <trkpt lat="42.74818" lon="-0.09386">
        <ele>1988</ele>
        <time>2013-06-15T08:27:31Z</time>
      </trkpt>
      <trkpt lat="42.74819" lon="-0.09386">
        <ele>1988</ele>
        <time>2013-06-15T08:27:44Z</time>
      </trkpt>
      <trkpt lat="42.74819" lon="-0.09386">
        <ele>1988</ele>
        <time>2013-06-15T08:27:50Z</time>
      </trkpt>
      <trkpt lat="42.74818" lon="-0.09387">
        <ele>1988</ele>
        <time>2013-06-15T08:27:58Z</time>
      </trkpt>
      <trkpt lat="42.74818" lon="-0.09388">
        <ele>1988</ele>
        <time>2013-06-15T08:28:06Z</time>
      </trkpt>
      <trkpt lat="42.74818" lon="-0.09388">
        <ele>1987</ele>
        <time>2013-06-15T08:28:14Z</time>
      </trkpt>
      <trkpt lat="42.74818" lon="-0.09387">
        <ele>1988</ele>
        <time>2013-06-15T08:28:21Z</time>
      </trkpt>
      <trkpt lat="42.74816" lon="-0.09385">
        <ele>1988</ele>
        <time>2013-06-15T08:28:31Z</time>
      </trkpt>
      <trkpt lat="42.74816" lon="-0.09385">
        <ele>1988</ele>
        <time>2013-06-15T08:28:41Z</time>
      </trkpt>
      <trkpt lat="42.74816" lon="-0.09386">
        <ele>1988</ele>
        <time>2013-06-15T08:28:55Z</time>
      </trkpt>
      <trkpt lat="42.74816" lon="-0.09387">
        <ele>1988</ele>
        <time>2013-06-15T08:29:10Z</time>
      </trkpt>
      <trkpt lat="42.74816" lon="-0.09387">
        <ele>1988</ele>
        <time>2013-06-15T08:29:23Z</time>
      </trkpt>
      <trkpt lat="42.74816" lon="-0.09386">
        <ele>1987</ele>
        <time>2013-06-15T08:29:36Z</time>
      </trkpt>
      <trkpt lat="42.74816" lon="-0.09386">
        <ele>1988</ele>
        <time>2013-06-15T08:29:51Z</time>
      </trkpt>
      <trkpt lat="42.74816" lon="-0.09385">
        <ele>1987</ele>
        <time>2013-06-15T08:30:10Z</time>
      </trkpt>
      <trkpt lat="42.74816" lon="-0.09385">
        <ele>1988</ele>
        <time>2013-06-15T08:30:23Z</time>
      </trkpt>
      <trkpt lat="42.74816" lon="-0.09386">
        <ele>1987</ele>
        <time>2013-06-15T08:30:34Z</time>
      </trkpt>
      <trkpt lat="42.74815" lon="-0.09385">
        <ele>1987</ele>
        <time>2013-06-15T08:30:43Z</time>
      </trkpt>
      <trkpt lat="42.74816" lon="-0.09384">
        <ele>1987</ele>
        <time>2013-06-15T08:30:55Z</time>
      </trkpt>
      <trkpt lat="42.74815" lon="-0.09384">
        <ele>1986</ele>
        <time>2013-06-15T08:31:07Z</time>
      </trkpt>
      <trkpt lat="42.74814" lon="-0.09382">
        <ele>1986</ele>
        <time>2013-06-15T08:31:13Z</time>
      </trkpt>
      <trkpt lat="42.74814" lon="-0.09381">
        <ele>1986</ele>
        <time>2013-06-15T08:31:14Z</time>
      </trkpt>
      <trkpt lat="42.74808" lon="-0.09371">
        <ele>1985</ele>
        <time>2013-06-15T08:31:23Z</time>
      </trkpt>
      <trkpt lat="42.74806" lon="-0.09369">
        <ele>1985</ele>
        <time>2013-06-15T08:31:26Z</time>
      </trkpt>
      <trkpt lat="42.74798" lon="-0.09365">
        <ele>1984</ele>
        <time>2013-06-15T08:31:35Z</time>
      </trkpt>
      <trkpt lat="42.74792" lon="-0.09362">
        <ele>1983</ele>
        <time>2013-06-15T08:31:44Z</time>
      </trkpt>
      <trkpt lat="42.74786" lon="-0.09359">
        <ele>1982</ele>
        <time>2013-06-15T08:31:52Z</time>
      </trkpt>
      <trkpt lat="42.74781" lon="-0.09352">
        <ele>1981</ele>
        <time>2013-06-15T08:32:01Z</time>
      </trkpt>
      <trkpt lat="42.74777" lon="-0.09345">
        <ele>1979</ele>
        <time>2013-06-15T08:32:10Z</time>
      </trkpt>
      <trkpt lat="42.74776" lon="-0.09344">
        <ele>1980</ele>
        <time>2013-06-15T08:32:11Z</time>
      </trkpt>
      <trkpt lat="42.74775" lon="-0.09336">
        <ele>1980</ele>
        <time>2013-06-15T08:32:19Z</time>
      </trkpt>
      <trkpt lat="42.74773" lon="-0.09332">
        <ele>1980</ele>
        <time>2013-06-15T08:32:23Z</time>
      </trkpt>
      <trkpt lat="42.74771" lon="-0.09325">
        <ele>1979</ele>
        <time>2013-06-15T08:32:29Z</time>
      </trkpt>
      <trkpt lat="42.74769" lon="-0.0932">
        <ele>1978</ele>
        <time>2013-06-15T08:32:36Z</time>
      </trkpt>
      <trkpt lat="42.74767" lon="-0.09318">
        <ele>1978</ele>
        <time>2013-06-15T08:32:39Z</time>
      </trkpt>
      <trkpt lat="42.74765" lon="-0.09315">
        <ele>1976</ele>
        <time>2013-06-15T08:32:43Z</time>
      </trkpt>
      <trkpt lat="42.74764" lon="-0.09314">
        <ele>1977</ele>
        <time>2013-06-15T08:32:44Z</time>
      </trkpt>
      <trkpt lat="42.74761" lon="-0.09309">
        <ele>1975</ele>
        <time>2013-06-15T08:32:48Z</time>
      </trkpt>
      <trkpt lat="42.74758" lon="-0.09306">
        <ele>1974</ele>
        <time>2013-06-15T08:32:55Z</time>
      </trkpt>
      <trkpt lat="42.7476" lon="-0.09305">
        <ele>1974</ele>
        <time>2013-06-15T08:33:01Z</time>
      </trkpt>
      <trkpt lat="42.74752" lon="-0.09299">
        <ele>1973</ele>
        <time>2013-06-15T08:33:09Z</time>
      </trkpt>
      <trkpt lat="42.74747" lon="-0.09288">
        <ele>1971</ele>
        <time>2013-06-15T08:33:17Z</time>
      </trkpt>
      <trkpt lat="42.74748" lon="-0.09286">
        <ele>1970</ele>
        <time>2013-06-15T08:33:22Z</time>
      </trkpt>
      <trkpt lat="42.74746" lon="-0.09281">
        <ele>1970</ele>
        <time>2013-06-15T08:33:25Z</time>
      </trkpt>
      <trkpt lat="42.74747" lon="-0.09275">
        <ele>1969</ele>
        <time>2013-06-15T08:33:29Z</time>
      </trkpt>
      <trkpt lat="42.74742" lon="-0.09267">
        <ele>1967</ele>
        <time>2013-06-15T08:33:37Z</time>
      </trkpt>
      <trkpt lat="42.7474" lon="-0.09267">
        <ele>1967</ele>
        <time>2013-06-15T08:33:39Z</time>
      </trkpt>
      <trkpt lat="42.74736" lon="-0.09262">
        <ele>1966</ele>
        <time>2013-06-15T08:33:44Z</time>
      </trkpt>
      <trkpt lat="42.74729" lon="-0.09256">
        <ele>1965</ele>
        <time>2013-06-15T08:33:51Z</time>
      </trkpt>
      <trkpt lat="42.74719" lon="-0.09251">
        <ele>1963</ele>
        <time>2013-06-15T08:34:00Z</time>
      </trkpt>
      <trkpt lat="42.74716" lon="-0.09245">
        <ele>1962</ele>
        <time>2013-06-15T08:34:05Z</time>
      </trkpt>
      <trkpt lat="42.74715" lon="-0.09239">
        <ele>1962</ele>
        <time>2013-06-15T08:34:09Z</time>
      </trkpt>
      <trkpt lat="42.74717" lon="-0.09231">
        <ele>1960</ele>
        <time>2013-06-15T08:34:16Z</time>
      </trkpt>
      <trkpt lat="42.74718" lon="-0.09229">
        <ele>1961</ele>
        <time>2013-06-15T08:34:17Z</time>
      </trkpt>
      <trkpt lat="42.74724" lon="-0.09218">
        <ele>1958</ele>
        <time>2013-06-15T08:34:25Z</time>
      </trkpt>
      <trkpt lat="42.74726" lon="-0.09215">
        <ele>1957</ele>
        <time>2013-06-15T08:34:30Z</time>
      </trkpt>
      <trkpt lat="42.74725" lon="-0.09214">
        <ele>1956</ele>
        <time>2013-06-15T08:34:32Z</time>
      </trkpt>
      <trkpt lat="42.74726" lon="-0.09211">
        <ele>1956</ele>
        <time>2013-06-15T08:34:35Z</time>
      </trkpt>
      <trkpt lat="42.74728" lon="-0.09209">
        <ele>1956</ele>
        <time>2013-06-15T08:34:37Z</time>
      </trkpt>
      <trkpt lat="42.74727" lon="-0.09204">
        <ele>1954</ele>
        <time>2013-06-15T08:34:43Z</time>
      </trkpt>
      <trkpt lat="42.74725" lon="-0.09197">
        <ele>1953</ele>
        <time>2013-06-15T08:34:51Z</time>
      </trkpt>
      <trkpt lat="42.74724" lon="-0.09193">
        <ele>1951</ele>
        <time>2013-06-15T08:34:58Z</time>
      </trkpt>
      <trkpt lat="42.74721" lon="-0.09191">
        <ele>1949</ele>
        <time>2013-06-15T08:35:05Z</time>
      </trkpt>
      <trkpt lat="42.7472" lon="-0.09189">
        <ele>1949</ele>
        <time>2013-06-15T08:35:06Z</time>
      </trkpt>
      <trkpt lat="42.74719" lon="-0.09188">
        <ele>1949</ele>
        <time>2013-06-15T08:35:08Z</time>
      </trkpt>
      <trkpt lat="42.74714" lon="-0.09184">
        <ele>1947</ele>
        <time>2013-06-15T08:35:14Z</time>
      </trkpt>
      <trkpt lat="42.74713" lon="-0.09181">
        <ele>1946</ele>
        <time>2013-06-15T08:35:17Z</time>
      </trkpt>
      <trkpt lat="42.74711" lon="-0.09178">
        <ele>1947</ele>
        <time>2013-06-15T08:35:20Z</time>
      </trkpt>
      <trkpt lat="42.74711" lon="-0.09171">
        <ele>1946</ele>
        <time>2013-06-15T08:35:24Z</time>
      </trkpt>
      <trkpt lat="42.74716" lon="-0.09161">
        <ele>1945</ele>
        <time>2013-06-15T08:35:31Z</time>
      </trkpt>
      <trkpt lat="42.74716" lon="-0.0916">
        <ele>1945</ele>
        <time>2013-06-15T08:35:33Z</time>
      </trkpt>
      <trkpt lat="42.7472" lon="-0.09152">
        <ele>1944</ele>
        <time>2013-06-15T08:35:40Z</time>
      </trkpt>
      <trkpt lat="42.74724" lon="-0.09143">
        <ele>1943</ele>
        <time>2013-06-15T08:35:48Z</time>
      </trkpt>
      <trkpt lat="42.74725" lon="-0.09138">
        <ele>1942</ele>
        <time>2013-06-15T08:35:55Z</time>
      </trkpt>
      <trkpt lat="42.74724" lon="-0.09136">
        <ele>1942</ele>
        <time>2013-06-15T08:35:57Z</time>
      </trkpt>
      <trkpt lat="42.74725" lon="-0.09134">
        <ele>1941</ele>
        <time>2013-06-15T08:36:04Z</time>
      </trkpt>
      <trkpt lat="42.74725" lon="-0.09133">
        <ele>1941</ele>
        <time>2013-06-15T08:36:13Z</time>
      </trkpt>
      <trkpt lat="42.74723" lon="-0.09134">
        <ele>1941</ele>
        <time>2013-06-15T08:36:20Z</time>
      </trkpt>
      <trkpt lat="42.74722" lon="-0.09135">
        <ele>1941</ele>
        <time>2013-06-15T08:36:28Z</time>
      </trkpt>
      <trkpt lat="42.74724" lon="-0.09133">
        <ele>1940</ele>
        <time>2013-06-15T08:36:39Z</time>
      </trkpt>
      <trkpt lat="42.74728" lon="-0.09127">
        <ele>1940</ele>
        <time>2013-06-15T08:36:45Z</time>
      </trkpt>
      <trkpt lat="42.74728" lon="-0.09126">
        <ele>1940</ele>
        <time>2013-06-15T08:36:50Z</time>
      </trkpt>
      <trkpt lat="42.74726" lon="-0.09118">
        <ele>1939</ele>
        <time>2013-06-15T08:36:57Z</time>
      </trkpt>
      <trkpt lat="42.74722" lon="-0.09115">
        <ele>1939</ele>
        <time>2013-06-15T08:37:02Z</time>
      </trkpt>
      <trkpt lat="42.74719" lon="-0.09114">
        <ele>1941</ele>
        <time>2013-06-15T08:37:09Z</time>
      </trkpt>
      <trkpt lat="42.74717" lon="-0.09114">
        <ele>1940</ele>
        <time>2013-06-15T08:37:12Z</time>
      </trkpt>
      <trkpt lat="42.74712" lon="-0.09118">
        <ele>1941</ele>
        <time>2013-06-15T08:37:18Z</time>
      </trkpt>
      <trkpt lat="42.74708" lon="-0.09124">
        <ele>1942</ele>
        <time>2013-06-15T08:37:25Z</time>
      </trkpt>
      <trkpt lat="42.74708" lon="-0.09123">
        <ele>1942</ele>
        <time>2013-06-15T08:37:31Z</time>
      </trkpt>
      <trkpt lat="42.74705" lon="-0.09129">
        <ele>1942</ele>
        <time>2013-06-15T08:37:38Z</time>
      </trkpt>
      <trkpt lat="42.74699" lon="-0.09133">
        <ele>1944</ele>
        <time>2013-06-15T08:37:46Z</time>
      </trkpt>
      <trkpt lat="42.74693" lon="-0.09132">
        <ele>1945</ele>
        <time>2013-06-15T08:37:55Z</time>
      </trkpt>
      <trkpt lat="42.74689" lon="-0.09132">
        <ele>1946</ele>
        <time>2013-06-15T08:38:03Z</time>
      </trkpt>
      <trkpt lat="42.74687" lon="-0.09133">
        <ele>1946</ele>
        <time>2013-06-15T08:38:09Z</time>
      </trkpt>
      <trkpt lat="42.74684" lon="-0.09133">
        <ele>1948</ele>
        <time>2013-06-15T08:38:13Z</time>
      </trkpt>
      <trkpt lat="42.74677" lon="-0.09132">
        <ele>1948</ele>
        <time>2013-06-15T08:38:21Z</time>
      </trkpt>
      <trkpt lat="42.74673" lon="-0.09132">
        <ele>1948</ele>
        <time>2013-06-15T08:38:26Z</time>
      </trkpt>
      <trkpt lat="42.7467" lon="-0.09131">
        <ele>1951</ele>
        <time>2013-06-15T08:38:32Z</time>
      </trkpt>
      <trkpt lat="42.74671" lon="-0.09129">
        <ele>1950</ele>
        <time>2013-06-15T08:38:43Z</time>
      </trkpt>
      <trkpt lat="42.74668" lon="-0.09131">
        <ele>1950</ele>
        <time>2013-06-15T08:38:46Z</time>
      </trkpt>
      <trkpt lat="42.74664" lon="-0.09134">
        <ele>1950</ele>
        <time>2013-06-15T08:38:53Z</time>
      </trkpt>
      <trkpt lat="42.7466" lon="-0.09137">
        <ele>1949</ele>
        <time>2013-06-15T08:38:56Z</time>
      </trkpt>
      <trkpt lat="42.74652" lon="-0.09139">
        <ele>1950</ele>
        <time>2013-06-15T08:39:05Z</time>
      </trkpt>
      <trkpt lat="42.74647" lon="-0.09138">
        <ele>1952</ele>
        <time>2013-06-15T08:39:13Z</time>
      </trkpt>
      <trkpt lat="42.74645" lon="-0.0914">
        <ele>1952</ele>
        <time>2013-06-15T08:39:20Z</time>
      </trkpt>
      <trkpt lat="42.74645" lon="-0.09141">
        <ele>1952</ele>
        <time>2013-06-15T08:39:21Z</time>
      </trkpt>
      <trkpt lat="42.74638" lon="-0.09141">
        <ele>1953</ele>
        <time>2013-06-15T08:39:29Z</time>
      </trkpt>
      <trkpt lat="42.74633" lon="-0.09142">
        <ele>1954</ele>
        <time>2013-06-15T08:39:37Z</time>
      </trkpt>
      <trkpt lat="42.74634" lon="-0.09139">
        <ele>1954</ele>
        <time>2013-06-15T08:39:50Z</time>
      </trkpt>
      <trkpt lat="42.74632" lon="-0.09141">
        <ele>1954</ele>
        <time>2013-06-15T08:40:00Z</time>
      </trkpt>
      <trkpt lat="42.74634" lon="-0.0914">
        <ele>1954</ele>
        <time>2013-06-15T08:40:14Z</time>
      </trkpt>
      <trkpt lat="42.74632" lon="-0.09139">
        <ele>1954</ele>
        <time>2013-06-15T08:40:34Z</time>
      </trkpt>
      <trkpt lat="42.7463" lon="-0.09136">
        <ele>1954</ele>
        <time>2013-06-15T08:40:47Z</time>
      </trkpt>
      <trkpt lat="42.74632" lon="-0.09135">
        <ele>1954</ele>
        <time>2013-06-15T08:40:59Z</time>
      </trkpt>
      <trkpt lat="42.74632" lon="-0.09136">
        <ele>1954</ele>
        <time>2013-06-15T08:41:00Z</time>
      </trkpt>
      <trkpt lat="42.74628" lon="-0.09142">
        <ele>1954</ele>
        <time>2013-06-15T08:41:05Z</time>
      </trkpt>
      <trkpt lat="42.74625" lon="-0.09143">
        <ele>1954</ele>
        <time>2013-06-15T08:41:07Z</time>
      </trkpt>
      <trkpt lat="42.74623" lon="-0.09149">
        <ele>1954</ele>
        <time>2013-06-15T08:41:13Z</time>
      </trkpt>
      <trkpt lat="42.74615" lon="-0.09149">
        <ele>1955</ele>
        <time>2013-06-15T08:41:20Z</time>
      </trkpt>
      <trkpt lat="42.74605" lon="-0.09154">
        <ele>1955</ele>
        <time>2013-06-15T08:41:28Z</time>
      </trkpt>
      <trkpt lat="42.746" lon="-0.09155">
        <ele>1955</ele>
        <time>2013-06-15T08:41:32Z</time>
      </trkpt>
      <trkpt lat="42.74598" lon="-0.09151">
        <ele>1955</ele>
        <time>2013-06-15T08:41:39Z</time>
      </trkpt>
      <trkpt lat="42.74591" lon="-0.09152">
        <ele>1955</ele>
        <time>2013-06-15T08:41:44Z</time>
      </trkpt>
      <trkpt lat="42.74587" lon="-0.09151">
        <ele>1955</ele>
        <time>2013-06-15T08:41:50Z</time>
      </trkpt>
      <trkpt lat="42.74578" lon="-0.09153">
        <ele>1955</ele>
        <time>2013-06-15T08:41:58Z</time>
      </trkpt>
      <trkpt lat="42.74577" lon="-0.09153">
        <ele>1955</ele>
        <time>2013-06-15T08:41:59Z</time>
      </trkpt>
      <trkpt lat="42.74573" lon="-0.09156">
        <ele>1954</ele>
        <time>2013-06-15T08:42:03Z</time>
      </trkpt>
      <trkpt lat="42.74569" lon="-0.0916">
        <ele>1955</ele>
        <time>2013-06-15T08:42:09Z</time>
      </trkpt>
      <trkpt lat="42.74565" lon="-0.09163">
        <ele>1955</ele>
        <time>2013-06-15T08:42:16Z</time>
      </trkpt>
      <trkpt lat="42.7456" lon="-0.09169">
        <ele>1957</ele>
        <time>2013-06-15T08:42:23Z</time>
      </trkpt>
      <trkpt lat="42.74555" lon="-0.09179">
        <ele>1958</ele>
        <time>2013-06-15T08:42:31Z</time>
      </trkpt>
      <trkpt lat="42.74547" lon="-0.09184">
        <ele>1959</ele>
        <time>2013-06-15T08:42:39Z</time>
      </trkpt>
      <trkpt lat="42.74541" lon="-0.0919">
        <ele>1960</ele>
        <time>2013-06-15T08:42:46Z</time>
      </trkpt>
      <trkpt lat="42.74536" lon="-0.09193">
        <ele>1961</ele>
        <time>2013-06-15T08:42:52Z</time>
      </trkpt>
      <trkpt lat="42.74531" lon="-0.09192">
        <ele>1961</ele>
        <time>2013-06-15T08:42:58Z</time>
      </trkpt>
      <trkpt lat="42.74528" lon="-0.09191">
        <ele>1962</ele>
        <time>2013-06-15T08:43:06Z</time>
      </trkpt>
      <trkpt lat="42.7453" lon="-0.09192">
        <ele>1963</ele>
        <time>2013-06-15T08:43:15Z</time>
      </trkpt>
      <trkpt lat="42.74529" lon="-0.09193">
        <ele>1963</ele>
        <time>2013-06-15T08:43:27Z</time>
      </trkpt>
      <trkpt lat="42.74529" lon="-0.09194">
        <ele>1962</ele>
        <time>2013-06-15T08:43:47Z</time>
      </trkpt>
      <trkpt lat="42.74528" lon="-0.09194">
        <ele>1962</ele>
        <time>2013-06-15T08:44:03Z</time>
      </trkpt>
      <trkpt lat="42.74528" lon="-0.09193">
        <ele>1962</ele>
        <time>2013-06-15T08:44:10Z</time>
      </trkpt>
      <trkpt lat="42.74527" lon="-0.09193">
        <ele>1962</ele>
        <time>2013-06-15T08:44:17Z</time>
      </trkpt>
      <trkpt lat="42.74527" lon="-0.09196">
        <ele>1962</ele>
        <time>2013-06-15T08:44:24Z</time>
      </trkpt>
      <trkpt lat="42.74527" lon="-0.09195">
        <ele>1961</ele>
        <time>2013-06-15T08:44:32Z</time>
      </trkpt>
      <trkpt lat="42.74527" lon="-0.09196">
        <ele>1961</ele>
        <time>2013-06-15T08:44:39Z</time>
      </trkpt>
      <trkpt lat="42.74529" lon="-0.09197">
        <ele>1962</ele>
        <time>2013-06-15T08:44:49Z</time>
      </trkpt>
      <trkpt lat="42.7453" lon="-0.09198">
        <ele>1961</ele>
        <time>2013-06-15T08:44:57Z</time>
      </trkpt>
      <trkpt lat="42.74531" lon="-0.092">
        <ele>1961</ele>
        <time>2013-06-15T08:45:08Z</time>
      </trkpt>
      <trkpt lat="42.74532" lon="-0.09201">
        <ele>1961</ele>
        <time>2013-06-15T08:45:14Z</time>
      </trkpt>
      <trkpt lat="42.74532" lon="-0.09205">
        <ele>1961</ele>
        <time>2013-06-15T08:45:27Z</time>
      </trkpt>
      <trkpt lat="42.74531" lon="-0.09205">
        <ele>1960</ele>
        <time>2013-06-15T08:45:35Z</time>
      </trkpt>
      <trkpt lat="42.74526" lon="-0.09201">
        <ele>1960</ele>
        <time>2013-06-15T08:45:45Z</time>
      </trkpt>
      <trkpt lat="42.74528" lon="-0.09198">
        <ele>1961</ele>
        <time>2013-06-15T08:45:56Z</time>
      </trkpt>
      <trkpt lat="42.74528" lon="-0.09195">
        <ele>1961</ele>
        <time>2013-06-15T08:46:08Z</time>
      </trkpt>
      <trkpt lat="42.74528" lon="-0.09195">
        <ele>1961</ele>
        <time>2013-06-15T08:46:18Z</time>
      </trkpt>
      <trkpt lat="42.74543" lon="-0.09207">
        <ele>1961</ele>
        <time>2013-06-15T08:46:31Z</time>
      </trkpt>
      <trkpt lat="42.74551" lon="-0.09211">
        <ele>1960</ele>
        <time>2013-06-15T08:46:44Z</time>
      </trkpt>
      <trkpt lat="42.74549" lon="-0.0921">
        <ele>1960</ele>
        <time>2013-06-15T08:46:53Z</time>
      </trkpt>
      <trkpt lat="42.74538" lon="-0.09203">
        <ele>1960</ele>
        <time>2013-06-15T08:47:07Z</time>
      </trkpt>
      <trkpt lat="42.74537" lon="-0.092">
        <ele>1961</ele>
        <time>2013-06-15T08:47:21Z</time>
      </trkpt>
      <trkpt lat="42.74535" lon="-0.09199">
        <ele>1961</ele>
        <time>2013-06-15T08:47:35Z</time>
      </trkpt>
      <trkpt lat="42.74547" lon="-0.09203">
        <ele>1960</ele>
        <time>2013-06-15T08:47:50Z</time>
      </trkpt>
      <trkpt lat="42.74546" lon="-0.09201">
        <ele>1960</ele>
        <time>2013-06-15T08:48:05Z</time>
      </trkpt>
      <trkpt lat="42.74541" lon="-0.09197">
        <ele>1960</ele>
        <time>2013-06-15T08:48:23Z</time>
      </trkpt>
      <trkpt lat="42.74547" lon="-0.092">
        <ele>1960</ele>
        <time>2013-06-15T08:48:39Z</time>
      </trkpt>
      <trkpt lat="42.74556" lon="-0.09206">
        <ele>1960</ele>
        <time>2013-06-15T08:48:51Z</time>
      </trkpt>
      <trkpt lat="42.74564" lon="-0.0921">
        <ele>1960</ele>
        <time>2013-06-15T08:49:04Z</time>
      </trkpt>
      <trkpt lat="42.74562" lon="-0.09206">
        <ele>1960</ele>
        <time>2013-06-15T08:49:18Z</time>
      </trkpt>
      <trkpt lat="42.74554" lon="-0.09197">
        <ele>1960</ele>
        <time>2013-06-15T08:49:28Z</time>
      </trkpt>
      <trkpt lat="42.74551" lon="-0.09198">
        <ele>1960</ele>
        <time>2013-06-15T08:49:43Z</time>
      </trkpt>
      <trkpt lat="42.74554" lon="-0.09198">
        <ele>1960</ele>
        <time>2013-06-15T08:49:54Z</time>
      </trkpt>
      <trkpt lat="42.74548" lon="-0.09197">
        <ele>1960</ele>
        <time>2013-06-15T08:50:06Z</time>
      </trkpt>
      <trkpt lat="42.74538" lon="-0.09198">
        <ele>1960</ele>
        <time>2013-06-15T08:50:20Z</time>
      </trkpt>
      <trkpt lat="42.74538" lon="-0.09197">
        <ele>1960</ele>
        <time>2013-06-15T08:50:35Z</time>
      </trkpt>
      <trkpt lat="42.74542" lon="-0.09198">
        <ele>1960</ele>
        <time>2013-06-15T08:50:50Z</time>
      </trkpt>
      <trkpt lat="42.74539" lon="-0.09195">
        <ele>1960</ele>
        <time>2013-06-15T08:51:07Z</time>
      </trkpt>
      <trkpt lat="42.74536" lon="-0.09195">
        <ele>1961</ele>
        <time>2013-06-15T08:51:20Z</time>
      </trkpt>
      <trkpt lat="42.74535" lon="-0.09196">
        <ele>1960</ele>
        <time>2013-06-15T08:51:33Z</time>
      </trkpt>
      <trkpt lat="42.74538" lon="-0.09202">
        <ele>1960</ele>
        <time>2013-06-15T08:51:49Z</time>
      </trkpt>
      <trkpt lat="42.74536" lon="-0.09196">
        <ele>1960</ele>
        <time>2013-06-15T08:52:04Z</time>
      </trkpt>
      <trkpt lat="42.74532" lon="-0.09197">
        <ele>1960</ele>
        <time>2013-06-15T08:52:18Z</time>
      </trkpt>
      <trkpt lat="42.74529" lon="-0.09189">
        <ele>1959</ele>
        <time>2013-06-15T08:52:30Z</time>
      </trkpt>
      <trkpt lat="42.74527" lon="-0.09197">
        <ele>1960</ele>
        <time>2013-06-15T08:52:44Z</time>
      </trkpt>
      <trkpt lat="42.74526" lon="-0.09195">
        <ele>1960</ele>
        <time>2013-06-15T08:52:57Z</time>
      </trkpt>
      <trkpt lat="42.74523" lon="-0.09188">
        <ele>1960</ele>
        <time>2013-06-15T08:53:11Z</time>
      </trkpt>
      <trkpt lat="42.74525" lon="-0.09184">
        <ele>1960</ele>
        <time>2013-06-15T08:53:26Z</time>
      </trkpt>
      <trkpt lat="42.74527" lon="-0.09192">
        <ele>1960</ele>
        <time>2013-06-15T08:53:37Z</time>
      </trkpt>
      <trkpt lat="42.74526" lon="-0.09189">
        <ele>1960</ele>
        <time>2013-06-15T08:53:48Z</time>
      </trkpt>
      <trkpt lat="42.74526" lon="-0.09192">
        <ele>1961</ele>
        <time>2013-06-15T08:54:03Z</time>
      </trkpt>
      <trkpt lat="42.74527" lon="-0.09191">
        <ele>1960</ele>
        <time>2013-06-15T08:54:12Z</time>
      </trkpt>
      <trkpt lat="42.7453" lon="-0.09194">
        <ele>1960</ele>
        <time>2013-06-15T08:54:27Z</time>
      </trkpt>
      <trkpt lat="42.7453" lon="-0.09191">
        <ele>1960</ele>
        <time>2013-06-15T08:54:40Z</time>
      </trkpt>
      <trkpt lat="42.74531" lon="-0.09192">
        <ele>1960</ele>
        <time>2013-06-15T08:54:55Z</time>
      </trkpt>
      <trkpt lat="42.74529" lon="-0.09192">
        <ele>1959</ele>
        <time>2013-06-15T08:55:04Z</time>
      </trkpt>
      <trkpt lat="42.7453" lon="-0.09193">
        <ele>1959</ele>
        <time>2013-06-15T08:55:13Z</time>
      </trkpt>
      <trkpt lat="42.74527" lon="-0.09193">
        <ele>1960</ele>
        <time>2013-06-15T08:55:25Z</time>
      </trkpt>
      <trkpt lat="42.74526" lon="-0.0919">
        <ele>1960</ele>
        <time>2013-06-15T08:55:36Z</time>
      </trkpt>
      <trkpt lat="42.74528" lon="-0.09194">
        <ele>1959</ele>
        <time>2013-06-15T08:55:50Z</time>
      </trkpt>
      <trkpt lat="42.7453" lon="-0.09191">
        <ele>1959</ele>
        <time>2013-06-15T08:56:06Z</time>
      </trkpt>
      <trkpt lat="42.74528" lon="-0.09193">
        <ele>1960</ele>
        <time>2013-06-15T08:56:18Z</time>
      </trkpt>
      <trkpt lat="42.7453" lon="-0.09197">
        <ele>1960</ele>
        <time>2013-06-15T08:56:29Z</time>
      </trkpt>
      <trkpt lat="42.74529" lon="-0.09195">
        <ele>1960</ele>
        <time>2013-06-15T08:56:39Z</time>
      </trkpt>
      <trkpt lat="42.7453" lon="-0.09193">
        <ele>1959</ele>
        <time>2013-06-15T08:56:51Z</time>
      </trkpt>
      <trkpt lat="42.74529" lon="-0.09192">
        <ele>1959</ele>
        <time>2013-06-15T08:57:02Z</time>
      </trkpt>
      <trkpt lat="42.74531" lon="-0.09192">
        <ele>1959</ele>
        <time>2013-06-15T08:57:13Z</time>
      </trkpt>
      <trkpt lat="42.74532" lon="-0.09192">
        <ele>1959</ele>
        <time>2013-06-15T08:57:25Z</time>
      </trkpt>
      <trkpt lat="42.74529" lon="-0.09191">
        <ele>1959</ele>
        <time>2013-06-15T08:57:33Z</time>
      </trkpt>
      <trkpt lat="42.7453" lon="-0.09191">
        <ele>1959</ele>
        <time>2013-06-15T08:57:47Z</time>
      </trkpt>
      <trkpt lat="42.74531" lon="-0.0919">
        <ele>1959</ele>
        <time>2013-06-15T08:57:59Z</time>
      </trkpt>
      <trkpt lat="42.74534" lon="-0.09192">
        <ele>1960</ele>
        <time>2013-06-15T08:58:14Z</time>
      </trkpt>
      <trkpt lat="42.74533" lon="-0.09192">
        <ele>1959</ele>
        <time>2013-06-15T08:58:25Z</time>
      </trkpt>
      <trkpt lat="42.74536" lon="-0.09192">
        <ele>1959</ele>
        <time>2013-06-15T08:58:36Z</time>
      </trkpt>
      <trkpt lat="42.74536" lon="-0.09195">
        <ele>1959</ele>
        <time>2013-06-15T08:58:46Z</time>
      </trkpt>
      <trkpt lat="42.74536" lon="-0.09192">
        <ele>1959</ele>
        <time>2013-06-15T08:59:00Z</time>
      </trkpt>
      <trkpt lat="42.74536" lon="-0.0919">
        <ele>1959</ele>
        <time>2013-06-15T08:59:12Z</time>
      </trkpt>
      <trkpt lat="42.74537" lon="-0.09193">
        <ele>1959</ele>
        <time>2013-06-15T08:59:25Z</time>
      </trkpt>
      <trkpt lat="42.74534" lon="-0.09192">
        <ele>1959</ele>
        <time>2013-06-15T08:59:40Z</time>
      </trkpt>
      <trkpt lat="42.74536" lon="-0.09193">
        <ele>1959</ele>
        <time>2013-06-15T08:59:55Z</time>
      </trkpt>
      <trkpt lat="42.74537" lon="-0.09195">
        <ele>1959</ele>
        <time>2013-06-15T09:00:09Z</time>
      </trkpt>
      <trkpt lat="42.74534" lon="-0.09191">
        <ele>1959</ele>
        <time>2013-06-15T09:00:23Z</time>
      </trkpt>
      <trkpt lat="42.74535" lon="-0.09191">
        <ele>1960</ele>
        <time>2013-06-15T09:00:37Z</time>
      </trkpt>
      <trkpt lat="42.74536" lon="-0.09194">
        <ele>1959</ele>
        <time>2013-06-15T09:00:48Z</time>
      </trkpt>
      <trkpt lat="42.74534" lon="-0.09195">
        <ele>1959</ele>
        <time>2013-06-15T09:00:59Z</time>
      </trkpt>
      <trkpt lat="42.74533" lon="-0.09197">
        <ele>1959</ele>
        <time>2013-06-15T09:01:12Z</time>
      </trkpt>
      <trkpt lat="42.74534" lon="-0.09194">
        <ele>1959</ele>
        <time>2013-06-15T09:01:29Z</time>
      </trkpt>
      <trkpt lat="42.74531" lon="-0.09192">
        <ele>1959</ele>
        <time>2013-06-15T09:01:46Z</time>
      </trkpt>
      <trkpt lat="42.74531" lon="-0.0919">
        <ele>1959</ele>
        <time>2013-06-15T09:02:01Z</time>
      </trkpt>
      <trkpt lat="42.74531" lon="-0.09193">
        <ele>1958</ele>
        <time>2013-06-15T09:02:12Z</time>
      </trkpt>
      <trkpt lat="42.74531" lon="-0.09193">
        <ele>1958</ele>
        <time>2013-06-15T09:02:28Z</time>
      </trkpt>
      <trkpt lat="42.74532" lon="-0.09196">
        <ele>1958</ele>
        <time>2013-06-15T09:02:41Z</time>
      </trkpt>
      <trkpt lat="42.74532" lon="-0.09193">
        <ele>1958</ele>
        <time>2013-06-15T09:02:56Z</time>
      </trkpt>
      <trkpt lat="42.74532" lon="-0.09188">
        <ele>1958</ele>
        <time>2013-06-15T09:03:09Z</time>
      </trkpt>
      <trkpt lat="42.74532" lon="-0.09188">
        <ele>1958</ele>
        <time>2013-06-15T09:03:19Z</time>
      </trkpt>
      <trkpt lat="42.74535" lon="-0.0919">
        <ele>1958</ele>
        <time>2013-06-15T09:03:33Z</time>
      </trkpt>
      <trkpt lat="42.74534" lon="-0.09193">
        <ele>1958</ele>
        <time>2013-06-15T09:03:44Z</time>
      </trkpt>
      <trkpt lat="42.7453" lon="-0.09191">
        <ele>1958</ele>
        <time>2013-06-15T09:03:57Z</time>
      </trkpt>
      <trkpt lat="42.7453" lon="-0.09192">
        <ele>1958</ele>
        <time>2013-06-15T09:04:10Z</time>
      </trkpt>
      <trkpt lat="42.74534" lon="-0.09194">
        <ele>1958</ele>
        <time>2013-06-15T09:04:24Z</time>
      </trkpt>
      <trkpt lat="42.74535" lon="-0.09195">
        <ele>1958</ele>
        <time>2013-06-15T09:04:32Z</time>
      </trkpt>
      <trkpt lat="42.74531" lon="-0.09194">
        <ele>1958</ele>
        <time>2013-06-15T09:04:45Z</time>
      </trkpt>
      <trkpt lat="42.74532" lon="-0.09196">
        <ele>1959</ele>
        <time>2013-06-15T09:04:55Z</time>
      </trkpt>
      <trkpt lat="42.74532" lon="-0.09194">
        <ele>1958</ele>
        <time>2013-06-15T09:05:07Z</time>
      </trkpt>
      <trkpt lat="42.7453" lon="-0.09193">
        <ele>1957</ele>
        <time>2013-06-15T09:05:16Z</time>
      </trkpt>
      <trkpt lat="42.74531" lon="-0.09195">
        <ele>1958</ele>
        <time>2013-06-15T09:05:27Z</time>
      </trkpt>
      <trkpt lat="42.74534" lon="-0.09194">
        <ele>1958</ele>
        <time>2013-06-15T09:05:39Z</time>
      </trkpt>
      <trkpt lat="42.74536" lon="-0.09196">
        <ele>1958</ele>
        <time>2013-06-15T09:05:54Z</time>
      </trkpt>
      <trkpt lat="42.74537" lon="-0.09195">
        <ele>1957</ele>
        <time>2013-06-15T09:06:08Z</time>
      </trkpt>
      <trkpt lat="42.74536" lon="-0.09192">
        <ele>1958</ele>
        <time>2013-06-15T09:06:25Z</time>
      </trkpt>
      <trkpt lat="42.74535" lon="-0.09189">
        <ele>1957</ele>
        <time>2013-06-15T09:06:40Z</time>
      </trkpt>
      <trkpt lat="42.74533" lon="-0.09191">
        <ele>1957</ele>
        <time>2013-06-15T09:06:54Z</time>
      </trkpt>
      <trkpt lat="42.74533" lon="-0.0919">
        <ele>1957</ele>
        <time>2013-06-15T09:07:07Z</time>
      </trkpt>
      <trkpt lat="42.74536" lon="-0.09191">
        <ele>1957</ele>
        <time>2013-06-15T09:07:18Z</time>
      </trkpt>
      <trkpt lat="42.74541" lon="-0.09197">
        <ele>1957</ele>
        <time>2013-06-15T09:07:27Z</time>
      </trkpt>
      <trkpt lat="42.74539" lon="-0.09193">
        <ele>1958</ele>
        <time>2013-06-15T09:07:37Z</time>
      </trkpt>
      <trkpt lat="42.74538" lon="-0.0919">
        <ele>1958</ele>
        <time>2013-06-15T09:07:48Z</time>
      </trkpt>
      <trkpt lat="42.74536" lon="-0.09188">
        <ele>1957</ele>
        <time>2013-06-15T09:08:00Z</time>
      </trkpt>
      <trkpt lat="42.74539" lon="-0.09191">
        <ele>1957</ele>
        <time>2013-06-15T09:08:09Z</time>
      </trkpt>
      <trkpt lat="42.74539" lon="-0.09192">
        <ele>1958</ele>
        <time>2013-06-15T09:08:17Z</time>
      </trkpt>
      <trkpt lat="42.74538" lon="-0.09189">
        <ele>1957</ele>
        <time>2013-06-15T09:08:28Z</time>
      </trkpt>
      <trkpt lat="42.74534" lon="-0.09185">
        <ele>1958</ele>
        <time>2013-06-15T09:08:38Z</time>
      </trkpt>
      <trkpt lat="42.74533" lon="-0.09186">
        <ele>1958</ele>
        <time>2013-06-15T09:08:49Z</time>
      </trkpt>
      <trkpt lat="42.74535" lon="-0.0919">
        <ele>1958</ele>
        <time>2013-06-15T09:09:02Z</time>
      </trkpt>
      <trkpt lat="42.74535" lon="-0.09193">
        <ele>1957</ele>
        <time>2013-06-15T09:09:10Z</time>
      </trkpt>
      <trkpt lat="42.74533" lon="-0.09189">
        <ele>1957</ele>
        <time>2013-06-15T09:09:22Z</time>
      </trkpt>
      <trkpt lat="42.74535" lon="-0.09191">
        <ele>1957</ele>
        <time>2013-06-15T09:09:31Z</time>
      </trkpt>
      <trkpt lat="42.74535" lon="-0.09193">
        <ele>1957</ele>
        <time>2013-06-15T09:09:41Z</time>
      </trkpt>
      <trkpt lat="42.74534" lon="-0.09192">
        <ele>1957</ele>
        <time>2013-06-15T09:09:44Z</time>
      </trkpt>
      <trkpt lat="42.74532" lon="-0.09191">
        <ele>1958</ele>
        <time>2013-06-15T09:09:51Z</time>
      </trkpt>
      <trkpt lat="42.74533" lon="-0.09192">
        <ele>1957</ele>
        <time>2013-06-15T09:10:02Z</time>
      </trkpt>
      <trkpt lat="42.7453" lon="-0.09193">
        <ele>1958</ele>
        <time>2013-06-15T09:10:16Z</time>
      </trkpt>
      <trkpt lat="42.74532" lon="-0.09196">
        <ele>1958</ele>
        <time>2013-06-15T09:10:23Z</time>
      </trkpt>
      <trkpt lat="42.74532" lon="-0.09197">
        <ele>1957</ele>
        <time>2013-06-15T09:10:33Z</time>
      </trkpt>
      <trkpt lat="42.74533" lon="-0.09192">
        <ele>1957</ele>
        <time>2013-06-15T09:10:44Z</time>
      </trkpt>
      <trkpt lat="42.74534" lon="-0.0919">
        <ele>1958</ele>
        <time>2013-06-15T09:10:56Z</time>
      </trkpt>
      <trkpt lat="42.74534" lon="-0.09189">
        <ele>1958</ele>
        <time>2013-06-15T09:11:07Z</time>
      </trkpt>
      <trkpt lat="42.74531" lon="-0.09187">
        <ele>1958</ele>
        <time>2013-06-15T09:11:16Z</time>
      </trkpt>
      <trkpt lat="42.7453" lon="-0.09188">
        <ele>1958</ele>
        <time>2013-06-15T09:11:29Z</time>
      </trkpt>
      <trkpt lat="42.74528" lon="-0.09183">
        <ele>1957</ele>
        <time>2013-06-15T09:11:45Z</time>
      </trkpt>
      <trkpt lat="42.74528" lon="-0.09186">
        <ele>1958</ele>
        <time>2013-06-15T09:11:57Z</time>
      </trkpt>
      <trkpt lat="42.7453" lon="-0.09189">
        <ele>1957</ele>
        <time>2013-06-15T09:12:10Z</time>
      </trkpt>
      <trkpt lat="42.7453" lon="-0.09192">
        <ele>1958</ele>
        <time>2013-06-15T09:12:23Z</time>
      </trkpt>
      <trkpt lat="42.74531" lon="-0.09192">
        <ele>1957</ele>
        <time>2013-06-15T09:12:36Z</time>
      </trkpt>
      <trkpt lat="42.74529" lon="-0.09189">
        <ele>1957</ele>
        <time>2013-06-15T09:12:49Z</time>
      </trkpt>
      <trkpt lat="42.7453" lon="-0.09193">
        <ele>1957</ele>
        <time>2013-06-15T09:13:01Z</time>
      </trkpt>
      <trkpt lat="42.74531" lon="-0.09193">
        <ele>1958</ele>
        <time>2013-06-15T09:13:11Z</time>
      </trkpt>
      <trkpt lat="42.74533" lon="-0.09194">
        <ele>1957</ele>
        <time>2013-06-15T09:13:21Z</time>
      </trkpt>
      <trkpt lat="42.74533" lon="-0.09191">
        <ele>1957</ele>
        <time>2013-06-15T09:13:30Z</time>
      </trkpt>
      <trkpt lat="42.74533" lon="-0.09192">
        <ele>1957</ele>
        <time>2013-06-15T09:13:38Z</time>
      </trkpt>
      <trkpt lat="42.74535" lon="-0.09191">
        <ele>1957</ele>
        <time>2013-06-15T09:13:46Z</time>
      </trkpt>
      <trkpt lat="42.74535" lon="-0.09191">
        <ele>1957</ele>
        <time>2013-06-15T09:13:58Z</time>
      </trkpt>
      <trkpt lat="42.74529" lon="-0.09187">
        <ele>1956</ele>
        <time>2013-06-15T09:14:11Z</time>
      </trkpt>
      <trkpt lat="42.74531" lon="-0.09193">
        <ele>1957</ele>
        <time>2013-06-15T09:14:24Z</time>
      </trkpt>
      <trkpt lat="42.74531" lon="-0.09198">
        <ele>1957</ele>
        <time>2013-06-15T09:14:36Z</time>
      </trkpt>
      <trkpt lat="42.74533" lon="-0.092">
        <ele>1957</ele>
        <time>2013-06-15T09:14:50Z</time>
      </trkpt>
      <trkpt lat="42.74535" lon="-0.09196">
        <ele>1957</ele>
        <time>2013-06-15T09:15:03Z</time>
      </trkpt>
      <trkpt lat="42.7453" lon="-0.09189">
        <ele>1957</ele>
        <time>2013-06-15T09:15:15Z</time>
      </trkpt>
      <trkpt lat="42.74531" lon="-0.0919">
        <ele>1956</ele>
        <time>2013-06-15T09:15:26Z</time>
      </trkpt>
      <trkpt lat="42.74528" lon="-0.09185">
        <ele>1956</ele>
        <time>2013-06-15T09:15:38Z</time>
      </trkpt>
      <trkpt lat="42.74536" lon="-0.09187">
        <ele>1957</ele>
        <time>2013-06-15T09:15:48Z</time>
      </trkpt>
      <trkpt lat="42.74536" lon="-0.0919">
        <ele>1957</ele>
        <time>2013-06-15T09:15:58Z</time>
      </trkpt>
      <trkpt lat="42.74534" lon="-0.09188">
        <ele>1957</ele>
        <time>2013-06-15T09:16:09Z</time>
      </trkpt>
      <trkpt lat="42.74534" lon="-0.09188">
        <ele>1957</ele>
        <time>2013-06-15T09:16:21Z</time>
      </trkpt>
      <trkpt lat="42.74531" lon="-0.09187">
        <ele>1957</ele>
        <time>2013-06-15T09:16:33Z</time>
      </trkpt>
      <trkpt lat="42.74532" lon="-0.09186">
        <ele>1957</ele>
        <time>2013-06-15T09:16:46Z</time>
      </trkpt>
      <trkpt lat="42.74534" lon="-0.09193">
        <ele>1957</ele>
        <time>2013-06-15T09:16:54Z</time>
      </trkpt>
      <trkpt lat="42.74534" lon="-0.09196">
        <ele>1956</ele>
        <time>2013-06-15T09:17:01Z</time>
      </trkpt>
      <trkpt lat="42.74531" lon="-0.09192">
        <ele>1957</ele>
        <time>2013-06-15T09:17:12Z</time>
      </trkpt>
      <trkpt lat="42.74531" lon="-0.09195">
        <ele>1956</ele>
        <time>2013-06-15T09:17:27Z</time>
      </trkpt>
      <trkpt lat="42.74532" lon="-0.09194">
        <ele>1956</ele>
        <time>2013-06-15T09:17:37Z</time>
      </trkpt>
      <trkpt lat="42.74531" lon="-0.09192">
        <ele>1956</ele>
        <time>2013-06-15T09:17:46Z</time>
      </trkpt>
      <trkpt lat="42.74532" lon="-0.09197">
        <ele>1955</ele>
        <time>2013-06-15T09:17:57Z</time>
      </trkpt>
      <trkpt lat="42.74535" lon="-0.09199">
        <ele>1956</ele>
        <time>2013-06-15T09:18:09Z</time>
      </trkpt>
      <trkpt lat="42.74534" lon="-0.09198">
        <ele>1956</ele>
        <time>2013-06-15T09:18:15Z</time>
      </trkpt>
      <trkpt lat="42.74533" lon="-0.09198">
        <ele>1956</ele>
        <time>2013-06-15T09:18:22Z</time>
      </trkpt>
      <trkpt lat="42.74532" lon="-0.09198">
        <ele>1956</ele>
        <time>2013-06-15T09:18:29Z</time>
      </trkpt>
      <trkpt lat="42.74533" lon="-0.09197">
        <ele>1956</ele>
        <time>2013-06-15T09:18:38Z</time>
      </trkpt>
      <trkpt lat="42.74534" lon="-0.09194">
        <ele>1955</ele>
        <time>2013-06-15T09:18:48Z</time>
      </trkpt>
      <trkpt lat="42.74533" lon="-0.09197">
        <ele>1956</ele>
        <time>2013-06-15T09:19:02Z</time>
      </trkpt>
      <trkpt lat="42.74528" lon="-0.09192">
        <ele>1956</ele>
        <time>2013-06-15T09:19:14Z</time>
      </trkpt>
      <trkpt lat="42.74529" lon="-0.09193">
        <ele>1956</ele>
        <time>2013-06-15T09:19:23Z</time>
      </trkpt>
      <trkpt lat="42.74528" lon="-0.09194">
        <ele>1956</ele>
        <time>2013-06-15T09:19:35Z</time>
      </trkpt>
      <trkpt lat="42.74531" lon="-0.09194">
        <ele>1956</ele>
        <time>2013-06-15T09:19:47Z</time>
      </trkpt>
      <trkpt lat="42.74531" lon="-0.09194">
        <ele>1956</ele>
        <time>2013-06-15T09:20:01Z</time>
      </trkpt>
      <trkpt lat="42.74534" lon="-0.09196">
        <ele>1955</ele>
        <time>2013-06-15T09:20:07Z</time>
      </trkpt>
      <trkpt lat="42.74531" lon="-0.09194">
        <ele>1957</ele>
        <time>2013-06-15T09:20:23Z</time>
      </trkpt>
      <trkpt lat="42.74532" lon="-0.09195">
        <ele>1956</ele>
        <time>2013-06-15T09:20:34Z</time>
      </trkpt>
      <trkpt lat="42.74533" lon="-0.09194">
        <ele>1956</ele>
        <time>2013-06-15T09:20:47Z</time>
      </trkpt>
      <trkpt lat="42.74533" lon="-0.09194">
        <ele>1956</ele>
        <time>2013-06-15T09:20:56Z</time>
      </trkpt>
      <trkpt lat="42.74533" lon="-0.09195">
        <ele>1957</ele>
        <time>2013-06-15T09:21:03Z</time>
      </trkpt>
      <trkpt lat="42.74534" lon="-0.09193">
        <ele>1955</ele>
        <time>2013-06-15T09:21:15Z</time>
      </trkpt>
      <trkpt lat="42.74534" lon="-0.09193">
        <ele>1955</ele>
        <time>2013-06-15T09:21:26Z</time>
      </trkpt>
      <trkpt lat="42.74533" lon="-0.09192">
        <ele>1955</ele>
        <time>2013-06-15T09:21:35Z</time>
      </trkpt>
      <trkpt lat="42.74533" lon="-0.09192">
        <ele>1955</ele>
        <time>2013-06-15T09:21:43Z</time>
      </trkpt>
      <trkpt lat="42.74533" lon="-0.09194">
        <ele>1955</ele>
        <time>2013-06-15T09:21:54Z</time>
      </trkpt>
      <trkpt lat="42.74533" lon="-0.09192">
        <ele>1957</ele>
        <time>2013-06-15T09:21:59Z</time>
      </trkpt>
      <trkpt lat="42.74533" lon="-0.09194">
        <ele>1957</ele>
        <time>2013-06-15T09:22:07Z</time>
      </trkpt>
      <trkpt lat="42.74533" lon="-0.09194">
        <ele>1957</ele>
        <time>2013-06-15T09:22:16Z</time>
      </trkpt>
      <trkpt lat="42.74533" lon="-0.09193">
        <ele>1957</ele>
        <time>2013-06-15T09:22:30Z</time>
      </trkpt>
      <trkpt lat="42.74529" lon="-0.09192">
        <ele>1956</ele>
        <time>2013-06-15T09:22:37Z</time>
      </trkpt>
      <trkpt lat="42.74528" lon="-0.09196">
        <ele>1956</ele>
        <time>2013-06-15T09:22:49Z</time>
      </trkpt>
      <trkpt lat="42.74528" lon="-0.09196">
        <ele>1956</ele>
        <time>2013-06-15T09:22:56Z</time>
      </trkpt>
      <trkpt lat="42.74527" lon="-0.09195">
        <ele>1957</ele>
        <time>2013-06-15T09:23:05Z</time>
      </trkpt>
      <trkpt lat="42.7453" lon="-0.0919">
        <ele>1956</ele>
        <time>2013-06-15T09:23:13Z</time>
      </trkpt>
      <trkpt lat="42.74529" lon="-0.0919">
        <ele>1957</ele>
        <time>2013-06-15T09:23:20Z</time>
      </trkpt>
      <trkpt lat="42.74529" lon="-0.09189">
        <ele>1956</ele>
        <time>2013-06-15T09:23:33Z</time>
      </trkpt>
      <trkpt lat="42.74534" lon="-0.09194">
        <ele>1957</ele>
        <time>2013-06-15T09:23:41Z</time>
      </trkpt>
      <trkpt lat="42.74535" lon="-0.09195">
        <ele>1956</ele>
        <time>2013-06-15T09:23:42Z</time>
      </trkpt>
      <trkpt lat="42.74543" lon="-0.09191">
        <ele>1955</ele>
        <time>2013-06-15T09:23:51Z</time>
      </trkpt>
      <trkpt lat="42.74544" lon="-0.0919">
        <ele>1955</ele>
        <time>2013-06-15T09:23:52Z</time>
      </trkpt>
      <trkpt lat="42.74543" lon="-0.0919">
        <ele>1954</ele>
        <time>2013-06-15T09:23:59Z</time>
      </trkpt>
      <trkpt lat="42.74545" lon="-0.09187">
        <ele>1954</ele>
        <time>2013-06-15T09:24:04Z</time>
      </trkpt>
      <trkpt lat="42.74549" lon="-0.09185">
        <ele>1954</ele>
        <time>2013-06-15T09:24:08Z</time>
      </trkpt>
      <trkpt lat="42.74558" lon="-0.0918">
        <ele>1953</ele>
        <time>2013-06-15T09:24:14Z</time>
      </trkpt>
      <trkpt lat="42.74564" lon="-0.09173">
        <ele>1951</ele>
        <time>2013-06-15T09:24:21Z</time>
      </trkpt>
      <trkpt lat="42.74569" lon="-0.09164">
        <ele>1951</ele>
        <time>2013-06-15T09:24:28Z</time>
      </trkpt>
      <trkpt lat="42.74573" lon="-0.09165">
        <ele>1949</ele>
        <time>2013-06-15T09:24:35Z</time>
      </trkpt>
      <trkpt lat="42.74575" lon="-0.09165">
        <ele>1948</ele>
        <time>2013-06-15T09:24:41Z</time>
      </trkpt>
      <trkpt lat="42.74577" lon="-0.09165">
        <ele>1948</ele>
        <time>2013-06-15T09:24:48Z</time>
      </trkpt>
      <trkpt lat="42.74578" lon="-0.09165">
        <ele>1948</ele>
        <time>2013-06-15T09:24:52Z</time>
      </trkpt>
      <trkpt lat="42.7458" lon="-0.09166">
        <ele>1948</ele>
        <time>2013-06-15T09:24:58Z</time>
      </trkpt>
      <trkpt lat="42.74581" lon="-0.09166">
        <ele>1948</ele>
        <time>2013-06-15T09:25:01Z</time>
      </trkpt>
      <trkpt lat="42.74591" lon="-0.09159">
        <ele>1948</ele>
        <time>2013-06-15T09:25:09Z</time>
      </trkpt>
      <trkpt lat="42.74601" lon="-0.09158">
        <ele>1948</ele>
        <time>2013-06-15T09:25:17Z</time>
      </trkpt>
      <trkpt lat="42.74603" lon="-0.09158">
        <ele>1949</ele>
        <time>2013-06-15T09:25:19Z</time>
      </trkpt>
      <trkpt lat="42.74611" lon="-0.09158">
        <ele>1949</ele>
        <time>2013-06-15T09:25:26Z</time>
      </trkpt>
      <trkpt lat="42.74613" lon="-0.09151">
        <ele>1949</ele>
        <time>2013-06-15T09:25:31Z</time>
      </trkpt>
      <trkpt lat="42.74622" lon="-0.09145">
        <ele>1948</ele>
        <time>2013-06-15T09:25:38Z</time>
      </trkpt>
      <trkpt lat="42.74623" lon="-0.09144">
        <ele>1947</ele>
        <time>2013-06-15T09:25:39Z</time>
      </trkpt>
      <trkpt lat="42.74632" lon="-0.09149">
        <ele>1948</ele>
        <time>2013-06-15T09:25:47Z</time>
      </trkpt>
      <trkpt lat="42.74639" lon="-0.09152">
        <ele>1947</ele>
        <time>2013-06-15T09:25:54Z</time>
      </trkpt>
      <trkpt lat="42.74648" lon="-0.09148">
        <ele>1946</ele>
        <time>2013-06-15T09:26:02Z</time>
      </trkpt>
      <trkpt lat="42.74652" lon="-0.09145">
        <ele>1945</ele>
        <time>2013-06-15T09:26:06Z</time>
      </trkpt>
      <trkpt lat="42.74654" lon="-0.09142">
        <ele>1945</ele>
        <time>2013-06-15T09:26:09Z</time>
      </trkpt>
      <trkpt lat="42.74661" lon="-0.09138">
        <ele>1944</ele>
        <time>2013-06-15T09:26:16Z</time>
      </trkpt>
      <trkpt lat="42.74664" lon="-0.09135">
        <ele>1943</ele>
        <time>2013-06-15T09:26:20Z</time>
      </trkpt>
      <trkpt lat="42.7467" lon="-0.09132">
        <ele>1942</ele>
        <time>2013-06-15T09:26:26Z</time>
      </trkpt>
      <trkpt lat="42.74677" lon="-0.09127">
        <ele>1942</ele>
        <time>2013-06-15T09:26:33Z</time>
      </trkpt>
      <trkpt lat="42.74685" lon="-0.09125">
        <ele>1942</ele>
        <time>2013-06-15T09:26:40Z</time>
      </trkpt>
      <trkpt lat="42.74692" lon="-0.09128">
        <ele>1940</ele>
        <time>2013-06-15T09:26:48Z</time>
      </trkpt>
      <trkpt lat="42.74693" lon="-0.09127">
        <ele>1941</ele>
        <time>2013-06-15T09:26:49Z</time>
      </trkpt>
      <trkpt lat="42.74699" lon="-0.09125">
        <ele>1939</ele>
        <time>2013-06-15T09:26:57Z</time>
      </trkpt>
      <trkpt lat="42.74701" lon="-0.09127">
        <ele>1937</ele>
        <time>2013-06-15T09:27:03Z</time>
      </trkpt>
      <trkpt lat="42.74705" lon="-0.09125">
        <ele>1936</ele>
        <time>2013-06-15T09:27:07Z</time>
      </trkpt>
      <trkpt lat="42.74707" lon="-0.0912">
        <ele>1934</ele>
        <time>2013-06-15T09:27:14Z</time>
      </trkpt>
      <trkpt lat="42.74709" lon="-0.09119">
        <ele>1933</ele>
        <time>2013-06-15T09:27:21Z</time>
      </trkpt>
      <trkpt lat="42.74712" lon="-0.09119">
        <ele>1933</ele>
        <time>2013-06-15T09:27:27Z</time>
      </trkpt>
      <trkpt lat="42.74715" lon="-0.09119">
        <ele>1933</ele>
        <time>2013-06-15T09:27:31Z</time>
      </trkpt>
      <trkpt lat="42.74719" lon="-0.09112">
        <ele>1932</ele>
        <time>2013-06-15T09:27:37Z</time>
      </trkpt>
      <trkpt lat="42.74722" lon="-0.0911">
        <ele>1932</ele>
        <time>2013-06-15T09:27:40Z</time>
      </trkpt>
      <trkpt lat="42.74728" lon="-0.09118">
        <ele>1931</ele>
        <time>2013-06-15T09:27:47Z</time>
      </trkpt>
      <trkpt lat="42.74729" lon="-0.09119">
        <ele>1931</ele>
        <time>2013-06-15T09:27:57Z</time>
      </trkpt>
      <trkpt lat="42.74729" lon="-0.09127">
        <ele>1930</ele>
        <time>2013-06-15T09:28:03Z</time>
      </trkpt>
      <trkpt lat="42.74729" lon="-0.0913">
        <ele>1931</ele>
        <time>2013-06-15T09:28:05Z</time>
      </trkpt>
      <trkpt lat="42.74728" lon="-0.09139">
        <ele>1932</ele>
        <time>2013-06-15T09:28:14Z</time>
      </trkpt>
      <trkpt lat="42.74726" lon="-0.09141">
        <ele>1932</ele>
        <time>2013-06-15T09:28:23Z</time>
      </trkpt>
      <trkpt lat="42.74727" lon="-0.09139">
        <ele>1931</ele>
        <time>2013-06-15T09:28:29Z</time>
      </trkpt>
      <trkpt lat="42.74727" lon="-0.09137">
        <ele>1931</ele>
        <time>2013-06-15T09:28:43Z</time>
      </trkpt>
      <trkpt lat="42.74728" lon="-0.09139">
        <ele>1931</ele>
        <time>2013-06-15T09:28:58Z</time>
      </trkpt>
      <trkpt lat="42.74727" lon="-0.0914">
        <ele>1931</ele>
        <time>2013-06-15T09:29:12Z</time>
      </trkpt>
      <trkpt lat="42.74728" lon="-0.09139">
        <ele>1931</ele>
        <time>2013-06-15T09:29:31Z</time>
      </trkpt>
      <trkpt lat="42.74728" lon="-0.09139">
        <ele>1930</ele>
        <time>2013-06-15T09:29:42Z</time>
      </trkpt>
      <trkpt lat="42.74726" lon="-0.0914">
        <ele>1930</ele>
        <time>2013-06-15T09:29:50Z</time>
      </trkpt>
      <trkpt lat="42.74725" lon="-0.09142">
        <ele>1930</ele>
        <time>2013-06-15T09:30:17Z</time>
      </trkpt>
      <trkpt lat="42.74727" lon="-0.0914">
        <ele>1930</ele>
        <time>2013-06-15T09:30:35Z</time>
      </trkpt>
      <trkpt lat="42.74728" lon="-0.09139">
        <ele>1930</ele>
        <time>2013-06-15T09:30:47Z</time>
      </trkpt>
      <trkpt lat="42.74728" lon="-0.09141">
        <ele>1931</ele>
        <time>2013-06-15T09:31:08Z</time>
      </trkpt>
      <trkpt lat="42.74726" lon="-0.09141">
        <ele>1930</ele>
        <time>2013-06-15T09:31:28Z</time>
      </trkpt>
      <trkpt lat="42.74727" lon="-0.09141">
        <ele>1931</ele>
        <time>2013-06-15T09:31:35Z</time>
      </trkpt>
      <trkpt lat="42.74726" lon="-0.09142">
        <ele>1930</ele>
        <time>2013-06-15T09:31:49Z</time>
      </trkpt>
      <trkpt lat="42.74725" lon="-0.09139">
        <ele>1931</ele>
        <time>2013-06-15T09:32:11Z</time>
      </trkpt>
      <trkpt lat="42.74727" lon="-0.09138">
        <ele>1931</ele>
        <time>2013-06-15T09:32:28Z</time>
      </trkpt>
      <trkpt lat="42.74727" lon="-0.09139">
        <ele>1931</ele>
        <time>2013-06-15T09:32:37Z</time>
      </trkpt>
      <trkpt lat="42.74725" lon="-0.09139">
        <ele>1932</ele>
        <time>2013-06-15T09:32:45Z</time>
      </trkpt>
      <trkpt lat="42.74725" lon="-0.0914">
        <ele>1932</ele>
        <time>2013-06-15T09:32:46Z</time>
      </trkpt>
      <trkpt lat="42.74723" lon="-0.09138">
        <ele>1931</ele>
        <time>2013-06-15T09:32:57Z</time>
      </trkpt>
      <trkpt lat="42.74724" lon="-0.09137">
        <ele>1931</ele>
        <time>2013-06-15T09:33:10Z</time>
      </trkpt>
      <trkpt lat="42.74724" lon="-0.09137">
        <ele>1931</ele>
        <time>2013-06-15T09:33:17Z</time>
      </trkpt>
      <trkpt lat="42.74725" lon="-0.09138">
        <ele>1931</ele>
        <time>2013-06-15T09:33:30Z</time>
      </trkpt>
      <trkpt lat="42.74725" lon="-0.09138">
        <ele>1930</ele>
        <time>2013-06-15T09:33:43Z</time>
      </trkpt>
      <trkpt lat="42.74728" lon="-0.0914">
        <ele>1930</ele>
        <time>2013-06-15T09:33:53Z</time>
      </trkpt>
      <trkpt lat="42.74728" lon="-0.09139">
        <ele>1931</ele>
        <time>2013-06-15T09:34:05Z</time>
      </trkpt>
      <trkpt lat="42.74731" lon="-0.0914">
        <ele>1931</ele>
        <time>2013-06-15T09:34:11Z</time>
      </trkpt>
      <trkpt lat="42.74735" lon="-0.09142">
        <ele>1932</ele>
        <time>2013-06-15T09:34:15Z</time>
      </trkpt>
      <trkpt lat="42.7474" lon="-0.09143">
        <ele>1933</ele>
        <time>2013-06-15T09:34:22Z</time>
      </trkpt>
      <trkpt lat="42.74744" lon="-0.09144">
        <ele>1933</ele>
        <time>2013-06-15T09:34:28Z</time>
      </trkpt>
      <trkpt lat="42.74748" lon="-0.09143">
        <ele>1934</ele>
        <time>2013-06-15T09:34:35Z</time>
      </trkpt>
      <trkpt lat="42.74753" lon="-0.09139">
        <ele>1935</ele>
        <time>2013-06-15T09:34:44Z</time>
      </trkpt>
      <trkpt lat="42.74758" lon="-0.09139">
        <ele>1937</ele>
        <time>2013-06-15T09:34:51Z</time>
      </trkpt>
      <trkpt lat="42.74761" lon="-0.09135">
        <ele>1937</ele>
        <time>2013-06-15T09:34:55Z</time>
      </trkpt>
      <trkpt lat="42.74766" lon="-0.09134">
        <ele>1937</ele>
        <time>2013-06-15T09:35:02Z</time>
      </trkpt>
      <trkpt lat="42.74776" lon="-0.09137">
        <ele>1938</ele>
        <time>2013-06-15T09:35:12Z</time>
      </trkpt>
      <trkpt lat="42.74783" lon="-0.09137">
        <ele>1939</ele>
        <time>2013-06-15T09:35:20Z</time>
      </trkpt>
      <trkpt lat="42.74789" lon="-0.09135">
        <ele>1940</ele>
        <time>2013-06-15T09:35:27Z</time>
      </trkpt>
      <trkpt lat="42.74795" lon="-0.09137">
        <ele>1941</ele>
        <time>2013-06-15T09:35:33Z</time>
      </trkpt>
      <trkpt lat="42.74796" lon="-0.09137">
        <ele>1942</ele>
        <time>2013-06-15T09:35:35Z</time>
      </trkpt>
      <trkpt lat="42.74801" lon="-0.09136">
        <ele>1941</ele>
        <time>2013-06-15T09:35:40Z</time>
      </trkpt>
      <trkpt lat="42.74804" lon="-0.09136">
        <ele>1941</ele>
        <time>2013-06-15T09:35:43Z</time>
      </trkpt>
      <trkpt lat="42.74811" lon="-0.09139">
        <ele>1942</ele>
        <time>2013-06-15T09:35:51Z</time>
      </trkpt>
      <trkpt lat="42.74817" lon="-0.09142">
        <ele>1942</ele>
        <time>2013-06-15T09:35:59Z</time>
      </trkpt>
      <trkpt lat="42.74821" lon="-0.0914">
        <ele>1942</ele>
        <time>2013-06-15T09:36:06Z</time>
      </trkpt>
      <trkpt lat="42.74823" lon="-0.09139">
        <ele>1941</ele>
        <time>2013-06-15T09:36:09Z</time>
      </trkpt>
      <trkpt lat="42.74832" lon="-0.09142">
        <ele>1942</ele>
        <time>2013-06-15T09:36:17Z</time>
      </trkpt>
      <trkpt lat="42.7484" lon="-0.09147">
        <ele>1943</ele>
        <time>2013-06-15T09:36:25Z</time>
      </trkpt>
      <trkpt lat="42.74847" lon="-0.0915">
        <ele>1943</ele>
        <time>2013-06-15T09:36:32Z</time>
      </trkpt>
      <trkpt lat="42.7485" lon="-0.09152">
        <ele>1943</ele>
        <time>2013-06-15T09:36:37Z</time>
      </trkpt>
      <trkpt lat="42.7485" lon="-0.0915">
        <ele>1942</ele>
        <time>2013-06-15T09:36:39Z</time>
      </trkpt>
      <trkpt lat="42.74852" lon="-0.09148">
        <ele>1943</ele>
        <time>2013-06-15T09:36:41Z</time>
      </trkpt>
      <trkpt lat="42.74856" lon="-0.09147">
        <ele>1943</ele>
        <time>2013-06-15T09:36:45Z</time>
      </trkpt>
      <trkpt lat="42.74861" lon="-0.09148">
        <ele>1943</ele>
        <time>2013-06-15T09:36:50Z</time>
      </trkpt>
      <trkpt lat="42.74865" lon="-0.09146">
        <ele>1942</ele>
        <time>2013-06-15T09:36:54Z</time>
      </trkpt>
      <trkpt lat="42.74871" lon="-0.09143">
        <ele>1942</ele>
        <time>2013-06-15T09:37:02Z</time>
      </trkpt>
      <trkpt lat="42.74872" lon="-0.09142">
        <ele>1942</ele>
        <time>2013-06-15T09:37:03Z</time>
      </trkpt>
      <trkpt lat="42.74878" lon="-0.09138">
        <ele>1941</ele>
        <time>2013-06-15T09:37:12Z</time>
      </trkpt>
      <trkpt lat="42.74884" lon="-0.09138">
        <ele>1939</ele>
        <time>2013-06-15T09:37:22Z</time>
      </trkpt>
      <trkpt lat="42.74889" lon="-0.09139">
        <ele>1937</ele>
        <time>2013-06-15T09:37:29Z</time>
      </trkpt>
      <trkpt lat="42.7489" lon="-0.09137">
        <ele>1936</ele>
        <time>2013-06-15T09:37:35Z</time>
      </trkpt>
      <trkpt lat="42.74893" lon="-0.09137">
        <ele>1936</ele>
        <time>2013-06-15T09:37:42Z</time>
      </trkpt>
      <trkpt lat="42.74894" lon="-0.09137">
        <ele>1936</ele>
        <time>2013-06-15T09:37:43Z</time>
      </trkpt>
      <trkpt lat="42.74897" lon="-0.09139">
        <ele>1935</ele>
        <time>2013-06-15T09:37:46Z</time>
      </trkpt>
      <trkpt lat="42.749" lon="-0.0914">
        <ele>1934</ele>
        <time>2013-06-15T09:37:49Z</time>
      </trkpt>
      <trkpt lat="42.74905" lon="-0.09136">
        <ele>1933</ele>
        <time>2013-06-15T09:37:57Z</time>
      </trkpt>
      <trkpt lat="42.7491" lon="-0.09132">
        <ele>1930</ele>
        <time>2013-06-15T09:38:05Z</time>
      </trkpt>
      <trkpt lat="42.74911" lon="-0.09131">
        <ele>1930</ele>
        <time>2013-06-15T09:38:06Z</time>
      </trkpt>
      <trkpt lat="42.74912" lon="-0.09127">
        <ele>1930</ele>
        <time>2013-06-15T09:38:09Z</time>
      </trkpt>
      <trkpt lat="42.74917" lon="-0.09124">
        <ele>1929</ele>
        <time>2013-06-15T09:38:16Z</time>
      </trkpt>
      <trkpt lat="42.74918" lon="-0.09119">
        <ele>1928</ele>
        <time>2013-06-15T09:38:23Z</time>
      </trkpt>
      <trkpt lat="42.74921" lon="-0.09115">
        <ele>1927</ele>
        <time>2013-06-15T09:38:31Z</time>
      </trkpt>
      <trkpt lat="42.74922" lon="-0.09114">
        <ele>1927</ele>
        <time>2013-06-15T09:38:38Z</time>
      </trkpt>
      <trkpt lat="42.74922" lon="-0.09112">
        <ele>1927</ele>
        <time>2013-06-15T09:38:43Z</time>
      </trkpt>
      <trkpt lat="42.74923" lon="-0.09108">
        <ele>1926</ele>
        <time>2013-06-15T09:38:51Z</time>
      </trkpt>
      <trkpt lat="42.74926" lon="-0.09106">
        <ele>1925</ele>
        <time>2013-06-15T09:38:58Z</time>
      </trkpt>
      <trkpt lat="42.74927" lon="-0.09104">
        <ele>1924</ele>
        <time>2013-06-15T09:39:04Z</time>
      </trkpt>
      <trkpt lat="42.74929" lon="-0.09103">
        <ele>1922</ele>
        <time>2013-06-15T09:39:11Z</time>
      </trkpt>
      <trkpt lat="42.74933" lon="-0.09101">
        <ele>1921</ele>
        <time>2013-06-15T09:39:17Z</time>
      </trkpt>
      <trkpt lat="42.74936" lon="-0.09099">
        <ele>1919</ele>
        <time>2013-06-15T09:39:25Z</time>
      </trkpt>
      <trkpt lat="42.74938" lon="-0.09093">
        <ele>1917</ele>
        <time>2013-06-15T09:39:31Z</time>
      </trkpt>
      <trkpt lat="42.7494" lon="-0.09091">
        <ele>1916</ele>
        <time>2013-06-15T09:39:35Z</time>
      </trkpt>
      <trkpt lat="42.74945" lon="-0.09086">
        <ele>1914</ele>
        <time>2013-06-15T09:39:43Z</time>
      </trkpt>
      <trkpt lat="42.7495" lon="-0.09084">
        <ele>1912</ele>
        <time>2013-06-15T09:39:50Z</time>
      </trkpt>
      <trkpt lat="42.74953" lon="-0.09081">
        <ele>1911</ele>
        <time>2013-06-15T09:39:56Z</time>
      </trkpt>
      <trkpt lat="42.74958" lon="-0.09076">
        <ele>1910</ele>
        <time>2013-06-15T09:40:02Z</time>
      </trkpt>
      <trkpt lat="42.74959" lon="-0.09071">
        <ele>1909</ele>
        <time>2013-06-15T09:40:08Z</time>
      </trkpt>
      <trkpt lat="42.74962" lon="-0.0907">
        <ele>1909</ele>
        <time>2013-06-15T09:40:11Z</time>
      </trkpt>
      <trkpt lat="42.74965" lon="-0.09062">
        <ele>1907</ele>
        <time>2013-06-15T09:40:17Z</time>
      </trkpt>
      <trkpt lat="42.74969" lon="-0.09056">
        <ele>1905</ele>
        <time>2013-06-15T09:40:24Z</time>
      </trkpt>
      <trkpt lat="42.74974" lon="-0.09054">
        <ele>1904</ele>
        <time>2013-06-15T09:40:32Z</time>
      </trkpt>
      <trkpt lat="42.74976" lon="-0.09051">
        <ele>1902</ele>
        <time>2013-06-15T09:40:37Z</time>
      </trkpt>
      <trkpt lat="42.74981" lon="-0.09052">
        <ele>1901</ele>
        <time>2013-06-15T09:40:45Z</time>
      </trkpt>
      <trkpt lat="42.74982" lon="-0.09051">
        <ele>1900</ele>
        <time>2013-06-15T09:40:47Z</time>
      </trkpt>
      <trkpt lat="42.74984" lon="-0.09052">
        <ele>1900</ele>
        <time>2013-06-15T09:40:53Z</time>
      </trkpt>
      <trkpt lat="42.74985" lon="-0.09049">
        <ele>1898</ele>
        <time>2013-06-15T09:40:56Z</time>
      </trkpt>
      <trkpt lat="42.74986" lon="-0.09043">
        <ele>1897</ele>
        <time>2013-06-15T09:41:01Z</time>
      </trkpt>
      <trkpt lat="42.74989" lon="-0.09038">
        <ele>1896</ele>
        <time>2013-06-15T09:41:07Z</time>
      </trkpt>
      <trkpt lat="42.74992" lon="-0.09032">
        <ele>1894</ele>
        <time>2013-06-15T09:41:14Z</time>
      </trkpt>
      <trkpt lat="42.74994" lon="-0.09028">
        <ele>1892</ele>
        <time>2013-06-15T09:41:21Z</time>
      </trkpt>
      <trkpt lat="42.74998" lon="-0.09024">
        <ele>1891</ele>
        <time>2013-06-15T09:41:27Z</time>
      </trkpt>
      <trkpt lat="42.75" lon="-0.09021">
        <ele>1890</ele>
        <time>2013-06-15T09:41:32Z</time>
      </trkpt>
      <trkpt lat="42.75003" lon="-0.09014">
        <ele>1889</ele>
        <time>2013-06-15T09:41:39Z</time>
      </trkpt>
      <trkpt lat="42.75005" lon="-0.09012">
        <ele>1888</ele>
        <time>2013-06-15T09:41:45Z</time>
      </trkpt>
      <trkpt lat="42.75006" lon="-0.09009">
        <ele>1886</ele>
        <time>2013-06-15T09:41:51Z</time>
      </trkpt>
      <trkpt lat="42.7501" lon="-0.09006">
        <ele>1886</ele>
        <time>2013-06-15T09:41:56Z</time>
      </trkpt>
      <trkpt lat="42.75012" lon="-0.09004">
        <ele>1885</ele>
        <time>2013-06-15T09:42:00Z</time>
      </trkpt>
      <trkpt lat="42.75015" lon="-0.09006">
        <ele>1884</ele>
        <time>2013-06-15T09:42:07Z</time>
      </trkpt>
      <trkpt lat="42.75019" lon="-0.09004">
        <ele>1882</ele>
        <time>2013-06-15T09:42:14Z</time>
      </trkpt>
      <trkpt lat="42.7502" lon="-0.09">
        <ele>1881</ele>
        <time>2013-06-15T09:42:18Z</time>
      </trkpt>
      <trkpt lat="42.75021" lon="-0.08995">
        <ele>1880</ele>
        <time>2013-06-15T09:42:25Z</time>
      </trkpt>
      <trkpt lat="42.75023" lon="-0.08991">
        <ele>1880</ele>
        <time>2013-06-15T09:42:32Z</time>
      </trkpt>
      <trkpt lat="42.75025" lon="-0.08985">
        <ele>1878</ele>
        <time>2013-06-15T09:42:40Z</time>
      </trkpt>
      <trkpt lat="42.75025" lon="-0.08981">
        <ele>1878</ele>
        <time>2013-06-15T09:42:46Z</time>
      </trkpt>
      <trkpt lat="42.75027" lon="-0.08978">
        <ele>1877</ele>
        <time>2013-06-15T09:42:54Z</time>
      </trkpt>
      <trkpt lat="42.75027" lon="-0.08976">
        <ele>1877</ele>
        <time>2013-06-15T09:43:03Z</time>
      </trkpt>
      <trkpt lat="42.75029" lon="-0.08978">
        <ele>1876</ele>
        <time>2013-06-15T09:43:10Z</time>
      </trkpt>
      <trkpt lat="42.7503" lon="-0.08976">
        <ele>1876</ele>
        <time>2013-06-15T09:43:14Z</time>
      </trkpt>
      <trkpt lat="42.75032" lon="-0.08978">
        <ele>1875</ele>
        <time>2013-06-15T09:43:20Z</time>
      </trkpt>
      <trkpt lat="42.75033" lon="-0.08978">
        <ele>1874</ele>
        <time>2013-06-15T09:43:29Z</time>
      </trkpt>
      <trkpt lat="42.75035" lon="-0.08978">
        <ele>1873</ele>
        <time>2013-06-15T09:43:36Z</time>
      </trkpt>
      <trkpt lat="42.75036" lon="-0.08974">
        <ele>1872</ele>
        <time>2013-06-15T09:43:42Z</time>
      </trkpt>
      <trkpt lat="42.75039" lon="-0.08969">
        <ele>1870</ele>
        <time>2013-06-15T09:43:48Z</time>
      </trkpt>
      <trkpt lat="42.75042" lon="-0.08967">
        <ele>1870</ele>
        <time>2013-06-15T09:43:55Z</time>
      </trkpt>
      <trkpt lat="42.75043" lon="-0.0896">
        <ele>1869</ele>
        <time>2013-06-15T09:44:01Z</time>
      </trkpt>
      <trkpt lat="42.75046" lon="-0.08957">
        <ele>1869</ele>
        <time>2013-06-15T09:44:04Z</time>
      </trkpt>
      <trkpt lat="42.75048" lon="-0.08952">
        <ele>1867</ele>
        <time>2013-06-15T09:44:11Z</time>
      </trkpt>
      <trkpt lat="42.75049" lon="-0.08951">
        <ele>1867</ele>
        <time>2013-06-15T09:44:17Z</time>
      </trkpt>
      <trkpt lat="42.75052" lon="-0.08949">
        <ele>1866</ele>
        <time>2013-06-15T09:44:27Z</time>
      </trkpt>
      <trkpt lat="42.75053" lon="-0.08945">
        <ele>1865</ele>
        <time>2013-06-15T09:44:34Z</time>
      </trkpt>
      <trkpt lat="42.75054" lon="-0.08943">
        <ele>1865</ele>
        <time>2013-06-15T09:44:42Z</time>
      </trkpt>
      <trkpt lat="42.75054" lon="-0.08947">
        <ele>1865</ele>
        <time>2013-06-15T09:44:52Z</time>
      </trkpt>
      <trkpt lat="42.75054" lon="-0.08948">
        <ele>1865</ele>
        <time>2013-06-15T09:45:14Z</time>
      </trkpt>
      <trkpt lat="42.75051" lon="-0.08947">
        <ele>1864</ele>
        <time>2013-06-15T09:45:35Z</time>
      </trkpt>
      <trkpt lat="42.7505" lon="-0.08948">
        <ele>1865</ele>
        <time>2013-06-15T09:45:46Z</time>
      </trkpt>
      <trkpt lat="42.75055" lon="-0.08944">
        <ele>1865</ele>
        <time>2013-06-15T09:46:05Z</time>
      </trkpt>
      <trkpt lat="42.75051" lon="-0.08949">
        <ele>1865</ele>
        <time>2013-06-15T09:46:20Z</time>
      </trkpt>
      <trkpt lat="42.7505" lon="-0.08953">
        <ele>1865</ele>
        <time>2013-06-15T09:46:36Z</time>
      </trkpt>
      <trkpt lat="42.75056" lon="-0.0895">
        <ele>1864</ele>
        <time>2013-06-15T09:46:52Z</time>
      </trkpt>
      <trkpt lat="42.75056" lon="-0.08948">
        <ele>1865</ele>
        <time>2013-06-15T09:47:11Z</time>
      </trkpt>
      <trkpt lat="42.75058" lon="-0.08943">
        <ele>1863</ele>
        <time>2013-06-15T09:47:17Z</time>
      </trkpt>
      <trkpt lat="42.75058" lon="-0.08943">
        <ele>1863</ele>
        <time>2013-06-15T09:47:18Z</time>
      </trkpt>
      <trkpt lat="42.75061" lon="-0.08936">
        <ele>1862</ele>
        <time>2013-06-15T09:47:24Z</time>
      </trkpt>
      <trkpt lat="42.75063" lon="-0.08932">
        <ele>1860</ele>
        <time>2013-06-15T09:47:30Z</time>
      </trkpt>
      <trkpt lat="42.75066" lon="-0.08928">
        <ele>1859</ele>
        <time>2013-06-15T09:47:36Z</time>
      </trkpt>
      <trkpt lat="42.7507" lon="-0.08923">
        <ele>1858</ele>
        <time>2013-06-15T09:47:42Z</time>
      </trkpt>
      <trkpt lat="42.75074" lon="-0.08923">
        <ele>1856</ele>
        <time>2013-06-15T09:47:48Z</time>
      </trkpt>
      <trkpt lat="42.75076" lon="-0.08924">
        <ele>1855</ele>
        <time>2013-06-15T09:47:54Z</time>
      </trkpt>
      <trkpt lat="42.75079" lon="-0.08918">
        <ele>1853</ele>
        <time>2013-06-15T09:48:00Z</time>
      </trkpt>
      <trkpt lat="42.75079" lon="-0.08917">
        <ele>1853</ele>
        <time>2013-06-15T09:48:01Z</time>
      </trkpt>
      <trkpt lat="42.75085" lon="-0.08914">
        <ele>1852</ele>
        <time>2013-06-15T09:48:09Z</time>
      </trkpt>
      <trkpt lat="42.75091" lon="-0.08911">
        <ele>1849</ele>
        <time>2013-06-15T09:48:17Z</time>
      </trkpt>
      <trkpt lat="42.75095" lon="-0.08907">
        <ele>1849</ele>
        <time>2013-06-15T09:48:22Z</time>
      </trkpt>
      <trkpt lat="42.75097" lon="-0.08908">
        <ele>1848</ele>
        <time>2013-06-15T09:48:27Z</time>
      </trkpt>
      <trkpt lat="42.75101" lon="-0.08904">
        <ele>1847</ele>
        <time>2013-06-15T09:48:33Z</time>
      </trkpt>
      <trkpt lat="42.75107" lon="-0.08901">
        <ele>1846</ele>
        <time>2013-06-15T09:48:39Z</time>
      </trkpt>
      <trkpt lat="42.75111" lon="-0.089">
        <ele>1844</ele>
        <time>2013-06-15T09:48:44Z</time>
      </trkpt>
      <trkpt lat="42.75112" lon="-0.08899">
        <ele>1844</ele>
        <time>2013-06-15T09:48:46Z</time>
      </trkpt>
      <trkpt lat="42.75118" lon="-0.08895">
        <ele>1842</ele>
        <time>2013-06-15T09:48:55Z</time>
      </trkpt>
      <trkpt lat="42.75123" lon="-0.0889">
        <ele>1841</ele>
        <time>2013-06-15T09:49:00Z</time>
      </trkpt>
      <trkpt lat="42.75128" lon="-0.08882">
        <ele>1838</ele>
        <time>2013-06-15T09:49:08Z</time>
      </trkpt>
      <trkpt lat="42.7513" lon="-0.08877">
        <ele>1837</ele>
        <time>2013-06-15T09:49:14Z</time>
      </trkpt>
      <trkpt lat="42.75134" lon="-0.08872">
        <ele>1836</ele>
        <time>2013-06-15T09:49:17Z</time>
      </trkpt>
      <trkpt lat="42.75135" lon="-0.08868">
        <ele>1836</ele>
        <time>2013-06-15T09:49:20Z</time>
      </trkpt>
      <trkpt lat="42.75136" lon="-0.08861">
        <ele>1835</ele>
        <time>2013-06-15T09:49:26Z</time>
      </trkpt>
      <trkpt lat="42.75133" lon="-0.08856">
        <ele>1833</ele>
        <time>2013-06-15T09:49:33Z</time>
      </trkpt>
      <trkpt lat="42.7513" lon="-0.08852">
        <ele>1831</ele>
        <time>2013-06-15T09:49:39Z</time>
      </trkpt>
      <trkpt lat="42.75122" lon="-0.08846">
        <ele>1829</ele>
        <time>2013-06-15T09:49:48Z</time>
      </trkpt>
      <trkpt lat="42.75124" lon="-0.08839">
        <ele>1827</ele>
        <time>2013-06-15T09:49:56Z</time>
      </trkpt>
      <trkpt lat="42.75123" lon="-0.08835">
        <ele>1827</ele>
        <time>2013-06-15T09:50:01Z</time>
      </trkpt>
      <trkpt lat="42.75127" lon="-0.08838">
        <ele>1826</ele>
        <time>2013-06-15T09:50:04Z</time>
      </trkpt>
      <trkpt lat="42.75127" lon="-0.08839">
        <ele>1826</ele>
        <time>2013-06-15T09:50:10Z</time>
      </trkpt>
      <trkpt lat="42.75128" lon="-0.08834">
        <ele>1826</ele>
        <time>2013-06-15T09:50:15Z</time>
      </trkpt>
      <trkpt lat="42.75132" lon="-0.08825">
        <ele>1825</ele>
        <time>2013-06-15T09:50:21Z</time>
      </trkpt>
      <trkpt lat="42.75134" lon="-0.08821">
        <ele>1824</ele>
        <time>2013-06-15T09:50:25Z</time>
      </trkpt>
      <trkpt lat="42.75135" lon="-0.08815">
        <ele>1823</ele>
        <time>2013-06-15T09:50:32Z</time>
      </trkpt>
      <trkpt lat="42.75138" lon="-0.08814">
        <ele>1823</ele>
        <time>2013-06-15T09:50:38Z</time>
      </trkpt>
      <trkpt lat="42.7514" lon="-0.08813">
        <ele>1824</ele>
        <time>2013-06-15T09:50:40Z</time>
      </trkpt>
      <trkpt lat="42.75144" lon="-0.08805">
        <ele>1824</ele>
        <time>2013-06-15T09:50:45Z</time>
      </trkpt>
      <trkpt lat="42.75145" lon="-0.08803">
        <ele>1824</ele>
        <time>2013-06-15T09:50:52Z</time>
      </trkpt>
      <trkpt lat="42.75145" lon="-0.08799">
        <ele>1823</ele>
        <time>2013-06-15T09:51:01Z</time>
      </trkpt>
      <trkpt lat="42.75149" lon="-0.08786">
        <ele>1823</ele>
        <time>2013-06-15T09:51:08Z</time>
      </trkpt>
      <trkpt lat="42.75152" lon="-0.08775">
        <ele>1822</ele>
        <time>2013-06-15T09:51:14Z</time>
      </trkpt>
      <trkpt lat="42.75155" lon="-0.0877">
        <ele>1823</ele>
        <time>2013-06-15T09:51:20Z</time>
      </trkpt>
      <trkpt lat="42.75159" lon="-0.08764">
        <ele>1822</ele>
        <time>2013-06-15T09:51:26Z</time>
      </trkpt>
      <trkpt lat="42.75166" lon="-0.08759">
        <ele>1822</ele>
        <time>2013-06-15T09:51:34Z</time>
      </trkpt>
      <trkpt lat="42.75169" lon="-0.08754">
        <ele>1822</ele>
        <time>2013-06-15T09:51:37Z</time>
      </trkpt>
      <trkpt lat="42.75169" lon="-0.08743">
        <ele>1821</ele>
        <time>2013-06-15T09:51:43Z</time>
      </trkpt>
      <trkpt lat="42.75171" lon="-0.08735">
        <ele>1821</ele>
        <time>2013-06-15T09:51:48Z</time>
      </trkpt>
      <trkpt lat="42.75173" lon="-0.08727">
        <ele>1821</ele>
        <time>2013-06-15T09:51:54Z</time>
      </trkpt>
      <trkpt lat="42.7518" lon="-0.08717">
        <ele>1821</ele>
        <time>2013-06-15T09:52:02Z</time>
      </trkpt>
      <trkpt lat="42.75186" lon="-0.0871">
        <ele>1821</ele>
        <time>2013-06-15T09:52:08Z</time>
      </trkpt>
      <trkpt lat="42.7519" lon="-0.08702">
        <ele>1821</ele>
        <time>2013-06-15T09:52:14Z</time>
      </trkpt>
      <trkpt lat="42.75197" lon="-0.08691">
        <ele>1820</ele>
        <time>2013-06-15T09:52:22Z</time>
      </trkpt>
      <trkpt lat="42.75203" lon="-0.08687">
        <ele>1819</ele>
        <time>2013-06-15T09:52:29Z</time>
      </trkpt>
      <trkpt lat="42.75205" lon="-0.08685">
        <ele>1819</ele>
        <time>2013-06-15T09:52:33Z</time>
      </trkpt>
      <trkpt lat="42.75205" lon="-0.08681">
        <ele>1819</ele>
        <time>2013-06-15T09:52:37Z</time>
      </trkpt>
      <trkpt lat="42.75208" lon="-0.08672">
        <ele>1817</ele>
        <time>2013-06-15T09:52:44Z</time>
      </trkpt>
      <trkpt lat="42.75211" lon="-0.08668">
        <ele>1817</ele>
        <time>2013-06-15T09:52:50Z</time>
      </trkpt>
      <trkpt lat="42.75213" lon="-0.08658">
        <ele>1815</ele>
        <time>2013-06-15T09:52:59Z</time>
      </trkpt>
      <trkpt lat="42.75212" lon="-0.08648">
        <ele>1814</ele>
        <time>2013-06-15T09:53:06Z</time>
      </trkpt>
      <trkpt lat="42.75214" lon="-0.08639">
        <ele>1813</ele>
        <time>2013-06-15T09:53:12Z</time>
      </trkpt>
      <trkpt lat="42.75216" lon="-0.08628">
        <ele>1811</ele>
        <time>2013-06-15T09:53:20Z</time>
      </trkpt>
      <trkpt lat="42.75216" lon="-0.08623">
        <ele>1810</ele>
        <time>2013-06-15T09:53:23Z</time>
      </trkpt>
      <trkpt lat="42.75218" lon="-0.08613">
        <ele>1809</ele>
        <time>2013-06-15T09:53:31Z</time>
      </trkpt>
      <trkpt lat="42.75219" lon="-0.08604">
        <ele>1809</ele>
        <time>2013-06-15T09:53:37Z</time>
      </trkpt>
      <trkpt lat="42.75221" lon="-0.08601">
        <ele>1808</ele>
        <time>2013-06-15T09:53:39Z</time>
      </trkpt>
      <trkpt lat="42.75222" lon="-0.08599">
        <ele>1808</ele>
        <time>2013-06-15T09:53:41Z</time>
      </trkpt>
      <trkpt lat="42.75225" lon="-0.0859">
        <ele>1807</ele>
        <time>2013-06-15T09:53:47Z</time>
      </trkpt>
      <trkpt lat="42.75227" lon="-0.08576">
        <ele>1806</ele>
        <time>2013-06-15T09:53:55Z</time>
      </trkpt>
      <trkpt lat="42.75227" lon="-0.08569">
        <ele>1805</ele>
        <time>2013-06-15T09:54:00Z</time>
      </trkpt>
      <trkpt lat="42.75228" lon="-0.08559">
        <ele>1804</ele>
        <time>2013-06-15T09:54:08Z</time>
      </trkpt>
      <trkpt lat="42.75232" lon="-0.08553">
        <ele>1802</ele>
        <time>2013-06-15T09:54:16Z</time>
      </trkpt>
      <trkpt lat="42.75233" lon="-0.08547">
        <ele>1800</ele>
        <time>2013-06-15T09:54:21Z</time>
      </trkpt>
      <trkpt lat="42.75233" lon="-0.08542">
        <ele>1800</ele>
        <time>2013-06-15T09:54:24Z</time>
      </trkpt>
      <trkpt lat="42.75233" lon="-0.08542">
        <ele>1799</ele>
        <time>2013-06-15T09:54:29Z</time>
      </trkpt>
      <trkpt lat="42.75235" lon="-0.08538">
        <ele>1798</ele>
        <time>2013-06-15T09:54:33Z</time>
      </trkpt>
      <trkpt lat="42.7524" lon="-0.08531">
        <ele>1796</ele>
        <time>2013-06-15T09:54:40Z</time>
      </trkpt>
      <trkpt lat="42.75243" lon="-0.08526">
        <ele>1796</ele>
        <time>2013-06-15T09:54:46Z</time>
      </trkpt>
      <trkpt lat="42.75244" lon="-0.08521">
        <ele>1794</ele>
        <time>2013-06-15T09:54:52Z</time>
      </trkpt>
      <trkpt lat="42.75245" lon="-0.08519">
        <ele>1793</ele>
        <time>2013-06-15T09:54:53Z</time>
      </trkpt>
      <trkpt lat="42.7525" lon="-0.0851">
        <ele>1793</ele>
        <time>2013-06-15T09:55:00Z</time>
      </trkpt>
      <trkpt lat="42.75249" lon="-0.0851">
        <ele>1792</ele>
        <time>2013-06-15T09:55:04Z</time>
      </trkpt>
      <trkpt lat="42.75256" lon="-0.08506">
        <ele>1791</ele>
        <time>2013-06-15T09:55:11Z</time>
      </trkpt>
      <trkpt lat="42.75258" lon="-0.08502">
        <ele>1791</ele>
        <time>2013-06-15T09:55:14Z</time>
      </trkpt>
      <trkpt lat="42.7526" lon="-0.085">
        <ele>1791</ele>
        <time>2013-06-15T09:55:15Z</time>
      </trkpt>
      <trkpt lat="42.75266" lon="-0.0849">
        <ele>1789</ele>
        <time>2013-06-15T09:55:22Z</time>
      </trkpt>
      <trkpt lat="42.75273" lon="-0.08495">
        <ele>1788</ele>
        <time>2013-06-15T09:55:28Z</time>
      </trkpt>
      <trkpt lat="42.75275" lon="-0.08495">
        <ele>1788</ele>
        <time>2013-06-15T09:55:31Z</time>
      </trkpt>
      <trkpt lat="42.75278" lon="-0.08491">
        <ele>1786</ele>
        <time>2013-06-15T09:55:35Z</time>
      </trkpt>
      <trkpt lat="42.75282" lon="-0.08486">
        <ele>1785</ele>
        <time>2013-06-15T09:55:42Z</time>
      </trkpt>
      <trkpt lat="42.75284" lon="-0.08482">
        <ele>1784</ele>
        <time>2013-06-15T09:55:45Z</time>
      </trkpt>
      <trkpt lat="42.75288" lon="-0.08478">
        <ele>1784</ele>
        <time>2013-06-15T09:55:49Z</time>
      </trkpt>
      <trkpt lat="42.75293" lon="-0.08467">
        <ele>1783</ele>
        <time>2013-06-15T09:55:56Z</time>
      </trkpt>
      <trkpt lat="42.75299" lon="-0.08465">
        <ele>1782</ele>
        <time>2013-06-15T09:56:02Z</time>
      </trkpt>
      <trkpt lat="42.75302" lon="-0.08464">
        <ele>1782</ele>
        <time>2013-06-15T09:56:06Z</time>
      </trkpt>
      <trkpt lat="42.75304" lon="-0.08464">
        <ele>1781</ele>
        <time>2013-06-15T09:56:09Z</time>
      </trkpt>
      <trkpt lat="42.75308" lon="-0.08459">
        <ele>1780</ele>
        <time>2013-06-15T09:56:14Z</time>
      </trkpt>
      <trkpt lat="42.75311" lon="-0.08453">
        <ele>1780</ele>
        <time>2013-06-15T09:56:22Z</time>
      </trkpt>
      <trkpt lat="42.75311" lon="-0.08453">
        <ele>1779</ele>
        <time>2013-06-15T09:56:25Z</time>
      </trkpt>
      <trkpt lat="42.75316" lon="-0.08442">
        <ele>1777</ele>
        <time>2013-06-15T09:56:32Z</time>
      </trkpt>
      <trkpt lat="42.75318" lon="-0.08431">
        <ele>1776</ele>
        <time>2013-06-15T09:56:40Z</time>
      </trkpt>
      <trkpt lat="42.7532" lon="-0.08425">
        <ele>1775</ele>
        <time>2013-06-15T09:56:45Z</time>
      </trkpt>
      <trkpt lat="42.7532" lon="-0.08425">
        <ele>1775</ele>
        <time>2013-06-15T09:56:50Z</time>
      </trkpt>
      <trkpt lat="42.7532" lon="-0.08421">
        <ele>1773</ele>
        <time>2013-06-15T09:56:56Z</time>
      </trkpt>
      <trkpt lat="42.75322" lon="-0.08416">
        <ele>1771</ele>
        <time>2013-06-15T09:57:04Z</time>
      </trkpt>
      <trkpt lat="42.75327" lon="-0.08409">
        <ele>1770</ele>
        <time>2013-06-15T09:57:13Z</time>
      </trkpt>
      <trkpt lat="42.75331" lon="-0.08406">
        <ele>1768</ele>
        <time>2013-06-15T09:57:18Z</time>
      </trkpt>
      <trkpt lat="42.75333" lon="-0.08399">
        <ele>1768</ele>
        <time>2013-06-15T09:57:23Z</time>
      </trkpt>
      <trkpt lat="42.75334" lon="-0.08382">
        <ele>1766</ele>
        <time>2013-06-15T09:57:32Z</time>
      </trkpt>
      <trkpt lat="42.75335" lon="-0.0837">
        <ele>1764</ele>
        <time>2013-06-15T09:57:40Z</time>
      </trkpt>
      <trkpt lat="42.75338" lon="-0.08359">
        <ele>1762</ele>
        <time>2013-06-15T09:57:47Z</time>
      </trkpt>
      <trkpt lat="42.7534" lon="-0.08357">
        <ele>1762</ele>
        <time>2013-06-15T09:57:49Z</time>
      </trkpt>
      <trkpt lat="42.75342" lon="-0.08354">
        <ele>1761</ele>
        <time>2013-06-15T09:57:56Z</time>
      </trkpt>
      <trkpt lat="42.75343" lon="-0.08354">
        <ele>1761</ele>
        <time>2013-06-15T09:57:57Z</time>
      </trkpt>
      <trkpt lat="42.75345" lon="-0.08352">
        <ele>1760</ele>
        <time>2013-06-15T09:58:04Z</time>
      </trkpt>
      <trkpt lat="42.75345" lon="-0.08359">
        <ele>1760</ele>
        <time>2013-06-15T09:58:21Z</time>
      </trkpt>
      <trkpt lat="42.75348" lon="-0.0835">
        <ele>1759</ele>
        <time>2013-06-15T09:58:27Z</time>
      </trkpt>
      <trkpt lat="42.75347" lon="-0.08336">
        <ele>1757</ele>
        <time>2013-06-15T09:58:34Z</time>
      </trkpt>
      <trkpt lat="42.7535" lon="-0.08322">
        <ele>1755</ele>
        <time>2013-06-15T09:58:41Z</time>
      </trkpt>
      <trkpt lat="42.75349" lon="-0.0832">
        <ele>1756</ele>
        <time>2013-06-15T09:58:44Z</time>
      </trkpt>
      <trkpt lat="42.75355" lon="-0.08309">
        <ele>1755</ele>
        <time>2013-06-15T09:58:51Z</time>
      </trkpt>
      <trkpt lat="42.75359" lon="-0.08297">
        <ele>1755</ele>
        <time>2013-06-15T09:58:58Z</time>
      </trkpt>
      <trkpt lat="42.75362" lon="-0.08286">
        <ele>1754</ele>
        <time>2013-06-15T09:59:06Z</time>
      </trkpt>
      <trkpt lat="42.75365" lon="-0.08273">
        <ele>1754</ele>
        <time>2013-06-15T09:59:14Z</time>
      </trkpt>
      <trkpt lat="42.75367" lon="-0.08265">
        <ele>1754</ele>
        <time>2013-06-15T09:59:20Z</time>
      </trkpt>
      <trkpt lat="42.75369" lon="-0.08252">
        <ele>1754</ele>
        <time>2013-06-15T09:59:29Z</time>
      </trkpt>
      <trkpt lat="42.75369" lon="-0.08242">
        <ele>1754</ele>
        <time>2013-06-15T09:59:35Z</time>
      </trkpt>
      <trkpt lat="42.75369" lon="-0.08236">
        <ele>1753</ele>
        <time>2013-06-15T09:59:39Z</time>
      </trkpt>
      <trkpt lat="42.7537" lon="-0.08236">
        <ele>1753</ele>
        <time>2013-06-15T09:59:47Z</time>
      </trkpt>
      <trkpt lat="42.75371" lon="-0.08229">
        <ele>1753</ele>
        <time>2013-06-15T09:59:57Z</time>
      </trkpt>
      <trkpt lat="42.75374" lon="-0.08215">
        <ele>1754</ele>
        <time>2013-06-15T10:00:05Z</time>
      </trkpt>
      <trkpt lat="42.75378" lon="-0.08207">
        <ele>1754</ele>
        <time>2013-06-15T10:00:12Z</time>
      </trkpt>
      <trkpt lat="42.75379" lon="-0.08194">
        <ele>1754</ele>
        <time>2013-06-15T10:00:20Z</time>
      </trkpt>
      <trkpt lat="42.75379" lon="-0.08189">
        <ele>1754</ele>
        <time>2013-06-15T10:00:23Z</time>
      </trkpt>
      <trkpt lat="42.75383" lon="-0.08183">
        <ele>1754</ele>
        <time>2013-06-15T10:00:29Z</time>
      </trkpt>
      <trkpt lat="42.75386" lon="-0.08175">
        <ele>1754</ele>
        <time>2013-06-15T10:00:36Z</time>
      </trkpt>
      <trkpt lat="42.75387" lon="-0.08172">
        <ele>1754</ele>
        <time>2013-06-15T10:00:37Z</time>
      </trkpt>
      <trkpt lat="42.75389" lon="-0.08174">
        <ele>1753</ele>
        <time>2013-06-15T10:00:43Z</time>
      </trkpt>
      <trkpt lat="42.75391" lon="-0.08177">
        <ele>1754</ele>
        <time>2013-06-15T10:00:49Z</time>
      </trkpt>
      <trkpt lat="42.75389" lon="-0.08167">
        <ele>1754</ele>
        <time>2013-06-15T10:00:55Z</time>
      </trkpt>
      <trkpt lat="42.75389" lon="-0.08164">
        <ele>1754</ele>
        <time>2013-06-15T10:01:01Z</time>
      </trkpt>
      <trkpt lat="42.75393" lon="-0.08163">
        <ele>1754</ele>
        <time>2013-06-15T10:01:05Z</time>
      </trkpt>
      <trkpt lat="42.75399" lon="-0.08161">
        <ele>1752</ele>
        <time>2013-06-15T10:01:12Z</time>
      </trkpt>
      <trkpt lat="42.75403" lon="-0.08158">
        <ele>1750</ele>
        <time>2013-06-15T10:01:18Z</time>
      </trkpt>
      <trkpt lat="42.7541" lon="-0.08157">
        <ele>1747</ele>
        <time>2013-06-15T10:01:26Z</time>
      </trkpt>
      <trkpt lat="42.75416" lon="-0.08162">
        <ele>1746</ele>
        <time>2013-06-15T10:01:34Z</time>
      </trkpt>
      <trkpt lat="42.75416" lon="-0.08159">
        <ele>1745</ele>
        <time>2013-06-15T10:01:42Z</time>
      </trkpt>
      <trkpt lat="42.75419" lon="-0.08161">
        <ele>1744</ele>
        <time>2013-06-15T10:01:50Z</time>
      </trkpt>
      <trkpt lat="42.75421" lon="-0.08158">
        <ele>1744</ele>
        <time>2013-06-15T10:01:57Z</time>
      </trkpt>
      <trkpt lat="42.75422" lon="-0.08156">
        <ele>1743</ele>
        <time>2013-06-15T10:02:06Z</time>
      </trkpt>
      <trkpt lat="42.75425" lon="-0.0816">
        <ele>1742</ele>
        <time>2013-06-15T10:02:12Z</time>
      </trkpt>
      <trkpt lat="42.75429" lon="-0.0816">
        <ele>1740</ele>
        <time>2013-06-15T10:02:18Z</time>
      </trkpt>
      <trkpt lat="42.7543" lon="-0.08161">
        <ele>1739</ele>
        <time>2013-06-15T10:02:19Z</time>
      </trkpt>
      <trkpt lat="42.75436" lon="-0.08166">
        <ele>1740</ele>
        <time>2013-06-15T10:02:27Z</time>
      </trkpt>
      <trkpt lat="42.75439" lon="-0.08169">
        <ele>1741</ele>
        <time>2013-06-15T10:02:34Z</time>
      </trkpt>
      <trkpt lat="42.75445" lon="-0.08164">
        <ele>1743</ele>
        <time>2013-06-15T10:02:41Z</time>
      </trkpt>
      <trkpt lat="42.75445" lon="-0.08158">
        <ele>1743</ele>
        <time>2013-06-15T10:02:47Z</time>
      </trkpt>
      <trkpt lat="42.75445" lon="-0.08158">
        <ele>1743</ele>
        <time>2013-06-15T10:02:54Z</time>
      </trkpt>
      <trkpt lat="42.75444" lon="-0.08159">
        <ele>1743</ele>
        <time>2013-06-15T10:03:07Z</time>
      </trkpt>
      <trkpt lat="42.75445" lon="-0.08151">
        <ele>1743</ele>
        <time>2013-06-15T10:03:14Z</time>
      </trkpt>
      <trkpt lat="42.75444" lon="-0.08149">
        <ele>1743</ele>
        <time>2013-06-15T10:03:17Z</time>
      </trkpt>
      <trkpt lat="42.75445" lon="-0.08143">
        <ele>1743</ele>
        <time>2013-06-15T10:03:21Z</time>
      </trkpt>
      <trkpt lat="42.75443" lon="-0.08134">
        <ele>1741</ele>
        <time>2013-06-15T10:03:29Z</time>
      </trkpt>
      <trkpt lat="42.75441" lon="-0.08127">
        <ele>1741</ele>
        <time>2013-06-15T10:03:36Z</time>
      </trkpt>
      <trkpt lat="42.75438" lon="-0.08123">
        <ele>1740</ele>
        <time>2013-06-15T10:03:42Z</time>
      </trkpt>
      <trkpt lat="42.75431" lon="-0.08114">
        <ele>1738</ele>
        <time>2013-06-15T10:03:52Z</time>
      </trkpt>
      <trkpt lat="42.75426" lon="-0.08104">
        <ele>1738</ele>
        <time>2013-06-15T10:04:00Z</time>
      </trkpt>
      <trkpt lat="42.75423" lon="-0.08093">
        <ele>1736</ele>
        <time>2013-06-15T10:04:08Z</time>
      </trkpt>
      <trkpt lat="42.75422" lon="-0.08089">
        <ele>1736</ele>
        <time>2013-06-15T10:04:11Z</time>
      </trkpt>
      <trkpt lat="42.75417" lon="-0.0808">
        <ele>1734</ele>
        <time>2013-06-15T10:04:19Z</time>
      </trkpt>
      <trkpt lat="42.7541" lon="-0.08072">
        <ele>1734</ele>
        <time>2013-06-15T10:04:29Z</time>
      </trkpt>
      <trkpt lat="42.75403" lon="-0.08067">
        <ele>1733</ele>
        <time>2013-06-15T10:04:37Z</time>
      </trkpt>
      <trkpt lat="42.75397" lon="-0.0806">
        <ele>1732</ele>
        <time>2013-06-15T10:04:45Z</time>
      </trkpt>
      <trkpt lat="42.7539" lon="-0.08052">
        <ele>1731</ele>
        <time>2013-06-15T10:04:53Z</time>
      </trkpt>
      <trkpt lat="42.75383" lon="-0.08046">
        <ele>1730</ele>
        <time>2013-06-15T10:05:02Z</time>
      </trkpt>
      <trkpt lat="42.75375" lon="-0.08037">
        <ele>1729</ele>
        <time>2013-06-15T10:05:11Z</time>
      </trkpt>
      <trkpt lat="42.75368" lon="-0.08022">
        <ele>1728</ele>
        <time>2013-06-15T10:05:22Z</time>
      </trkpt>
      <trkpt lat="42.75362" lon="-0.08009">
        <ele>1728</ele>
        <time>2013-06-15T10:05:32Z</time>
      </trkpt>
      <trkpt lat="42.75357" lon="-0.07998">
        <ele>1727</ele>
        <time>2013-06-15T10:05:40Z</time>
      </trkpt>
      <trkpt lat="42.75354" lon="-0.07986">
        <ele>1727</ele>
        <time>2013-06-15T10:05:48Z</time>
      </trkpt>
      <trkpt lat="42.75351" lon="-0.07974">
        <ele>1727</ele>
        <time>2013-06-15T10:05:55Z</time>
      </trkpt>
      <trkpt lat="42.75348" lon="-0.07965">
        <ele>1727</ele>
        <time>2013-06-15T10:06:02Z</time>
      </trkpt>
      <trkpt lat="42.75346" lon="-0.07952">
        <ele>1726</ele>
        <time>2013-06-15T10:06:11Z</time>
      </trkpt>
      <trkpt lat="42.75342" lon="-0.07943">
        <ele>1726</ele>
        <time>2013-06-15T10:06:19Z</time>
      </trkpt>
      <trkpt lat="42.75337" lon="-0.07934">
        <ele>1726</ele>
        <time>2013-06-15T10:06:26Z</time>
      </trkpt>
      <trkpt lat="42.75337" lon="-0.07931">
        <ele>1726</ele>
        <time>2013-06-15T10:06:28Z</time>
      </trkpt>
      <trkpt lat="42.75333" lon="-0.07917">
        <ele>1725</ele>
        <time>2013-06-15T10:06:37Z</time>
      </trkpt>
      <trkpt lat="42.75328" lon="-0.07907">
        <ele>1725</ele>
        <time>2013-06-15T10:06:45Z</time>
      </trkpt>
      <trkpt lat="42.75326" lon="-0.07902">
        <ele>1725</ele>
        <time>2013-06-15T10:06:48Z</time>
      </trkpt>
      <trkpt lat="42.75325" lon="-0.07887">
        <ele>1726</ele>
        <time>2013-06-15T10:06:56Z</time>
      </trkpt>
      <trkpt lat="42.75325" lon="-0.07877">
        <ele>1725</ele>
        <time>2013-06-15T10:07:02Z</time>
      </trkpt>
      <trkpt lat="42.75327" lon="-0.07865">
        <ele>1725</ele>
        <time>2013-06-15T10:07:10Z</time>
      </trkpt>
      <trkpt lat="42.75327" lon="-0.07857">
        <ele>1725</ele>
        <time>2013-06-15T10:07:15Z</time>
      </trkpt>
      <trkpt lat="42.75332" lon="-0.07843">
        <ele>1725</ele>
        <time>2013-06-15T10:07:23Z</time>
      </trkpt>
      <trkpt lat="42.75334" lon="-0.07832">
        <ele>1724</ele>
        <time>2013-06-15T10:07:28Z</time>
      </trkpt>
      <trkpt lat="42.75334" lon="-0.07831">
        <ele>1724</ele>
        <time>2013-06-15T10:07:29Z</time>
      </trkpt>
      <trkpt lat="42.75336" lon="-0.07824">
        <ele>1725</ele>
        <time>2013-06-15T10:07:35Z</time>
      </trkpt>
      <trkpt lat="42.75337" lon="-0.07821">
        <ele>1725</ele>
        <time>2013-06-15T10:07:37Z</time>
      </trkpt>
      <trkpt lat="42.75341" lon="-0.07809">
        <ele>1725</ele>
        <time>2013-06-15T10:07:46Z</time>
      </trkpt>
      <trkpt lat="42.75347" lon="-0.078">
        <ele>1725</ele>
        <time>2013-06-15T10:07:53Z</time>
      </trkpt>
      <trkpt lat="42.75351" lon="-0.07794">
        <ele>1725</ele>
        <time>2013-06-15T10:07:58Z</time>
      </trkpt>
      <trkpt lat="42.75358" lon="-0.07791">
        <ele>1725</ele>
        <time>2013-06-15T10:08:04Z</time>
      </trkpt>
      <trkpt lat="42.75364" lon="-0.07786">
        <ele>1724</ele>
        <time>2013-06-15T10:08:10Z</time>
      </trkpt>
      <trkpt lat="42.75366" lon="-0.07783">
        <ele>1724</ele>
        <time>2013-06-15T10:08:12Z</time>
      </trkpt>
      <trkpt lat="42.75369" lon="-0.07774">
        <ele>1724</ele>
        <time>2013-06-15T10:08:18Z</time>
      </trkpt>
      <trkpt lat="42.75369" lon="-0.07772">
        <ele>1724</ele>
        <time>2013-06-15T10:08:20Z</time>
      </trkpt>
      <trkpt lat="42.75374" lon="-0.07762">
        <ele>1725</ele>
        <time>2013-06-15T10:08:27Z</time>
      </trkpt>
      <trkpt lat="42.75376" lon="-0.07757">
        <ele>1725</ele>
        <time>2013-06-15T10:08:30Z</time>
      </trkpt>
      <trkpt lat="42.75381" lon="-0.07746">
        <ele>1724</ele>
        <time>2013-06-15T10:08:38Z</time>
      </trkpt>
      <trkpt lat="42.75381" lon="-0.07746">
        <ele>1724</ele>
        <time>2013-06-15T10:08:50Z</time>
      </trkpt>
      <trkpt lat="42.75385" lon="-0.07745">
        <ele>1724</ele>
        <time>2013-06-15T10:08:52Z</time>
      </trkpt>
      <trkpt lat="42.75388" lon="-0.07737">
        <ele>1724</ele>
        <time>2013-06-15T10:08:59Z</time>
      </trkpt>
      <trkpt lat="42.75389" lon="-0.07724">
        <ele>1724</ele>
        <time>2013-06-15T10:09:08Z</time>
      </trkpt>
      <trkpt lat="42.75388" lon="-0.07716">
        <ele>1723</ele>
        <time>2013-06-15T10:09:14Z</time>
      </trkpt>
      <trkpt lat="42.75388" lon="-0.07713">
        <ele>1723</ele>
        <time>2013-06-15T10:09:17Z</time>
      </trkpt>
      <trkpt lat="42.75387" lon="-0.07704">
        <ele>1723</ele>
        <time>2013-06-15T10:09:25Z</time>
      </trkpt>
      <trkpt lat="42.75384" lon="-0.07696">
        <ele>1723</ele>
        <time>2013-06-15T10:09:32Z</time>
      </trkpt>
      <trkpt lat="42.75382" lon="-0.07686">
        <ele>1723</ele>
        <time>2013-06-15T10:09:40Z</time>
      </trkpt>
      <trkpt lat="42.75381" lon="-0.07684">
        <ele>1722</ele>
        <time>2013-06-15T10:09:43Z</time>
      </trkpt>
      <trkpt lat="42.75377" lon="-0.07682">
        <ele>1723</ele>
        <time>2013-06-15T10:09:50Z</time>
      </trkpt>
      <trkpt lat="42.75374" lon="-0.07675">
        <ele>1723</ele>
        <time>2013-06-15T10:09:59Z</time>
      </trkpt>
      <trkpt lat="42.75373" lon="-0.07673">
        <ele>1722</ele>
        <time>2013-06-15T10:10:01Z</time>
      </trkpt>
      <trkpt lat="42.7537" lon="-0.07668">
        <ele>1723</ele>
        <time>2013-06-15T10:10:08Z</time>
      </trkpt>
      <trkpt lat="42.75366" lon="-0.07665">
        <ele>1721</ele>
        <time>2013-06-15T10:10:15Z</time>
      </trkpt>
      <trkpt lat="42.75361" lon="-0.07659">
        <ele>1721</ele>
        <time>2013-06-15T10:10:23Z</time>
      </trkpt>
      <trkpt lat="42.75357" lon="-0.07653">
        <ele>1721</ele>
        <time>2013-06-15T10:10:30Z</time>
      </trkpt>
      <trkpt lat="42.75352" lon="-0.0765">
        <ele>1721</ele>
        <time>2013-06-15T10:10:37Z</time>
      </trkpt>
      <trkpt lat="42.75347" lon="-0.07645">
        <ele>1720</ele>
        <time>2013-06-15T10:10:46Z</time>
      </trkpt>
      <trkpt lat="42.75345" lon="-0.07639">
        <ele>1721</ele>
        <time>2013-06-15T10:10:54Z</time>
      </trkpt>
      <trkpt lat="42.75341" lon="-0.07637">
        <ele>1723</ele>
        <time>2013-06-15T10:11:03Z</time>
      </trkpt>
      <trkpt lat="42.75335" lon="-0.07634">
        <ele>1721</ele>
        <time>2013-06-15T10:11:11Z</time>
      </trkpt>
      <trkpt lat="42.75328" lon="-0.07636">
        <ele>1720</ele>
        <time>2013-06-15T10:11:19Z</time>
      </trkpt>
      <trkpt lat="42.75326" lon="-0.0764">
        <ele>1720</ele>
        <time>2013-06-15T10:11:28Z</time>
      </trkpt>
      <trkpt lat="42.75325" lon="-0.07638">
        <ele>1720</ele>
        <time>2013-06-15T10:11:39Z</time>
      </trkpt>
      <trkpt lat="42.75319" lon="-0.07635">
        <ele>1719</ele>
        <time>2013-06-15T10:11:47Z</time>
      </trkpt>
      <trkpt lat="42.75318" lon="-0.07634">
        <ele>1719</ele>
        <time>2013-06-15T10:11:48Z</time>
      </trkpt>
      <trkpt lat="42.75311" lon="-0.07622">
        <ele>1718</ele>
        <time>2013-06-15T10:11:56Z</time>
      </trkpt>
      <trkpt lat="42.7531" lon="-0.07619">
        <ele>1718</ele>
        <time>2013-06-15T10:11:58Z</time>
      </trkpt>
      <trkpt lat="42.75305" lon="-0.07612">
        <ele>1718</ele>
        <time>2013-06-15T10:12:04Z</time>
      </trkpt>
      <trkpt lat="42.75298" lon="-0.07601">
        <ele>1718</ele>
        <time>2013-06-15T10:12:12Z</time>
      </trkpt>
      <trkpt lat="42.75292" lon="-0.07589">
        <ele>1717</ele>
        <time>2013-06-15T10:12:21Z</time>
      </trkpt>
      <trkpt lat="42.75285" lon="-0.07578">
        <ele>1716</ele>
        <time>2013-06-15T10:12:30Z</time>
      </trkpt>
      <trkpt lat="42.7528" lon="-0.07569">
        <ele>1716</ele>
        <time>2013-06-15T10:12:39Z</time>
      </trkpt>
      <trkpt lat="42.75271" lon="-0.07561">
        <ele>1715</ele>
        <time>2013-06-15T10:12:48Z</time>
      </trkpt>
      <trkpt lat="42.75262" lon="-0.07553">
        <ele>1715</ele>
        <time>2013-06-15T10:12:57Z</time>
      </trkpt>
      <trkpt lat="42.75254" lon="-0.07544">
        <ele>1714</ele>
        <time>2013-06-15T10:13:06Z</time>
      </trkpt>
      <trkpt lat="42.75243" lon="-0.07537">
        <ele>1714</ele>
        <time>2013-06-15T10:13:16Z</time>
      </trkpt>
      <trkpt lat="42.75243" lon="-0.07536">
        <ele>1714</ele>
        <time>2013-06-15T10:13:17Z</time>
      </trkpt>
      <trkpt lat="42.75239" lon="-0.07533">
        <ele>1714</ele>
        <time>2013-06-15T10:13:21Z</time>
      </trkpt>
      <trkpt lat="42.75231" lon="-0.07527">
        <ele>1713</ele>
        <time>2013-06-15T10:13:30Z</time>
      </trkpt>
      <trkpt lat="42.75222" lon="-0.07521">
        <ele>1713</ele>
        <time>2013-06-15T10:13:38Z</time>
      </trkpt>
      <trkpt lat="42.75212" lon="-0.07515">
        <ele>1712</ele>
        <time>2013-06-15T10:13:47Z</time>
      </trkpt>
      <trkpt lat="42.75201" lon="-0.07511">
        <ele>1712</ele>
        <time>2013-06-15T10:13:56Z</time>
      </trkpt>
      <trkpt lat="42.75192" lon="-0.07507">
        <ele>1711</ele>
        <time>2013-06-15T10:14:04Z</time>
      </trkpt>
      <trkpt lat="42.75183" lon="-0.075">
        <ele>1711</ele>
        <time>2013-06-15T10:14:13Z</time>
      </trkpt>
      <trkpt lat="42.75175" lon="-0.07492">
        <ele>1710</ele>
        <time>2013-06-15T10:14:22Z</time>
      </trkpt>
      <trkpt lat="42.75173" lon="-0.07477">
        <ele>1708</ele>
        <time>2013-06-15T10:14:31Z</time>
      </trkpt>
      <trkpt lat="42.75169" lon="-0.07466">
        <ele>1708</ele>
        <time>2013-06-15T10:14:39Z</time>
      </trkpt>
      <trkpt lat="42.75161" lon="-0.07456">
        <ele>1707</ele>
        <time>2013-06-15T10:14:47Z</time>
      </trkpt>
      <trkpt lat="42.75156" lon="-0.07446">
        <ele>1707</ele>
        <time>2013-06-15T10:14:55Z</time>
      </trkpt>
      <trkpt lat="42.75155" lon="-0.07445">
        <ele>1707</ele>
        <time>2013-06-15T10:14:56Z</time>
      </trkpt>
      <trkpt lat="42.75149" lon="-0.07432">
        <ele>1705</ele>
        <time>2013-06-15T10:15:06Z</time>
      </trkpt>
      <trkpt lat="42.75143" lon="-0.07419">
        <ele>1705</ele>
        <time>2013-06-15T10:15:15Z</time>
      </trkpt>
      <trkpt lat="42.75139" lon="-0.07413">
        <ele>1704</ele>
        <time>2013-06-15T10:15:21Z</time>
      </trkpt>
      <trkpt lat="42.75133" lon="-0.07399">
        <ele>1703</ele>
        <time>2013-06-15T10:15:31Z</time>
      </trkpt>
      <trkpt lat="42.75131" lon="-0.07392">
        <ele>1703</ele>
        <time>2013-06-15T10:15:36Z</time>
      </trkpt>
      <trkpt lat="42.75129" lon="-0.07378">
        <ele>1702</ele>
        <time>2013-06-15T10:15:44Z</time>
      </trkpt>
      <trkpt lat="42.75129" lon="-0.07375">
        <ele>1702</ele>
        <time>2013-06-15T10:15:46Z</time>
      </trkpt>
      <trkpt lat="42.75127" lon="-0.07365">
        <ele>1702</ele>
        <time>2013-06-15T10:15:52Z</time>
      </trkpt>
      <trkpt lat="42.75125" lon="-0.07356">
        <ele>1701</ele>
        <time>2013-06-15T10:15:59Z</time>
      </trkpt>
      <trkpt lat="42.75127" lon="-0.07356">
        <ele>1701</ele>
        <time>2013-06-15T10:16:06Z</time>
      </trkpt>
      <trkpt lat="42.75126" lon="-0.07357">
        <ele>1701</ele>
        <time>2013-06-15T10:16:10Z</time>
      </trkpt>
      <trkpt lat="42.75117" lon="-0.07347">
        <ele>1700</ele>
        <time>2013-06-15T10:16:19Z</time>
      </trkpt>
      <trkpt lat="42.75109" lon="-0.07341">
        <ele>1699</ele>
        <time>2013-06-15T10:16:27Z</time>
      </trkpt>
      <trkpt lat="42.75104" lon="-0.0734">
        <ele>1699</ele>
        <time>2013-06-15T10:16:32Z</time>
      </trkpt>
      <trkpt lat="42.75096" lon="-0.07341">
        <ele>1698</ele>
        <time>2013-06-15T10:16:40Z</time>
      </trkpt>
      <trkpt lat="42.75084" lon="-0.0734">
        <ele>1698</ele>
        <time>2013-06-15T10:16:49Z</time>
      </trkpt>
      <trkpt lat="42.75071" lon="-0.07338">
        <ele>1697</ele>
        <time>2013-06-15T10:16:59Z</time>
      </trkpt>
      <trkpt lat="42.7506" lon="-0.07334">
        <ele>1697</ele>
        <time>2013-06-15T10:17:08Z</time>
      </trkpt>
      <trkpt lat="42.75051" lon="-0.07328">
        <ele>1696</ele>
        <time>2013-06-15T10:17:16Z</time>
      </trkpt>
      <trkpt lat="42.75041" lon="-0.07321">
        <ele>1694</ele>
        <time>2013-06-15T10:17:26Z</time>
      </trkpt>
      <trkpt lat="42.75036" lon="-0.07316">
        <ele>1694</ele>
        <time>2013-06-15T10:17:33Z</time>
      </trkpt>
      <trkpt lat="42.75033" lon="-0.07315">
        <ele>1694</ele>
        <time>2013-06-15T10:17:36Z</time>
      </trkpt>
      <trkpt lat="42.75022" lon="-0.07309">
        <ele>1693</ele>
        <time>2013-06-15T10:17:46Z</time>
      </trkpt>
      <trkpt lat="42.75014" lon="-0.07308">
        <ele>1693</ele>
        <time>2013-06-15T10:17:51Z</time>
      </trkpt>
      <trkpt lat="42.74999" lon="-0.07307">
        <ele>1692</ele>
        <time>2013-06-15T10:18:01Z</time>
      </trkpt>
      <trkpt lat="42.74986" lon="-0.07306">
        <ele>1691</ele>
        <time>2013-06-15T10:18:10Z</time>
      </trkpt>
      <trkpt lat="42.7498" lon="-0.07304">
        <ele>1691</ele>
        <time>2013-06-15T10:18:15Z</time>
      </trkpt>
      <trkpt lat="42.74975" lon="-0.07289">
        <ele>1690</ele>
        <time>2013-06-15T10:18:25Z</time>
      </trkpt>
      <trkpt lat="42.74974" lon="-0.07281">
        <ele>1691</ele>
        <time>2013-06-15T10:18:30Z</time>
      </trkpt>
      <trkpt lat="42.74971" lon="-0.07272">
        <ele>1691</ele>
        <time>2013-06-15T10:18:39Z</time>
      </trkpt>
      <trkpt lat="42.74966" lon="-0.07259">
        <ele>1691</ele>
        <time>2013-06-15T10:18:48Z</time>
      </trkpt>
      <trkpt lat="42.74963" lon="-0.07245">
        <ele>1691</ele>
        <time>2013-06-15T10:18:58Z</time>
      </trkpt>
      <trkpt lat="42.74958" lon="-0.0723">
        <ele>1691</ele>
        <time>2013-06-15T10:19:08Z</time>
      </trkpt>
      <trkpt lat="42.74952" lon="-0.07216">
        <ele>1690</ele>
        <time>2013-06-15T10:19:17Z</time>
      </trkpt>
      <trkpt lat="42.7495" lon="-0.07207">
        <ele>1690</ele>
        <time>2013-06-15T10:19:26Z</time>
      </trkpt>
      <trkpt lat="42.74949" lon="-0.07204">
        <ele>1690</ele>
        <time>2013-06-15T10:19:29Z</time>
      </trkpt>
      <trkpt lat="42.74951" lon="-0.07195">
        <ele>1690</ele>
        <time>2013-06-15T10:19:36Z</time>
      </trkpt>
      <trkpt lat="42.74957" lon="-0.07192">
        <ele>1692</ele>
        <time>2013-06-15T10:19:44Z</time>
      </trkpt>
      <trkpt lat="42.74956" lon="-0.07187">
        <ele>1693</ele>
        <time>2013-06-15T10:19:48Z</time>
      </trkpt>
      <trkpt lat="42.74948" lon="-0.07179">
        <ele>1692</ele>
        <time>2013-06-15T10:19:57Z</time>
      </trkpt>
      <trkpt lat="42.74952" lon="-0.07179">
        <ele>1691</ele>
        <time>2013-06-15T10:20:03Z</time>
      </trkpt>
      <trkpt lat="42.74954" lon="-0.07174">
        <ele>1692</ele>
        <time>2013-06-15T10:20:11Z</time>
      </trkpt>
      <trkpt lat="42.7495" lon="-0.07171">
        <ele>1691</ele>
        <time>2013-06-15T10:20:15Z</time>
      </trkpt>
      <trkpt lat="42.74938" lon="-0.0716">
        <ele>1691</ele>
        <time>2013-06-15T10:20:25Z</time>
      </trkpt>
      <trkpt lat="42.74934" lon="-0.07153">
        <ele>1690</ele>
        <time>2013-06-15T10:20:31Z</time>
      </trkpt>
      <trkpt lat="42.74931" lon="-0.07146">
        <ele>1690</ele>
        <time>2013-06-15T10:20:37Z</time>
      </trkpt>
      <trkpt lat="42.74926" lon="-0.0714">
        <ele>1690</ele>
        <time>2013-06-15T10:20:42Z</time>
      </trkpt>
      <trkpt lat="42.74921" lon="-0.07126">
        <ele>1690</ele>
        <time>2013-06-15T10:20:52Z</time>
      </trkpt>
      <trkpt lat="42.74919" lon="-0.0712">
        <ele>1689</ele>
        <time>2013-06-15T10:20:57Z</time>
      </trkpt>
      <trkpt lat="42.74912" lon="-0.0711">
        <ele>1690</ele>
        <time>2013-06-15T10:21:06Z</time>
      </trkpt>
      <trkpt lat="42.74908" lon="-0.07099">
        <ele>1689</ele>
        <time>2013-06-15T10:21:14Z</time>
      </trkpt>
      <trkpt lat="42.74905" lon="-0.07084">
        <ele>1690</ele>
        <time>2013-06-15T10:21:22Z</time>
      </trkpt>
      <trkpt lat="42.74903" lon="-0.07081">
        <ele>1690</ele>
        <time>2013-06-15T10:21:26Z</time>
      </trkpt>
      <trkpt lat="42.74901" lon="-0.07073">
        <ele>1690</ele>
        <time>2013-06-15T10:21:31Z</time>
      </trkpt>
      <trkpt lat="42.74898" lon="-0.07063">
        <ele>1690</ele>
        <time>2013-06-15T10:21:38Z</time>
      </trkpt>
      <trkpt lat="42.74897" lon="-0.07062">
        <ele>1690</ele>
        <time>2013-06-15T10:21:39Z</time>
      </trkpt>
      <trkpt lat="42.74896" lon="-0.07048">
        <ele>1690</ele>
        <time>2013-06-15T10:21:47Z</time>
      </trkpt>
      <trkpt lat="42.74896" lon="-0.07043">
        <ele>1690</ele>
        <time>2013-06-15T10:21:50Z</time>
      </trkpt>
      <trkpt lat="42.74896" lon="-0.07033">
        <ele>1690</ele>
        <time>2013-06-15T10:21:56Z</time>
      </trkpt>
      <trkpt lat="42.74897" lon="-0.07029">
        <ele>1690</ele>
        <time>2013-06-15T10:21:59Z</time>
      </trkpt>
      <trkpt lat="42.74898" lon="-0.07017">
        <ele>1689</ele>
        <time>2013-06-15T10:22:06Z</time>
      </trkpt>
      <trkpt lat="42.74897" lon="-0.07016">
        <ele>1689</ele>
        <time>2013-06-15T10:22:07Z</time>
      </trkpt>
      <trkpt lat="42.74897" lon="-0.07011">
        <ele>1689</ele>
        <time>2013-06-15T10:22:11Z</time>
      </trkpt>
      <trkpt lat="42.74896" lon="-0.07007">
        <ele>1689</ele>
        <time>2013-06-15T10:22:13Z</time>
      </trkpt>
      <trkpt lat="42.74896" lon="-0.07006">
        <ele>1690</ele>
        <time>2013-06-15T10:22:14Z</time>
      </trkpt>
      <trkpt lat="42.74892" lon="-0.06999">
        <ele>1689</ele>
        <time>2013-06-15T10:22:18Z</time>
      </trkpt>
      <trkpt lat="42.74889" lon="-0.06993">
        <ele>1690</ele>
        <time>2013-06-15T10:22:23Z</time>
      </trkpt>
      <trkpt lat="42.74888" lon="-0.0699">
        <ele>1689</ele>
        <time>2013-06-15T10:22:25Z</time>
      </trkpt>
      <trkpt lat="42.74887" lon="-0.06988">
        <ele>1689</ele>
        <time>2013-06-15T10:22:27Z</time>
      </trkpt>
      <trkpt lat="42.74885" lon="-0.06983">
        <ele>1689</ele>
        <time>2013-06-15T10:22:30Z</time>
      </trkpt>
      <trkpt lat="42.7488" lon="-0.06972">
        <ele>1689</ele>
        <time>2013-06-15T10:22:37Z</time>
      </trkpt>
      <trkpt lat="42.74875" lon="-0.06961">
        <ele>1689</ele>
        <time>2013-06-15T10:22:45Z</time>
      </trkpt>
      <trkpt lat="42.74871" lon="-0.06955">
        <ele>1689</ele>
        <time>2013-06-15T10:22:50Z</time>
      </trkpt>
      <trkpt lat="42.74862" lon="-0.06944">
        <ele>1689</ele>
        <time>2013-06-15T10:23:00Z</time>
      </trkpt>
      <trkpt lat="42.74855" lon="-0.06934">
        <ele>1689</ele>
        <time>2013-06-15T10:23:08Z</time>
      </trkpt>
      <trkpt lat="42.74848" lon="-0.06927">
        <ele>1689</ele>
        <time>2013-06-15T10:23:16Z</time>
      </trkpt>
      <trkpt lat="42.74844" lon="-0.06924">
        <ele>1689</ele>
        <time>2013-06-15T10:23:20Z</time>
      </trkpt>
      <trkpt lat="42.74835" lon="-0.06921">
        <ele>1689</ele>
        <time>2013-06-15T10:23:25Z</time>
      </trkpt>
      <trkpt lat="42.74824" lon="-0.06917">
        <ele>1689</ele>
        <time>2013-06-15T10:23:34Z</time>
      </trkpt>
      <trkpt lat="42.74813" lon="-0.06913">
        <ele>1690</ele>
        <time>2013-06-15T10:23:43Z</time>
      </trkpt>
      <trkpt lat="42.74801" lon="-0.06906">
        <ele>1690</ele>
        <time>2013-06-15T10:23:52Z</time>
      </trkpt>
      <trkpt lat="42.74796" lon="-0.06899">
        <ele>1690</ele>
        <time>2013-06-15T10:23:58Z</time>
      </trkpt>
      <trkpt lat="42.7479" lon="-0.06888">
        <ele>1690</ele>
        <time>2013-06-15T10:24:08Z</time>
      </trkpt>
      <trkpt lat="42.74787" lon="-0.06883">
        <ele>1690</ele>
        <time>2013-06-15T10:24:12Z</time>
      </trkpt>
      <trkpt lat="42.74778" lon="-0.0687">
        <ele>1691</ele>
        <time>2013-06-15T10:24:23Z</time>
      </trkpt>
      <trkpt lat="42.74769" lon="-0.0686">
        <ele>1692</ele>
        <time>2013-06-15T10:24:32Z</time>
      </trkpt>
      <trkpt lat="42.74761" lon="-0.0685">
        <ele>1692</ele>
        <time>2013-06-15T10:24:41Z</time>
      </trkpt>
      <trkpt lat="42.74757" lon="-0.06841">
        <ele>1693</ele>
        <time>2013-06-15T10:24:49Z</time>
      </trkpt>
      <trkpt lat="42.74754" lon="-0.06831">
        <ele>1693</ele>
        <time>2013-06-15T10:24:55Z</time>
      </trkpt>
      <trkpt lat="42.74754" lon="-0.0683">
        <ele>1693</ele>
        <time>2013-06-15T10:24:56Z</time>
      </trkpt>
      <trkpt lat="42.74747" lon="-0.06815">
        <ele>1693</ele>
        <time>2013-06-15T10:25:07Z</time>
      </trkpt>
      <trkpt lat="42.74743" lon="-0.06805">
        <ele>1693</ele>
        <time>2013-06-15T10:25:13Z</time>
      </trkpt>
      <trkpt lat="42.74742" lon="-0.06789">
        <ele>1694</ele>
        <time>2013-06-15T10:25:22Z</time>
      </trkpt>
      <trkpt lat="42.74742" lon="-0.06783">
        <ele>1693</ele>
        <time>2013-06-15T10:25:25Z</time>
      </trkpt>
      <trkpt lat="42.74743" lon="-0.06774">
        <ele>1694</ele>
        <time>2013-06-15T10:25:31Z</time>
      </trkpt>
      <trkpt lat="42.74744" lon="-0.06765">
        <ele>1694</ele>
        <time>2013-06-15T10:25:37Z</time>
      </trkpt>
      <trkpt lat="42.74744" lon="-0.06748">
        <ele>1694</ele>
        <time>2013-06-15T10:25:46Z</time>
      </trkpt>
      <trkpt lat="42.74744" lon="-0.06735">
        <ele>1695</ele>
        <time>2013-06-15T10:25:53Z</time>
      </trkpt>
      <trkpt lat="42.74743" lon="-0.06725">
        <ele>1695</ele>
        <time>2013-06-15T10:26:00Z</time>
      </trkpt>
      <trkpt lat="42.74742" lon="-0.06714">
        <ele>1695</ele>
        <time>2013-06-15T10:26:06Z</time>
      </trkpt>
      <trkpt lat="42.74741" lon="-0.06705">
        <ele>1695</ele>
        <time>2013-06-15T10:26:12Z</time>
      </trkpt>
      <trkpt lat="42.74738" lon="-0.06688">
        <ele>1696</ele>
        <time>2013-06-15T10:26:23Z</time>
      </trkpt>
      <trkpt lat="42.74736" lon="-0.06677">
        <ele>1696</ele>
        <time>2013-06-15T10:26:30Z</time>
      </trkpt>
      <trkpt lat="42.74735" lon="-0.06662">
        <ele>1697</ele>
        <time>2013-06-15T10:26:39Z</time>
      </trkpt>
      <trkpt lat="42.74736" lon="-0.06648">
        <ele>1696</ele>
        <time>2013-06-15T10:26:47Z</time>
      </trkpt>
      <trkpt lat="42.74736" lon="-0.0664">
        <ele>1696</ele>
        <time>2013-06-15T10:26:51Z</time>
      </trkpt>
      <trkpt lat="42.74736" lon="-0.06636">
        <ele>1696</ele>
        <time>2013-06-15T10:26:54Z</time>
      </trkpt>
      <trkpt lat="42.74736" lon="-0.06629">
        <ele>1696</ele>
        <time>2013-06-15T10:26:58Z</time>
      </trkpt>
      <trkpt lat="42.74733" lon="-0.06619">
        <ele>1696</ele>
        <time>2013-06-15T10:27:04Z</time>
      </trkpt>
      <trkpt lat="42.7473" lon="-0.06606">
        <ele>1697</ele>
        <time>2013-06-15T10:27:12Z</time>
      </trkpt>
      <trkpt lat="42.74726" lon="-0.06597">
        <ele>1697</ele>
        <time>2013-06-15T10:27:18Z</time>
      </trkpt>
      <trkpt lat="42.74723" lon="-0.06585">
        <ele>1698</ele>
        <time>2013-06-15T10:27:26Z</time>
      </trkpt>
      <trkpt lat="42.74722" lon="-0.0658">
        <ele>1698</ele>
        <time>2013-06-15T10:27:29Z</time>
      </trkpt>
      <trkpt lat="42.74722" lon="-0.06574">
        <ele>1697</ele>
        <time>2013-06-15T10:27:32Z</time>
      </trkpt>
      <trkpt lat="42.74721" lon="-0.06566">
        <ele>1697</ele>
        <time>2013-06-15T10:27:37Z</time>
      </trkpt>
      <trkpt lat="42.74719" lon="-0.06554">
        <ele>1696</ele>
        <time>2013-06-15T10:27:44Z</time>
      </trkpt>
      <trkpt lat="42.74719" lon="-0.0655">
        <ele>1696</ele>
        <time>2013-06-15T10:27:46Z</time>
      </trkpt>
      <trkpt lat="42.74717" lon="-0.06547">
        <ele>1697</ele>
        <time>2013-06-15T10:27:48Z</time>
      </trkpt>
      <trkpt lat="42.74716" lon="-0.06531">
        <ele>1697</ele>
        <time>2013-06-15T10:27:57Z</time>
      </trkpt>
      <trkpt lat="42.74717" lon="-0.0652">
        <ele>1696</ele>
        <time>2013-06-15T10:28:03Z</time>
      </trkpt>
      <trkpt lat="42.74717" lon="-0.0651">
        <ele>1696</ele>
        <time>2013-06-15T10:28:08Z</time>
      </trkpt>
      <trkpt lat="42.74715" lon="-0.06505">
        <ele>1696</ele>
        <time>2013-06-15T10:28:11Z</time>
      </trkpt>
      <trkpt lat="42.74716" lon="-0.06501">
        <ele>1696</ele>
        <time>2013-06-15T10:28:13Z</time>
      </trkpt>
      <trkpt lat="42.74712" lon="-0.06484">
        <ele>1696</ele>
        <time>2013-06-15T10:28:24Z</time>
      </trkpt>
      <trkpt lat="42.74709" lon="-0.06466">
        <ele>1696</ele>
        <time>2013-06-15T10:28:34Z</time>
      </trkpt>
      <trkpt lat="42.74708" lon="-0.06451">
        <ele>1696</ele>
        <time>2013-06-15T10:28:44Z</time>
      </trkpt>
      <trkpt lat="42.7471" lon="-0.06436">
        <ele>1696</ele>
        <time>2013-06-15T10:28:53Z</time>
      </trkpt>
      <trkpt lat="42.74713" lon="-0.06422">
        <ele>1696</ele>
        <time>2013-06-15T10:29:03Z</time>
      </trkpt>
      <trkpt lat="42.74712" lon="-0.06408">
        <ele>1695</ele>
        <time>2013-06-15T10:29:11Z</time>
      </trkpt>
      <trkpt lat="42.74711" lon="-0.06392">
        <ele>1696</ele>
        <time>2013-06-15T10:29:20Z</time>
      </trkpt>
      <trkpt lat="42.74711" lon="-0.06387">
        <ele>1696</ele>
        <time>2013-06-15T10:29:23Z</time>
      </trkpt>
      <trkpt lat="42.74713" lon="-0.0637">
        <ele>1695</ele>
        <time>2013-06-15T10:29:34Z</time>
      </trkpt>
      <trkpt lat="42.74714" lon="-0.06356">
        <ele>1695</ele>
        <time>2013-06-15T10:29:43Z</time>
      </trkpt>
      <trkpt lat="42.74715" lon="-0.06344">
        <ele>1695</ele>
        <time>2013-06-15T10:29:50Z</time>
      </trkpt>
      <trkpt lat="42.74719" lon="-0.06329">
        <ele>1695</ele>
        <time>2013-06-15T10:30:00Z</time>
      </trkpt>
      <trkpt lat="42.74723" lon="-0.06318">
        <ele>1695</ele>
        <time>2013-06-15T10:30:07Z</time>
      </trkpt>
      <trkpt lat="42.74725" lon="-0.06304">
        <ele>1694</ele>
        <time>2013-06-15T10:30:15Z</time>
      </trkpt>
      <trkpt lat="42.74727" lon="-0.06292">
        <ele>1694</ele>
        <time>2013-06-15T10:30:23Z</time>
      </trkpt>
      <trkpt lat="42.7473" lon="-0.06282">
        <ele>1694</ele>
        <time>2013-06-15T10:30:30Z</time>
      </trkpt>
      <trkpt lat="42.74731" lon="-0.0627">
        <ele>1694</ele>
        <time>2013-06-15T10:30:37Z</time>
      </trkpt>
      <trkpt lat="42.7473" lon="-0.06268">
        <ele>1694</ele>
        <time>2013-06-15T10:30:39Z</time>
      </trkpt>
      <trkpt lat="42.7473" lon="-0.06254">
        <ele>1694</ele>
        <time>2013-06-15T10:30:48Z</time>
      </trkpt>
      <trkpt lat="42.7473" lon="-0.06239">
        <ele>1693</ele>
        <time>2013-06-15T10:30:57Z</time>
      </trkpt>
      <trkpt lat="42.74732" lon="-0.06226">
        <ele>1693</ele>
        <time>2013-06-15T10:31:05Z</time>
      </trkpt>
      <trkpt lat="42.74731" lon="-0.06211">
        <ele>1692</ele>
        <time>2013-06-15T10:31:14Z</time>
      </trkpt>
      <trkpt lat="42.7473" lon="-0.06208">
        <ele>1693</ele>
        <time>2013-06-15T10:31:16Z</time>
      </trkpt>
      <trkpt lat="42.74725" lon="-0.06199">
        <ele>1693</ele>
        <time>2013-06-15T10:31:23Z</time>
      </trkpt>
      <trkpt lat="42.74718" lon="-0.06187">
        <ele>1692</ele>
        <time>2013-06-15T10:31:32Z</time>
      </trkpt>
      <trkpt lat="42.74713" lon="-0.06175">
        <ele>1692</ele>
        <time>2013-06-15T10:31:40Z</time>
      </trkpt>
      <trkpt lat="42.7471" lon="-0.0616">
        <ele>1692</ele>
        <time>2013-06-15T10:31:49Z</time>
      </trkpt>
      <trkpt lat="42.74709" lon="-0.06158">
        <ele>1691</ele>
        <time>2013-06-15T10:31:50Z</time>
      </trkpt>
      <trkpt lat="42.74708" lon="-0.06146">
        <ele>1691</ele>
        <time>2013-06-15T10:31:57Z</time>
      </trkpt>
      <trkpt lat="42.7471" lon="-0.06131">
        <ele>1691</ele>
        <time>2013-06-15T10:32:07Z</time>
      </trkpt>
      <trkpt lat="42.74711" lon="-0.06119">
        <ele>1691</ele>
        <time>2013-06-15T10:32:14Z</time>
      </trkpt>
      <trkpt lat="42.74713" lon="-0.0611">
        <ele>1690</ele>
        <time>2013-06-15T10:32:20Z</time>
      </trkpt>
      <trkpt lat="42.74713" lon="-0.06106">
        <ele>1690</ele>
        <time>2013-06-15T10:32:22Z</time>
      </trkpt>
      <trkpt lat="42.74715" lon="-0.06096">
        <ele>1690</ele>
        <time>2013-06-15T10:32:27Z</time>
      </trkpt>
      <trkpt lat="42.74719" lon="-0.06087">
        <ele>1689</ele>
        <time>2013-06-15T10:32:34Z</time>
      </trkpt>
      <trkpt lat="42.74719" lon="-0.06087">
        <ele>1689</ele>
        <time>2013-06-15T10:32:35Z</time>
      </trkpt>
      <trkpt lat="42.7472" lon="-0.06085">
        <ele>1689</ele>
        <time>2013-06-15T10:32:37Z</time>
      </trkpt>
      <trkpt lat="42.74726" lon="-0.06081">
        <ele>1688</ele>
        <time>2013-06-15T10:32:42Z</time>
      </trkpt>
      <trkpt lat="42.74731" lon="-0.06074">
        <ele>1688</ele>
        <time>2013-06-15T10:32:48Z</time>
      </trkpt>
      <trkpt lat="42.74735" lon="-0.0607">
        <ele>1688</ele>
        <time>2013-06-15T10:32:51Z</time>
      </trkpt>
      <trkpt lat="42.7474" lon="-0.06056">
        <ele>1688</ele>
        <time>2013-06-15T10:33:00Z</time>
      </trkpt>
      <trkpt lat="42.74742" lon="-0.06053">
        <ele>1687</ele>
        <time>2013-06-15T10:33:02Z</time>
      </trkpt>
      <trkpt lat="42.74748" lon="-0.06044">
        <ele>1687</ele>
        <time>2013-06-15T10:33:09Z</time>
      </trkpt>
      <trkpt lat="42.74751" lon="-0.06038">
        <ele>1686</ele>
        <time>2013-06-15T10:33:14Z</time>
      </trkpt>
      <trkpt lat="42.74756" lon="-0.06031">
        <ele>1686</ele>
        <time>2013-06-15T10:33:20Z</time>
      </trkpt>
      <trkpt lat="42.74763" lon="-0.06025">
        <ele>1686</ele>
        <time>2013-06-15T10:33:27Z</time>
      </trkpt>
      <trkpt lat="42.74764" lon="-0.06023">
        <ele>1686</ele>
        <time>2013-06-15T10:33:29Z</time>
      </trkpt>
      <trkpt lat="42.74771" lon="-0.06015">
        <ele>1685</ele>
        <time>2013-06-15T10:33:38Z</time>
      </trkpt>
      <trkpt lat="42.74774" lon="-0.06007">
        <ele>1684</ele>
        <time>2013-06-15T10:33:43Z</time>
      </trkpt>
      <trkpt lat="42.74775" lon="-0.06001">
        <ele>1684</ele>
        <time>2013-06-15T10:33:46Z</time>
      </trkpt>
      <trkpt lat="42.74776" lon="-0.05996">
        <ele>1684</ele>
        <time>2013-06-15T10:33:49Z</time>
      </trkpt>
      <trkpt lat="42.74776" lon="-0.05987">
        <ele>1683</ele>
        <time>2013-06-15T10:33:55Z</time>
      </trkpt>
      <trkpt lat="42.74776" lon="-0.05983">
        <ele>1683</ele>
        <time>2013-06-15T10:33:57Z</time>
      </trkpt>
      <trkpt lat="42.74775" lon="-0.05973">
        <ele>1683</ele>
        <time>2013-06-15T10:34:03Z</time>
      </trkpt>
      <trkpt lat="42.74774" lon="-0.05969">
        <ele>1682</ele>
        <time>2013-06-15T10:34:06Z</time>
      </trkpt>
      <trkpt lat="42.74775" lon="-0.05963">
        <ele>1682</ele>
        <time>2013-06-15T10:34:10Z</time>
      </trkpt>
      <trkpt lat="42.74776" lon="-0.05951">
        <ele>1682</ele>
        <time>2013-06-15T10:34:17Z</time>
      </trkpt>
      <trkpt lat="42.74781" lon="-0.05939">
        <ele>1681</ele>
        <time>2013-06-15T10:34:24Z</time>
      </trkpt>
      <trkpt lat="42.74786" lon="-0.05926">
        <ele>1681</ele>
        <time>2013-06-15T10:34:33Z</time>
      </trkpt>
      <trkpt lat="42.74787" lon="-0.05924">
        <ele>1681</ele>
        <time>2013-06-15T10:34:34Z</time>
      </trkpt>
      <trkpt lat="42.74789" lon="-0.0591">
        <ele>1681</ele>
        <time>2013-06-15T10:34:42Z</time>
      </trkpt>
      <trkpt lat="42.74788" lon="-0.05902">
        <ele>1680</ele>
        <time>2013-06-15T10:34:47Z</time>
      </trkpt>
      <trkpt lat="42.74787" lon="-0.05888">
        <ele>1680</ele>
        <time>2013-06-15T10:34:56Z</time>
      </trkpt>
      <trkpt lat="42.74787" lon="-0.05875">
        <ele>1678</ele>
        <time>2013-06-15T10:35:05Z</time>
      </trkpt>
      <trkpt lat="42.74783" lon="-0.0586">
        <ele>1678</ele>
        <time>2013-06-15T10:35:14Z</time>
      </trkpt>
      <trkpt lat="42.74782" lon="-0.05847">
        <ele>1677</ele>
        <time>2013-06-15T10:35:22Z</time>
      </trkpt>
      <trkpt lat="42.74782" lon="-0.05843">
        <ele>1677</ele>
        <time>2013-06-15T10:35:25Z</time>
      </trkpt>
      <trkpt lat="42.74781" lon="-0.05831">
        <ele>1676</ele>
        <time>2013-06-15T10:35:32Z</time>
      </trkpt>
      <trkpt lat="42.7478" lon="-0.05822">
        <ele>1676</ele>
        <time>2013-06-15T10:35:37Z</time>
      </trkpt>
      <trkpt lat="42.74781" lon="-0.05807">
        <ele>1675</ele>
        <time>2013-06-15T10:35:46Z</time>
      </trkpt>
      <trkpt lat="42.74783" lon="-0.05794">
        <ele>1674</ele>
        <time>2013-06-15T10:35:54Z</time>
      </trkpt>
      <trkpt lat="42.74784" lon="-0.05788">
        <ele>1674</ele>
        <time>2013-06-15T10:35:59Z</time>
      </trkpt>
      <trkpt lat="42.74785" lon="-0.0578">
        <ele>1673</ele>
        <time>2013-06-15T10:36:04Z</time>
      </trkpt>
      <trkpt lat="42.74787" lon="-0.05765">
        <ele>1673</ele>
        <time>2013-06-15T10:36:13Z</time>
      </trkpt>
      <trkpt lat="42.74785" lon="-0.05753">
        <ele>1673</ele>
        <time>2013-06-15T10:36:20Z</time>
      </trkpt>
      <trkpt lat="42.74782" lon="-0.05741">
        <ele>1673</ele>
        <time>2013-06-15T10:36:29Z</time>
      </trkpt>
      <trkpt lat="42.74779" lon="-0.05724">
        <ele>1672</ele>
        <time>2013-06-15T10:36:39Z</time>
      </trkpt>
      <trkpt lat="42.74779" lon="-0.05717">
        <ele>1670</ele>
        <time>2013-06-15T10:36:43Z</time>
      </trkpt>
      <trkpt lat="42.74779" lon="-0.05709">
        <ele>1671</ele>
        <time>2013-06-15T10:36:48Z</time>
      </trkpt>
      <trkpt lat="42.7478" lon="-0.05702">
        <ele>1670</ele>
        <time>2013-06-15T10:36:54Z</time>
      </trkpt>
      <trkpt lat="42.74783" lon="-0.0569">
        <ele>1670</ele>
        <time>2013-06-15T10:37:01Z</time>
      </trkpt>
      <trkpt lat="42.74785" lon="-0.05682">
        <ele>1670</ele>
        <time>2013-06-15T10:37:07Z</time>
      </trkpt>
      <trkpt lat="42.74786" lon="-0.05669">
        <ele>1670</ele>
        <time>2013-06-15T10:37:15Z</time>
      </trkpt>
      <trkpt lat="42.74789" lon="-0.05657">
        <ele>1669</ele>
        <time>2013-06-15T10:37:23Z</time>
      </trkpt>
      <trkpt lat="42.74789" lon="-0.05643">
        <ele>1668</ele>
        <time>2013-06-15T10:37:31Z</time>
      </trkpt>
      <trkpt lat="42.74792" lon="-0.05633">
        <ele>1668</ele>
        <time>2013-06-15T10:37:40Z</time>
      </trkpt>
      <trkpt lat="42.74794" lon="-0.05626">
        <ele>1670</ele>
        <time>2013-06-15T10:37:49Z</time>
      </trkpt>
      <trkpt lat="42.74794" lon="-0.05614">
        <ele>1671</ele>
        <time>2013-06-15T10:37:58Z</time>
      </trkpt>
      <trkpt lat="42.74794" lon="-0.05613">
        <ele>1668</ele>
        <time>2013-06-15T10:38:02Z</time>
      </trkpt>
      <trkpt lat="42.74793" lon="-0.05608">
        <ele>1668</ele>
        <time>2013-06-15T10:38:06Z</time>
      </trkpt>
      <trkpt lat="42.74791" lon="-0.05604">
        <ele>1667</ele>
        <time>2013-06-15T10:38:13Z</time>
      </trkpt>
      <trkpt lat="42.74793" lon="-0.056">
        <ele>1666</ele>
        <time>2013-06-15T10:38:28Z</time>
      </trkpt>
      <trkpt lat="42.74793" lon="-0.05595">
        <ele>1667</ele>
        <time>2013-06-15T10:38:31Z</time>
      </trkpt>
      <trkpt lat="42.74793" lon="-0.05593">
        <ele>1667</ele>
        <time>2013-06-15T10:38:33Z</time>
      </trkpt>
      <trkpt lat="42.74793" lon="-0.05585">
        <ele>1665</ele>
        <time>2013-06-15T10:38:38Z</time>
      </trkpt>
      <trkpt lat="42.74793" lon="-0.05582">
        <ele>1665</ele>
        <time>2013-06-15T10:38:40Z</time>
      </trkpt>
      <trkpt lat="42.74788" lon="-0.05572">
        <ele>1665</ele>
        <time>2013-06-15T10:38:47Z</time>
      </trkpt>
      <trkpt lat="42.74782" lon="-0.05557">
        <ele>1664</ele>
        <time>2013-06-15T10:38:57Z</time>
      </trkpt>
      <trkpt lat="42.74778" lon="-0.05546">
        <ele>1665</ele>
        <time>2013-06-15T10:39:04Z</time>
      </trkpt>
      <trkpt lat="42.74775" lon="-0.05536">
        <ele>1665</ele>
        <time>2013-06-15T10:39:11Z</time>
      </trkpt>
      <trkpt lat="42.7477" lon="-0.05524">
        <ele>1663</ele>
        <time>2013-06-15T10:39:19Z</time>
      </trkpt>
      <trkpt lat="42.74767" lon="-0.05514">
        <ele>1663</ele>
        <time>2013-06-15T10:39:26Z</time>
      </trkpt>
      <trkpt lat="42.74761" lon="-0.05504">
        <ele>1662</ele>
        <time>2013-06-15T10:39:34Z</time>
      </trkpt>
      <trkpt lat="42.74759" lon="-0.05502">
        <ele>1662</ele>
        <time>2013-06-15T10:39:37Z</time>
      </trkpt>
      <trkpt lat="42.74753" lon="-0.05495">
        <ele>1662</ele>
        <time>2013-06-15T10:39:43Z</time>
      </trkpt>
      <trkpt lat="42.74745" lon="-0.05489">
        <ele>1661</ele>
        <time>2013-06-15T10:39:52Z</time>
      </trkpt>
      <trkpt lat="42.74737" lon="-0.05486">
        <ele>1661</ele>
        <time>2013-06-15T10:39:59Z</time>
      </trkpt>
      <trkpt lat="42.74726" lon="-0.05487">
        <ele>1660</ele>
        <time>2013-06-15T10:40:07Z</time>
      </trkpt>
      <trkpt lat="42.74714" lon="-0.05487">
        <ele>1659</ele>
        <time>2013-06-15T10:40:16Z</time>
      </trkpt>
      <trkpt lat="42.74703" lon="-0.05485">
        <ele>1659</ele>
        <time>2013-06-15T10:40:25Z</time>
      </trkpt>
      <trkpt lat="42.74691" lon="-0.0548">
        <ele>1658</ele>
        <time>2013-06-15T10:40:35Z</time>
      </trkpt>
      <trkpt lat="42.74683" lon="-0.0547">
        <ele>1658</ele>
        <time>2013-06-15T10:40:43Z</time>
      </trkpt>
      <trkpt lat="42.74679" lon="-0.05459">
        <ele>1657</ele>
        <time>2013-06-15T10:40:50Z</time>
      </trkpt>
      <trkpt lat="42.74675" lon="-0.05448">
        <ele>1656</ele>
        <time>2013-06-15T10:40:58Z</time>
      </trkpt>
      <trkpt lat="42.74671" lon="-0.05438">
        <ele>1656</ele>
        <time>2013-06-15T10:41:05Z</time>
      </trkpt>
      <trkpt lat="42.74666" lon="-0.05426">
        <ele>1655</ele>
        <time>2013-06-15T10:41:14Z</time>
      </trkpt>
      <trkpt lat="42.74666" lon="-0.05412">
        <ele>1655</ele>
        <time>2013-06-15T10:41:21Z</time>
      </trkpt>
      <trkpt lat="42.74666" lon="-0.05409">
        <ele>1655</ele>
        <time>2013-06-15T10:41:23Z</time>
      </trkpt>
      <trkpt lat="42.74665" lon="-0.05405">
        <ele>1654</ele>
        <time>2013-06-15T10:41:25Z</time>
      </trkpt>
      <trkpt lat="42.74664" lon="-0.05396">
        <ele>1653</ele>
        <time>2013-06-15T10:41:31Z</time>
      </trkpt>
      <trkpt lat="42.7466" lon="-0.05383">
        <ele>1653</ele>
        <time>2013-06-15T10:41:39Z</time>
      </trkpt>
      <trkpt lat="42.74655" lon="-0.0537">
        <ele>1653</ele>
        <time>2013-06-15T10:41:48Z</time>
      </trkpt>
      <trkpt lat="42.74651" lon="-0.05363">
        <ele>1653</ele>
        <time>2013-06-15T10:41:53Z</time>
      </trkpt>
      <trkpt lat="42.74647" lon="-0.05351">
        <ele>1652</ele>
        <time>2013-06-15T10:42:01Z</time>
      </trkpt>
      <trkpt lat="42.74645" lon="-0.05335">
        <ele>1652</ele>
        <time>2013-06-15T10:42:10Z</time>
      </trkpt>
      <trkpt lat="42.74643" lon="-0.0533">
        <ele>1652</ele>
        <time>2013-06-15T10:42:13Z</time>
      </trkpt>
      <trkpt lat="42.74642" lon="-0.05317">
        <ele>1652</ele>
        <time>2013-06-15T10:42:21Z</time>
      </trkpt>
      <trkpt lat="42.74641" lon="-0.05312">
        <ele>1651</ele>
        <time>2013-06-15T10:42:24Z</time>
      </trkpt>
      <trkpt lat="42.74639" lon="-0.05307">
        <ele>1651</ele>
        <time>2013-06-15T10:42:27Z</time>
      </trkpt>
      <trkpt lat="42.74634" lon="-0.05297">
        <ele>1651</ele>
        <time>2013-06-15T10:42:35Z</time>
      </trkpt>
      <trkpt lat="42.74629" lon="-0.05285">
        <ele>1652</ele>
        <time>2013-06-15T10:42:45Z</time>
      </trkpt>
      <trkpt lat="42.74622" lon="-0.05275">
        <ele>1652</ele>
        <time>2013-06-15T10:42:53Z</time>
      </trkpt>
      <trkpt lat="42.74614" lon="-0.05264">
        <ele>1650</ele>
        <time>2013-06-15T10:43:02Z</time>
      </trkpt>
      <trkpt lat="42.7461" lon="-0.05251">
        <ele>1651</ele>
        <time>2013-06-15T10:43:10Z</time>
      </trkpt>
      <trkpt lat="42.74608" lon="-0.05242">
        <ele>1650</ele>
        <time>2013-06-15T10:43:16Z</time>
      </trkpt>
      <trkpt lat="42.74606" lon="-0.05228">
        <ele>1649</ele>
        <time>2013-06-15T10:43:24Z</time>
      </trkpt>
      <trkpt lat="42.74607" lon="-0.05214">
        <ele>1649</ele>
        <time>2013-06-15T10:43:32Z</time>
      </trkpt>
      <trkpt lat="42.74607" lon="-0.05209">
        <ele>1648</ele>
        <time>2013-06-15T10:43:35Z</time>
      </trkpt>
      <trkpt lat="42.74609" lon="-0.05197">
        <ele>1647</ele>
        <time>2013-06-15T10:43:43Z</time>
      </trkpt>
      <trkpt lat="42.74609" lon="-0.05192">
        <ele>1647</ele>
        <time>2013-06-15T10:43:47Z</time>
      </trkpt>
      <trkpt lat="42.7461" lon="-0.05186">
        <ele>1647</ele>
        <time>2013-06-15T10:43:51Z</time>
      </trkpt>
      <trkpt lat="42.74612" lon="-0.05174">
        <ele>1646</ele>
        <time>2013-06-15T10:43:59Z</time>
      </trkpt>
      <trkpt lat="42.74616" lon="-0.05162">
        <ele>1645</ele>
        <time>2013-06-15T10:44:07Z</time>
      </trkpt>
      <trkpt lat="42.74617" lon="-0.05155">
        <ele>1645</ele>
        <time>2013-06-15T10:44:11Z</time>
      </trkpt>
      <trkpt lat="42.74622" lon="-0.05144">
        <ele>1644</ele>
        <time>2013-06-15T10:44:18Z</time>
      </trkpt>
      <trkpt lat="42.74624" lon="-0.05134">
        <ele>1644</ele>
        <time>2013-06-15T10:44:24Z</time>
      </trkpt>
      <trkpt lat="42.74626" lon="-0.05131">
        <ele>1643</ele>
        <time>2013-06-15T10:44:26Z</time>
      </trkpt>
      <trkpt lat="42.74629" lon="-0.05119">
        <ele>1643</ele>
        <time>2013-06-15T10:44:33Z</time>
      </trkpt>
      <trkpt lat="42.74631" lon="-0.05116">
        <ele>1642</ele>
        <time>2013-06-15T10:44:35Z</time>
      </trkpt>
      <trkpt lat="42.74634" lon="-0.05112">
        <ele>1642</ele>
        <time>2013-06-15T10:44:38Z</time>
      </trkpt>
      <trkpt lat="42.74637" lon="-0.05106">
        <ele>1641</ele>
        <time>2013-06-15T10:44:42Z</time>
      </trkpt>
      <trkpt lat="42.74642" lon="-0.05099">
        <ele>1641</ele>
        <time>2013-06-15T10:44:48Z</time>
      </trkpt>
      <trkpt lat="42.74642" lon="-0.05093">
        <ele>1641</ele>
        <time>2013-06-15T10:44:51Z</time>
      </trkpt>
      <trkpt lat="42.74645" lon="-0.05075">
        <ele>1640</ele>
        <time>2013-06-15T10:45:02Z</time>
      </trkpt>
      <trkpt lat="42.74644" lon="-0.05063">
        <ele>1638</ele>
        <time>2013-06-15T10:45:09Z</time>
      </trkpt>
      <trkpt lat="42.74644" lon="-0.05047">
        <ele>1638</ele>
        <time>2013-06-15T10:45:18Z</time>
      </trkpt>
      <trkpt lat="42.74645" lon="-0.05033">
        <ele>1637</ele>
        <time>2013-06-15T10:45:26Z</time>
      </trkpt>
      <trkpt lat="42.74644" lon="-0.05018">
        <ele>1637</ele>
        <time>2013-06-15T10:45:34Z</time>
      </trkpt>
      <trkpt lat="42.74645" lon="-0.05009">
        <ele>1636</ele>
        <time>2013-06-15T10:45:40Z</time>
      </trkpt>
      <trkpt lat="42.74648" lon="-0.05">
        <ele>1635</ele>
        <time>2013-06-15T10:45:46Z</time>
      </trkpt>
      <trkpt lat="42.7465" lon="-0.04993">
        <ele>1634</ele>
        <time>2013-06-15T10:45:50Z</time>
      </trkpt>
      <trkpt lat="42.74651" lon="-0.04979">
        <ele>1634</ele>
        <time>2013-06-15T10:45:58Z</time>
      </trkpt>
      <trkpt lat="42.74653" lon="-0.04967">
        <ele>1633</ele>
        <time>2013-06-15T10:46:05Z</time>
      </trkpt>
      <trkpt lat="42.74659" lon="-0.04955">
        <ele>1632</ele>
        <time>2013-06-15T10:46:13Z</time>
      </trkpt>
      <trkpt lat="42.74662" lon="-0.04949">
        <ele>1631</ele>
        <time>2013-06-15T10:46:17Z</time>
      </trkpt>
      <trkpt lat="42.74666" lon="-0.0494">
        <ele>1631</ele>
        <time>2013-06-15T10:46:23Z</time>
      </trkpt>
      <trkpt lat="42.74668" lon="-0.04925">
        <ele>1631</ele>
        <time>2013-06-15T10:46:31Z</time>
      </trkpt>
      <trkpt lat="42.74668" lon="-0.04914">
        <ele>1630</ele>
        <time>2013-06-15T10:46:38Z</time>
      </trkpt>
      <trkpt lat="42.74668" lon="-0.04912">
        <ele>1630</ele>
        <time>2013-06-15T10:46:40Z</time>
      </trkpt>
      <trkpt lat="42.74668" lon="-0.04908">
        <ele>1631</ele>
        <time>2013-06-15T10:46:42Z</time>
      </trkpt>
      <trkpt lat="42.74671" lon="-0.04894">
        <ele>1629</ele>
        <time>2013-06-15T10:46:51Z</time>
      </trkpt>
      <trkpt lat="42.74674" lon="-0.04885">
        <ele>1629</ele>
        <time>2013-06-15T10:46:57Z</time>
      </trkpt>
      <trkpt lat="42.74681" lon="-0.04871">
        <ele>1629</ele>
        <time>2013-06-15T10:47:07Z</time>
      </trkpt>
      <trkpt lat="42.74683" lon="-0.04866">
        <ele>1629</ele>
        <time>2013-06-15T10:47:10Z</time>
      </trkpt>
      <trkpt lat="42.74687" lon="-0.04859">
        <ele>1628</ele>
        <time>2013-06-15T10:47:15Z</time>
      </trkpt>
      <trkpt lat="42.74692" lon="-0.04848">
        <ele>1627</ele>
        <time>2013-06-15T10:47:23Z</time>
      </trkpt>
      <trkpt lat="42.74694" lon="-0.04845">
        <ele>1628</ele>
        <time>2013-06-15T10:47:25Z</time>
      </trkpt>
      <trkpt lat="42.74703" lon="-0.04836">
        <ele>1626</ele>
        <time>2013-06-15T10:47:35Z</time>
      </trkpt>
      <trkpt lat="42.74712" lon="-0.04829">
        <ele>1626</ele>
        <time>2013-06-15T10:47:43Z</time>
      </trkpt>
      <trkpt lat="42.74717" lon="-0.04826">
        <ele>1625</ele>
        <time>2013-06-15T10:47:47Z</time>
      </trkpt>
      <trkpt lat="42.7472" lon="-0.04825">
        <ele>1625</ele>
        <time>2013-06-15T10:47:49Z</time>
      </trkpt>
      <trkpt lat="42.74728" lon="-0.04822">
        <ele>1625</ele>
        <time>2013-06-15T10:47:54Z</time>
      </trkpt>
      <trkpt lat="42.74732" lon="-0.04812">
        <ele>1624</ele>
        <time>2013-06-15T10:48:02Z</time>
      </trkpt>
      <trkpt lat="42.74734" lon="-0.04808">
        <ele>1624</ele>
        <time>2013-06-15T10:48:06Z</time>
      </trkpt>
      <trkpt lat="42.74738" lon="-0.04803">
        <ele>1623</ele>
        <time>2013-06-15T10:48:11Z</time>
      </trkpt>
      <trkpt lat="42.74744" lon="-0.04796">
        <ele>1623</ele>
        <time>2013-06-15T10:48:18Z</time>
      </trkpt>
      <trkpt lat="42.74748" lon="-0.04791">
        <ele>1623</ele>
        <time>2013-06-15T10:48:23Z</time>
      </trkpt>
      <trkpt lat="42.74754" lon="-0.04779">
        <ele>1622</ele>
        <time>2013-06-15T10:48:31Z</time>
      </trkpt>
      <trkpt lat="42.74758" lon="-0.04764">
        <ele>1620</ele>
        <time>2013-06-15T10:48:40Z</time>
      </trkpt>
      <trkpt lat="42.74761" lon="-0.04755">
        <ele>1620</ele>
        <time>2013-06-15T10:48:45Z</time>
      </trkpt>
      <trkpt lat="42.74764" lon="-0.04741">
        <ele>1619</ele>
        <time>2013-06-15T10:48:55Z</time>
      </trkpt>
      <trkpt lat="42.74765" lon="-0.04738">
        <ele>1618</ele>
        <time>2013-06-15T10:48:57Z</time>
      </trkpt>
      <trkpt lat="42.74766" lon="-0.04733">
        <ele>1619</ele>
        <time>2013-06-15T10:49:00Z</time>
      </trkpt>
      <trkpt lat="42.74769" lon="-0.04722">
        <ele>1618</ele>
        <time>2013-06-15T10:49:08Z</time>
      </trkpt>
      <trkpt lat="42.74771" lon="-0.04711">
        <ele>1618</ele>
        <time>2013-06-15T10:49:15Z</time>
      </trkpt>
      <trkpt lat="42.74773" lon="-0.04703">
        <ele>1617</ele>
        <time>2013-06-15T10:49:21Z</time>
      </trkpt>
      <trkpt lat="42.74778" lon="-0.0469">
        <ele>1615</ele>
        <time>2013-06-15T10:49:31Z</time>
      </trkpt>
      <trkpt lat="42.7478" lon="-0.04681">
        <ele>1614</ele>
        <time>2013-06-15T10:49:37Z</time>
      </trkpt>
      <trkpt lat="42.74786" lon="-0.04669">
        <ele>1612</ele>
        <time>2013-06-15T10:49:46Z</time>
      </trkpt>
      <trkpt lat="42.74789" lon="-0.04665">
        <ele>1612</ele>
        <time>2013-06-15T10:49:52Z</time>
      </trkpt>
      <trkpt lat="42.74792" lon="-0.04662">
        <ele>1612</ele>
        <time>2013-06-15T10:49:59Z</time>
      </trkpt>
      <trkpt lat="42.74794" lon="-0.04656">
        <ele>1612</ele>
        <time>2013-06-15T10:50:08Z</time>
      </trkpt>
      <trkpt lat="42.74797" lon="-0.04656">
        <ele>1611</ele>
        <time>2013-06-15T10:50:16Z</time>
      </trkpt>
      <trkpt lat="42.74798" lon="-0.04653">
        <ele>1611</ele>
        <time>2013-06-15T10:50:18Z</time>
      </trkpt>
      <trkpt lat="42.74801" lon="-0.04638">
        <ele>1609</ele>
        <time>2013-06-15T10:50:27Z</time>
      </trkpt>
      <trkpt lat="42.74801" lon="-0.04629">
        <ele>1608</ele>
        <time>2013-06-15T10:50:34Z</time>
      </trkpt>
      <trkpt lat="42.74801" lon="-0.04619">
        <ele>1606</ele>
        <time>2013-06-15T10:50:42Z</time>
      </trkpt>
      <trkpt lat="42.74801" lon="-0.04612">
        <ele>1606</ele>
        <time>2013-06-15T10:50:47Z</time>
      </trkpt>
      <trkpt lat="42.74799" lon="-0.04604">
        <ele>1605</ele>
        <time>2013-06-15T10:50:53Z</time>
      </trkpt>
      <trkpt lat="42.74799" lon="-0.04598">
        <ele>1605</ele>
        <time>2013-06-15T10:50:57Z</time>
      </trkpt>
      <trkpt lat="42.74797" lon="-0.04584">
        <ele>1603</ele>
        <time>2013-06-15T10:51:07Z</time>
      </trkpt>
      <trkpt lat="42.74795" lon="-0.04571">
        <ele>1602</ele>
        <time>2013-06-15T10:51:15Z</time>
      </trkpt>
      <trkpt lat="42.74795" lon="-0.04569">
        <ele>1601</ele>
        <time>2013-06-15T10:51:16Z</time>
      </trkpt>
      <trkpt lat="42.74796" lon="-0.04566">
        <ele>1601</ele>
        <time>2013-06-15T10:51:18Z</time>
      </trkpt>
      <trkpt lat="42.74793" lon="-0.04552">
        <ele>1600</ele>
        <time>2013-06-15T10:51:27Z</time>
      </trkpt>
      <trkpt lat="42.74793" lon="-0.04541">
        <ele>1599</ele>
        <time>2013-06-15T10:51:34Z</time>
      </trkpt>
      <trkpt lat="42.74793" lon="-0.04529">
        <ele>1598</ele>
        <time>2013-06-15T10:51:42Z</time>
      </trkpt>
      <trkpt lat="42.74793" lon="-0.04528">
        <ele>1598</ele>
        <time>2013-06-15T10:51:43Z</time>
      </trkpt>
      <trkpt lat="42.7479" lon="-0.04514">
        <ele>1596</ele>
        <time>2013-06-15T10:51:52Z</time>
      </trkpt>
      <trkpt lat="42.74789" lon="-0.04501">
        <ele>1595</ele>
        <time>2013-06-15T10:52:00Z</time>
      </trkpt>
      <trkpt lat="42.74786" lon="-0.04483">
        <ele>1593</ele>
        <time>2013-06-15T10:52:11Z</time>
      </trkpt>
      <trkpt lat="42.74784" lon="-0.0447">
        <ele>1591</ele>
        <time>2013-06-15T10:52:19Z</time>
      </trkpt>
      <trkpt lat="42.74782" lon="-0.04455">
        <ele>1590</ele>
        <time>2013-06-15T10:52:28Z</time>
      </trkpt>
      <trkpt lat="42.74783" lon="-0.0444">
        <ele>1588</ele>
        <time>2013-06-15T10:52:37Z</time>
      </trkpt>
      <trkpt lat="42.74786" lon="-0.04428">
        <ele>1587</ele>
        <time>2013-06-15T10:52:45Z</time>
      </trkpt>
      <trkpt lat="42.74786" lon="-0.04426">
        <ele>1587</ele>
        <time>2013-06-15T10:52:46Z</time>
      </trkpt>
      <trkpt lat="42.74787" lon="-0.04421">
        <ele>1586</ele>
        <time>2013-06-15T10:52:50Z</time>
      </trkpt>
      <trkpt lat="42.74786" lon="-0.0441">
        <ele>1585</ele>
        <time>2013-06-15T10:52:59Z</time>
      </trkpt>
      <trkpt lat="42.74785" lon="-0.04401">
        <ele>1584</ele>
        <time>2013-06-15T10:53:05Z</time>
      </trkpt>
      <trkpt lat="42.74779" lon="-0.04387">
        <ele>1582</ele>
        <time>2013-06-15T10:53:16Z</time>
      </trkpt>
      <trkpt lat="42.74776" lon="-0.04376">
        <ele>1581</ele>
        <time>2013-06-15T10:53:24Z</time>
      </trkpt>
      <trkpt lat="42.74773" lon="-0.04366">
        <ele>1580</ele>
        <time>2013-06-15T10:53:31Z</time>
      </trkpt>
      <trkpt lat="42.74773" lon="-0.04362">
        <ele>1579</ele>
        <time>2013-06-15T10:53:34Z</time>
      </trkpt>
      <trkpt lat="42.74773" lon="-0.04359">
        <ele>1579</ele>
        <time>2013-06-15T10:53:36Z</time>
      </trkpt>
      <trkpt lat="42.74771" lon="-0.0435">
        <ele>1578</ele>
        <time>2013-06-15T10:53:43Z</time>
      </trkpt>
      <trkpt lat="42.74769" lon="-0.04336">
        <ele>1577</ele>
        <time>2013-06-15T10:53:52Z</time>
      </trkpt>
      <trkpt lat="42.74772" lon="-0.04326">
        <ele>1576</ele>
        <time>2013-06-15T10:53:58Z</time>
      </trkpt>
      <trkpt lat="42.74778" lon="-0.04314">
        <ele>1574</ele>
        <time>2013-06-15T10:54:08Z</time>
      </trkpt>
      <trkpt lat="42.74784" lon="-0.04302">
        <ele>1572</ele>
        <time>2013-06-15T10:54:16Z</time>
      </trkpt>
      <trkpt lat="42.74785" lon="-0.04298">
        <ele>1572</ele>
        <time>2013-06-15T10:54:18Z</time>
      </trkpt>
      <trkpt lat="42.74787" lon="-0.04297">
        <ele>1571</ele>
        <time>2013-06-15T10:54:20Z</time>
      </trkpt>
      <trkpt lat="42.74792" lon="-0.04284">
        <ele>1570</ele>
        <time>2013-06-15T10:54:28Z</time>
      </trkpt>
      <trkpt lat="42.74797" lon="-0.04274">
        <ele>1569</ele>
        <time>2013-06-15T10:54:35Z</time>
      </trkpt>
      <trkpt lat="42.74804" lon="-0.04262">
        <ele>1568</ele>
        <time>2013-06-15T10:54:44Z</time>
      </trkpt>
      <trkpt lat="42.74805" lon="-0.0426">
        <ele>1568</ele>
        <time>2013-06-15T10:54:45Z</time>
      </trkpt>
      <trkpt lat="42.74806" lon="-0.04256">
        <ele>1567</ele>
        <time>2013-06-15T10:54:48Z</time>
      </trkpt>
      <trkpt lat="42.74806" lon="-0.04251">
        <ele>1567</ele>
        <time>2013-06-15T10:54:51Z</time>
      </trkpt>
      <trkpt lat="42.74808" lon="-0.04248">
        <ele>1567</ele>
        <time>2013-06-15T10:54:53Z</time>
      </trkpt>
      <trkpt lat="42.74813" lon="-0.04245">
        <ele>1566</ele>
        <time>2013-06-15T10:54:58Z</time>
      </trkpt>
      <trkpt lat="42.74815" lon="-0.04241">
        <ele>1566</ele>
        <time>2013-06-15T10:55:05Z</time>
      </trkpt>
      <trkpt lat="42.7482" lon="-0.04237">
        <ele>1566</ele>
        <time>2013-06-15T10:55:18Z</time>
      </trkpt>
      <trkpt lat="42.74824" lon="-0.04221">
        <ele>1565</ele>
        <time>2013-06-15T10:55:41Z</time>
      </trkpt>
      <trkpt lat="42.74825" lon="-0.04219">
        <ele>1565</ele>
        <time>2013-06-15T10:55:45Z</time>
      </trkpt>
      <trkpt lat="42.7482" lon="-0.04241">
        <ele>1566</ele>
        <time>2013-06-15T10:55:53Z</time>
      </trkpt>
      <trkpt lat="42.74812" lon="-0.04243">
        <ele>1567</ele>
        <time>2013-06-15T10:56:00Z</time>
      </trkpt>
      <trkpt lat="42.74814" lon="-0.04242">
        <ele>1566</ele>
        <time>2013-06-15T10:56:06Z</time>
      </trkpt>
      <trkpt lat="42.74817" lon="-0.04237">
        <ele>1567</ele>
        <time>2013-06-15T10:56:14Z</time>
      </trkpt>
      <trkpt lat="42.74817" lon="-0.04233">
        <ele>1567</ele>
        <time>2013-06-15T10:56:22Z</time>
      </trkpt>
      <trkpt lat="42.74816" lon="-0.0423">
        <ele>1568</ele>
        <time>2013-06-15T10:56:29Z</time>
      </trkpt>
      <trkpt lat="42.74813" lon="-0.04225">
        <ele>1568</ele>
        <time>2013-06-15T10:56:37Z</time>
      </trkpt>
      <trkpt lat="42.74813" lon="-0.04219">
        <ele>1569</ele>
        <time>2013-06-15T10:56:46Z</time>
      </trkpt>
      <trkpt lat="42.74812" lon="-0.04214">
        <ele>1568</ele>
        <time>2013-06-15T10:56:52Z</time>
      </trkpt>
      <trkpt lat="42.7481" lon="-0.04208">
        <ele>1569</ele>
        <time>2013-06-15T10:57:02Z</time>
      </trkpt>
      <trkpt lat="42.74811" lon="-0.04205">
        <ele>1568</ele>
        <time>2013-06-15T10:57:09Z</time>
      </trkpt>
      <trkpt lat="42.7481" lon="-0.04199">
        <ele>1569</ele>
        <time>2013-06-15T10:57:18Z</time>
      </trkpt>
      <trkpt lat="42.74808" lon="-0.04193">
        <ele>1568</ele>
        <time>2013-06-15T10:57:27Z</time>
      </trkpt>
      <trkpt lat="42.74808" lon="-0.0419">
        <ele>1569</ele>
        <time>2013-06-15T10:57:34Z</time>
      </trkpt>
      <trkpt lat="42.74809" lon="-0.04185">
        <ele>1568</ele>
        <time>2013-06-15T10:57:42Z</time>
      </trkpt>
      <trkpt lat="42.74808" lon="-0.04183">
        <ele>1567</ele>
        <time>2013-06-15T10:57:49Z</time>
      </trkpt>
      <trkpt lat="42.74807" lon="-0.04176">
        <ele>1566</ele>
        <time>2013-06-15T10:57:58Z</time>
      </trkpt>
      <trkpt lat="42.74808" lon="-0.04172">
        <ele>1565</ele>
        <time>2013-06-15T10:58:05Z</time>
      </trkpt>
      <trkpt lat="42.74808" lon="-0.04167">
        <ele>1564</ele>
        <time>2013-06-15T10:58:13Z</time>
      </trkpt>
      <trkpt lat="42.74809" lon="-0.04164">
        <ele>1564</ele>
        <time>2013-06-15T10:58:22Z</time>
      </trkpt>
      <trkpt lat="42.74812" lon="-0.0416">
        <ele>1564</ele>
        <time>2013-06-15T10:58:30Z</time>
      </trkpt>
      <trkpt lat="42.7481" lon="-0.04156">
        <ele>1563</ele>
        <time>2013-06-15T10:58:39Z</time>
      </trkpt>
      <trkpt lat="42.74808" lon="-0.0415">
        <ele>1562</ele>
        <time>2013-06-15T10:58:50Z</time>
      </trkpt>
      <trkpt lat="42.74808" lon="-0.04145">
        <ele>1561</ele>
        <time>2013-06-15T10:58:58Z</time>
      </trkpt>
      <trkpt lat="42.74809" lon="-0.04142">
        <ele>1560</ele>
        <time>2013-06-15T10:59:05Z</time>
      </trkpt>
      <trkpt lat="42.74812" lon="-0.04138">
        <ele>1560</ele>
        <time>2013-06-15T10:59:12Z</time>
      </trkpt>
      <trkpt lat="42.74813" lon="-0.04134">
        <ele>1559</ele>
        <time>2013-06-15T10:59:21Z</time>
      </trkpt>
      <trkpt lat="42.74814" lon="-0.0413">
        <ele>1559</ele>
        <time>2013-06-15T10:59:29Z</time>
      </trkpt>
      <trkpt lat="42.74814" lon="-0.04125">
        <ele>1558</ele>
        <time>2013-06-15T10:59:36Z</time>
      </trkpt>
      <trkpt lat="42.74812" lon="-0.04123">
        <ele>1557</ele>
        <time>2013-06-15T10:59:38Z</time>
      </trkpt>
      <trkpt lat="42.74811" lon="-0.04109">
        <ele>1556</ele>
        <time>2013-06-15T10:59:47Z</time>
      </trkpt>
      <trkpt lat="42.74808" lon="-0.04092">
        <ele>1555</ele>
        <time>2013-06-15T10:59:56Z</time>
      </trkpt>
      <trkpt lat="42.74804" lon="-0.04076">
        <ele>1554</ele>
        <time>2013-06-15T11:00:06Z</time>
      </trkpt>
      <trkpt lat="42.74802" lon="-0.04059">
        <ele>1553</ele>
        <time>2013-06-15T11:00:16Z</time>
      </trkpt>
      <trkpt lat="42.748" lon="-0.04044">
        <ele>1552</ele>
        <time>2013-06-15T11:00:25Z</time>
      </trkpt>
      <trkpt lat="42.748" lon="-0.04035">
        <ele>1551</ele>
        <time>2013-06-15T11:00:32Z</time>
      </trkpt>
      <trkpt lat="42.74798" lon="-0.04021">
        <ele>1550</ele>
        <time>2013-06-15T11:00:41Z</time>
      </trkpt>
      <trkpt lat="42.74797" lon="-0.04006">
        <ele>1548</ele>
        <time>2013-06-15T11:00:50Z</time>
      </trkpt>
      <trkpt lat="42.74796" lon="-0.03995">
        <ele>1547</ele>
        <time>2013-06-15T11:00:57Z</time>
      </trkpt>
      <trkpt lat="42.74799" lon="-0.03982">
        <ele>1546</ele>
        <time>2013-06-15T11:01:05Z</time>
      </trkpt>
      <trkpt lat="42.74799" lon="-0.03981">
        <ele>1546</ele>
        <time>2013-06-15T11:01:06Z</time>
      </trkpt>
      <trkpt lat="42.74799" lon="-0.03974">
        <ele>1546</ele>
        <time>2013-06-15T11:01:10Z</time>
      </trkpt>
      <trkpt lat="42.74795" lon="-0.03961">
        <ele>1545</ele>
        <time>2013-06-15T11:01:18Z</time>
      </trkpt>
      <trkpt lat="42.74795" lon="-0.03959">
        <ele>1545</ele>
        <time>2013-06-15T11:01:19Z</time>
      </trkpt>
      <trkpt lat="42.74795" lon="-0.03955">
        <ele>1545</ele>
        <time>2013-06-15T11:01:21Z</time>
      </trkpt>
      <trkpt lat="42.74791" lon="-0.03951">
        <ele>1545</ele>
        <time>2013-06-15T11:01:24Z</time>
      </trkpt>
      <trkpt lat="42.74789" lon="-0.03949">
        <ele>1544</ele>
        <time>2013-06-15T11:01:26Z</time>
      </trkpt>
      <trkpt lat="42.74788" lon="-0.03944">
        <ele>1544</ele>
        <time>2013-06-15T11:01:29Z</time>
      </trkpt>
      <trkpt lat="42.74788" lon="-0.03937">
        <ele>1544</ele>
        <time>2013-06-15T11:01:34Z</time>
      </trkpt>
      <trkpt lat="42.7479" lon="-0.03931">
        <ele>1543</ele>
        <time>2013-06-15T11:01:39Z</time>
      </trkpt>
      <trkpt lat="42.74791" lon="-0.03922">
        <ele>1542</ele>
        <time>2013-06-15T11:01:46Z</time>
      </trkpt>
      <trkpt lat="42.74792" lon="-0.03907">
        <ele>1541</ele>
        <time>2013-06-15T11:01:52Z</time>
      </trkpt>
      <trkpt lat="42.74789" lon="-0.03894">
        <ele>1540</ele>
        <time>2013-06-15T11:01:59Z</time>
      </trkpt>
      <trkpt lat="42.74787" lon="-0.03882">
        <ele>1539</ele>
        <time>2013-06-15T11:02:06Z</time>
      </trkpt>
      <trkpt lat="42.74786" lon="-0.03872">
        <ele>1539</ele>
        <time>2013-06-15T11:02:12Z</time>
      </trkpt>
      <trkpt lat="42.74783" lon="-0.03858">
        <ele>1539</ele>
        <time>2013-06-15T11:02:21Z</time>
      </trkpt>
      <trkpt lat="42.74782" lon="-0.03847">
        <ele>1538</ele>
        <time>2013-06-15T11:02:28Z</time>
      </trkpt>
      <trkpt lat="42.7478" lon="-0.03834">
        <ele>1537</ele>
        <time>2013-06-15T11:02:37Z</time>
      </trkpt>
      <trkpt lat="42.7478" lon="-0.0382">
        <ele>1536</ele>
        <time>2013-06-15T11:02:48Z</time>
      </trkpt>
      <trkpt lat="42.74758" lon="-0.03792">
        <ele>1532</ele>
        <time>2013-06-15T11:03:43Z</time>
      </trkpt>
      <trkpt lat="42.74758" lon="-0.03797">
        <ele>1532</ele>
        <time>2013-06-15T11:03:45Z</time>
      </trkpt>
      <trkpt lat="42.74743" lon="-0.03798">
        <ele>1532</ele>
        <time>2013-06-15T11:03:50Z</time>
      </trkpt>
      <trkpt lat="42.74736" lon="-0.03776">
        <ele>1532</ele>
        <time>2013-06-15T11:03:58Z</time>
      </trkpt>
      <trkpt lat="42.74729" lon="-0.03768">
        <ele>1530</ele>
        <time>2013-06-15T11:04:05Z</time>
      </trkpt>
      <trkpt lat="42.74721" lon="-0.03764">
        <ele>1529</ele>
        <time>2013-06-15T11:04:13Z</time>
      </trkpt>
      <trkpt lat="42.74716" lon="-0.0376">
        <ele>1528</ele>
        <time>2013-06-15T11:04:18Z</time>
      </trkpt>
      <trkpt lat="42.74709" lon="-0.03752">
        <ele>1527</ele>
        <time>2013-06-15T11:04:25Z</time>
      </trkpt>
      <trkpt lat="42.74701" lon="-0.03742">
        <ele>1526</ele>
        <time>2013-06-15T11:04:34Z</time>
      </trkpt>
      <trkpt lat="42.74694" lon="-0.03732">
        <ele>1525</ele>
        <time>2013-06-15T11:04:43Z</time>
      </trkpt>
      <trkpt lat="42.74688" lon="-0.03723">
        <ele>1523</ele>
        <time>2013-06-15T11:04:50Z</time>
      </trkpt>
      <trkpt lat="42.74683" lon="-0.0371">
        <ele>1522</ele>
        <time>2013-06-15T11:04:59Z</time>
      </trkpt>
      <trkpt lat="42.74681" lon="-0.03699">
        <ele>1521</ele>
        <time>2013-06-15T11:05:06Z</time>
      </trkpt>
      <trkpt lat="42.74677" lon="-0.03683">
        <ele>1520</ele>
        <time>2013-06-15T11:05:16Z</time>
      </trkpt>
      <trkpt lat="42.74673" lon="-0.03671">
        <ele>1519</ele>
        <time>2013-06-15T11:05:25Z</time>
      </trkpt>
      <trkpt lat="42.74673" lon="-0.03667">
        <ele>1519</ele>
        <time>2013-06-15T11:05:32Z</time>
      </trkpt>
      <trkpt lat="42.74673" lon="-0.03662">
        <ele>1519</ele>
        <time>2013-06-15T11:05:40Z</time>
      </trkpt>
      <trkpt lat="42.74672" lon="-0.0366">
        <ele>1520</ele>
        <time>2013-06-15T11:05:49Z</time>
      </trkpt>
      <trkpt lat="42.7467" lon="-0.03659">
        <ele>1520</ele>
        <time>2013-06-15T11:06:03Z</time>
      </trkpt>
      <trkpt lat="42.74669" lon="-0.03661">
        <ele>1520</ele>
        <time>2013-06-15T11:06:14Z</time>
      </trkpt>
      <trkpt lat="42.74668" lon="-0.03665">
        <ele>1521</ele>
        <time>2013-06-15T11:06:24Z</time>
      </trkpt>
      <trkpt lat="42.74665" lon="-0.03657">
        <ele>1521</ele>
        <time>2013-06-15T11:06:32Z</time>
      </trkpt>
      <trkpt lat="42.74664" lon="-0.03654">
        <ele>1522</ele>
        <time>2013-06-15T11:06:38Z</time>
      </trkpt>
      <trkpt lat="42.74662" lon="-0.0365">
        <ele>1522</ele>
        <time>2013-06-15T11:06:44Z</time>
      </trkpt>
      <trkpt lat="42.74659" lon="-0.03645">
        <ele>1521</ele>
        <time>2013-06-15T11:06:51Z</time>
      </trkpt>
      <trkpt lat="42.74658" lon="-0.0364">
        <ele>1519</ele>
        <time>2013-06-15T11:06:59Z</time>
      </trkpt>
      <trkpt lat="42.74656" lon="-0.03636">
        <ele>1519</ele>
        <time>2013-06-15T11:07:08Z</time>
      </trkpt>
      <trkpt lat="42.74655" lon="-0.03631">
        <ele>1518</ele>
        <time>2013-06-15T11:07:15Z</time>
      </trkpt>
      <trkpt lat="42.74654" lon="-0.03627">
        <ele>1517</ele>
        <time>2013-06-15T11:07:22Z</time>
      </trkpt>
      <trkpt lat="42.74655" lon="-0.03625">
        <ele>1517</ele>
        <time>2013-06-15T11:07:31Z</time>
      </trkpt>
      <trkpt lat="42.74655" lon="-0.03623">
        <ele>1516</ele>
        <time>2013-06-15T11:07:34Z</time>
      </trkpt>
      <trkpt lat="42.74651" lon="-0.03617">
        <ele>1514</ele>
        <time>2013-06-15T11:07:42Z</time>
      </trkpt>
      <trkpt lat="42.74649" lon="-0.03615">
        <ele>1514</ele>
        <time>2013-06-15T11:07:50Z</time>
      </trkpt>
      <trkpt lat="42.74646" lon="-0.0361">
        <ele>1511</ele>
        <time>2013-06-15T11:07:59Z</time>
      </trkpt>
      <trkpt lat="42.74646" lon="-0.03608">
        <ele>1511</ele>
        <time>2013-06-15T11:08:06Z</time>
      </trkpt>
      <trkpt lat="42.74647" lon="-0.03606">
        <ele>1510</ele>
        <time>2013-06-15T11:08:12Z</time>
      </trkpt>
      <trkpt lat="42.7465" lon="-0.03604">
        <ele>1511</ele>
        <time>2013-06-15T11:08:20Z</time>
      </trkpt>
      <trkpt lat="42.74651" lon="-0.03601">
        <ele>1510</ele>
        <time>2013-06-15T11:08:29Z</time>
      </trkpt>
      <trkpt lat="42.74653" lon="-0.036">
        <ele>1511</ele>
        <time>2013-06-15T11:08:37Z</time>
      </trkpt>
      <trkpt lat="42.74653" lon="-0.03597">
        <ele>1512</ele>
        <time>2013-06-15T11:08:45Z</time>
      </trkpt>
      <trkpt lat="42.74653" lon="-0.03595">
        <ele>1512</ele>
        <time>2013-06-15T11:08:53Z</time>
      </trkpt>
      <trkpt lat="42.74655" lon="-0.03596">
        <ele>1512</ele>
        <time>2013-06-15T11:09:04Z</time>
      </trkpt>
      <trkpt lat="42.74655" lon="-0.03595">
        <ele>1512</ele>
        <time>2013-06-15T11:09:17Z</time>
      </trkpt>
      <trkpt lat="42.74653" lon="-0.03588">
        <ele>1513</ele>
        <time>2013-06-15T11:09:25Z</time>
      </trkpt>
      <trkpt lat="42.74653" lon="-0.03588">
        <ele>1515</ele>
        <time>2013-06-15T11:09:31Z</time>
      </trkpt>
      <trkpt lat="42.74656" lon="-0.03589">
        <ele>1514</ele>
        <time>2013-06-15T11:09:37Z</time>
      </trkpt>
      <trkpt lat="42.74659" lon="-0.0359">
        <ele>1514</ele>
        <time>2013-06-15T11:09:47Z</time>
      </trkpt>
      <trkpt lat="42.74662" lon="-0.03588">
        <ele>1514</ele>
        <time>2013-06-15T11:09:58Z</time>
      </trkpt>
      <trkpt lat="42.74662" lon="-0.03591">
        <ele>1514</ele>
        <time>2013-06-15T11:10:16Z</time>
      </trkpt>
      <trkpt lat="42.74667" lon="-0.03589">
        <ele>1514</ele>
        <time>2013-06-15T11:10:31Z</time>
      </trkpt>
      <trkpt lat="42.74666" lon="-0.03589">
        <ele>1514</ele>
        <time>2013-06-15T11:10:54Z</time>
      </trkpt>
      <trkpt lat="42.74665" lon="-0.03589">
        <ele>1514</ele>
        <time>2013-06-15T11:11:14Z</time>
      </trkpt>
      <trkpt lat="42.74666" lon="-0.03591">
        <ele>1514</ele>
        <time>2013-06-15T11:11:29Z</time>
      </trkpt>
      <trkpt lat="42.74662" lon="-0.03594">
        <ele>1515</ele>
        <time>2013-06-15T11:11:38Z</time>
      </trkpt>
      <trkpt lat="42.74656" lon="-0.03593">
        <ele>1515</ele>
        <time>2013-06-15T11:11:48Z</time>
      </trkpt>
      <trkpt lat="42.74645" lon="-0.03593">
        <ele>1514</ele>
        <time>2013-06-15T11:11:59Z</time>
      </trkpt>
      <trkpt lat="42.74641" lon="-0.036">
        <ele>1514</ele>
        <time>2013-06-15T11:12:05Z</time>
      </trkpt>
      <trkpt lat="42.74636" lon="-0.03596">
        <ele>1514</ele>
        <time>2013-06-15T11:12:09Z</time>
      </trkpt>
      <trkpt lat="42.74639" lon="-0.03586">
        <ele>1513</ele>
        <time>2013-06-15T11:12:13Z</time>
      </trkpt>
      <trkpt lat="42.74639" lon="-0.03575">
        <ele>1514</ele>
        <time>2013-06-15T11:12:18Z</time>
      </trkpt>
      <trkpt lat="42.7464" lon="-0.03559">
        <ele>1513</ele>
        <time>2013-06-15T11:12:26Z</time>
      </trkpt>
      <trkpt lat="42.74641" lon="-0.03547">
        <ele>1513</ele>
        <time>2013-06-15T11:12:33Z</time>
      </trkpt>
      <trkpt lat="42.74642" lon="-0.03529">
        <ele>1512</ele>
        <time>2013-06-15T11:12:43Z</time>
      </trkpt>
      <trkpt lat="42.74641" lon="-0.03513">
        <ele>1511</ele>
        <time>2013-06-15T11:12:53Z</time>
      </trkpt>
      <trkpt lat="42.7464" lon="-0.035">
        <ele>1511</ele>
        <time>2013-06-15T11:13:01Z</time>
      </trkpt>
      <trkpt lat="42.7464" lon="-0.03495">
        <ele>1511</ele>
        <time>2013-06-15T11:13:04Z</time>
      </trkpt>
      <trkpt lat="42.74636" lon="-0.03481">
        <ele>1510</ele>
        <time>2013-06-15T11:13:13Z</time>
      </trkpt>
      <trkpt lat="42.74634" lon="-0.03466">
        <ele>1509</ele>
        <time>2013-06-15T11:13:22Z</time>
      </trkpt>
      <trkpt lat="42.74631" lon="-0.03451">
        <ele>1509</ele>
        <time>2013-06-15T11:13:31Z</time>
      </trkpt>
      <trkpt lat="42.74626" lon="-0.03441">
        <ele>1508</ele>
        <time>2013-06-15T11:13:38Z</time>
      </trkpt>
      <trkpt lat="42.74624" lon="-0.03434">
        <ele>1508</ele>
        <time>2013-06-15T11:13:42Z</time>
      </trkpt>
      <trkpt lat="42.74618" lon="-0.03421">
        <ele>1507</ele>
        <time>2013-06-15T11:13:51Z</time>
      </trkpt>
      <trkpt lat="42.74609" lon="-0.03409">
        <ele>1507</ele>
        <time>2013-06-15T11:14:00Z</time>
      </trkpt>
      <trkpt lat="42.74602" lon="-0.03399">
        <ele>1506</ele>
        <time>2013-06-15T11:14:08Z</time>
      </trkpt>
      <trkpt lat="42.74596" lon="-0.03391">
        <ele>1505</ele>
        <time>2013-06-15T11:14:16Z</time>
      </trkpt>
      <trkpt lat="42.74588" lon="-0.03376">
        <ele>1504</ele>
        <time>2013-06-15T11:14:27Z</time>
      </trkpt>
      <trkpt lat="42.74588" lon="-0.03373">
        <ele>1504</ele>
        <time>2013-06-15T11:14:29Z</time>
      </trkpt>
      <trkpt lat="42.74584" lon="-0.03354">
        <ele>1504</ele>
        <time>2013-06-15T11:14:39Z</time>
      </trkpt>
      <trkpt lat="42.74584" lon="-0.03338">
        <ele>1503</ele>
        <time>2013-06-15T11:14:48Z</time>
      </trkpt>
      <trkpt lat="42.74584" lon="-0.03326">
        <ele>1502</ele>
        <time>2013-06-15T11:14:55Z</time>
      </trkpt>
      <trkpt lat="42.74586" lon="-0.03317">
        <ele>1502</ele>
        <time>2013-06-15T11:15:04Z</time>
      </trkpt>
      <trkpt lat="42.7459" lon="-0.03318">
        <ele>1502</ele>
        <time>2013-06-15T11:15:12Z</time>
      </trkpt>
      <trkpt lat="42.74591" lon="-0.0332">
        <ele>1502</ele>
        <time>2013-06-15T11:15:20Z</time>
      </trkpt>
      <trkpt lat="42.74592" lon="-0.03323">
        <ele>1502</ele>
        <time>2013-06-15T11:15:27Z</time>
      </trkpt>
      <trkpt lat="42.74593" lon="-0.03321">
        <ele>1501</ele>
        <time>2013-06-15T11:15:46Z</time>
      </trkpt>
      <trkpt lat="42.74595" lon="-0.0332">
        <ele>1501</ele>
        <time>2013-06-15T11:16:02Z</time>
      </trkpt>
      <trkpt lat="42.74595" lon="-0.03323">
        <ele>1501</ele>
        <time>2013-06-15T11:16:14Z</time>
      </trkpt>
      <trkpt lat="42.74594" lon="-0.03327">
        <ele>1501</ele>
        <time>2013-06-15T11:16:29Z</time>
      </trkpt>
      <trkpt lat="42.74591" lon="-0.03327">
        <ele>1502</ele>
        <time>2013-06-15T11:16:44Z</time>
      </trkpt>
      <trkpt lat="42.74588" lon="-0.03326">
        <ele>1502</ele>
        <time>2013-06-15T11:16:58Z</time>
      </trkpt>
      <trkpt lat="42.7459" lon="-0.03326">
        <ele>1502</ele>
        <time>2013-06-15T11:17:16Z</time>
      </trkpt>
      <trkpt lat="42.74588" lon="-0.03323">
        <ele>1501</ele>
        <time>2013-06-15T11:17:31Z</time>
      </trkpt>
      <trkpt lat="42.74587" lon="-0.03324">
        <ele>1502</ele>
        <time>2013-06-15T11:17:48Z</time>
      </trkpt>
      <trkpt lat="42.74588" lon="-0.03325">
        <ele>1502</ele>
        <time>2013-06-15T11:18:02Z</time>
      </trkpt>
      <trkpt lat="42.74586" lon="-0.03324">
        <ele>1502</ele>
        <time>2013-06-15T11:18:18Z</time>
      </trkpt>
      <trkpt lat="42.74586" lon="-0.03324">
        <ele>1502</ele>
        <time>2013-06-15T11:18:32Z</time>
      </trkpt>
      <trkpt lat="42.74585" lon="-0.03325">
        <ele>1502</ele>
        <time>2013-06-15T11:18:51Z</time>
      </trkpt>
      <trkpt lat="42.74587" lon="-0.03328">
        <ele>1502</ele>
        <time>2013-06-15T11:19:02Z</time>
      </trkpt>
      <trkpt lat="42.74588" lon="-0.03327">
        <ele>1502</ele>
        <time>2013-06-15T11:19:13Z</time>
      </trkpt>
      <trkpt lat="42.74589" lon="-0.03326">
        <ele>1502</ele>
        <time>2013-06-15T11:19:26Z</time>
      </trkpt>
      <trkpt lat="42.74591" lon="-0.03321">
        <ele>1502</ele>
        <time>2013-06-15T11:19:44Z</time>
      </trkpt>
      <trkpt lat="42.74591" lon="-0.03319">
        <ele>1502</ele>
        <time>2013-06-15T11:20:02Z</time>
      </trkpt>
      <trkpt lat="42.74589" lon="-0.03318">
        <ele>1502</ele>
        <time>2013-06-15T11:20:17Z</time>
      </trkpt>
      <trkpt lat="42.74588" lon="-0.03318">
        <ele>1502</ele>
        <time>2013-06-15T11:20:29Z</time>
      </trkpt>
      <trkpt lat="42.7459" lon="-0.0332">
        <ele>1502</ele>
        <time>2013-06-15T11:20:43Z</time>
      </trkpt>
      <trkpt lat="42.74589" lon="-0.03321">
        <ele>1502</ele>
        <time>2013-06-15T11:20:56Z</time>
      </trkpt>
      <trkpt lat="42.74588" lon="-0.0332">
        <ele>1502</ele>
        <time>2013-06-15T11:21:07Z</time>
      </trkpt>
      <trkpt lat="42.74589" lon="-0.0332">
        <ele>1503</ele>
        <time>2013-06-15T11:21:27Z</time>
      </trkpt>
      <trkpt lat="42.7459" lon="-0.03321">
        <ele>1503</ele>
        <time>2013-06-15T11:21:43Z</time>
      </trkpt>
      <trkpt lat="42.74591" lon="-0.03324">
        <ele>1503</ele>
        <time>2013-06-15T11:21:59Z</time>
      </trkpt>
      <trkpt lat="42.7459" lon="-0.03321">
        <ele>1504</ele>
        <time>2013-06-15T11:22:18Z</time>
      </trkpt>
      <trkpt lat="42.74589" lon="-0.03321">
        <ele>1503</ele>
        <time>2013-06-15T11:22:32Z</time>
      </trkpt>
      <trkpt lat="42.74588" lon="-0.03321">
        <ele>1503</ele>
        <time>2013-06-15T11:22:48Z</time>
      </trkpt>
      <trkpt lat="42.7459" lon="-0.03323">
        <ele>1503</ele>
        <time>2013-06-15T11:23:01Z</time>
      </trkpt>
      <trkpt lat="42.74591" lon="-0.03327">
        <ele>1503</ele>
        <time>2013-06-15T11:23:18Z</time>
      </trkpt>
      <trkpt lat="42.74592" lon="-0.03329">
        <ele>1503</ele>
        <time>2013-06-15T11:23:32Z</time>
      </trkpt>
      <trkpt lat="42.74592" lon="-0.0333">
        <ele>1503</ele>
        <time>2013-06-15T11:23:48Z</time>
      </trkpt>
      <trkpt lat="42.74596" lon="-0.03329">
        <ele>1502</ele>
        <time>2013-06-15T11:24:03Z</time>
      </trkpt>
      <trkpt lat="42.74594" lon="-0.03328">
        <ele>1502</ele>
        <time>2013-06-15T11:24:16Z</time>
      </trkpt>
      <trkpt lat="42.74592" lon="-0.03328">
        <ele>1503</ele>
        <time>2013-06-15T11:24:38Z</time>
      </trkpt>
      <trkpt lat="42.7459" lon="-0.03327">
        <ele>1503</ele>
        <time>2013-06-15T11:24:54Z</time>
      </trkpt>
      <trkpt lat="42.74589" lon="-0.03327">
        <ele>1504</ele>
        <time>2013-06-15T11:25:12Z</time>
      </trkpt>
      <trkpt lat="42.7459" lon="-0.03325">
        <ele>1503</ele>
        <time>2013-06-15T11:25:31Z</time>
      </trkpt>
      <trkpt lat="42.74587" lon="-0.03326">
        <ele>1503</ele>
        <time>2013-06-15T11:25:45Z</time>
      </trkpt>
      <trkpt lat="42.74589" lon="-0.03329">
        <ele>1503</ele>
        <time>2013-06-15T11:26:04Z</time>
      </trkpt>
      <trkpt lat="42.74592" lon="-0.03325">
        <ele>1503</ele>
        <time>2013-06-15T11:26:22Z</time>
      </trkpt>
      <trkpt lat="42.7459" lon="-0.03325">
        <ele>1502</ele>
        <time>2013-06-15T11:26:29Z</time>
      </trkpt>
      <trkpt lat="42.7459" lon="-0.03325">
        <ele>1503</ele>
        <time>2013-06-15T11:26:30Z</time>
      </trkpt>
    </trkseg>
  </trk>
</gpx>